<?xml version="1.0" encoding="UTF-8" standalone="no" ?><gpx xmlns="http://www.topografix.com/GPX/1/1" xmlns:gpxx="http://www.garmin.com/xmlschemas/GpxExtensions/v3" xmlns:wptx1="http://www.garmin.com/xmlschemas/WaypointExtension/v1" xmlns:gpxtpx="http://www.garmin.com/xmlschemas/TrackPointExtension/v1" creator="GuideVTT.com" version="1.1" xmlns:xsi="http://www.w3.org/2001/XMLSchema-instance" xsi:schemaLocation="http://www.topografix.com/GPX/1/1 http://www.topografix.com/GPX/1/1/gpx.xsd http://www.garmin.com/xmlschemas/GpxExtensions/v3 http://www8.garmin.com/xmlschemas/GpxExtensionsv3.xsd http://www.garmin.com/xmlschemas/WaypointExtension/v1 http://www8.garmin.com/xmlschemas/WaypointExtensionv1.xsd http://www.garmin.com/xmlschemas/TrackPointExtension/v1 http://www.garmin.com/xmlschemas/TrackPointExtensionv1.xsd">
<metadata><link href="http://www.garmin.com"><text>Garmin International</text></link><time>2013-06-22T15:13:50Z</time></metadata>
<trk><name>grandchamp.gpx</name><extensions><gpxx:TrackExtension><gpxx:DisplayColor>Cyan</gpxx:DisplayColor></gpxx:TrackExtension></extensions><trkseg>
<trkpt lat="45.67784700" lon="4.75192200"><ele>210.0000000144</ele><time>2006-10-01T08:38:45Z</time></trkpt>
<trkpt lat="45.67768400" lon="4.75154500"><ele>210.0000000144</ele><time>2006-10-01T08:38:59Z</time></trkpt>
<trkpt lat="45.67736900" lon="4.75080000"><ele>210.0000000144</ele><time>2006-10-01T08:39:13Z</time></trkpt>
<trkpt lat="45.67722700" lon="4.75040700"><ele>211.3999939632</ele><time>2006-10-01T08:39:23Z</time></trkpt>
<trkpt lat="45.67744600" lon="4.75014900"><ele>211.1999970048</ele><time>2006-10-01T08:39:28Z</time></trkpt>
<trkpt lat="45.67807300" lon="4.74987100"><ele>211.300003104</ele><time>2006-10-01T08:39:46Z</time></trkpt>
<trkpt lat="45.67837400" lon="4.74974200"><ele>211.1999970048</ele><time>2006-10-01T08:39:55Z</time></trkpt>
<trkpt lat="45.67890600" lon="4.74916600"><ele>212.800003152</ele><time>2006-10-01T08:40:10Z</time></trkpt>
<trkpt lat="45.67915000" lon="4.74841400"><ele>215.9999999016</ele><time>2006-10-01T08:40:26Z</time></trkpt>
<trkpt lat="45.67969400" lon="4.74794600"><ele>217.1000060328</ele><time>2006-10-01T08:40:44Z</time></trkpt>
<trkpt lat="45.67987600" lon="4.74782800"><ele>217.3000029912</ele><time>2006-10-01T08:40:49Z</time></trkpt>
<trkpt lat="45.68022300" lon="4.74778000"><ele>216.3999938184</ele><time>2006-10-01T08:40:56Z</time></trkpt>
<trkpt lat="45.68043700" lon="4.74784400"><ele>215.1000059688</ele><time>2006-10-01T08:41:00Z</time></trkpt>
<trkpt lat="45.68065000" lon="4.74791800"><ele>213.800003184</ele><time>2006-10-01T08:41:04Z</time></trkpt>
<trkpt lat="45.68095500" lon="4.74784900"><ele>213.0000001104</ele><time>2006-10-01T08:41:11Z</time></trkpt>
<trkpt lat="45.68167800" lon="4.74717000"><ele>216.4999999176</ele><time>2006-10-01T08:41:27Z</time></trkpt>
<trkpt lat="45.68208600" lon="4.74699900"><ele>215.3999937864</ele><time>2006-10-01T08:41:35Z</time></trkpt>
<trkpt lat="45.68242000" lon="4.74675500"><ele>216.4999999176</ele><time>2006-10-01T08:41:42Z</time></trkpt>
<trkpt lat="45.68316700" lon="4.74616000"><ele>218.6000060808</ele><time>2006-10-01T08:41:59Z</time></trkpt>
<trkpt lat="45.68331400" lon="4.74609500"><ele>218.3999938824</ele><time>2006-10-01T08:42:02Z</time></trkpt>
<trkpt lat="45.68382400" lon="4.74590900"><ele>217.1000060328</ele><time>2006-10-01T08:42:11Z</time></trkpt>
<trkpt lat="45.68404100" lon="4.74565400"><ele>217.9999999656</ele><time>2006-10-01T08:42:16Z</time></trkpt>
<trkpt lat="45.68428400" lon="4.74582500"><ele>216.19999686</ele><time>2006-10-01T08:42:23Z</time></trkpt>
<trkpt lat="45.68442900" lon="4.74628000"><ele>215.699996844</ele><time>2006-10-01T08:42:28Z</time></trkpt>
<trkpt lat="45.68465600" lon="4.74698800"><ele>214.8999937704</ele><time>2006-10-01T08:42:35Z</time></trkpt>
<trkpt lat="45.68472300" lon="4.74719800"><ele>214.9999998696</ele><time>2006-10-01T08:42:37Z</time></trkpt>
<trkpt lat="45.68476100" lon="4.74750700"><ele>215.6000059848</ele><time>2006-10-01T08:42:40Z</time></trkpt>
<trkpt lat="45.68479900" lon="4.74767100"><ele>215.8999938024</ele><time>2006-10-01T08:42:42Z</time></trkpt>
<trkpt lat="45.68499400" lon="4.74784300"><ele>216.9999999336</ele><time>2006-10-01T08:42:46Z</time></trkpt>
<trkpt lat="45.68568400" lon="4.74799700"><ele>221.1000061608</ele><time>2006-10-01T08:42:56Z</time></trkpt>
<trkpt lat="45.68601400" lon="4.74794900"><ele>222.8999940264</ele><time>2006-10-01T08:43:01Z</time></trkpt>
<trkpt lat="45.68618700" lon="4.74789200"><ele>224.3999937696</ele><time>2006-10-01T08:43:04Z</time></trkpt>
<trkpt lat="45.68640200" lon="4.74780300"><ele>227.4999999648</ele><time>2006-10-01T08:43:08Z</time></trkpt>
<trkpt lat="45.68671600" lon="4.74738800"><ele>230.0000000448</ele><time>2006-10-01T08:43:15Z</time></trkpt>
<trkpt lat="45.68699000" lon="4.74688700"><ele>230.1999970032</ele><time>2006-10-01T08:43:22Z</time></trkpt>
<trkpt lat="45.68724700" lon="4.74663000"><ele>231.1999970352</ele><time>2006-10-01T08:43:27Z</time></trkpt>
<trkpt lat="45.68775300" lon="4.74637200"><ele>235.3999938168</ele><time>2006-10-01T08:43:36Z</time></trkpt>
<trkpt lat="45.68792800" lon="4.74608500"><ele>231.6999970512</ele><time>2006-10-01T08:43:42Z</time></trkpt>
<trkpt lat="45.68812500" lon="4.74558300"><ele>230.60000616</ele><time>2006-10-01T08:43:50Z</time></trkpt>
<trkpt lat="45.68826200" lon="4.74396500"><ele>225.8000029584</ele><time>2006-10-01T08:44:04Z</time></trkpt>
<trkpt lat="45.68835500" lon="4.74379500"><ele>227.4999999648</ele><time>2006-10-01T08:44:06Z</time></trkpt>
<trkpt lat="45.68857200" lon="4.74346000"><ele>235.999999932</ele><time>2006-10-01T08:44:11Z</time></trkpt>
<trkpt lat="45.68904900" lon="4.74180200"><ele>238.3000030536</ele><time>2006-10-01T08:44:30Z</time></trkpt>
<trkpt lat="45.68967800" lon="4.74076100"><ele>242.899993752</ele><time>2006-10-01T08:44:44Z</time></trkpt>
<trkpt lat="45.68980100" lon="4.74055600"><ele>242.899993752</ele><time>2006-10-01T08:44:47Z</time></trkpt>
<trkpt lat="45.69026400" lon="4.73949600"><ele>246.6000060624</ele><time>2006-10-01T08:45:00Z</time></trkpt>
<trkpt lat="45.69039800" lon="4.73851000"><ele>235.3999938168</ele><time>2006-10-01T08:45:12Z</time></trkpt>
<trkpt lat="45.69058800" lon="4.73747500"><ele>236.8000030056</ele><time>2006-10-01T08:45:25Z</time></trkpt>
<trkpt lat="45.69061000" lon="4.73723700"><ele>239.1999969864</ele><time>2006-10-01T08:45:28Z</time></trkpt>
<trkpt lat="45.69115800" lon="4.73597900"><ele>239.500000044</ele><time>2006-10-01T08:45:49Z</time></trkpt>
<trkpt lat="45.69120500" lon="4.73556200"><ele>237.1000060632</ele><time>2006-10-01T08:45:55Z</time></trkpt>
<trkpt lat="45.69215000" lon="4.73394200"><ele>231.3999939936</ele><time>2006-10-01T08:46:23Z</time></trkpt>
<trkpt lat="45.69229400" lon="4.73343300"><ele>229.100006112</ele><time>2006-10-01T08:46:30Z</time></trkpt>
<trkpt lat="45.69244800" lon="4.73280300"><ele>233.10000624</ele><time>2006-10-01T08:46:39Z</time></trkpt>
<trkpt lat="45.69245600" lon="4.73260800"><ele>235.6000060152</ele><time>2006-10-01T08:46:42Z</time></trkpt>
<trkpt lat="45.69216000" lon="4.73167800"><ele>240.1999970184</ele><time>2006-10-01T08:46:58Z</time></trkpt>
<trkpt lat="45.69183200" lon="4.73115400"><ele>236.1000060312</ele><time>2006-10-01T08:47:12Z</time></trkpt>
<trkpt lat="45.69153900" lon="4.73067600"><ele>241.8000031656</ele><time>2006-10-01T08:47:26Z</time></trkpt>
<trkpt lat="45.69171700" lon="4.72997800"><ele>253.1999968248</ele><time>2006-10-01T08:47:43Z</time></trkpt>
<trkpt lat="45.69187700" lon="4.72933200"><ele>258.299987844</ele><time>2006-10-01T08:47:58Z</time></trkpt>
<trkpt lat="45.69233700" lon="4.72883500"><ele>263.1000059808</ele><time>2006-10-01T08:48:17Z</time></trkpt>
<trkpt lat="45.69268500" lon="4.72820500"><ele>260.8999940232</ele><time>2006-10-01T08:48:35Z</time></trkpt>
<trkpt lat="45.69279300" lon="4.72835600"><ele>266.1000060768</ele><time>2006-10-01T08:48:43Z</time></trkpt>
<trkpt lat="45.69270900" lon="4.72846400"><ele>265.7999877792</ele><time>2006-10-01T08:48:47Z</time></trkpt>
<trkpt lat="45.69252300" lon="4.72889600"><ele>267.700012224</ele><time>2006-10-01T08:49:01Z</time></trkpt>
<trkpt lat="45.69226200" lon="4.72940300"><ele>263.8999938144</ele><time>2006-10-01T08:49:18Z</time></trkpt>
<trkpt lat="45.69216800" lon="4.72962700"><ele>262.1000062536</ele><time>2006-10-01T08:49:27Z</time></trkpt>
<trkpt lat="45.69247100" lon="4.72929500"><ele>266.200012176</ele><time>2006-10-01T08:49:43Z</time></trkpt>
<trkpt lat="45.69276000" lon="4.72888300"><ele>272.9999998968</ele><time>2006-10-01T08:49:58Z</time></trkpt>
<trkpt lat="45.69293000" lon="4.72864900"><ele>272.3999937816</ele><time>2006-10-01T08:50:07Z</time></trkpt>
<trkpt lat="45.69297900" lon="4.72889000"><ele>277.100006124</ele><time>2006-10-01T08:50:17Z</time></trkpt>
<trkpt lat="45.69287000" lon="4.72897900"><ele>274.2999877464</ele><time>2006-10-01T08:50:22Z</time></trkpt>
<trkpt lat="45.69284000" lon="4.72906900"><ele>272.8999937976</ele><time>2006-10-01T08:50:25Z</time></trkpt>
<trkpt lat="45.69293700" lon="4.72917800"><ele>273.600006012</ele><time>2006-10-01T08:50:31Z</time></trkpt>
<trkpt lat="45.69316600" lon="4.72911600"><ele>278.2000122552</ele><time>2006-10-01T08:50:42Z</time></trkpt>
<trkpt lat="45.69325400" lon="4.72910800"><ele>279.7999879224</ele><time>2006-10-01T08:50:47Z</time></trkpt>
<trkpt lat="45.69328800" lon="4.72892300"><ele>281.99999988</ele><time>2006-10-01T08:50:55Z</time></trkpt>
<trkpt lat="45.69337000" lon="4.72879000"><ele>280.5000001368</ele><time>2006-10-01T08:50:58Z</time></trkpt>
<trkpt lat="45.69343800" lon="4.72873600"><ele>279.7999879224</ele><time>2006-10-01T08:51:00Z</time></trkpt>
<trkpt lat="45.69350600" lon="4.72870600"><ele>279.7000123032</ele><time>2006-10-01T08:51:02Z</time></trkpt>
<trkpt lat="45.69367800" lon="4.72860000"><ele>278.7999878904</ele><time>2006-10-01T08:51:08Z</time></trkpt>
<trkpt lat="45.69376900" lon="4.72853700"><ele>278.5000000728</ele><time>2006-10-01T08:51:12Z</time></trkpt>
<trkpt lat="45.69393200" lon="4.72845300"><ele>279.0000000888</ele><time>2006-10-01T08:51:18Z</time></trkpt>
<trkpt lat="45.69411900" lon="4.72829500"><ele>279.2000122872</ele><time>2006-10-01T08:51:27Z</time></trkpt>
<trkpt lat="45.69414400" lon="4.72800400"><ele>273.3999938136</ele><time>2006-10-01T08:51:34Z</time></trkpt>
<trkpt lat="45.69416900" lon="4.72787100"><ele>271.200012336</ele><time>2006-10-01T08:51:37Z</time></trkpt>
<trkpt lat="45.69429100" lon="4.72754800"><ele>269.2999878912</ele><time>2006-10-01T08:51:44Z</time></trkpt>
<trkpt lat="45.69437500" lon="4.72733300"><ele>269.1000061728</ele><time>2006-10-01T08:51:49Z</time></trkpt>
<trkpt lat="45.69457600" lon="4.72639600"><ele>262.1000062536</ele><time>2006-10-01T08:52:16Z</time></trkpt>
<trkpt lat="45.69450100" lon="4.72635900"><ele>257.7000122088</ele><time>2006-10-01T08:52:19Z</time></trkpt>
<trkpt lat="45.69440600" lon="4.72639400"><ele>253.8999937992</ele><time>2006-10-01T08:52:23Z</time></trkpt>
<trkpt lat="45.69426500" lon="4.72633600"><ele>245.899993848</ele><time>2006-10-01T08:52:35Z</time></trkpt>
<trkpt lat="45.69418500" lon="4.72607400"><ele>237.1999969224</ele><time>2006-10-01T08:52:55Z</time></trkpt>
<trkpt lat="45.69412700" lon="4.72596500"><ele>233.8000029096</ele><time>2006-10-01T08:54:21Z</time></trkpt>
<trkpt lat="45.69428000" lon="4.72526600"><ele>228.1999969392</ele><time>2006-10-01T08:54:44Z</time></trkpt>
<trkpt lat="45.69414200" lon="4.72392900"><ele>234.3000029256</ele><time>2006-10-01T08:55:02Z</time></trkpt>
<trkpt lat="45.69428400" lon="4.72399600"><ele>234.8000029416</ele><time>2006-10-01T08:55:06Z</time></trkpt>
<trkpt lat="45.69454900" lon="4.72416800"><ele>232.6999970832</ele><time>2006-10-01T08:55:16Z</time></trkpt>
<trkpt lat="45.69476700" lon="4.72427300"><ele>231.8000031504</ele><time>2006-10-01T08:55:23Z</time></trkpt>
<trkpt lat="45.69477900" lon="4.72410400"><ele>232.3000031664</ele><time>2006-10-01T08:55:31Z</time></trkpt>
<trkpt lat="45.69468400" lon="4.72396000"><ele>233.499999852</ele><time>2006-10-01T08:55:39Z</time></trkpt>
<trkpt lat="45.69449700" lon="4.72372500"><ele>236.1000060312</ele><time>2006-10-01T08:55:53Z</time></trkpt>
<trkpt lat="45.69440200" lon="4.72334400"><ele>241.6000062072</ele><time>2006-10-01T08:56:12Z</time></trkpt>
<trkpt lat="45.69446100" lon="4.72319700"><ele>241.6000062072</ele><time>2006-10-01T08:56:27Z</time></trkpt>
<trkpt lat="45.69450600" lon="4.72299200"><ele>242.1999970824</ele><time>2006-10-01T08:56:45Z</time></trkpt>
<trkpt lat="45.69450600" lon="4.72276600"><ele>244.3999938</ele><time>2006-10-01T08:57:03Z</time></trkpt>
<trkpt lat="45.69449600" lon="4.72254500"><ele>246.9999999792</ele><time>2006-10-01T08:57:22Z</time></trkpt>
<trkpt lat="45.69449100" lon="4.72240600"><ele>247.1000060784</ele><time>2006-10-01T08:57:38Z</time></trkpt>
<trkpt lat="45.69445900" lon="4.72209700"><ele>248.3000030688</ele><time>2006-10-01T08:57:56Z</time></trkpt>
<trkpt lat="45.69441600" lon="4.72183300"><ele>251.0000001072</ele><time>2006-10-01T08:58:15Z</time></trkpt>
<trkpt lat="45.69443000" lon="4.72167200"><ele>250.8000031488</ele><time>2006-10-01T08:58:26Z</time></trkpt>
<trkpt lat="45.69442900" lon="4.72134500"><ele>252.1000062384</ele><time>2006-10-01T08:59:00Z</time></trkpt>
<trkpt lat="45.69439200" lon="4.72108700"><ele>256.2000121608</ele><time>2006-10-01T08:59:19Z</time></trkpt>
<trkpt lat="45.69439300" lon="4.72083800"><ele>258.3999939432</ele><time>2006-10-01T08:59:38Z</time></trkpt>
<trkpt lat="45.69440800" lon="4.72062000"><ele>259.5000000744</ele><time>2006-10-01T08:59:54Z</time></trkpt>
<trkpt lat="45.69443200" lon="4.72033100"><ele>263.700012096</ele><time>2006-10-01T09:00:14Z</time></trkpt>
<trkpt lat="45.69419200" lon="4.71907200"><ele>285.2999877936</ele><time>2006-10-01T09:00:49Z</time></trkpt>
<trkpt lat="45.69366700" lon="4.71834400"><ele>289.1000062032</ele><time>2006-10-01T09:01:08Z</time></trkpt>
<trkpt lat="45.69325800" lon="4.71775900"><ele>292.2999877128</ele><time>2006-10-01T09:01:25Z</time></trkpt>
<trkpt lat="45.69279000" lon="4.71704600"><ele>297.7999878888</ele><time>2006-10-01T09:01:47Z</time></trkpt>
<trkpt lat="45.69235300" lon="4.71624400"><ele>299.399994036</ele><time>2006-10-01T09:02:05Z</time></trkpt>
<trkpt lat="45.69222500" lon="4.71599600"><ele>299.8999937472</ele><time>2006-10-01T09:02:10Z</time></trkpt>
<trkpt lat="45.69214100" lon="4.71587300"><ele>300.1000062504</ele><time>2006-10-01T09:02:13Z</time></trkpt>
<trkpt lat="45.69150700" lon="4.71546800"><ele>300.0000001512</ele><time>2006-10-01T09:02:29Z</time></trkpt>
<trkpt lat="45.69120900" lon="4.71538600"><ele>299.2999879368</ele><time>2006-10-01T09:02:35Z</time></trkpt>
<trkpt lat="45.69026200" lon="4.71484500"><ele>300.3999937632</ele><time>2006-10-01T09:02:55Z</time></trkpt>
<trkpt lat="45.68932800" lon="4.71416200"><ele>302.2000121088</ele><time>2006-10-01T09:03:16Z</time></trkpt>
<trkpt lat="45.68910200" lon="4.71399300"><ele>302.7000121248</ele><time>2006-10-01T09:03:22Z</time></trkpt>
<trkpt lat="45.68845100" lon="4.71346600"><ele>306.5000000544</ele><time>2006-10-01T09:03:41Z</time></trkpt>
<trkpt lat="45.68794200" lon="4.71296600"><ele>309.2000123328</ele><time>2006-10-01T09:03:57Z</time></trkpt>
<trkpt lat="45.68781800" lon="4.71273700"><ele>310.2999876792</ele><time>2006-10-01T09:04:03Z</time></trkpt>
<trkpt lat="45.68759100" lon="4.71186100"><ele>314.700012204</ele><time>2006-10-01T09:04:21Z</time></trkpt>
<trkpt lat="45.68737000" lon="4.71109000"><ele>318.3999940344</ele><time>2006-10-01T09:04:38Z</time></trkpt>
<trkpt lat="45.68735300" lon="4.71099600"><ele>319.0000001496</ele><time>2006-10-01T09:04:40Z</time></trkpt>
<trkpt lat="45.68717700" lon="4.71034600"><ele>322.600006056</ele><time>2006-10-01T09:04:55Z</time></trkpt>
<trkpt lat="45.68710600" lon="4.71010000"><ele>323.8999939056</ele><time>2006-10-01T09:05:01Z</time></trkpt>
<trkpt lat="45.68711800" lon="4.70953000"><ele>325.600006152</ele><time>2006-10-01T09:05:15Z</time></trkpt>
<trkpt lat="45.68735200" lon="4.70952500"><ele>325.7999878704</ele><time>2006-10-01T09:05:20Z</time></trkpt>
<trkpt lat="45.68798100" lon="4.70820800"><ele>321.2999877264</ele><time>2006-10-01T09:05:43Z</time></trkpt>
<trkpt lat="45.68805600" lon="4.70801000"><ele>319.9999998768</ele><time>2006-10-01T09:05:46Z</time></trkpt>
<trkpt lat="45.68817300" lon="4.70773500"><ele>317.7999879192</ele><time>2006-10-01T09:05:52Z</time></trkpt>
<trkpt lat="45.68824300" lon="4.70743300"><ele>316.200012252</ele><time>2006-10-01T09:05:57Z</time></trkpt>
<trkpt lat="45.68860900" lon="4.70641700"><ele>312.3999938424</ele><time>2006-10-01T09:06:13Z</time></trkpt>
<trkpt lat="45.68914000" lon="4.70557800"><ele>310.6000059768</ele><time>2006-10-01T09:06:26Z</time></trkpt>
<trkpt lat="45.69001500" lon="4.70501500"><ele>309.2999876472</ele><time>2006-10-01T09:06:40Z</time></trkpt>
<trkpt lat="45.69107000" lon="4.70503900"><ele>306.0000000384</ele><time>2006-10-01T09:06:55Z</time></trkpt>
<trkpt lat="45.69120500" lon="4.70509000"><ele>305.5000000224</ele><time>2006-10-01T09:06:57Z</time></trkpt>
<trkpt lat="45.69227100" lon="4.70511800"><ele>302.2000121088</ele><time>2006-10-01T09:07:11Z</time></trkpt>
<trkpt lat="45.69263500" lon="4.70494600"><ele>302.2000121088</ele><time>2006-10-01T09:07:16Z</time></trkpt>
<trkpt lat="45.69361600" lon="4.70377000"><ele>303.4999999584</ele><time>2006-10-01T09:07:34Z</time></trkpt>
<trkpt lat="45.69398400" lon="4.70227000"><ele>304.299987792</ele><time>2006-10-01T09:07:49Z</time></trkpt>
<trkpt lat="45.69385400" lon="4.70087800"><ele>300.6000059616</ele><time>2006-10-01T09:08:02Z</time></trkpt>
<trkpt lat="45.69361900" lon="4.70017400"><ele>299.0000001192</ele><time>2006-10-01T09:08:11Z</time></trkpt>
<trkpt lat="45.69361900" lon="4.70017400"><ele>299.0000001192</ele><time>2006-10-01T09:08:16Z</time></trkpt>
<trkpt lat="45.69317600" lon="4.69910100"><ele>297.2000122536</ele><time>2006-10-01T09:08:34Z</time></trkpt>
<trkpt lat="45.69284500" lon="4.69770600"><ele>288.7999879056</ele><time>2006-10-01T09:08:52Z</time></trkpt>
<trkpt lat="45.69315800" lon="4.69569800"><ele>281.6000059632</ele><time>2006-10-01T09:09:12Z</time></trkpt>
<trkpt lat="45.69377800" lon="4.69478400"><ele>280.7000123352</ele><time>2006-10-01T09:09:29Z</time></trkpt>
<trkpt lat="45.69382000" lon="4.69474500"><ele>280.7999876496</ele><time>2006-10-01T09:09:30Z</time></trkpt>
<trkpt lat="45.69460800" lon="4.69441000"><ele>294.6000060744</ele><time>2006-10-01T09:09:50Z</time></trkpt>
<trkpt lat="45.69475600" lon="4.69446300"><ele>295.399993908</ele><time>2006-10-01T09:09:55Z</time></trkpt>
<trkpt lat="45.69535100" lon="4.69469200"><ele>294.2999877768</ele><time>2006-10-01T09:10:12Z</time></trkpt>
<trkpt lat="45.69549800" lon="4.69455100"><ele>294.9999999912</ele><time>2006-10-01T09:10:18Z</time></trkpt>
<trkpt lat="45.69551400" lon="4.69440100"><ele>296.39999394</ele><time>2006-10-01T09:10:23Z</time></trkpt>
<trkpt lat="45.69550100" lon="4.69406100"><ele>299.2999879368</ele><time>2006-10-01T09:10:34Z</time></trkpt>
<trkpt lat="45.69550900" lon="4.69374400"><ele>301.799987712</ele><time>2006-10-01T09:10:45Z</time></trkpt>
<trkpt lat="45.69555900" lon="4.69323000"><ele>304.8999939072</ele><time>2006-10-01T09:11:02Z</time></trkpt>
<trkpt lat="45.69539300" lon="4.69287900"><ele>307.799987904</ele><time>2006-10-01T09:11:16Z</time></trkpt>
<trkpt lat="45.69528500" lon="4.69254000"><ele>309.7999876632</ele><time>2006-10-01T09:11:30Z</time></trkpt>
<trkpt lat="45.69521000" lon="4.69204400"><ele>313.7999877912</ele><time>2006-10-01T09:11:49Z</time></trkpt>
<trkpt lat="45.69516900" lon="4.69169600"><ele>316.7999878872</ele><time>2006-10-01T09:12:02Z</time></trkpt>
<trkpt lat="45.69524300" lon="4.69139800"><ele>319.2999876624</ele><time>2006-10-01T09:12:14Z</time></trkpt>
<trkpt lat="45.69543200" lon="4.69086100"><ele>322.2999877584</ele><time>2006-10-01T09:12:31Z</time></trkpt>
<trkpt lat="45.69595100" lon="4.68953600"><ele>319.1000062488</ele><time>2006-10-01T09:12:54Z</time></trkpt>
<trkpt lat="45.69605800" lon="4.68925100"><ele>318.0000001176</ele><time>2006-10-01T09:12:57Z</time></trkpt>
<trkpt lat="45.69613600" lon="4.68904500"><ele>317.1000061848</ele><time>2006-10-01T09:12:59Z</time></trkpt>
<trkpt lat="45.69663800" lon="4.68759000"><ele>314.200012188</ele><time>2006-10-01T09:13:13Z</time></trkpt>
<trkpt lat="45.69680100" lon="4.68726200"><ele>314.200012188</ele><time>2006-10-01T09:13:17Z</time></trkpt>
<trkpt lat="45.69734600" lon="4.68648100"><ele>316.3999939704</ele><time>2006-10-01T09:13:30Z</time></trkpt>
<trkpt lat="45.69740800" lon="4.68621600"><ele>316.8999939864</ele><time>2006-10-01T09:13:34Z</time></trkpt>
<trkpt lat="45.69739900" lon="4.68598400"><ele>317.2999879032</ele><time>2006-10-01T09:13:38Z</time></trkpt>
<trkpt lat="45.69756200" lon="4.68599600"><ele>317.7000123</ele><time>2006-10-01T09:13:42Z</time></trkpt>
<trkpt lat="45.69829500" lon="4.68639800"><ele>318.8999937456</ele><time>2006-10-01T09:13:55Z</time></trkpt>
<trkpt lat="45.69883000" lon="4.68708200"><ele>316.7999878872</ele><time>2006-10-01T09:14:06Z</time></trkpt>
<trkpt lat="45.69900100" lon="4.68722000"><ele>315.8999939544</ele><time>2006-10-01T09:14:09Z</time></trkpt>
<trkpt lat="45.69950900" lon="4.68682000"><ele>317.0000000856</ele><time>2006-10-01T09:14:22Z</time></trkpt>
<trkpt lat="45.69964900" lon="4.68612000"><ele>318.7999876464</ele><time>2006-10-01T09:14:42Z</time></trkpt>
<trkpt lat="45.70001500" lon="4.68443200"><ele>320.4999998928</ele><time>2006-10-01T09:14:57Z</time></trkpt>
<trkpt lat="45.69995000" lon="4.68370900"><ele>323.7000121872</ele><time>2006-10-01T09:15:14Z</time></trkpt>
<trkpt lat="45.69981000" lon="4.68291900"><ele>327.1000062</ele><time>2006-10-01T09:15:37Z</time></trkpt>
<trkpt lat="45.69983000" lon="4.68255600"><ele>329.1000059592</ele><time>2006-10-01T09:15:52Z</time></trkpt>
<trkpt lat="45.69991400" lon="4.68208400"><ele>331.999999956</ele><time>2006-10-01T09:16:07Z</time></trkpt>
<trkpt lat="45.70003000" lon="4.68167200"><ele>334.7999878536</ele><time>2006-10-01T09:16:23Z</time></trkpt>
<trkpt lat="45.70018000" lon="4.68126500"><ele>338.2999876608</ele><time>2006-10-01T09:16:40Z</time></trkpt>
<trkpt lat="45.70028200" lon="4.68081500"><ele>340.9999999392</ele><time>2006-10-01T09:16:57Z</time></trkpt>
<trkpt lat="45.70049600" lon="4.68011300"><ele>343.899993936</ele><time>2006-10-01T09:17:15Z</time></trkpt>
<trkpt lat="45.70059200" lon="4.67994900"><ele>344.7000122496</ele><time>2006-10-01T09:17:20Z</time></trkpt>
<trkpt lat="45.70067900" lon="4.68002100"><ele>345.2999878848</ele><time>2006-10-01T09:17:24Z</time></trkpt>
<trkpt lat="45.70090100" lon="4.68032000"><ele>345.7999879008</ele><time>2006-10-01T09:17:33Z</time></trkpt>
<trkpt lat="45.70107900" lon="4.68017600"><ele>347.299987644</ele><time>2006-10-01T09:17:40Z</time></trkpt>
<trkpt lat="45.70149700" lon="4.67952100"><ele>349.9999999224</ele><time>2006-10-01T09:17:59Z</time></trkpt>
<trkpt lat="45.70178900" lon="4.67895000"><ele>349.8999938232</ele><time>2006-10-01T09:18:17Z</time></trkpt>
<trkpt lat="45.70220900" lon="4.67748300"><ele>350.2000121208</ele><time>2006-10-01T09:18:34Z</time></trkpt>
<trkpt lat="45.70255500" lon="4.67673400"><ele>349.1000059896</ele><time>2006-10-01T09:18:54Z</time></trkpt>
<trkpt lat="45.70277200" lon="4.67590300"><ele>352.5000000024</ele><time>2006-10-01T09:19:03Z</time></trkpt>
<trkpt lat="45.70282400" lon="4.67584200"><ele>352.79998782</ele><time>2006-10-01T09:24:35Z</time></trkpt>
<trkpt lat="45.70290800" lon="4.67573000"><ele>353.299987836</ele><time>2006-10-01T09:24:45Z</time></trkpt>
<trkpt lat="45.70311400" lon="4.67531600"><ele>354.799987884</ele><time>2006-10-01T09:25:00Z</time></trkpt>
<trkpt lat="45.70336300" lon="4.67475700"><ele>356.0000001144</ele><time>2006-10-01T09:25:14Z</time></trkpt>
<trkpt lat="45.70354000" lon="4.67429600"><ele>355.799987916</ele><time>2006-10-01T09:25:24Z</time></trkpt>
<trkpt lat="45.70370000" lon="4.67363600"><ele>355.1000061816</ele><time>2006-10-01T09:25:29Z</time></trkpt>
<trkpt lat="45.70370700" lon="4.67306600"><ele>355.3999939992</ele><time>2006-10-01T09:25:41Z</time></trkpt>
<trkpt lat="45.70376900" lon="4.67279400"><ele>355.0000000824</ele><time>2006-10-01T09:25:45Z</time></trkpt>
<trkpt lat="45.70379000" lon="4.67041200"><ele>353.6000061336</ele><time>2006-10-01T09:26:57Z</time></trkpt>
<trkpt lat="45.70386700" lon="4.66889000"><ele>360.8999938704</ele><time>2006-10-01T09:27:10Z</time></trkpt>
<trkpt lat="45.70395400" lon="4.66863500"><ele>360.200012136</ele><time>2006-10-01T09:27:21Z</time></trkpt>
<trkpt lat="45.70404400" lon="4.66826700"><ele>363.2999878512</ele><time>2006-10-01T09:27:36Z</time></trkpt>
<trkpt lat="45.70409700" lon="4.66792100"><ele>368.100005988</ele><time>2006-10-01T09:27:49Z</time></trkpt>
<trkpt lat="45.70419000" lon="4.66735500"><ele>373.7999878824</ele><time>2006-10-01T09:28:08Z</time></trkpt>
<trkpt lat="45.70425600" lon="4.66698900"><ele>377.2000120704</ele><time>2006-10-01T09:28:20Z</time></trkpt>
<trkpt lat="45.70439700" lon="4.66646300"><ele>383.2999878816</ele><time>2006-10-01T09:28:38Z</time></trkpt>
<trkpt lat="45.70454600" lon="4.66605800"><ele>386.2000123584</ele><time>2006-10-01T09:28:54Z</time></trkpt>
<trkpt lat="45.70465800" lon="4.66568400"><ele>389.6000060664</ele><time>2006-10-01T09:29:11Z</time></trkpt>
<trkpt lat="45.70476600" lon="4.66520200"><ele>394.7999879448</ele><time>2006-10-01T09:29:31Z</time></trkpt>
<trkpt lat="45.70482400" lon="4.66492600"><ele>397.3999938192</ele><time>2006-10-01T09:29:43Z</time></trkpt>
<trkpt lat="45.70490400" lon="4.66459700"><ele>400.5000000144</ele><time>2006-10-01T09:29:58Z</time></trkpt>
<trkpt lat="45.70501500" lon="4.66421900"><ele>402.8999939952</ele><time>2006-10-01T09:30:15Z</time></trkpt>
<trkpt lat="45.70514100" lon="4.66377500"><ele>405.4999998696</ele><time>2006-10-01T09:30:36Z</time></trkpt>
<trkpt lat="45.70526200" lon="4.66326100"><ele>408.7999877832</ele><time>2006-10-01T09:30:58Z</time></trkpt>
<trkpt lat="45.70516600" lon="4.66290900"><ele>411.5000000616</ele><time>2006-10-01T09:31:14Z</time></trkpt>
<trkpt lat="45.70507100" lon="4.66296300"><ele>411.2999878632</ele><time>2006-10-01T09:31:18Z</time></trkpt>
<trkpt lat="45.70443500" lon="4.66368900"><ele>407.7999877512</ele><time>2006-10-01T09:31:34Z</time></trkpt>
<trkpt lat="45.70435500" lon="4.66382500"><ele>406.7999877192</ele><time>2006-10-01T09:31:36Z</time></trkpt>
<trkpt lat="45.70428700" lon="4.66397400"><ele>405.7999876872</ele><time>2006-10-01T09:31:38Z</time></trkpt>
<trkpt lat="45.70414600" lon="4.66417800"><ele>404.2000123248</ele><time>2006-10-01T09:31:41Z</time></trkpt>
<trkpt lat="45.70390300" lon="4.66446500"><ele>401.3999939472</ele><time>2006-10-01T09:31:45Z</time></trkpt>
<trkpt lat="45.70377600" lon="4.66461000"><ele>399.8999938992</ele><time>2006-10-01T09:31:47Z</time></trkpt>
<trkpt lat="45.70338400" lon="4.66494800"><ele>395.1000062424</ele><time>2006-10-01T09:31:55Z</time></trkpt>
<trkpt lat="45.70330000" lon="4.66502700"><ele>393.7999879128</ele><time>2006-10-01T09:31:57Z</time></trkpt>
<trkpt lat="45.70304700" lon="4.66514700"><ele>390.2000121816</ele><time>2006-10-01T09:32:02Z</time></trkpt>
<trkpt lat="45.70296400" lon="4.66516800"><ele>388.7000121336</ele><time>2006-10-01T09:32:04Z</time></trkpt>
<trkpt lat="45.70276500" lon="4.66525900"><ele>385.2000123264</ele><time>2006-10-01T09:32:09Z</time></trkpt>
<trkpt lat="45.70268300" lon="4.66528600"><ele>383.8999939968</ele><time>2006-10-01T09:32:11Z</time></trkpt>
<trkpt lat="45.70251600" lon="4.66535400"><ele>381.3999939168</ele><time>2006-10-01T09:32:14Z</time></trkpt>
<trkpt lat="45.70245100" lon="4.66537200"><ele>380.3999938848</ele><time>2006-10-01T09:32:15Z</time></trkpt>
<trkpt lat="45.70168900" lon="4.66551100"><ele>380.8999939008</ele><time>2006-10-01T09:32:20Z</time></trkpt>
<trkpt lat="45.70165200" lon="4.66588200"><ele>378.2999877216</ele><time>2006-10-01T09:32:29Z</time></trkpt>
<trkpt lat="45.70163400" lon="4.66605300"><ele>376.8999937728</ele><time>2006-10-01T09:32:34Z</time></trkpt>
<trkpt lat="45.70138500" lon="4.66624600"><ele>374.7000122952</ele><time>2006-10-01T09:32:45Z</time></trkpt>
<trkpt lat="45.70122300" lon="4.66620800"><ele>375.3999940296</ele><time>2006-10-01T09:32:49Z</time></trkpt>
<trkpt lat="45.70114400" lon="4.66622100"><ele>375.600006228</ele><time>2006-10-01T09:32:51Z</time></trkpt>
<trkpt lat="45.70095800" lon="4.66648400"><ele>376.7999876736</ele><time>2006-10-01T09:32:58Z</time></trkpt>
<trkpt lat="45.70094200" lon="4.66654700"><ele>377.1000059712</ele><time>2006-10-01T09:32:59Z</time></trkpt>
<trkpt lat="45.70093400" lon="4.66659100"><ele>377.2999876896</ele><time>2006-10-01T09:33:00Z</time></trkpt>
<trkpt lat="45.70084400" lon="4.66710200"><ele>380.8999939008</ele><time>2006-10-01T09:33:11Z</time></trkpt>
<trkpt lat="45.70073500" lon="4.66740600"><ele>383.1000061632</ele><time>2006-10-01T09:33:18Z</time></trkpt>
<trkpt lat="45.70035400" lon="4.66828700"><ele>384.6000062112</ele><time>2006-10-01T09:33:37Z</time></trkpt>
<trkpt lat="45.70023900" lon="4.66849700"><ele>383.8999939968</ele><time>2006-10-01T09:33:41Z</time></trkpt>
<trkpt lat="45.70003400" lon="4.66851100"><ele>384.2000122944</ele><time>2006-10-01T09:33:47Z</time></trkpt>
<trkpt lat="45.70001700" lon="4.66842100"><ele>384.7000123104</ele><time>2006-10-01T09:33:49Z</time></trkpt>
<trkpt lat="45.69983200" lon="4.66749700"><ele>388.6000060344</ele><time>2006-10-01T09:34:09Z</time></trkpt>
<trkpt lat="45.69963800" lon="4.66659100"><ele>392.399993964</ele><time>2006-10-01T09:34:29Z</time></trkpt>
<trkpt lat="45.69945900" lon="4.66576500"><ele>395.299987656</ele><time>2006-10-01T09:34:48Z</time></trkpt>
<trkpt lat="45.69932000" lon="4.66512300"><ele>397.7000121168</ele><time>2006-10-01T09:35:04Z</time></trkpt>
<trkpt lat="45.69918600" lon="4.66449900"><ele>399.3999938832</ele><time>2006-10-01T09:35:20Z</time></trkpt>
<trkpt lat="45.69899500" lon="4.66374200"><ele>401.799987864</ele><time>2006-10-01T09:35:39Z</time></trkpt>
<trkpt lat="45.69870800" lon="4.66293300"><ele>405.1000059528</ele><time>2006-10-01T09:35:59Z</time></trkpt>
<trkpt lat="45.69847200" lon="4.66201900"><ele>407.8999938504</ele><time>2006-10-01T09:36:20Z</time></trkpt>
<trkpt lat="45.69848100" lon="4.66164400"><ele>409.7999878152</ele><time>2006-10-01T09:36:29Z</time></trkpt>
<trkpt lat="45.69851800" lon="4.66114200"><ele>413.3999940264</ele><time>2006-10-01T09:36:43Z</time></trkpt>
<trkpt lat="45.69858400" lon="4.66077700"><ele>416.2999877184</ele><time>2006-10-01T09:36:54Z</time></trkpt>
<trkpt lat="45.69866600" lon="4.66030600"><ele>419.7999878304</ele><time>2006-10-01T09:37:11Z</time></trkpt>
<trkpt lat="45.69871900" lon="4.65973400"><ele>422.0000000928</ele><time>2006-10-01T09:37:31Z</time></trkpt>
<trkpt lat="45.69876900" lon="4.65919000"><ele>424.7000120664</ele><time>2006-10-01T09:38:25Z</time></trkpt>
<trkpt lat="45.69886400" lon="4.65770300"><ele>431.8999940088</ele><time>2006-10-01T09:38:41Z</time></trkpt>
<trkpt lat="45.69888100" lon="4.65718400"><ele>434.9999998992</ele><time>2006-10-01T09:39:02Z</time></trkpt>
<trkpt lat="45.69888700" lon="4.65703200"><ele>436.2999877488</ele><time>2006-10-01T09:39:08Z</time></trkpt>
<trkpt lat="45.69890700" lon="4.65683200"><ele>438.1000060944</ele><time>2006-10-01T09:39:16Z</time></trkpt>
<trkpt lat="45.69885400" lon="4.65674000"><ele>439.2000122256</ele><time>2006-10-01T09:39:21Z</time></trkpt>
<trkpt lat="45.69854700" lon="4.65671200"><ele>441.2000122896</ele><time>2006-10-01T09:39:39Z</time></trkpt>
<trkpt lat="45.69835500" lon="4.65652000"><ele>444.3999937992</ele><time>2006-10-01T09:39:54Z</time></trkpt>
<trkpt lat="45.69810800" lon="4.65604100"><ele>450.7000122888</ele><time>2006-10-01T09:40:24Z</time></trkpt>
<trkpt lat="45.69809900" lon="4.65588000"><ele>452.3999937504</ele><time>2006-10-01T09:40:32Z</time></trkpt>
<trkpt lat="45.69809100" lon="4.65580000"><ele>453.2999876832</ele><time>2006-10-01T09:40:36Z</time></trkpt>
<trkpt lat="45.69803800" lon="4.65559200"><ele>455.7999877632</ele><time>2006-10-01T09:40:47Z</time></trkpt>
<trkpt lat="45.69801900" lon="4.65551400"><ele>456.700012176</ele><time>2006-10-01T09:40:51Z</time></trkpt>
<trkpt lat="45.69794300" lon="4.65515300"><ele>460.8999940224</ele><time>2006-10-01T09:41:09Z</time></trkpt>
<trkpt lat="45.69784600" lon="4.65489000"><ele>463.3999937976</ele><time>2006-10-01T09:41:24Z</time></trkpt>
<trkpt lat="45.69775300" lon="4.65462500"><ele>466.2000121752</ele><time>2006-10-01T09:41:40Z</time></trkpt>
<trkpt lat="45.69769000" lon="4.65444100"><ele>468.3999939576</ele><time>2006-10-01T09:41:51Z</time></trkpt>
<trkpt lat="45.69762300" lon="4.65422600"><ele>471.2000123352</ele><time>2006-10-01T09:42:04Z</time></trkpt>
<trkpt lat="45.69759700" lon="4.65405200"><ele>473.3999938128</ele><time>2006-10-01T09:42:14Z</time></trkpt>
<trkpt lat="45.69757700" lon="4.65375300"><ele>477.7999878576</ele><time>2006-10-01T09:42:31Z</time></trkpt>
<trkpt lat="45.69755700" lon="4.65348700"><ele>481.9999998792</ele><time>2006-10-01T09:42:58Z</time></trkpt>
<trkpt lat="45.69759600" lon="4.65320300"><ele>486.2999878248</ele><time>2006-10-01T09:43:21Z</time></trkpt>
<trkpt lat="45.69756200" lon="4.65301400"><ele>489.7999879368</ele><time>2006-10-01T09:43:40Z</time></trkpt>
<trkpt lat="45.69742400" lon="4.65288700"><ele>492.6000060096</ele><time>2006-10-01T09:44:01Z</time></trkpt>
<trkpt lat="45.69734400" lon="4.65267300"><ele>496.6000061376</ele><time>2006-10-01T09:44:24Z</time></trkpt>
<trkpt lat="45.69722900" lon="4.65250500"><ele>499.299987936</ele><time>2006-10-01T09:44:43Z</time></trkpt>
<trkpt lat="45.69718400" lon="4.65239600"><ele>500.8999937784</ele><time>2006-10-01T09:45:18Z</time></trkpt>
<trkpt lat="45.69716000" lon="4.65216700"><ele>503.7999877752</ele><time>2006-10-01T09:45:34Z</time></trkpt>
<trkpt lat="45.69719500" lon="4.65196500"><ele>506.200012236</ele><time>2006-10-01T09:45:52Z</time></trkpt>
<trkpt lat="45.69725700" lon="4.65171100"><ele>508.5000001176</ele><time>2006-10-01T09:46:24Z</time></trkpt>
<trkpt lat="45.69735600" lon="4.65136900"><ele>511.4999999088</ele><time>2006-10-01T09:46:40Z</time></trkpt>
<trkpt lat="45.69760900" lon="4.65075600"><ele>516.7999878864</ele><time>2006-10-01T09:47:06Z</time></trkpt>
<trkpt lat="45.69761200" lon="4.65069200"><ele>517.2999879024</ele><time>2006-10-01T09:47:23Z</time></trkpt>
<trkpt lat="45.69756000" lon="4.65061900"><ele>517.5000001008</ele><time>2006-10-01T09:47:28Z</time></trkpt>
<trkpt lat="45.69734900" lon="4.65052400"><ele>516.599975688</ele><time>2006-10-01T09:47:36Z</time></trkpt>
<trkpt lat="45.69726600" lon="4.65027800"><ele>516.7000122672</ele><time>2006-10-01T09:47:41Z</time></trkpt>
<trkpt lat="45.69724900" lon="4.65002800"><ele>517.099975704</ele><time>2006-10-01T09:47:45Z</time></trkpt>
<trkpt lat="45.69695300" lon="4.64857200"><ele>517.2999879024</ele><time>2006-10-01T09:48:08Z</time></trkpt>
<trkpt lat="45.69688300" lon="4.64776700"><ele>519.2999876616</ele><time>2006-10-01T09:48:21Z</time></trkpt>
<trkpt lat="45.69699100" lon="4.64669100"><ele>517.59997572</ele><time>2006-10-01T09:48:37Z</time></trkpt>
<trkpt lat="45.69718800" lon="4.64619500"><ele>515.7000122352</ele><time>2006-10-01T09:48:42Z</time></trkpt>
<trkpt lat="45.69740400" lon="4.64574800"><ele>512.4000243216</ele><time>2006-10-01T09:48:46Z</time></trkpt>
<trkpt lat="45.69794500" lon="4.64504300"><ele>510.7999876944</ele><time>2006-10-01T09:48:54Z</time></trkpt>
<trkpt lat="45.69795400" lon="4.64456300"><ele>508.2999879192</ele><time>2006-10-01T09:49:00Z</time></trkpt>
<trkpt lat="45.69769900" lon="4.64447000"><ele>504.700012188</ele><time>2006-10-01T09:49:04Z</time></trkpt>
<trkpt lat="45.69736800" lon="4.64438700"><ele>500.6000059608</ele><time>2006-10-01T09:49:09Z</time></trkpt>
<trkpt lat="45.69708000" lon="4.64394900"><ele>503.700012156</ele><time>2006-10-01T09:49:18Z</time></trkpt>
<trkpt lat="45.69705800" lon="4.64390300"><ele>504.2999877912</ele><time>2006-10-01T09:49:19Z</time></trkpt>
<trkpt lat="45.69703100" lon="4.64356000"><ele>508.7999879352</ele><time>2006-10-01T09:49:25Z</time></trkpt>
<trkpt lat="45.69703900" lon="4.64333000"><ele>509.5000001496</ele><time>2006-10-01T09:49:29Z</time></trkpt>
<trkpt lat="45.69718100" lon="4.64272700"><ele>509.9999998608</ele><time>2006-10-01T09:49:37Z</time></trkpt>
<trkpt lat="45.69725000" lon="4.64245200"><ele>508.6000062168</ele><time>2006-10-01T09:49:40Z</time></trkpt>
<trkpt lat="45.69756200" lon="4.64218200"><ele>511.7000121072</ele><time>2006-10-01T09:49:46Z</time></trkpt>
<trkpt lat="45.69763300" lon="4.64210000"><ele>511.8999938256</ele><time>2006-10-01T09:49:48Z</time></trkpt>
<trkpt lat="45.69776000" lon="4.64192900"><ele>511.7000121072</ele><time>2006-10-01T09:49:52Z</time></trkpt>
<trkpt lat="45.69790800" lon="4.64167800"><ele>510.2000120592</ele><time>2006-10-01T09:49:57Z</time></trkpt>
<trkpt lat="45.69804600" lon="4.64118200"><ele>508.7999879352</ele><time>2006-10-01T09:50:04Z</time></trkpt>
<trkpt lat="45.69772000" lon="4.64067000"><ele>503.4999999576</ele><time>2006-10-01T09:50:12Z</time></trkpt>
<trkpt lat="45.69765100" lon="4.64005500"><ele>503.3999938584</ele><time>2006-10-01T09:50:18Z</time></trkpt>
<trkpt lat="45.69775600" lon="4.63973700"><ele>505.200012204</ele><time>2006-10-01T09:50:21Z</time></trkpt>
<trkpt lat="45.69792800" lon="4.63939300"><ele>505.70001222</ele><time>2006-10-01T09:50:25Z</time></trkpt>
<trkpt lat="45.69783600" lon="4.63919200"><ele>500.2000123488</ele><time>2006-10-01T09:50:29Z</time></trkpt>
<trkpt lat="45.69773000" lon="4.63915100"><ele>497.8999939872</ele><time>2006-10-01T09:50:31Z</time></trkpt>
<trkpt lat="45.69757700" lon="4.63909200"><ele>495.1000060896</ele><time>2006-10-01T09:50:34Z</time></trkpt>
<trkpt lat="45.69739700" lon="4.63905900"><ele>491.7000120768</ele><time>2006-10-01T09:51:11Z</time></trkpt>
<trkpt lat="45.69754700" lon="4.63908000"><ele>494.7000121728</ele><time>2006-10-01T09:51:22Z</time></trkpt>
<trkpt lat="45.69761000" lon="4.63884200"><ele>499.7000123328</ele><time>2006-10-01T09:51:26Z</time></trkpt>
<trkpt lat="45.69770600" lon="4.63869900"><ele>502.9999999416</ele><time>2006-10-01T09:51:36Z</time></trkpt>
<trkpt lat="45.69772500" lon="4.63858000"><ele>504.700012188</ele><time>2006-10-01T09:51:42Z</time></trkpt>
<trkpt lat="45.69763800" lon="4.63817100"><ele>511.7999877264</ele><time>2006-10-01T09:52:01Z</time></trkpt>
<trkpt lat="45.69768600" lon="4.63796200"><ele>516.7000122672</ele><time>2006-10-01T09:52:09Z</time></trkpt>
<trkpt lat="45.69785100" lon="4.63776300"><ele>521.9000243208</ele><time>2006-10-01T09:52:23Z</time></trkpt>
<trkpt lat="45.69799300" lon="4.63744100"><ele>527.7999879336</ele><time>2006-10-01T09:52:40Z</time></trkpt>
<trkpt lat="45.69816200" lon="4.63712900"><ele>533.400024384</ele><time>2006-10-01T09:52:56Z</time></trkpt>
<trkpt lat="45.69835000" lon="4.63680100"><ele>537.900024528</ele><time>2006-10-01T09:53:13Z</time></trkpt>
<trkpt lat="45.69842500" lon="4.63642700"><ele>539.0999754936</ele><time>2006-10-01T09:53:29Z</time></trkpt>
<trkpt lat="45.69848900" lon="4.63610000"><ele>540.0999755256</ele><time>2006-10-01T09:53:43Z</time></trkpt>
<trkpt lat="45.69856500" lon="4.63578300"><ele>542.4999999864</ele><time>2006-10-01T09:53:59Z</time></trkpt>
<trkpt lat="45.69869800" lon="4.63541200"><ele>547.5000001464</ele><time>2006-10-01T09:54:23Z</time></trkpt>
<trkpt lat="45.69871000" lon="4.63517400"><ele>548.7999876912</ele><time>2006-10-01T09:54:37Z</time></trkpt>
<trkpt lat="45.69865200" lon="4.63480700"><ele>548.200012056</ele><time>2006-10-01T09:54:57Z</time></trkpt>
<trkpt lat="45.69867600" lon="4.63466000"><ele>550.2999877392</ele><time>2006-10-01T09:55:12Z</time></trkpt>
<trkpt lat="45.69868300" lon="4.63435800"><ele>554.4000244464</ele><time>2006-10-01T09:55:38Z</time></trkpt>
<trkpt lat="45.69855900" lon="4.63397200"><ele>556.0000001136</ele><time>2006-10-01T09:56:02Z</time></trkpt>
<trkpt lat="45.69828300" lon="4.63371600"><ele>553.700012232</ele><time>2006-10-01T09:56:19Z</time></trkpt>
<trkpt lat="45.69803300" lon="4.63338500"><ele>555.5999757168</ele><time>2006-10-01T09:56:37Z</time></trkpt>
<trkpt lat="45.69797400" lon="4.63301900"><ele>563.2000122312</ele><time>2006-10-01T09:56:53Z</time></trkpt>
<trkpt lat="45.69798400" lon="4.63273000"><ele>569.999999952</ele><time>2006-10-01T09:57:09Z</time></trkpt>
<trkpt lat="45.69799400" lon="4.63245500"><ele>573.5999756832</ele><time>2006-10-01T09:57:24Z</time></trkpt>
<trkpt lat="45.69804700" lon="4.63213300"><ele>578.9999999352</ele><time>2006-10-01T09:57:42Z</time></trkpt>
<trkpt lat="45.69813300" lon="4.63181000"><ele>581.2000121976</ele><time>2006-10-01T09:58:01Z</time></trkpt>
<trkpt lat="45.69824900" lon="4.63155500"><ele>584.7000123096</ele><time>2006-10-01T09:58:16Z</time></trkpt>
<trkpt lat="45.69836700" lon="4.63130300"><ele>587.2000120848</ele><time>2006-10-01T09:58:34Z</time></trkpt>
<trkpt lat="45.69850200" lon="4.63116400"><ele>590.9000243952</ele><time>2006-10-01T09:58:48Z</time></trkpt>
<trkpt lat="45.69861200" lon="4.63096200"><ele>593.9000244912</ele><time>2006-10-01T09:59:00Z</time></trkpt>
<trkpt lat="45.69871400" lon="4.63082400"><ele>597.0999755208</ele><time>2006-10-01T09:59:12Z</time></trkpt>
<trkpt lat="45.69883800" lon="4.63059800"><ele>600.200012196</ele><time>2006-10-01T09:59:30Z</time></trkpt>
<trkpt lat="45.69900900" lon="4.63036000"><ele>604.200012324</ele><time>2006-10-01T09:59:56Z</time></trkpt>
<trkpt lat="45.69914100" lon="4.63022500"><ele>607.099975536</ele><time>2006-10-01T10:00:29Z</time></trkpt>
<trkpt lat="45.69923000" lon="4.63010400"><ele>608.099975568</ele><time>2006-10-01T10:00:50Z</time></trkpt>
<trkpt lat="45.69935100" lon="4.63004700"><ele>610.7999878464</ele><time>2006-10-01T10:01:03Z</time></trkpt>
<trkpt lat="45.69988000" lon="4.63003300"><ele>624.9999998832</ele><time>2006-10-01T10:02:45Z</time></trkpt>
<trkpt lat="45.70000400" lon="4.62999300"><ele>626.900024328</ele><time>2006-10-01T10:03:02Z</time></trkpt>
<trkpt lat="45.70023900" lon="4.62988300"><ele>629.5999756464</ele><time>2006-10-01T10:03:25Z</time></trkpt>
<trkpt lat="45.70047100" lon="4.62975500"><ele>631.400024472</ele><time>2006-10-01T10:03:46Z</time></trkpt>
<trkpt lat="45.70070300" lon="4.62965400"><ele>633.0999754536</ele><time>2006-10-01T10:04:02Z</time></trkpt>
<trkpt lat="45.70093500" lon="4.62954900"><ele>635.2000120968</ele><time>2006-10-01T10:04:18Z</time></trkpt>
<trkpt lat="45.70131200" lon="4.62919800"><ele>636.0999755496</ele><time>2006-10-01T10:04:42Z</time></trkpt>
<trkpt lat="45.70172600" lon="4.62865500"><ele>638.799987828</ele><time>2006-10-01T10:05:08Z</time></trkpt>
<trkpt lat="45.70189800" lon="4.62839200"><ele>641.0999757096</ele><time>2006-10-01T10:05:19Z</time></trkpt>
<trkpt lat="45.70208300" lon="4.62817100"><ele>645.4000243104</ele><time>2006-10-01T10:05:31Z</time></trkpt>
<trkpt lat="45.70225800" lon="4.62798200"><ele>648.7999878432</ele><time>2006-10-01T10:05:44Z</time></trkpt>
<trkpt lat="45.70245900" lon="4.62769400"><ele>651.599975436</ele><time>2006-10-01T10:06:02Z</time></trkpt>
<trkpt lat="45.70264000" lon="4.62730500"><ele>651.9000245184</ele><time>2006-10-01T10:06:21Z</time></trkpt>
<trkpt lat="45.70281200" lon="4.62687600"><ele>651.0999757248</ele><time>2006-10-01T10:06:42Z</time></trkpt>
<trkpt lat="45.70289800" lon="4.62662800"><ele>650.7999879072</ele><time>2006-10-01T10:06:56Z</time></trkpt>
<trkpt lat="45.70304400" lon="4.62625400"><ele>652.9000245504</ele><time>2006-10-01T10:07:16Z</time></trkpt>
<trkpt lat="45.70310200" lon="4.62610800"><ele>652.9000245504</ele><time>2006-10-01T10:07:32Z</time></trkpt>
<trkpt lat="45.70324000" lon="4.62594600"><ele>651.9000245184</ele><time>2006-10-01T10:07:55Z</time></trkpt>
<trkpt lat="45.70336900" lon="4.62591000"><ele>650.7999879072</ele><time>2006-10-01T10:16:50Z</time></trkpt>
<trkpt lat="45.70344200" lon="4.62592800"><ele>649.7999878752</ele><time>2006-10-01T10:17:16Z</time></trkpt>
<trkpt lat="45.70347300" lon="4.62599900"><ele>649.20001224</ele><time>2006-10-01T10:17:20Z</time></trkpt>
<trkpt lat="45.70341800" lon="4.62662500"><ele>648.700012224</ele><time>2006-10-01T10:17:38Z</time></trkpt>
<trkpt lat="45.70333800" lon="4.62698700"><ele>650.2999878912</ele><time>2006-10-01T10:17:46Z</time></trkpt>
<trkpt lat="45.70316200" lon="4.62750700"><ele>655.7999877624</ele><time>2006-10-01T10:18:00Z</time></trkpt>
<trkpt lat="45.70310200" lon="4.62786100"><ele>660.2000122872</ele><time>2006-10-01T10:18:21Z</time></trkpt>
<trkpt lat="45.70314000" lon="4.62839900"><ele>662.99999988</ele><time>2006-10-01T10:18:41Z</time></trkpt>
<trkpt lat="45.70301800" lon="4.62893900"><ele>668.00000004</ele><time>2006-10-01T10:18:57Z</time></trkpt>
<trkpt lat="45.70284600" lon="4.62947500"><ele>669.4000244688</ele><time>2006-10-01T10:19:14Z</time></trkpt>
<trkpt lat="45.70264600" lon="4.63004800"><ele>671.4000245328</ele><time>2006-10-01T10:19:28Z</time></trkpt>
<trkpt lat="45.70253500" lon="4.63062500"><ele>674.0999755464</ele><time>2006-10-01T10:19:41Z</time></trkpt>
<trkpt lat="45.70243300" lon="4.63079300"><ele>675.7999877928</ele><time>2006-10-01T10:19:47Z</time></trkpt>
<trkpt lat="45.70219500" lon="4.63116500"><ele>680.5999754496</ele><time>2006-10-01T10:20:01Z</time></trkpt>
<trkpt lat="45.70179100" lon="4.63181300"><ele>687.5000000544</ele><time>2006-10-01T10:20:35Z</time></trkpt>
<trkpt lat="45.70163200" lon="4.63244900"><ele>689.4000244992</ele><time>2006-10-01T10:20:57Z</time></trkpt>
<trkpt lat="45.70171500" lon="4.63276300"><ele>690.2999876472</ele><time>2006-10-01T10:21:04Z</time></trkpt>
<trkpt lat="45.70166600" lon="4.63300200"><ele>689.799987936</ele><time>2006-10-01T10:21:10Z</time></trkpt>
<trkpt lat="45.70159200" lon="4.63314800"><ele>689.0000001024</ele><time>2006-10-01T10:21:12Z</time></trkpt>
<trkpt lat="45.70154100" lon="4.63340700"><ele>688.0999756896</ele><time>2006-10-01T10:21:17Z</time></trkpt>
<trkpt lat="45.70158000" lon="4.63394900"><ele>686.5999756416</ele><time>2006-10-01T10:21:25Z</time></trkpt>
<trkpt lat="45.70156500" lon="4.63440100"><ele>683.9000243232</ele><time>2006-10-01T10:21:30Z</time></trkpt>
<trkpt lat="45.70153900" lon="4.63496400"><ele>678.2000122536</ele><time>2006-10-01T10:21:37Z</time></trkpt>
<trkpt lat="45.70152100" lon="4.63533000"><ele>671.7999876648</ele><time>2006-10-01T10:21:42Z</time></trkpt>
<trkpt lat="45.70149700" lon="4.63590700"><ele>662.4000245496</ele><time>2006-10-01T10:21:51Z</time></trkpt>
<trkpt lat="45.70149900" lon="4.63603600"><ele>660.5000001048</ele><time>2006-10-01T10:21:53Z</time></trkpt>
<trkpt lat="45.70164200" lon="4.63645700"><ele>653.4000245664</ele><time>2006-10-01T10:22:01Z</time></trkpt>
<trkpt lat="45.70169800" lon="4.63669100"><ele>648.9000244224</ele><time>2006-10-01T10:22:05Z</time></trkpt>
<trkpt lat="45.70183400" lon="4.63697800"><ele>643.5999754848</ele><time>2006-10-01T10:22:11Z</time></trkpt>
<trkpt lat="45.70191700" lon="4.63710900"><ele>641.5000001064</ele><time>2006-10-01T10:22:14Z</time></trkpt>
<trkpt lat="45.70206600" lon="4.63732100"><ele>637.4000243592</ele><time>2006-10-01T10:22:19Z</time></trkpt>
<trkpt lat="45.70216100" lon="4.63749700"><ele>634.9999998984</ele><time>2006-10-01T10:22:23Z</time></trkpt>
<trkpt lat="45.70238600" lon="4.63786100"><ele>632.90002452</ele><time>2006-10-01T10:22:29Z</time></trkpt>
<trkpt lat="45.70249000" lon="4.63800600"><ele>630.7999878768</ele><time>2006-10-01T10:22:31Z</time></trkpt>
<trkpt lat="45.70261300" lon="4.63826200"><ele>629.400024408</ele><time>2006-10-01T10:22:34Z</time></trkpt>
<trkpt lat="45.70284000" lon="4.63902700"><ele>629.400024408</ele><time>2006-10-01T10:22:42Z</time></trkpt>
<trkpt lat="45.70296800" lon="4.63926300"><ele>626.400024312</ele><time>2006-10-01T10:22:45Z</time></trkpt>
<trkpt lat="45.70307900" lon="4.63937800"><ele>623.9999998512</ele><time>2006-10-01T10:22:47Z</time></trkpt>
<trkpt lat="45.70315800" lon="4.64002200"><ele>618.2000121624</ele><time>2006-10-01T10:22:56Z</time></trkpt>
<trkpt lat="45.70312200" lon="4.64066200"><ele>614.4000245376</ele><time>2006-10-01T10:23:01Z</time></trkpt>
<trkpt lat="45.70302000" lon="4.64126800"><ele>611.9000244576</ele><time>2006-10-01T10:23:10Z</time></trkpt>
<trkpt lat="45.70339100" lon="4.64105700"><ele>608.2000121472</ele><time>2006-10-01T10:23:14Z</time></trkpt>
<trkpt lat="45.70358800" lon="4.64063400"><ele>604.2999879432</ele><time>2006-10-01T10:23:21Z</time></trkpt>
<trkpt lat="45.70372100" lon="4.64001300"><ele>599.2999877832</ele><time>2006-10-01T10:23:27Z</time></trkpt>
<trkpt lat="45.70379900" lon="4.63947000"><ele>593.799987912</ele><time>2006-10-01T10:23:29Z</time></trkpt>
<trkpt lat="45.70390600" lon="4.63880000"><ele>588.2000121168</ele><time>2006-10-01T10:23:43Z</time></trkpt>
<trkpt lat="45.70391500" lon="4.63897100"><ele>588.799987752</ele><time>2006-10-01T10:23:49Z</time></trkpt>
<trkpt lat="45.70392900" lon="4.63924600"><ele>589.9000243632</ele><time>2006-10-01T10:23:53Z</time></trkpt>
<trkpt lat="45.70399800" lon="4.64025100"><ele>594.799987944</ele><time>2006-10-01T10:24:06Z</time></trkpt>
<trkpt lat="45.70403600" lon="4.64059900"><ele>596.7999877032</ele><time>2006-10-01T10:24:11Z</time></trkpt>
<trkpt lat="45.70423000" lon="4.64139600"><ele>601.700012244</ele><time>2006-10-01T10:24:24Z</time></trkpt>
<trkpt lat="45.70427900" lon="4.64204400"><ele>604.0000001256</ele><time>2006-10-01T10:24:35Z</time></trkpt>
<trkpt lat="45.70427500" lon="4.64231100"><ele>604.200012324</ele><time>2006-10-01T10:24:42Z</time></trkpt>
<trkpt lat="45.70417200" lon="4.64284800"><ele>604.2999879432</ele><time>2006-10-01T10:24:53Z</time></trkpt>
<trkpt lat="45.70393200" lon="4.64357500"><ele>603.5000001096</ele><time>2006-10-01T10:25:05Z</time></trkpt>
<trkpt lat="45.70390200" lon="4.64364500"><ele>603.4000244904</ele><time>2006-10-01T10:25:06Z</time></trkpt>
<trkpt lat="45.70345300" lon="4.64438700"><ele>596.7999877032</ele><time>2006-10-01T10:25:17Z</time></trkpt>
<trkpt lat="45.70317900" lon="4.64475800"><ele>592.4000244432</ele><time>2006-10-01T10:25:22Z</time></trkpt>
<trkpt lat="45.70312300" lon="4.64482200"><ele>591.4000244112</ele><time>2006-10-01T10:25:23Z</time></trkpt>
<trkpt lat="45.70282800" lon="4.64508800"><ele>586.7000120688</ele><time>2006-10-01T10:25:29Z</time></trkpt>
<trkpt lat="45.70270000" lon="4.64514500"><ele>585.5999754576</ele><time>2006-10-01T10:25:33Z</time></trkpt>
<trkpt lat="45.70257200" lon="4.64555300"><ele>578.7999877368</ele><time>2006-10-01T10:25:37Z</time></trkpt>
<trkpt lat="45.70226600" lon="4.64618200"><ele>572.7999878496</ele><time>2006-10-01T10:25:42Z</time></trkpt>
<trkpt lat="45.70192200" lon="4.64648900"><ele>572.500000032</ele><time>2006-10-01T10:25:46Z</time></trkpt>
<trkpt lat="45.70159800" lon="4.64692500"><ele>570.4000243488</ele><time>2006-10-01T10:25:51Z</time></trkpt>
<trkpt lat="45.70121400" lon="4.64731100"><ele>569.9000243328</ele><time>2006-10-01T10:26:17Z</time></trkpt>
<trkpt lat="45.70094800" lon="4.64758800"><ele>568.0999755072</ele><time>2006-10-01T10:26:23Z</time></trkpt>
<trkpt lat="45.70078900" lon="4.64768700"><ele>567.7000120704</ele><time>2006-10-01T10:26:27Z</time></trkpt>
<trkpt lat="45.70049300" lon="4.64786400"><ele>566.0000001288</ele><time>2006-10-01T10:26:31Z</time></trkpt>
<trkpt lat="45.70030500" lon="4.64816900"><ele>562.4000243976</ele><time>2006-10-01T10:26:42Z</time></trkpt>
<trkpt lat="45.70001500" lon="4.64864200"><ele>556.9000245264</ele><time>2006-10-01T10:26:54Z</time></trkpt>
<trkpt lat="45.69969600" lon="4.64896700"><ele>552.7999878192</ele><time>2006-10-01T10:27:05Z</time></trkpt>
<trkpt lat="45.69909600" lon="4.64935700"><ele>544.799987868</ele><time>2006-10-01T10:27:12Z</time></trkpt>
<trkpt lat="45.69846200" lon="4.64952300"><ele>535.7999878848</ele><time>2006-10-01T10:27:23Z</time></trkpt>
<trkpt lat="45.69804900" lon="4.64992300"><ele>526.5999757032</ele><time>2006-10-01T10:27:37Z</time></trkpt>
<trkpt lat="45.69767700" lon="4.65051700"><ele>518.5999754472</ele><time>2006-10-01T10:27:45Z</time></trkpt>
<trkpt lat="45.69845900" lon="4.65077500"><ele>517.9000244976</ele><time>2006-10-01T10:27:55Z</time></trkpt>
<trkpt lat="45.69940500" lon="4.65071800"><ele>521.0999755272</ele><time>2006-10-01T10:28:07Z</time></trkpt>
<trkpt lat="45.70026100" lon="4.65069000"><ele>521.5999755432</ele><time>2006-10-01T10:28:16Z</time></trkpt>
<trkpt lat="45.70098100" lon="4.65068800"><ele>511.600006008</ele><time>2006-10-01T10:28:26Z</time></trkpt>
<trkpt lat="45.70153400" lon="4.65006900"><ele>509.0000001336</ele><time>2006-10-01T10:28:35Z</time></trkpt>
<trkpt lat="45.70170600" lon="4.64933800"><ele>518.2999879344</ele><time>2006-10-01T10:29:55Z</time></trkpt>
<trkpt lat="45.70211100" lon="4.64935500"><ele>506.700012252</ele><time>2006-10-01T10:29:59Z</time></trkpt>
<trkpt lat="45.70225700" lon="4.64881500"><ele>515.09997564</ele><time>2006-10-01T10:30:17Z</time></trkpt>
<trkpt lat="45.70282600" lon="4.64851800"><ele>510.3999937776</ele><time>2006-10-01T10:30:19Z</time></trkpt>
<trkpt lat="45.70302900" lon="4.64826100"><ele>512.59997556</ele><time>2006-10-01T10:30:35Z</time></trkpt>
<trkpt lat="45.70319400" lon="4.64769600"><ele>524.000000004</ele><time>2006-10-01T10:31:23Z</time></trkpt>
<trkpt lat="45.70337200" lon="4.64767900"><ele>526.5999757032</ele><time>2006-10-01T10:31:32Z</time></trkpt>
<trkpt lat="45.70356200" lon="4.64774600"><ele>528.9000245448</ele><time>2006-10-01T10:31:35Z</time></trkpt>
<trkpt lat="45.70389200" lon="4.64808100"><ele>533.5000000032</ele><time>2006-10-01T10:31:40Z</time></trkpt>
<trkpt lat="45.70395200" lon="4.64843700"><ele>530.2000120896</ele><time>2006-10-01T10:31:44Z</time></trkpt>
<trkpt lat="45.70396500" lon="4.64892600"><ele>522.2999877576</ele><time>2006-10-01T10:31:54Z</time></trkpt>
<trkpt lat="45.70409400" lon="4.64923700"><ele>521.0999755272</ele><time>2006-10-01T10:31:59Z</time></trkpt>
<trkpt lat="45.70419100" lon="4.64945400"><ele>521.7000121224</ele><time>2006-10-01T10:32:02Z</time></trkpt>
<trkpt lat="45.70432700" lon="4.64989700"><ele>523.2000121704</ele><time>2006-10-01T10:32:07Z</time></trkpt>
<trkpt lat="45.70436300" lon="4.65034900"><ele>524.2000122024</ele><time>2006-10-01T10:32:15Z</time></trkpt>
<trkpt lat="45.70426000" lon="4.65095400"><ele>519.49999986</ele><time>2006-10-01T10:32:18Z</time></trkpt>
<trkpt lat="45.70432100" lon="4.65128800"><ele>517.0000000848</ele><time>2006-10-01T10:32:21Z</time></trkpt>
<trkpt lat="45.70445400" lon="4.65176800"><ele>511.8999938256</ele><time>2006-10-01T10:32:27Z</time></trkpt>
<trkpt lat="45.70454400" lon="4.65191700"><ele>510.7000120752</ele><time>2006-10-01T10:32:29Z</time></trkpt>
<trkpt lat="45.70470400" lon="4.65227600"><ele>507.0000000696</ele><time>2006-10-01T10:32:33Z</time></trkpt>
<trkpt lat="45.70491800" lon="4.65270400"><ele>500.9999998776</ele><time>2006-10-01T10:32:38Z</time></trkpt>
<trkpt lat="45.70521000" lon="4.65312700"><ele>494.4999999744</ele><time>2006-10-01T10:32:44Z</time></trkpt>
<trkpt lat="45.70530400" lon="4.65323900"><ele>492.299987712</ele><time>2006-10-01T10:32:46Z</time></trkpt>
<trkpt lat="45.70540800" lon="4.65332300"><ele>490.6000062504</ele><time>2006-10-01T10:32:48Z</time></trkpt>
<trkpt lat="45.70560400" lon="4.65347600"><ele>487.7000122536</ele><time>2006-10-01T10:32:52Z</time></trkpt>
<trkpt lat="45.70589800" lon="4.65373800"><ele>482.7000120936</ele><time>2006-10-01T10:33:00Z</time></trkpt>
<trkpt lat="45.70610500" lon="4.65424400"><ele>474.499999944</ele><time>2006-10-01T10:33:07Z</time></trkpt>
<trkpt lat="45.70634200" lon="4.65476700"><ele>464.600006028</ele><time>2006-10-01T10:33:11Z</time></trkpt>
<trkpt lat="45.70642500" lon="4.65509200"><ele>460.0000000896</ele><time>2006-10-01T10:33:14Z</time></trkpt>
<trkpt lat="45.70668700" lon="4.65522000"><ele>461.5000001376</ele><time>2006-10-01T10:33:20Z</time></trkpt>
<trkpt lat="45.70676200" lon="4.65512600"><ele>462.8999937816</ele><time>2006-10-01T10:33:25Z</time></trkpt>
<trkpt lat="45.70666900" lon="4.65469100"><ele>465.100006044</ele><time>2006-10-01T10:33:33Z</time></trkpt>
<trkpt lat="45.70675700" lon="4.65446500"><ele>467.7999878424</ele><time>2006-10-01T10:33:42Z</time></trkpt>
<trkpt lat="45.70678700" lon="4.65409400"><ele>471.100006236</ele><time>2006-10-01T10:33:55Z</time></trkpt>
<trkpt lat="45.70669400" lon="4.65381900"><ele>474.2000121264</ele><time>2006-10-01T10:34:04Z</time></trkpt>
<trkpt lat="45.70674200" lon="4.65368000"><ele>475.2999877776</ele><time>2006-10-01T10:34:11Z</time></trkpt>
<trkpt lat="45.70695000" lon="4.65319100"><ele>479.7000123024</ele><time>2006-10-01T10:34:31Z</time></trkpt>
<trkpt lat="45.70708400" lon="4.65264000"><ele>488.7999879048</ele><time>2006-10-01T10:34:59Z</time></trkpt>
<trkpt lat="45.70725300" lon="4.65234000"><ele>497.299987872</ele><time>2006-10-01T10:35:12Z</time></trkpt>
<trkpt lat="45.70754100" lon="4.65250000"><ele>502.1000060088</ele><time>2006-10-01T10:35:28Z</time></trkpt>
<trkpt lat="45.70798300" lon="4.65291700"><ele>500.7999876792</ele><time>2006-10-01T10:35:51Z</time></trkpt>
<trkpt lat="45.70833500" lon="4.65286400"><ele>506.5000000536</ele><time>2006-10-01T10:36:08Z</time></trkpt>
<trkpt lat="45.70861700" lon="4.65294000"><ele>510.7000120752</ele><time>2006-10-01T10:36:21Z</time></trkpt>
<trkpt lat="45.70897900" lon="4.65301000"><ele>517.099975704</ele><time>2006-10-01T10:36:40Z</time></trkpt>
<trkpt lat="45.70928500" lon="4.65321700"><ele>521.499999924</ele><time>2006-10-01T10:36:55Z</time></trkpt>
<trkpt lat="45.70963300" lon="4.65347200"><ele>527.500000116</ele><time>2006-10-01T10:37:13Z</time></trkpt>
<trkpt lat="45.70983500" lon="4.65390200"><ele>525.7999878696</ele><time>2006-10-01T10:37:30Z</time></trkpt>
<trkpt lat="45.71011300" lon="4.65412200"><ele>526.2999878856</ele><time>2006-10-01T10:37:44Z</time></trkpt>
<trkpt lat="45.71037900" lon="4.65419500"><ele>526.500000084</ele><time>2006-10-01T10:37:56Z</time></trkpt>
<trkpt lat="45.71052900" lon="4.65416800"><ele>527.4000244968</ele><time>2006-10-01T10:38:04Z</time></trkpt>
<trkpt lat="45.71059900" lon="4.65429200"><ele>526.0999756872</ele><time>2006-10-01T10:38:09Z</time></trkpt>
<trkpt lat="45.71075200" lon="4.65453400"><ele>522.9000243528</ele><time>2006-10-01T10:38:15Z</time></trkpt>
<trkpt lat="45.71098100" lon="4.65489600"><ele>519.0999754632</ele><time>2006-10-01T10:38:19Z</time></trkpt>
<trkpt lat="45.71110000" lon="4.65508600"><ele>516.7999878864</ele><time>2006-10-01T10:38:21Z</time></trkpt>
<trkpt lat="45.71173800" lon="4.65616100"><ele>513.4999999728</ele><time>2006-10-01T10:38:34Z</time></trkpt>
<trkpt lat="45.71222200" lon="4.65707100"><ele>508.2000123</ele><time>2006-10-01T10:38:46Z</time></trkpt>
<trkpt lat="45.71246200" lon="4.65757000"><ele>502.1000060088</ele><time>2006-10-01T10:38:52Z</time></trkpt>
<trkpt lat="45.71264600" lon="4.65773000"><ele>498.1000061856</ele><time>2006-10-01T10:38:56Z</time></trkpt>
<trkpt lat="45.71289500" lon="4.65786200"><ele>492.9999999264</ele><time>2006-10-01T10:39:01Z</time></trkpt>
<trkpt lat="45.71298700" lon="4.65795200"><ele>491.29998768</ele><time>2006-10-01T10:39:03Z</time></trkpt>
<trkpt lat="45.71317000" lon="4.65817900"><ele>488.7000122856</ele><time>2006-10-01T10:39:07Z</time></trkpt>
<trkpt lat="45.71333600" lon="4.65840900"><ele>486.2999878248</ele><time>2006-10-01T10:39:10Z</time></trkpt>
<trkpt lat="45.71354500" lon="4.65866500"><ele>483.6000060264</ele><time>2006-10-01T10:39:14Z</time></trkpt>
<trkpt lat="45.71370500" lon="4.65882200"><ele>481.6000059624</ele><time>2006-10-01T10:39:17Z</time></trkpt>
<trkpt lat="45.71398200" lon="4.65906900"><ele>478.2000122544</ele><time>2006-10-01T10:39:22Z</time></trkpt>
<trkpt lat="45.71415300" lon="4.65921400"><ele>475.7000121744</ele><time>2006-10-01T10:39:25Z</time></trkpt>
<trkpt lat="45.71442300" lon="4.65944100"><ele>471.600006252</ele><time>2006-10-01T10:39:30Z</time></trkpt>
<trkpt lat="45.71464000" lon="4.65962100"><ele>467.8999939416</ele><time>2006-10-01T10:39:34Z</time></trkpt>
<trkpt lat="45.71490600" lon="4.65988600"><ele>462.7000120632</ele><time>2006-10-01T10:39:39Z</time></trkpt>
<trkpt lat="45.71511100" lon="4.66011900"><ele>458.6000061408</ele><time>2006-10-01T10:39:43Z</time></trkpt>
<trkpt lat="45.71556000" lon="4.66058400"><ele>450.299987892</ele><time>2006-10-01T10:39:49Z</time></trkpt>
<trkpt lat="45.71577600" lon="4.66097900"><ele>445.8999938472</ele><time>2006-10-01T10:39:52Z</time></trkpt>
<trkpt lat="45.71610400" lon="4.66147400"><ele>440.5000000752</ele><time>2006-10-01T10:39:59Z</time></trkpt>
<trkpt lat="45.71638900" lon="4.66184000"><ele>436.2000121296</ele><time>2006-10-01T10:40:04Z</time></trkpt>
<trkpt lat="45.71647400" lon="4.66206800"><ele>433.9999998672</ele><time>2006-10-01T10:40:10Z</time></trkpt>
<trkpt lat="45.71634800" lon="4.66270500"><ele>431.7000122904</ele><time>2006-10-01T10:40:13Z</time></trkpt>
<trkpt lat="45.71606400" lon="4.66340000"><ele>428.3999938968</ele><time>2006-10-01T10:40:16Z</time></trkpt>
<trkpt lat="45.71569800" lon="4.66401600"><ele>425.1000059832</ele><time>2006-10-01T10:40:51Z</time></trkpt>
<trkpt lat="45.71489000" lon="4.66484400"><ele>416.4999999168</ele><time>2006-10-01T10:41:04Z</time></trkpt>
<trkpt lat="45.71471700" lon="4.66495900"><ele>415.4999998848</ele><time>2006-10-01T10:41:06Z</time></trkpt>
<trkpt lat="45.71396200" lon="4.66542700"><ele>413.2999879272</ele><time>2006-10-01T10:41:16Z</time></trkpt>
<trkpt lat="45.71318000" lon="4.66575100"><ele>410.6000061288</ele><time>2006-10-01T10:41:39Z</time></trkpt>
<trkpt lat="45.71241100" lon="4.66594300"><ele>410.3999939304</ele><time>2006-10-01T10:41:55Z</time></trkpt>
<trkpt lat="45.71147500" lon="4.66657800"><ele>408.200012148</ele><time>2006-10-01T10:42:01Z</time></trkpt>
<trkpt lat="45.71060500" lon="4.66643900"><ele>407.7999877512</ele><time>2006-10-01T10:42:03Z</time></trkpt>
<trkpt lat="45.71029900" lon="4.66657600"><ele>404.0000001264</ele><time>2006-10-01T10:42:07Z</time></trkpt>
<trkpt lat="45.71003000" lon="4.66660000"><ele>400.8999939312</ele><time>2006-10-01T10:42:11Z</time></trkpt>
<trkpt lat="45.70982800" lon="4.66664400"><ele>398.4999999504</ele><time>2006-10-01T10:42:14Z</time></trkpt>
<trkpt lat="45.70942100" lon="4.66693200"><ele>395.4999998544</ele><time>2006-10-01T10:42:20Z</time></trkpt>
<trkpt lat="45.70886800" lon="4.66732000"><ele>396.1000059696</ele><time>2006-10-01T10:42:28Z</time></trkpt>
<trkpt lat="45.70805400" lon="4.66793200"><ele>395.4999998544</ele><time>2006-10-01T10:42:40Z</time></trkpt>
<trkpt lat="45.70822400" lon="4.66805000"><ele>393.899994012</ele><time>2006-10-01T10:42:46Z</time></trkpt>
<trkpt lat="45.70842400" lon="4.66816600"><ele>392.1000061464</ele><time>2006-10-01T10:42:49Z</time></trkpt>
<trkpt lat="45.70866200" lon="4.66828400"><ele>389.2000121496</ele><time>2006-10-01T10:42:52Z</time></trkpt>
<trkpt lat="45.70881500" lon="4.66848200"><ele>385.899993756</ele><time>2006-10-01T10:42:55Z</time></trkpt>
<trkpt lat="45.70894700" lon="4.66902300"><ele>381.500000016</ele><time>2006-10-01T10:43:01Z</time></trkpt>
<trkpt lat="45.70908000" lon="4.66955200"><ele>377.7999877056</ele><time>2006-10-01T10:43:07Z</time></trkpt>
<trkpt lat="45.70915700" lon="4.66981600"><ele>375.8999940456</ele><time>2006-10-01T10:43:10Z</time></trkpt>
<trkpt lat="45.70921800" lon="4.67000800"><ele>374.3999939976</ele><time>2006-10-01T10:43:12Z</time></trkpt>
<trkpt lat="45.70937500" lon="4.67047400"><ele>370.7999877864</ele><time>2006-10-01T10:43:17Z</time></trkpt>
<trkpt lat="45.70950800" lon="4.67081700"><ele>366.9999998568</ele><time>2006-10-01T10:43:21Z</time></trkpt>
<trkpt lat="45.70979700" lon="4.67142700"><ele>361.4999999856</ele><time>2006-10-01T10:43:28Z</time></trkpt>
<trkpt lat="45.70968100" lon="4.67155100"><ele>362.1000061008</ele><time>2006-10-01T10:43:34Z</time></trkpt>
<trkpt lat="45.70929000" lon="4.67170000"><ele>365.2999879152</ele><time>2006-10-01T10:43:47Z</time></trkpt>
<trkpt lat="45.70901500" lon="4.67192600"><ele>367.7000120712</ele><time>2006-10-01T10:43:57Z</time></trkpt>
<trkpt lat="45.70903000" lon="4.67207700"><ele>367.600005972</ele><time>2006-10-01T10:44:00Z</time></trkpt>
<trkpt lat="45.70905800" lon="4.67243600"><ele>367.600005972</ele><time>2006-10-01T10:44:06Z</time></trkpt>
<trkpt lat="45.70909100" lon="4.67262600"><ele>367.7000120712</ele><time>2006-10-01T10:44:09Z</time></trkpt>
<trkpt lat="45.70924100" lon="4.67303300"><ele>367.2000120552</ele><time>2006-10-01T10:44:15Z</time></trkpt>
<trkpt lat="45.70955500" lon="4.67368500"><ele>366.2999876424</ele><time>2006-10-01T10:44:24Z</time></trkpt>
<trkpt lat="45.70960300" lon="4.67383500"><ele>366.200012328</ele><time>2006-10-01T10:44:26Z</time></trkpt>
<trkpt lat="45.70959000" lon="4.67459500"><ele>366.200012328</ele><time>2006-10-01T10:44:37Z</time></trkpt>
<trkpt lat="45.70954000" lon="4.67500800"><ele>365.0000000976</ele><time>2006-10-01T10:44:43Z</time></trkpt>
<trkpt lat="45.70959000" lon="4.67545700"><ele>362.3999939184</ele><time>2006-10-01T10:44:48Z</time></trkpt>
<trkpt lat="45.70965200" lon="4.67579800"><ele>360.200012136</ele><time>2006-10-01T10:44:51Z</time></trkpt>
<trkpt lat="45.70974700" lon="4.67638100"><ele>356.3999940312</ele><time>2006-10-01T10:44:56Z</time></trkpt>
<trkpt lat="45.70987800" lon="4.67700300"><ele>353.299987836</ele><time>2006-10-01T10:45:01Z</time></trkpt>
<trkpt lat="45.70992600" lon="4.67724900"><ele>352.299987804</ele><time>2006-10-01T10:45:03Z</time></trkpt>
<trkpt lat="45.71003600" lon="4.67754400"><ele>351.799987788</ele><time>2006-10-01T10:45:06Z</time></trkpt>
<trkpt lat="45.71001600" lon="4.67805300"><ele>348.7000120728</ele><time>2006-10-01T10:45:12Z</time></trkpt>
<trkpt lat="45.71006000" lon="4.67864200"><ele>344.2000122336</ele><time>2006-10-01T10:45:18Z</time></trkpt>
<trkpt lat="45.70996900" lon="4.67881000"><ele>342.2000121696</ele><time>2006-10-01T10:45:22Z</time></trkpt>
<trkpt lat="45.70981400" lon="4.67883000"><ele>341.2999877568</ele><time>2006-10-01T10:45:25Z</time></trkpt>
<trkpt lat="45.70969600" lon="4.67885200"><ele>340.4999999232</ele><time>2006-10-01T10:45:27Z</time></trkpt>
<trkpt lat="45.70951300" lon="4.67888300"><ele>339.399993792</ele><time>2006-10-01T10:45:30Z</time></trkpt>
<trkpt lat="45.70931800" lon="4.67884200"><ele>338.7999876768</ele><time>2006-10-01T10:45:33Z</time></trkpt>
<trkpt lat="45.70896300" lon="4.67866600"><ele>339.4999998912</ele><time>2006-10-01T10:45:39Z</time></trkpt>
<trkpt lat="45.70830800" lon="4.67864500"><ele>341.6000060544</ele><time>2006-10-01T10:45:52Z</time></trkpt>
<trkpt lat="45.70755900" lon="4.67861600"><ele>343.2000122016</ele><time>2006-10-01T10:46:09Z</time></trkpt>
<trkpt lat="45.70684500" lon="4.67841300"><ele>342.2999877888</ele><time>2006-10-01T10:46:25Z</time></trkpt>
<trkpt lat="45.70649000" lon="4.67809600"><ele>345.0000000672</ele><time>2006-10-01T10:46:35Z</time></trkpt>
<trkpt lat="45.70622200" lon="4.67779400"><ele>346.7999879328</ele><time>2006-10-01T10:46:47Z</time></trkpt>
<trkpt lat="45.70602000" lon="4.67759000"><ele>348.6000059736</ele><time>2006-10-01T10:46:56Z</time></trkpt>
<trkpt lat="45.70537800" lon="4.67719700"><ele>342.6000060864</ele><time>2006-10-01T10:47:05Z</time></trkpt>
<trkpt lat="45.70524300" lon="4.67707200"><ele>341.6000060544</ele><time>2006-10-01T10:47:08Z</time></trkpt>
<trkpt lat="45.70515000" lon="4.67698600"><ele>341.2000121376</ele><time>2006-10-01T10:47:10Z</time></trkpt>
<trkpt lat="45.70491900" lon="4.67693200"><ele>338.4999998592</ele><time>2006-10-01T10:47:15Z</time></trkpt>
<trkpt lat="45.70479400" lon="4.67701000"><ele>336.7000122984</ele><time>2006-10-01T10:47:18Z</time></trkpt>
<trkpt lat="45.70477800" lon="4.67733600"><ele>337.000000116</ele><time>2006-10-01T10:47:22Z</time></trkpt>
<trkpt lat="45.70475500" lon="4.67864200"><ele>340.7999877408</ele><time>2006-10-01T10:47:53Z</time></trkpt>
<trkpt lat="45.70455900" lon="4.67867400"><ele>342.399993888</ele><time>2006-10-01T10:47:59Z</time></trkpt>
<trkpt lat="45.70429900" lon="4.67867400"><ele>343.6000061184</ele><time>2006-10-01T10:48:07Z</time></trkpt>
<trkpt lat="45.70413000" lon="4.67867400"><ele>344.2999878528</ele><time>2006-10-01T10:48:12Z</time></trkpt>
<trkpt lat="45.70364000" lon="4.67860900"><ele>346.2999879168</ele><time>2006-10-01T10:48:44Z</time></trkpt>
<trkpt lat="45.70315000" lon="4.67700700"><ele>348.4999998744</ele><time>2006-10-01T10:49:01Z</time></trkpt>
<trkpt lat="45.70278200" lon="4.67588400"><ele>352.6000061016</ele><time>2006-10-01T10:49:20Z</time></trkpt>
<trkpt lat="45.70276100" lon="4.67609300"><ele>351.6000060696</ele><time>2006-10-01T10:49:25Z</time></trkpt>
<trkpt lat="45.70244000" lon="4.67689000"><ele>349.3999938072</ele><time>2006-10-01T10:49:37Z</time></trkpt>
<trkpt lat="45.70199900" lon="4.67799900"><ele>349.9999999224</ele><time>2006-10-01T10:49:54Z</time></trkpt>
<trkpt lat="45.70160100" lon="4.67940900"><ele>349.799987724</ele><time>2006-10-01T10:50:12Z</time></trkpt>
<trkpt lat="45.70135400" lon="4.67971800"><ele>349.7000121048</ele><time>2006-10-01T10:50:19Z</time></trkpt>
<trkpt lat="45.70121000" lon="4.67995900"><ele>348.6000059736</ele><time>2006-10-01T10:50:24Z</time></trkpt>
<trkpt lat="45.70098800" lon="4.68024700"><ele>346.6000062144</ele><time>2006-10-01T10:50:30Z</time></trkpt>
<trkpt lat="45.70117400" lon="4.68074800"><ele>343.7000122176</ele><time>2006-10-01T10:50:38Z</time></trkpt>
<trkpt lat="45.70153800" lon="4.68093400"><ele>342.2999877888</ele><time>2006-10-01T10:50:45Z</time></trkpt>
<trkpt lat="45.70184800" lon="4.68083700"><ele>342.2999877888</ele><time>2006-10-01T10:50:50Z</time></trkpt>
<trkpt lat="45.70223100" lon="4.68099100"><ele>339.9999999072</ele><time>2006-10-01T10:50:55Z</time></trkpt>
<trkpt lat="45.70243100" lon="4.68129200"><ele>337.3999940328</ele><time>2006-10-01T10:50:58Z</time></trkpt>
<trkpt lat="45.70278000" lon="4.68181500"><ele>331.8999938568</ele><time>2006-10-01T10:51:04Z</time></trkpt>
<trkpt lat="45.70294100" lon="4.68200200"><ele>329.999999892</ele><time>2006-10-01T10:51:09Z</time></trkpt>
<trkpt lat="45.70306200" lon="4.68217000"><ele>328.5000001488</ele><time>2006-10-01T10:51:14Z</time></trkpt>
<trkpt lat="45.70331800" lon="4.68240700"><ele>325.8999939696</ele><time>2006-10-01T10:51:26Z</time></trkpt>
<trkpt lat="45.70258500" lon="4.68359900"><ele>321.9999999408</ele><time>2006-10-01T10:51:32Z</time></trkpt>
<trkpt lat="45.70261600" lon="4.68377800"><ele>320.8999938096</ele><time>2006-10-01T10:51:34Z</time></trkpt>
<trkpt lat="45.70265700" lon="4.68406900"><ele>319.3999937616</ele><time>2006-10-01T10:51:37Z</time></trkpt>
<trkpt lat="45.70269500" lon="4.68436600"><ele>317.8999940184</ele><time>2006-10-01T10:51:40Z</time></trkpt>
<trkpt lat="45.70251100" lon="4.68461500"><ele>316.8999939864</ele><time>2006-10-01T10:51:48Z</time></trkpt>
<trkpt lat="45.70250400" lon="4.68496700"><ele>315.6000061368</ele><time>2006-10-01T10:51:54Z</time></trkpt>
<trkpt lat="45.70252500" lon="4.68564700"><ele>312.8999938584</ele><time>2006-10-01T10:52:02Z</time></trkpt>
<trkpt lat="45.70252500" lon="4.68585400"><ele>311.8999938264</ele><time>2006-10-01T10:52:05Z</time></trkpt>
<trkpt lat="45.70243100" lon="4.68591800"><ele>311.6000060088</ele><time>2006-10-01T10:52:09Z</time></trkpt>
<trkpt lat="45.70208900" lon="4.68588300"><ele>312.2999877432</ele><time>2006-10-01T10:52:18Z</time></trkpt>
<trkpt lat="45.70201600" lon="4.68607100"><ele>311.7999877272</ele><time>2006-10-01T10:52:22Z</time></trkpt>
<trkpt lat="45.70199600" lon="4.68630200"><ele>310.9999998936</ele><time>2006-10-01T10:52:25Z</time></trkpt>
<trkpt lat="45.70192400" lon="4.68718200"><ele>308.799987936</ele><time>2006-10-01T10:52:35Z</time></trkpt>
<trkpt lat="45.70171000" lon="4.68757800"><ele>308.2000123008</ele><time>2006-10-01T10:52:42Z</time></trkpt>
<trkpt lat="45.70177400" lon="4.68730600"><ele>308.7000123168</ele><time>2006-10-01T10:52:43Z</time></trkpt>
<trkpt lat="45.70178200" lon="4.68793800"><ele>307.299987888</ele><time>2006-10-01T10:52:46Z</time></trkpt>
<trkpt lat="45.70182400" lon="4.68862800"><ele>306.1000061376</ele><time>2006-10-01T10:52:52Z</time></trkpt>
<trkpt lat="45.70184600" lon="4.68914800"><ele>305.7000122208</ele><time>2006-10-01T10:52:56Z</time></trkpt>
<trkpt lat="45.70202700" lon="4.69106900"><ele>302.8999938432</ele><time>2006-10-01T10:53:12Z</time></trkpt>
<trkpt lat="45.70207300" lon="4.69154200"><ele>302.799987744</ele><time>2006-10-01T10:53:16Z</time></trkpt>
<trkpt lat="45.70188000" lon="4.69200300"><ele>302.3999938272</ele><time>2006-10-01T10:53:21Z</time></trkpt>
<trkpt lat="45.70173200" lon="4.69204200"><ele>302.2000121088</ele><time>2006-10-01T10:53:23Z</time></trkpt>
<trkpt lat="45.70151600" lon="4.69204200"><ele>301.7000120928</ele><time>2006-10-01T10:53:26Z</time></trkpt>
<trkpt lat="45.70124800" lon="4.69194100"><ele>300.9999998784</ele><time>2006-10-01T10:53:30Z</time></trkpt>
<trkpt lat="45.70112500" lon="4.69186900"><ele>300.6000059616</ele><time>2006-10-01T10:53:32Z</time></trkpt>
<trkpt lat="45.70094200" lon="4.69180800"><ele>300.0000001512</ele><time>2006-10-01T10:53:35Z</time></trkpt>
<trkpt lat="45.70059900" lon="4.69211500"><ele>298.89999402</ele><time>2006-10-01T10:53:44Z</time></trkpt>
<trkpt lat="45.70063000" lon="4.69247200"><ele>298.7000123016</ele><time>2006-10-01T10:53:48Z</time></trkpt>
<trkpt lat="45.70074200" lon="4.69267000"><ele>299.2000123176</ele><time>2006-10-01T10:53:51Z</time></trkpt>
<trkpt lat="45.70073400" lon="4.69321100"><ele>301.6000059936</ele><time>2006-10-01T10:53:57Z</time></trkpt>
<trkpt lat="45.70051600" lon="4.69362500"><ele>301.9999999104</ele><time>2006-10-01T10:54:02Z</time></trkpt>
<trkpt lat="45.70012500" lon="4.69402200"><ele>300.79998768</ele><time>2006-10-01T10:54:08Z</time></trkpt>
<trkpt lat="45.69986100" lon="4.69413200"><ele>298.2999879048</ele><time>2006-10-01T10:54:11Z</time></trkpt>
<trkpt lat="45.69956500" lon="4.69427600"><ele>294.4999999752</ele><time>2006-10-01T10:54:18Z</time></trkpt>
<trkpt lat="45.69943500" lon="4.69483100"><ele>293.6000060424</ele><time>2006-10-01T10:54:26Z</time></trkpt>
<trkpt lat="45.69850100" lon="4.69701100"><ele>280.7000123352</ele><time>2006-10-01T10:55:08Z</time></trkpt>
<trkpt lat="45.69945200" lon="4.69921900"><ele>270.5000001216</ele><time>2006-10-01T10:55:17Z</time></trkpt>
<trkpt lat="45.69990800" lon="4.69957800"><ele>279.0000000888</ele><time>2006-10-01T10:55:34Z</time></trkpt>
<trkpt lat="45.70008400" lon="4.70004200"><ele>280.600006236</ele><time>2006-10-01T10:55:54Z</time></trkpt>
<trkpt lat="45.70082100" lon="4.70132700"><ele>276.8999939256</ele><time>2006-10-01T10:56:24Z</time></trkpt>
<trkpt lat="45.70089600" lon="4.70152600"><ele>274.4999999448</ele><time>2006-10-01T10:56:29Z</time></trkpt>
<trkpt lat="45.70105400" lon="4.70183700"><ele>274.3999938456</ele><time>2006-10-01T10:56:37Z</time></trkpt>
<trkpt lat="45.70120400" lon="4.70228200"><ele>274.2999877464</ele><time>2006-10-01T10:56:47Z</time></trkpt>
<trkpt lat="45.70130100" lon="4.70258700"><ele>276.8999939256</ele><time>2006-10-01T10:56:55Z</time></trkpt>
<trkpt lat="45.70133700" lon="4.70289900"><ele>277.3999939416</ele><time>2006-10-01T10:57:05Z</time></trkpt>
<trkpt lat="45.70136100" lon="4.70339700"><ele>278.7999878904</ele><time>2006-10-01T10:57:22Z</time></trkpt>
<trkpt lat="45.70140700" lon="4.70379700"><ele>279.3999940056</ele><time>2006-10-01T10:57:43Z</time></trkpt>
<trkpt lat="45.70169400" lon="4.70343000"><ele>279.2000122872</ele><time>2006-10-01T10:58:02Z</time></trkpt>
<trkpt lat="45.70188900" lon="4.70316700"><ele>281.499999864</ele><time>2006-10-01T10:58:14Z</time></trkpt>
<trkpt lat="45.70197100" lon="4.70304500"><ele>281.6000059632</ele><time>2006-10-01T10:58:21Z</time></trkpt>
<trkpt lat="45.70194600" lon="4.70258100"><ele>287.00000004</ele><time>2006-10-01T10:58:39Z</time></trkpt>
<trkpt lat="45.70190800" lon="4.70229800"><ele>289.7999879376</ele><time>2006-10-01T10:58:50Z</time></trkpt>
<trkpt lat="45.70181700" lon="4.70186100"><ele>292.399993812</ele><time>2006-10-01T10:59:09Z</time></trkpt>
<trkpt lat="45.70165200" lon="4.70145500"><ele>294.2999877768</ele><time>2006-10-01T10:59:28Z</time></trkpt>
<trkpt lat="45.70147900" lon="4.70107500"><ele>296.7000122376</ele><time>2006-10-01T10:59:44Z</time></trkpt>
<trkpt lat="45.70127700" lon="4.70062900"><ele>299.6000062344</ele><time>2006-10-01T11:00:04Z</time></trkpt>
<trkpt lat="45.70143600" lon="4.70053600"><ele>302.3999938272</ele><time>2006-10-01T11:00:17Z</time></trkpt>
<trkpt lat="45.70168100" lon="4.70044800"><ele>304.6000060896</ele><time>2006-10-01T11:00:32Z</time></trkpt>
<trkpt lat="45.70201300" lon="4.70037000"><ele>305.8999939392</ele><time>2006-10-01T11:00:49Z</time></trkpt>
<trkpt lat="45.70218800" lon="4.70033700"><ele>305.79998784</ele><time>2006-10-01T11:01:32Z</time></trkpt>
<trkpt lat="45.70255400" lon="4.70023000"><ele>305.3999939232</ele><time>2006-10-01T11:01:44Z</time></trkpt>
<trkpt lat="45.70278200" lon="4.70000400"><ele>305.8999939392</ele><time>2006-10-01T11:01:51Z</time></trkpt>
<trkpt lat="45.70331400" lon="4.69909000"><ele>307.1000061696</ele><time>2006-10-01T11:02:12Z</time></trkpt>
<trkpt lat="45.70337800" lon="4.69884900"><ele>306.6000061536</ele><time>2006-10-01T11:02:16Z</time></trkpt>
<trkpt lat="45.70346000" lon="4.69764400"><ele>306.1000061376</ele><time>2006-10-01T11:02:38Z</time></trkpt>
<trkpt lat="45.70371200" lon="4.69770700"><ele>303.3999938592</ele><time>2006-10-01T11:02:42Z</time></trkpt>
<trkpt lat="45.70396200" lon="4.69762400"><ele>301.8999938112</ele><time>2006-10-01T11:02:46Z</time></trkpt>
<trkpt lat="45.70414200" lon="4.69755800"><ele>301.2000120768</ele><time>2006-10-01T11:02:49Z</time></trkpt>
<trkpt lat="45.70426200" lon="4.69749200"><ele>301.2000120768</ele><time>2006-10-01T11:02:52Z</time></trkpt>
<trkpt lat="45.70443300" lon="4.69769000"><ele>298.1000061864</ele><time>2006-10-01T11:02:56Z</time></trkpt>
<trkpt lat="45.70469100" lon="4.69799000"><ele>293.7000121416</ele><time>2006-10-01T11:03:01Z</time></trkpt>
<trkpt lat="45.70497400" lon="4.69830100"><ele>286.500000024</ele><time>2006-10-01T11:03:05Z</time></trkpt>
<trkpt lat="45.70522500" lon="4.69849900"><ele>282.2999876976</ele><time>2006-10-01T11:03:08Z</time></trkpt>
<trkpt lat="45.70540700" lon="4.69857200"><ele>280.7000123352</ele><time>2006-10-01T11:03:10Z</time></trkpt>
<trkpt lat="45.70569500" lon="4.69862200"><ele>281.2999876656</ele><time>2006-10-01T11:03:13Z</time></trkpt>
<trkpt lat="45.70614900" lon="4.69899300"><ele>290.7999876648</ele><time>2006-10-01T11:03:19Z</time></trkpt>
<trkpt lat="45.70625300" lon="4.69945800"><ele>297.2999878728</ele><time>2006-10-01T11:03:24Z</time></trkpt>
<trkpt lat="45.70615500" lon="4.69995100"><ele>301.4999998944</ele><time>2006-10-01T11:03:35Z</time></trkpt>
<trkpt lat="45.70581000" lon="4.70056500"><ele>303.3999938592</ele><time>2006-10-01T11:03:51Z</time></trkpt>
<trkpt lat="45.70546800" lon="4.70144600"><ele>305.5000000224</ele><time>2006-10-01T11:04:11Z</time></trkpt>
<trkpt lat="45.70529600" lon="4.70188000"><ele>306.5000000544</ele><time>2006-10-01T11:04:22Z</time></trkpt>
<trkpt lat="45.70522700" lon="4.70221900"><ele>308.5000001184</ele><time>2006-10-01T11:04:30Z</time></trkpt>
<trkpt lat="45.70514300" lon="4.70282000"><ele>312.4999999416</ele><time>2006-10-01T11:04:44Z</time></trkpt>
<trkpt lat="45.70505700" lon="4.70344300"><ele>315.20001222</ele><time>2006-10-01T11:05:01Z</time></trkpt>
<trkpt lat="45.70514500" lon="4.70412200"><ele>316.3999939704</ele><time>2006-10-01T11:05:19Z</time></trkpt>
<trkpt lat="45.70518500" lon="4.70493500"><ele>317.2999879032</ele><time>2006-10-01T11:05:37Z</time></trkpt>
<trkpt lat="45.70522200" lon="4.70602900"><ele>315.2999878392</ele><time>2006-10-01T11:05:52Z</time></trkpt>
<trkpt lat="45.70523100" lon="4.70624300"><ele>314.700012204</ele><time>2006-10-01T11:05:54Z</time></trkpt>
<trkpt lat="45.70526600" lon="4.70680700"><ele>311.9999999256</ele><time>2006-10-01T11:05:59Z</time></trkpt>
<trkpt lat="45.70533600" lon="4.70711000"><ele>311.1000059928</ele><time>2006-10-01T11:06:03Z</time></trkpt>
<trkpt lat="45.70522800" lon="4.70719900"><ele>310.3999937784</ele><time>2006-10-01T11:06:07Z</time></trkpt>
<trkpt lat="45.70485900" lon="4.70722100"><ele>308.6000062176</ele><time>2006-10-01T11:06:14Z</time></trkpt>
<trkpt lat="45.70473500" lon="4.70722800"><ele>308.0000001024</ele><time>2006-10-01T11:06:16Z</time></trkpt>
<trkpt lat="45.70460900" lon="4.70724300"><ele>307.3999939872</ele><time>2006-10-01T11:06:18Z</time></trkpt>
<trkpt lat="45.70404400" lon="4.70739700"><ele>302.4999999264</ele><time>2006-10-01T11:06:26Z</time></trkpt>
<trkpt lat="45.70388700" lon="4.70758400"><ele>300.79998768</ele><time>2006-10-01T11:06:31Z</time></trkpt>
<trkpt lat="45.70364000" lon="4.70768400"><ele>298.7000123016</ele><time>2006-10-01T11:06:50Z</time></trkpt>
<trkpt lat="45.70254600" lon="4.70833600"><ele>283.2000121104</ele><time>2006-10-01T11:06:53Z</time></trkpt>
<trkpt lat="45.70254800" lon="4.70845700"><ele>282.8999938128</ele><time>2006-10-01T11:06:54Z</time></trkpt>
<trkpt lat="45.70241500" lon="4.70855300"><ele>280.2000123192</ele><time>2006-10-01T11:06:58Z</time></trkpt>
<trkpt lat="45.70217600" lon="4.70861800"><ele>275.600006076</ele><time>2006-10-01T11:07:05Z</time></trkpt>
<trkpt lat="45.70197500" lon="4.70864500"><ele>273.100005996</ele><time>2006-10-01T11:07:10Z</time></trkpt>
<trkpt lat="45.70168400" lon="4.70868800"><ele>269.3999939904</ele><time>2006-10-01T11:07:52Z</time></trkpt>
<trkpt lat="45.70148000" lon="4.70874600"><ele>267.0000000096</ele><time>2006-10-01T11:08:34Z</time></trkpt>
<trkpt lat="45.70133800" lon="4.70877100"><ele>265.6000060608</ele><time>2006-10-01T11:08:38Z</time></trkpt>
<trkpt lat="45.70119200" lon="4.70877600"><ele>263.9999999136</ele><time>2006-10-01T11:08:42Z</time></trkpt>
<trkpt lat="45.70100800" lon="4.70916600"><ele>260.5000001064</ele><time>2006-10-01T11:08:49Z</time></trkpt>
<trkpt lat="45.70082800" lon="4.70924200"><ele>259.1000061576</ele><time>2006-10-01T11:08:54Z</time></trkpt>
<trkpt lat="45.70027000" lon="4.70905700"><ele>258.0000000264</ele><time>2006-10-01T11:09:04Z</time></trkpt>
<trkpt lat="45.69963400" lon="4.70893500"><ele>257.5000000104</ele><time>2006-10-01T11:09:15Z</time></trkpt>
<trkpt lat="45.69951700" lon="4.70875800"><ele>257.799987828</ele><time>2006-10-01T11:09:47Z</time></trkpt>
<trkpt lat="45.69958700" lon="4.70853900"><ele>258.0000000264</ele><time>2006-10-01T11:10:08Z</time></trkpt>
<trkpt lat="45.69955500" lon="4.70836600"><ele>258.0000000264</ele><time>2006-10-01T11:10:23Z</time></trkpt>
<trkpt lat="45.69966100" lon="4.70796300"><ele>257.7000122088</ele><time>2006-10-01T11:10:40Z</time></trkpt>
<trkpt lat="45.69972000" lon="4.70748000"><ele>257.3999939112</ele><time>2006-10-01T11:10:56Z</time></trkpt>
<trkpt lat="45.69963000" lon="4.70746400"><ele>257.7000122088</ele><time>2006-10-01T11:11:07Z</time></trkpt>
<trkpt lat="45.69945200" lon="4.70794500"><ele>258.7000122408</ele><time>2006-10-01T11:11:30Z</time></trkpt>
<trkpt lat="45.69921200" lon="4.70820900"><ele>259.3999939752</ele><time>2006-10-01T11:11:44Z</time></trkpt>
<trkpt lat="45.69884100" lon="4.70859000"><ele>259.1000061576</ele><time>2006-10-01T11:12:05Z</time></trkpt>
<trkpt lat="45.69850100" lon="4.70866900"><ele>261.1000062216</ele><time>2006-10-01T11:12:31Z</time></trkpt>
<trkpt lat="45.69872100" lon="4.70834200"><ele>262.9999998816</ele><time>2006-10-01T11:12:48Z</time></trkpt>
<trkpt lat="45.69882000" lon="4.70793900"><ele>266.700012192</ele><time>2006-10-01T11:13:06Z</time></trkpt>
<trkpt lat="45.69882300" lon="4.70777600"><ele>268.6000061568</ele><time>2006-10-01T11:13:14Z</time></trkpt>
<trkpt lat="45.69877200" lon="4.70766000"><ele>271.200012336</ele><time>2006-10-01T11:13:20Z</time></trkpt>
<trkpt lat="45.69876600" lon="4.70728600"><ele>276.2000121912</ele><time>2006-10-01T11:13:38Z</time></trkpt>
<trkpt lat="45.69844900" lon="4.70716400"><ele>283.1000060112</ele><time>2006-10-01T11:13:58Z</time></trkpt>
<trkpt lat="45.69816400" lon="4.70710900"><ele>287.500000056</ele><time>2006-10-01T11:14:17Z</time></trkpt>
<trkpt lat="45.69789100" lon="4.70706000"><ele>291.1000059624</ele><time>2006-10-01T11:14:34Z</time></trkpt>
<trkpt lat="45.69744900" lon="4.70696700"><ele>296.1000061224</ele><time>2006-10-01T11:14:57Z</time></trkpt>
<trkpt lat="45.69693700" lon="4.70674300"><ele>299.7000123336</ele><time>2006-10-01T11:15:13Z</time></trkpt>
<trkpt lat="45.69623100" lon="4.70637200"><ele>299.6000062344</ele><time>2006-10-01T11:15:27Z</time></trkpt>
<trkpt lat="45.69539200" lon="4.70562800"><ele>299.2000123176</ele><time>2006-10-01T11:15:45Z</time></trkpt>
<trkpt lat="45.69446600" lon="4.70476500"><ele>300.9999998784</ele><time>2006-10-01T11:16:12Z</time></trkpt>
<trkpt lat="45.69393400" lon="4.70420900"><ele>302.299987728</ele><time>2006-10-01T11:16:28Z</time></trkpt>
<trkpt lat="45.69359800" lon="4.70382200"><ele>303.4999999584</ele><time>2006-10-01T11:16:56Z</time></trkpt>
<trkpt lat="45.69255700" lon="4.70498200"><ele>302.1000060096</ele><time>2006-10-01T11:17:13Z</time></trkpt>
<trkpt lat="45.69192000" lon="4.70516900"><ele>302.799987744</ele><time>2006-10-01T11:17:30Z</time></trkpt>
<trkpt lat="45.69127300" lon="4.70509400"><ele>305.3999939232</ele><time>2006-10-01T11:17:49Z</time></trkpt>
<trkpt lat="45.69069300" lon="4.70496000"><ele>307.799987904</ele><time>2006-10-01T11:18:06Z</time></trkpt>
<trkpt lat="45.69012600" lon="4.70499700"><ele>309.1000062336</ele><time>2006-10-01T11:18:23Z</time></trkpt>
<trkpt lat="45.68956300" lon="4.70525600"><ele>310.1000059608</ele><time>2006-10-01T11:18:41Z</time></trkpt>
<trkpt lat="45.68898500" lon="4.70580000"><ele>310.7999876952</ele><time>2006-10-01T11:19:01Z</time></trkpt>
<trkpt lat="45.68858200" lon="4.70649700"><ele>312.70001214</ele><time>2006-10-01T11:19:19Z</time></trkpt>
<trkpt lat="45.68839300" lon="4.70709600"><ele>314.8999939224</ele><time>2006-10-01T11:19:33Z</time></trkpt>
<trkpt lat="45.68818400" lon="4.70760600"><ele>317.1000061848</ele><time>2006-10-01T11:19:45Z</time></trkpt>
<trkpt lat="45.68801100" lon="4.70814400"><ele>320.8999938096</ele><time>2006-10-01T11:20:00Z</time></trkpt>
<trkpt lat="45.68778100" lon="4.70866300"><ele>324.0000000048</ele><time>2006-10-01T11:20:16Z</time></trkpt>
<trkpt lat="45.68741000" lon="4.70920500"><ele>325.7999878704</ele><time>2006-10-01T11:20:36Z</time></trkpt>
<trkpt lat="45.68711600" lon="4.70976200"><ele>325.100006136</ele><time>2006-10-01T11:20:51Z</time></trkpt>
<trkpt lat="45.68709600" lon="4.70999400"><ele>324.5000000208</ele><time>2006-10-01T11:20:54Z</time></trkpt>
<trkpt lat="45.68726000" lon="4.71063300"><ele>320.9999999088</ele><time>2006-10-01T11:21:01Z</time></trkpt>
<trkpt lat="45.68745900" lon="4.71140600"><ele>316.7999878872</ele><time>2006-10-01T11:21:08Z</time></trkpt>
<trkpt lat="45.68786300" lon="4.71284300"><ele>309.7000123488</ele><time>2006-10-01T11:21:22Z</time></trkpt>
<trkpt lat="45.68819400" lon="4.71325800"><ele>308.1000062016</ele><time>2006-10-01T11:21:27Z</time></trkpt>
<trkpt lat="45.68827400" lon="4.71332200"><ele>307.6000061856</ele><time>2006-10-01T11:21:28Z</time></trkpt>
<trkpt lat="45.68904700" lon="4.71394800"><ele>302.9999999424</ele><time>2006-10-01T11:21:38Z</time></trkpt>
<trkpt lat="45.68920400" lon="4.71407200"><ele>302.3999938272</ele><time>2006-10-01T11:21:40Z</time></trkpt>
<trkpt lat="45.68945000" lon="4.71425100"><ele>301.9999999104</ele><time>2006-10-01T11:21:43Z</time></trkpt>
<trkpt lat="45.69034000" lon="4.71490200"><ele>300.299987664</ele><time>2006-10-01T11:21:55Z</time></trkpt>
<trkpt lat="45.69135300" lon="4.71543700"><ele>299.7000123336</ele><time>2006-10-01T11:22:08Z</time></trkpt>
<trkpt lat="45.69164000" lon="4.71549400"><ele>300.299987664</ele><time>2006-10-01T11:22:12Z</time></trkpt>
<trkpt lat="45.69189900" lon="4.71561800"><ele>300.299987664</ele><time>2006-10-01T11:22:16Z</time></trkpt>
<trkpt lat="45.69213000" lon="4.71586000"><ele>300.1000062504</ele><time>2006-10-01T11:22:20Z</time></trkpt>
<trkpt lat="45.69235300" lon="4.71639600"><ele>299.2000123176</ele><time>2006-10-01T11:22:28Z</time></trkpt>
<trkpt lat="45.69314000" lon="4.71756200"><ele>293.9999999592</ele><time>2006-10-01T11:22:42Z</time></trkpt>
<trkpt lat="45.69337100" lon="4.71790000"><ele>290.9999998632</ele><time>2006-10-01T11:22:46Z</time></trkpt>
<trkpt lat="45.69369600" lon="4.71837400"><ele>288.8999940048</ele><time>2006-10-01T11:22:51Z</time></trkpt>
<trkpt lat="45.69396600" lon="4.71874200"><ele>287.8999939728</ele><time>2006-10-01T11:22:55Z</time></trkpt>
<trkpt lat="45.69453100" lon="4.71971300"><ele>268.5000000576</ele><time>2006-10-01T11:23:06Z</time></trkpt>
<trkpt lat="45.69453400" lon="4.72007800"><ele>262.2999876672</ele><time>2006-10-01T11:23:10Z</time></trkpt>
<trkpt lat="45.69446700" lon="4.72117300"><ele>251.0000001072</ele><time>2006-10-01T11:23:24Z</time></trkpt>
<trkpt lat="45.69447000" lon="4.72161300"><ele>248.8000030848</ele><time>2006-10-01T11:23:30Z</time></trkpt>
<trkpt lat="45.69452900" lon="4.72212200"><ele>244.899993816</ele><time>2006-10-01T11:23:38Z</time></trkpt>
<trkpt lat="45.69430600" lon="4.72334900"><ele>243.9999998832</ele><time>2006-10-01T11:23:44Z</time></trkpt>
<trkpt lat="45.69456000" lon="4.72302100"><ele>240.1000061592</ele><time>2006-10-01T11:23:54Z</time></trkpt>
<trkpt lat="45.69444300" lon="4.72325000"><ele>241.6000062072</ele><time>2006-10-01T11:24:02Z</time></trkpt>
<trkpt lat="45.69433800" lon="4.72346700"><ele>241.3999940088</ele><time>2006-10-01T11:24:05Z</time></trkpt>
<trkpt lat="45.69449400" lon="4.72377600"><ele>235.8000029736</ele><time>2006-10-01T11:24:10Z</time></trkpt>
<trkpt lat="45.69459500" lon="4.72389500"><ele>234.3000029256</ele><time>2006-10-01T11:24:12Z</time></trkpt>
<trkpt lat="45.69472700" lon="4.72406900"><ele>232.8000031824</ele><time>2006-10-01T11:24:15Z</time></trkpt>
<trkpt lat="45.69472000" lon="4.72422200"><ele>232.100006208</ele><time>2006-10-01T11:24:18Z</time></trkpt>
<trkpt lat="45.69456000" lon="4.72419000"><ele>232.5000001248</ele><time>2006-10-01T11:24:22Z</time></trkpt>
<trkpt lat="45.69433700" lon="4.72403500"><ele>234.3000029256</ele><time>2006-10-01T11:24:26Z</time></trkpt>
<trkpt lat="45.69421400" lon="4.72394600"><ele>234.9999999</ele><time>2006-10-01T11:24:28Z</time></trkpt>
<trkpt lat="45.69411100" lon="4.72508500"><ele>226.600006032</ele><time>2006-10-01T11:24:52Z</time></trkpt>
<trkpt lat="45.69402400" lon="4.72593100"><ele>231.100006176</ele><time>2006-10-01T11:25:01Z</time></trkpt>
<trkpt lat="45.69412500" lon="4.72598500"><ele>234.1000059672</ele><time>2006-10-01T11:25:12Z</time></trkpt>
<trkpt lat="45.69416600" lon="4.72617300"><ele>238.6000061112</ele><time>2006-10-01T11:25:43Z</time></trkpt>
<trkpt lat="45.69375100" lon="4.72648400"><ele>229.1999969712</ele><time>2006-10-01T11:26:02Z</time></trkpt>
<trkpt lat="45.69242900" lon="4.72772500"><ele>241.8000031656</ele><time>2006-10-01T11:26:36Z</time></trkpt>
<trkpt lat="45.69169000" lon="4.72886500"><ele>245.3000029728</ele><time>2006-10-01T11:27:25Z</time></trkpt>
<trkpt lat="45.69121800" lon="4.73048300"><ele>236.8999938648</ele><time>2006-10-01T11:27:28Z</time></trkpt>
<trkpt lat="45.69146300" lon="4.73093100"><ele>236.6999969064</ele><time>2006-10-01T11:27:35Z</time></trkpt>
<trkpt lat="45.69196400" lon="4.73148100"><ele>235.6000060152</ele><time>2006-10-01T11:27:47Z</time></trkpt>
<trkpt lat="45.69226800" lon="4.73219400"><ele>236.1000060312</ele><time>2006-10-01T11:27:57Z</time></trkpt>
<trkpt lat="45.69232900" lon="4.73256900"><ele>233.10000624</ele><time>2006-10-01T11:28:01Z</time></trkpt>
<trkpt lat="45.69210800" lon="4.73315800"><ele>226.6999968912</ele><time>2006-10-01T11:28:07Z</time></trkpt>
<trkpt lat="45.69180900" lon="4.73445500"><ele>231.0000000768</ele><time>2006-10-01T11:28:20Z</time></trkpt>
<trkpt lat="45.69153500" lon="4.73489100"><ele>233.999999868</ele><time>2006-10-01T11:28:27Z</time></trkpt>
<trkpt lat="45.69108200" lon="4.73562500"><ele>234.1000059672</ele><time>2006-10-01T11:28:38Z</time></trkpt>
<trkpt lat="45.69103500" lon="4.73578100"><ele>233.6999968104</ele><time>2006-10-01T11:28:40Z</time></trkpt>
<trkpt lat="45.69100800" lon="4.73650100"><ele>242.899993752</ele><time>2006-10-01T11:28:48Z</time></trkpt>
<trkpt lat="45.69083500" lon="4.73681900"><ele>243.4999998672</ele><time>2006-10-01T11:28:52Z</time></trkpt>
<trkpt lat="45.69069600" lon="4.73716700"><ele>243.6000059664</ele><time>2006-10-01T11:28:56Z</time></trkpt>
<trkpt lat="45.69037200" lon="4.73894800"><ele>239.8000031016</ele><time>2006-10-01T11:29:07Z</time></trkpt>
<trkpt lat="45.69023000" lon="4.73956200"><ele>246.4999999632</ele><time>2006-10-01T11:29:19Z</time></trkpt>
<trkpt lat="45.69030300" lon="4.73942100"><ele>246.6000060624</ele><time>2006-10-01T11:29:22Z</time></trkpt>
<trkpt lat="45.69035900" lon="4.73902000"><ele>239.8999939608</ele><time>2006-10-01T11:29:27Z</time></trkpt>
<trkpt lat="45.69003600" lon="4.73828300"><ele>223.3000031832</ele><time>2006-10-01T11:29:33Z</time></trkpt>
<trkpt lat="45.68971400" lon="4.73777800"><ele>218.1000060648</ele><time>2006-10-01T11:29:36Z</time></trkpt>
<trkpt lat="45.68963600" lon="4.73777900"><ele>217.699996908</ele><time>2006-10-01T11:29:48Z</time></trkpt>
<trkpt lat="45.68954600" lon="4.73819700"><ele>216.9999999336</ele><time>2006-10-01T11:30:04Z</time></trkpt>
<trkpt lat="45.68938000" lon="4.73845800"><ele>216.8000029752</ele><time>2006-10-01T11:30:09Z</time></trkpt>
<trkpt lat="45.68905900" lon="4.73873900"><ele>218.1000060648</ele><time>2006-10-01T11:30:15Z</time></trkpt>
<trkpt lat="45.68837100" lon="4.73983500"><ele>217.3000029912</ele><time>2006-10-01T11:30:40Z</time></trkpt>
<trkpt lat="45.68789400" lon="4.74064600"><ele>217.1000060328</ele><time>2006-10-01T11:31:05Z</time></trkpt>
<trkpt lat="45.68758400" lon="4.74172100"><ele>214.9999998696</ele><time>2006-10-01T11:31:23Z</time></trkpt>
<trkpt lat="45.68730600" lon="4.74258100"><ele>215.4999998856</ele><time>2006-10-01T11:31:39Z</time></trkpt>
<trkpt lat="45.68723800" lon="4.74275000"><ele>215.1000059688</ele><time>2006-10-01T11:31:42Z</time></trkpt>
<trkpt lat="45.68678700" lon="4.74294000"><ele>217.8000030072</ele><time>2006-10-01T11:31:54Z</time></trkpt>
<trkpt lat="45.68607200" lon="4.74374800"><ele>216.6000060168</ele><time>2006-10-01T11:32:17Z</time></trkpt>
<trkpt lat="45.68502900" lon="4.74495800"><ele>215.8000029432</ele><time>2006-10-01T11:32:43Z</time></trkpt>
<trkpt lat="45.68417800" lon="4.74549300"><ele>218.3000030232</ele><time>2006-10-01T11:32:53Z</time></trkpt>
<trkpt lat="45.68399300" lon="4.74571100"><ele>217.8000030072</ele><time>2006-10-01T11:33:04Z</time></trkpt>
<trkpt lat="45.68321000" lon="4.74613800"><ele>218.6000060808</ele><time>2006-10-01T11:33:15Z</time></trkpt>
<trkpt lat="45.68254800" lon="4.74663900"><ele>216.4999999176</ele><time>2006-10-01T11:33:25Z</time></trkpt>
<trkpt lat="45.68221500" lon="4.74694200"><ele>215.699996844</ele><time>2006-10-01T11:33:30Z</time></trkpt>
<trkpt lat="45.68200200" lon="4.74703300"><ele>215.3999937864</ele><time>2006-10-01T11:33:33Z</time></trkpt>
<trkpt lat="45.68166600" lon="4.74718400"><ele>216.3999938184</ele><time>2006-10-01T11:33:38Z</time></trkpt>
<trkpt lat="45.68132800" lon="4.74755000"><ele>214.199996796</ele><time>2006-10-01T11:33:44Z</time></trkpt>
<trkpt lat="45.68069300" lon="4.74791800"><ele>213.6999970848</ele><time>2006-10-01T11:33:53Z</time></trkpt>
<trkpt lat="45.68034700" lon="4.74781800"><ele>215.6000059848</ele><time>2006-10-01T11:33:58Z</time></trkpt>
<trkpt lat="45.68021400" lon="4.74777800"><ele>216.3999938184</ele><time>2006-10-01T11:34:00Z</time></trkpt>
<trkpt lat="45.67964000" lon="4.74798600"><ele>216.9999999336</ele><time>2006-10-01T11:34:09Z</time></trkpt>
<trkpt lat="45.67922800" lon="4.74832000"><ele>216.1000060008</ele><time>2006-10-01T11:34:16Z</time></trkpt>
<trkpt lat="45.67906900" lon="4.74866900"><ele>214.3999937544</ele><time>2006-10-01T11:34:20Z</time></trkpt>
<trkpt lat="45.67897000" lon="4.74900600"><ele>213.1000062096</ele><time>2006-10-01T11:34:23Z</time></trkpt>
<trkpt lat="45.67836800" lon="4.74974700"><ele>211.1999970048</ele><time>2006-10-01T11:34:32Z</time></trkpt>
<trkpt lat="45.67743800" lon="4.75015200"><ele>211.300003104</ele><time>2006-10-01T11:34:44Z</time></trkpt>
<trkpt lat="45.67732600" lon="4.75071500"><ele>210.0000000144</ele><time>2006-10-01T11:34:51Z</time></trkpt>
<trkpt lat="45.67783900" lon="4.75185400"><ele>210.0000000144</ele><time>2006-10-01T11:35:07Z</time></trkpt>
<trkpt lat="47.73656200" lon="-3.48559800"><ele>24.4849872504</ele><time>2007-04-27T17:37:23Z</time></trkpt>
<trkpt lat="47.73664100" lon="-3.48553500"><ele>23.6803588368</ele><time>2007-04-27T17:37:57Z</time></trkpt>
<trkpt lat="47.73669600" lon="-3.48541800"><ele>22.5424691136</ele><time>2007-04-27T17:38:00Z</time></trkpt>
<trkpt lat="47.73680500" lon="-3.48534700"><ele>21.2726250696</ele><time>2007-04-27T17:38:03Z</time></trkpt>
<trkpt lat="47.73690200" lon="-3.48541800"><ele>21.0054130056</ele><time>2007-04-27T17:38:05Z</time></trkpt>
<trkpt lat="47.73699900" lon="-3.48547200"><ele>20.6031684456</ele><time>2007-04-27T17:38:07Z</time></trkpt>
<trkpt lat="47.73712600" lon="-3.48550800"><ele>19.8168124872</ele><time>2007-04-27T17:38:09Z</time></trkpt>
<trkpt lat="47.73724700" lon="-3.48556200"><ele>19.3599148488</ele><time>2007-04-27T17:38:11Z</time></trkpt>
<trkpt lat="47.73736800" lon="-3.48563400"><ele>19.0874882664</ele><time>2007-04-27T17:38:13Z</time></trkpt>
<trkpt lat="47.73749000" lon="-3.48569700"><ele>18.5803318512</ele><time>2007-04-27T17:38:15Z</time></trkpt>
<trkpt lat="47.73761100" lon="-3.48574200"><ele>17.9012337936</ele><time>2007-04-27T17:38:17Z</time></trkpt>
<trkpt lat="47.73771400" lon="-3.48577800"><ele>17.3424969888</ele><time>2007-04-27T17:38:19Z</time></trkpt>
<trkpt lat="47.73780500" lon="-3.48583200"><ele>16.961641464</ele><time>2007-04-27T17:38:21Z</time></trkpt>
<trkpt lat="47.73787100" lon="-3.48594800"><ele>17.7252998808</ele><time>2007-04-27T17:38:24Z</time></trkpt>
<trkpt lat="47.73788900" lon="-3.48581400"><ele>15.452459316</ele><time>2007-04-27T17:38:29Z</time></trkpt>
<trkpt lat="47.73781100" lon="-3.48569700"><ele>14.809575156</ele><time>2007-04-27T17:38:32Z</time></trkpt>
<trkpt lat="47.73768900" lon="-3.48558000"><ele>14.5288247904</ele><time>2007-04-27T17:38:34Z</time></trkpt>
<trkpt lat="47.73757400" lon="-3.48549000"><ele>14.5944375624</ele><time>2007-04-27T17:38:36Z</time></trkpt>
<trkpt lat="47.73747100" lon="-3.48537300"><ele>15.2381248704</ele><time>2007-04-27T17:38:38Z</time></trkpt>
<trkpt lat="47.73736800" lon="-3.48515800"><ele>16.1834373816</ele><time>2007-04-27T17:38:40Z</time></trkpt>
<trkpt lat="47.73726500" lon="-3.48498700"><ele>16.6900061424</ele><time>2007-04-27T17:38:42Z</time></trkpt>
<trkpt lat="47.73718000" lon="-3.48485200"><ele>16.7003458728</ele><time>2007-04-27T17:38:44Z</time></trkpt>
<trkpt lat="47.73705900" lon="-3.48474500"><ele>16.6979370384</ele><time>2007-04-27T17:38:46Z</time></trkpt>
<trkpt lat="47.73692000" lon="-3.48464600"><ele>16.7525005056</ele><time>2007-04-27T17:38:48Z</time></trkpt>
<trkpt lat="47.73678700" lon="-3.48461000"><ele>16.950071256</ele><time>2007-04-27T17:38:50Z</time></trkpt>
<trkpt lat="47.73666500" lon="-3.48458300"><ele>17.1346188168</ele><time>2007-04-27T17:38:52Z</time></trkpt>
<trkpt lat="47.73654400" lon="-3.48454700"><ele>17.2660750944</ele><time>2007-04-27T17:38:54Z</time></trkpt>
<trkpt lat="47.73642900" lon="-3.48452900"><ele>17.450389788</ele><time>2007-04-27T17:38:56Z</time></trkpt>
<trkpt lat="47.73630800" lon="-3.48453800"><ele>17.7732449208</ele><time>2007-04-27T17:38:58Z</time></trkpt>
<trkpt lat="47.73619900" lon="-3.48452000"><ele>17.9441813328</ele><time>2007-04-27T17:39:00Z</time></trkpt>
<trkpt lat="47.73609600" lon="-3.48449300"><ele>18.0436552512</ele><time>2007-04-27T17:39:02Z</time></trkpt>
<trkpt lat="47.73598100" lon="-3.48447500"><ele>18.0900000912</ele><time>2007-04-27T17:39:04Z</time></trkpt>
<trkpt lat="47.73587800" lon="-3.48441200"><ele>17.540000988</ele><time>2007-04-27T17:39:06Z</time></trkpt>
<trkpt lat="47.73574400" lon="-3.48434900"><ele>16.9512502224</ele><time>2007-04-27T17:39:08Z</time></trkpt>
<trkpt lat="47.73561700" lon="-3.48429500"><ele>16.422500556</ele><time>2007-04-27T17:39:10Z</time></trkpt>
<trkpt lat="47.73549600" lon="-3.48427800"><ele>16.2022496376</ele><time>2007-04-27T17:39:12Z</time></trkpt>
<trkpt lat="47.73536200" lon="-3.48426000"><ele>16.0121001576</ele><time>2007-04-27T17:39:14Z</time></trkpt>
<trkpt lat="47.73522300" lon="-3.48426000"><ele>15.911820348</ele><time>2007-04-27T17:39:16Z</time></trkpt>
<trkpt lat="47.73507800" lon="-3.48425100"><ele>15.8103121944</ele><time>2007-04-27T17:39:18Z</time></trkpt>
<trkpt lat="47.73492600" lon="-3.48423300"><ele>15.8046883296</ele><time>2007-04-27T17:39:20Z</time></trkpt>
<trkpt lat="47.73479900" lon="-3.48417000"><ele>15.584375232</ele><time>2007-04-27T17:39:22Z</time></trkpt>
<trkpt lat="47.73468400" lon="-3.48408900"><ele>15.2778128784</ele><time>2007-04-27T17:39:24Z</time></trkpt>
<trkpt lat="47.73458100" lon="-3.48404400"><ele>15.3509377512</ele><time>2007-04-27T17:39:26Z</time></trkpt>
<trkpt lat="47.73447800" lon="-3.48401700"><ele>15.5106249096</ele><time>2007-04-27T17:39:28Z</time></trkpt>
<trkpt lat="47.73436900" lon="-3.48399900"><ele>15.7293749928</ele><time>2007-04-27T17:39:30Z</time></trkpt>
<trkpt lat="47.73425300" lon="-3.48394500"><ele>15.8087500944</ele><time>2007-04-27T17:39:32Z</time></trkpt>
<trkpt lat="47.73414400" lon="-3.48389100"><ele>15.8194409544</ele><time>2007-04-27T17:39:34Z</time></trkpt>
<trkpt lat="47.73403500" lon="-3.48387300"><ele>15.9878597184</ele><time>2007-04-27T17:39:36Z</time></trkpt>
<trkpt lat="47.73401700" lon="-3.48371200"><ele>15.4443330432</ele><time>2007-04-27T17:39:51Z</time></trkpt>
<trkpt lat="47.73393800" lon="-3.48353200"><ele>15.0580654896</ele><time>2007-04-27T17:39:54Z</time></trkpt>
<trkpt lat="47.73390800" lon="-3.48337000"><ele>14.6359653432</ele><time>2007-04-27T17:39:56Z</time></trkpt>
<trkpt lat="47.73388400" lon="-3.48317300"><ele>14.1296452992</ele><time>2007-04-27T17:39:59Z</time></trkpt>
<trkpt lat="47.73381100" lon="-3.48303800"><ele>14.0843754888</ele><time>2007-04-27T17:40:01Z</time></trkpt>
<trkpt lat="47.73372000" lon="-3.48293000"><ele>14.2212495864</ele><time>2007-04-27T17:40:03Z</time></trkpt>
<trkpt lat="47.73362900" lon="-3.48280400"><ele>14.3037501072</ele><time>2007-04-27T17:40:05Z</time></trkpt>
<trkpt lat="47.73357500" lon="-3.48264300"><ele>14.10999972</ele><time>2007-04-27T17:40:07Z</time></trkpt>
<trkpt lat="47.73353200" lon="-3.48245400"><ele>13.7987498472</ele><time>2007-04-27T17:40:09Z</time></trkpt>
<trkpt lat="47.73348400" lon="-3.48227400"><ele>13.538991972</ele><time>2007-04-27T17:40:11Z</time></trkpt>
<trkpt lat="47.73342300" lon="-3.48208600"><ele>13.2831248688</ele><time>2007-04-27T17:40:13Z</time></trkpt>
<trkpt lat="47.73335000" lon="-3.48188800"><ele>12.8999994984</ele><time>2007-04-27T17:40:15Z</time></trkpt>
<trkpt lat="47.73328400" lon="-3.48169900"><ele>12.5212498368</ele><time>2007-04-27T17:40:17Z</time></trkpt>
<trkpt lat="47.73324700" lon="-3.48152000"><ele>12.1994685144</ele><time>2007-04-27T17:40:19Z</time></trkpt>
<trkpt lat="47.73324100" lon="-3.48134000"><ele>11.8231840752</ele><time>2007-04-27T17:40:21Z</time></trkpt>
<trkpt lat="47.73329000" lon="-3.48108000"><ele>11.2171145736</ele><time>2007-04-27T17:40:23Z</time></trkpt>
<trkpt lat="47.73332000" lon="-3.48093600"><ele>10.890659448</ele><time>2007-04-27T17:40:24Z</time></trkpt>
<trkpt lat="47.73335700" lon="-3.48080100"><ele>10.5325002456</ele><time>2007-04-27T17:40:25Z</time></trkpt>
<trkpt lat="47.73339300" lon="-3.48067500"><ele>10.1715536472</ele><time>2007-04-27T17:40:26Z</time></trkpt>
<trkpt lat="47.73342900" lon="-3.48054100"><ele>9.7630347792</ele><time>2007-04-27T17:40:27Z</time></trkpt>
<trkpt lat="47.73348400" lon="-3.48031600"><ele>9.026874504</ele><time>2007-04-27T17:40:29Z</time></trkpt>
<trkpt lat="47.73349000" lon="-3.48010900"><ele>8.4156246216</ele><time>2007-04-27T17:40:31Z</time></trkpt>
<trkpt lat="47.73341700" lon="-3.47989400"><ele>7.9812498744</ele><time>2007-04-27T17:40:33Z</time></trkpt>
<trkpt lat="47.73335000" lon="-3.47969600"><ele>7.5812501664</ele><time>2007-04-27T17:40:35Z</time></trkpt>
<trkpt lat="47.73329600" lon="-3.47949000"><ele>7.3899497616</ele><time>2007-04-27T17:40:37Z</time></trkpt>
<trkpt lat="47.73327200" lon="-3.47926500"><ele>7.2798380184</ele><time>2007-04-27T17:40:39Z</time></trkpt>
<trkpt lat="47.73330200" lon="-3.47906700"><ele>6.9525590184</ele><time>2007-04-27T17:40:41Z</time></trkpt>
<trkpt lat="47.73342300" lon="-3.47890600"><ele>6.3368749056</ele><time>2007-04-27T17:40:43Z</time></trkpt>
<trkpt lat="47.73353200" lon="-3.47874400"><ele>6.1824998016</ele><time>2007-04-27T17:40:45Z</time></trkpt>
<trkpt lat="47.73361100" lon="-3.47855500"><ele>6.3435969648</ele><time>2007-04-27T17:40:47Z</time></trkpt>
<trkpt lat="47.73365300" lon="-3.47834000"><ele>6.92577228</ele><time>2007-04-27T17:40:49Z</time></trkpt>
<trkpt lat="47.73367800" lon="-3.47812400"><ele>7.5123519552</ele><time>2007-04-27T17:40:51Z</time></trkpt>
<trkpt lat="47.73369600" lon="-3.47791700"><ele>8.068507104</ele><time>2007-04-27T17:40:53Z</time></trkpt>
<trkpt lat="47.73372000" lon="-3.47772000"><ele>8.5673552808</ele><time>2007-04-27T17:40:55Z</time></trkpt>
<trkpt lat="47.73375000" lon="-3.47752200"><ele>9.0706251912</ele><time>2007-04-27T17:40:57Z</time></trkpt>
<trkpt lat="47.73376900" lon="-3.47733400"><ele>9.5993748576</ele><time>2007-04-27T17:40:59Z</time></trkpt>
<trkpt lat="47.73377500" lon="-3.47715400"><ele>10.1500006296</ele><time>2007-04-27T17:41:01Z</time></trkpt>
<trkpt lat="47.73375000" lon="-3.47699200"><ele>10.7819689872</ele><time>2007-04-27T17:41:03Z</time></trkpt>
<trkpt lat="47.73371400" lon="-3.47684800"><ele>11.399254824</ele><time>2007-04-27T17:41:05Z</time></trkpt>
<trkpt lat="47.73367200" lon="-3.47670500"><ele>12.019374996</ele><time>2007-04-27T17:41:07Z</time></trkpt>
<trkpt lat="47.73361700" lon="-3.47656100"><ele>12.7124996448</ele><time>2007-04-27T17:41:09Z</time></trkpt>
<trkpt lat="47.73356900" lon="-3.47643500"><ele>13.3137502584</ele><time>2007-04-27T17:41:11Z</time></trkpt>
<trkpt lat="47.73352600" lon="-3.47631800"><ele>13.8553067064</ele><time>2007-04-27T17:41:13Z</time></trkpt>
<trkpt lat="47.73347800" lon="-3.47618400"><ele>14.3846379312</ele><time>2007-04-27T17:41:15Z</time></trkpt>
<trkpt lat="47.73342300" lon="-3.47604000"><ele>14.8995484584</ele><time>2007-04-27T17:41:17Z</time></trkpt>
<trkpt lat="47.73336900" lon="-3.47590500"><ele>15.3432217392</ele><time>2007-04-27T17:41:19Z</time></trkpt>
<trkpt lat="47.73333200" lon="-3.47577000"><ele>15.6956263176</ele><time>2007-04-27T17:41:21Z</time></trkpt>
<trkpt lat="47.73330200" lon="-3.47563600"><ele>15.9884053104</ele><time>2007-04-27T17:41:23Z</time></trkpt>
<trkpt lat="47.73330200" lon="-3.47546500"><ele>16.2603265344</ele><time>2007-04-27T17:41:25Z</time></trkpt>
<trkpt lat="47.73333800" lon="-3.47531200"><ele>16.4582651784</ele><time>2007-04-27T17:41:27Z</time></trkpt>
<trkpt lat="47.73341700" lon="-3.47521400"><ele>16.5667764168</ele><time>2007-04-27T17:41:29Z</time></trkpt>
<trkpt lat="47.73351400" lon="-3.47512400"><ele>16.7075690232</ele><time>2007-04-27T17:41:31Z</time></trkpt>
<trkpt lat="47.73360500" lon="-3.47501600"><ele>16.9527053376</ele><time>2007-04-27T17:41:33Z</time></trkpt>
<trkpt lat="47.73369600" lon="-3.47490800"><ele>16.9999999344</ele><time>2007-04-27T17:41:35Z</time></trkpt>
<trkpt lat="47.73378100" lon="-3.47479100"><ele>16.9999999344</ele><time>2007-04-27T17:41:37Z</time></trkpt>
<trkpt lat="47.73387200" lon="-3.47469300"><ele>16.8349991976</ele><time>2007-04-27T17:41:39Z</time></trkpt>
<trkpt lat="47.73396900" lon="-3.47460300"><ele>16.629999252</ele><time>2007-04-27T17:41:41Z</time></trkpt>
<trkpt lat="47.73406600" lon="-3.47452200"><ele>16.4249993064</ele><time>2007-04-27T17:41:43Z</time></trkpt>
<trkpt lat="47.73416900" lon="-3.47445000"><ele>16.204999848</ele><time>2007-04-27T17:41:45Z</time></trkpt>
<trkpt lat="47.73426600" lon="-3.47437800"><ele>16.0289193264</ele><time>2007-04-27T17:41:47Z</time></trkpt>
<trkpt lat="47.73436900" lon="-3.47430600"><ele>15.9690855624</ele><time>2007-04-27T17:41:49Z</time></trkpt>
<trkpt lat="47.73448400" lon="-3.47422500"><ele>15.9687033432</ele><time>2007-04-27T17:41:51Z</time></trkpt>
<trkpt lat="47.73458700" lon="-3.47413600"><ele>16.06785966</ele><time>2007-04-27T17:41:53Z</time></trkpt>
<trkpt lat="47.73466600" lon="-3.47405500"><ele>16.2261182208</ele><time>2007-04-27T17:41:55Z</time></trkpt>
<trkpt lat="47.73478100" lon="-3.47398300"><ele>16.4187509064</ele><time>2007-04-27T17:41:58Z</time></trkpt>
<trkpt lat="47.73491400" lon="-3.47394700"><ele>16.5699996768</ele><time>2007-04-27T17:42:01Z</time></trkpt>
<trkpt lat="47.73502900" lon="-3.47391100"><ele>16.7156258016</ele><time>2007-04-27T17:42:04Z</time></trkpt>
<trkpt lat="47.73513200" lon="-3.47389300"><ele>16.8031253472</ele><time>2007-04-27T17:42:06Z</time></trkpt>
<trkpt lat="47.73525900" lon="-3.47389300"><ele>16.8570118536</ele><time>2007-04-27T17:42:08Z</time></trkpt>
<trkpt lat="47.73539300" lon="-3.47390200"><ele>16.8929538696</ele><time>2007-04-27T17:42:10Z</time></trkpt>
<trkpt lat="47.73552600" lon="-3.47393800"><ele>16.8738288888</ele><time>2007-04-27T17:42:12Z</time></trkpt>
<trkpt lat="47.73565300" lon="-3.47395600"><ele>16.826564772</ele><time>2007-04-27T17:42:14Z</time></trkpt>
<trkpt lat="47.73578700" lon="-3.47397400"><ele>16.2556036584</ele><time>2007-04-27T17:42:16Z</time></trkpt>
<trkpt lat="47.73590800" lon="-3.47401900"><ele>15.7270469304</ele><time>2007-04-27T17:42:18Z</time></trkpt>
<trkpt lat="47.73602900" lon="-3.47407300"><ele>15.2135628672</ele><time>2007-04-27T17:42:20Z</time></trkpt>
<trkpt lat="47.73614400" lon="-3.47413600"><ele>14.4972249552</ele><time>2007-04-27T17:42:22Z</time></trkpt>
<trkpt lat="47.73624100" lon="-3.47418000"><ele>13.671150204</ele><time>2007-04-27T17:42:24Z</time></trkpt>
<trkpt lat="47.73634400" lon="-3.47418900"><ele>12.826218696</ele><time>2007-04-27T17:42:26Z</time></trkpt>
<trkpt lat="47.73645300" lon="-3.47409100"><ele>12.232125396</ele><time>2007-04-27T17:42:29Z</time></trkpt>
<trkpt lat="47.73652000" lon="-3.47397400"><ele>12.1361999592</ele><time>2007-04-27T17:42:31Z</time></trkpt>
<trkpt lat="47.73659300" lon="-3.47381200"><ele>12.43074984</ele><time>2007-04-27T17:42:33Z</time></trkpt>
<trkpt lat="47.73669600" lon="-3.47365900"><ele>13.0285254288</ele><time>2007-04-27T17:42:35Z</time></trkpt>
<trkpt lat="47.73677400" lon="-3.47352500"><ele>13.8608750976</ele><time>2007-04-27T17:42:37Z</time></trkpt>
<trkpt lat="47.73686500" lon="-3.47335400"><ele>15.2753494848</ele><time>2007-04-27T17:42:39Z</time></trkpt>
<trkpt lat="47.73696200" lon="-3.47322800"><ele>15.9643718304</ele><time>2007-04-27T17:42:41Z</time></trkpt>
<trkpt lat="47.73702900" lon="-3.47312900"><ele>16.3498115472</ele><time>2007-04-27T17:42:43Z</time></trkpt>
<trkpt lat="47.73711400" lon="-3.47306700"><ele>16.274797524</ele><time>2007-04-27T17:42:45Z</time></trkpt>
<trkpt lat="47.73722900" lon="-3.47298600"><ele>16.2691745736</ele><time>2007-04-27T17:42:48Z</time></trkpt>
<trkpt lat="47.73732000" lon="-3.47292300"><ele>16.358177088</ele><time>2007-04-27T17:42:50Z</time></trkpt>
<trkpt lat="47.73742300" lon="-3.47283300"><ele>16.6362132096</ele><time>2007-04-27T17:42:53Z</time></trkpt>
<trkpt lat="47.73748300" lon="-3.47268900"><ele>17.1781253592</ele><time>2007-04-27T17:42:57Z</time></trkpt>
<trkpt lat="47.73751400" lon="-3.47256300"><ele>17.579999892</ele><time>2007-04-27T17:43:00Z</time></trkpt>
<trkpt lat="47.73755600" lon="-3.47241100"><ele>18.2737502952</ele><time>2007-04-27T17:43:04Z</time></trkpt>
<trkpt lat="47.73758000" lon="-3.47224900"><ele>18.8862495528</ele><time>2007-04-27T17:43:07Z</time></trkpt>
<trkpt lat="47.73761700" lon="-3.47212300"><ele>19.4706249144</ele><time>2007-04-27T17:43:10Z</time></trkpt>
<trkpt lat="47.73764100" lon="-3.47197100"><ele>20.2082805384</ele><time>2007-04-27T17:43:14Z</time></trkpt>
<trkpt lat="47.73770200" lon="-3.47186300"><ele>20.8554209256</ele><time>2007-04-27T17:43:17Z</time></trkpt>
<trkpt lat="47.73777400" lon="-3.47172800"><ele>21.3602809776</ele><time>2007-04-27T17:43:21Z</time></trkpt>
<trkpt lat="47.73785300" lon="-3.47162000"><ele>21.5080699632</ele><time>2007-04-27T17:43:25Z</time></trkpt>
<trkpt lat="47.73793200" lon="-3.47152100"><ele>21.3689994768</ele><time>2007-04-27T17:43:28Z</time></trkpt>
<trkpt lat="47.73802300" lon="-3.47141400"><ele>21.367450788</ele><time>2007-04-27T17:43:31Z</time></trkpt>
<trkpt lat="47.73812600" lon="-3.47132400"><ele>22.4615706216</ele><time>2007-04-27T17:43:34Z</time></trkpt>
<trkpt lat="47.73822300" lon="-3.47121600"><ele>23.4121092336</ele><time>2007-04-27T17:43:37Z</time></trkpt>
<trkpt lat="47.73829500" lon="-3.47111700"><ele>24.0373802208</ele><time>2007-04-27T17:43:40Z</time></trkpt>
<trkpt lat="47.73837400" lon="-3.47102700"><ele>24.5085583488</ele><time>2007-04-27T17:43:43Z</time></trkpt>
<trkpt lat="47.73847100" lon="-3.47105400"><ele>24.6608504496</ele><time>2007-04-27T17:43:47Z</time></trkpt>
<trkpt lat="47.73855600" lon="-3.47109900"><ele>24.8539677672</ele><time>2007-04-27T17:43:53Z</time></trkpt>
<trkpt lat="47.73861700" lon="-3.47100000"><ele>25.1373500808</ele><time>2007-04-27T17:43:56Z</time></trkpt>
<trkpt lat="47.73868300" lon="-3.47086600"><ele>25.4308682136</ele><time>2007-04-27T17:44:00Z</time></trkpt>
<trkpt lat="47.73874400" lon="-3.47074900"><ele>25.8252525912</ele><time>2007-04-27T17:44:03Z</time></trkpt>
<trkpt lat="47.73883500" lon="-3.47065900"><ele>26.168460744</ele><time>2007-04-27T17:44:05Z</time></trkpt>
<trkpt lat="47.73890700" lon="-3.47056000"><ele>26.446288992</ele><time>2007-04-27T17:44:07Z</time></trkpt>
<trkpt lat="47.73896200" lon="-3.47045200"><ele>26.6736146232</ele><time>2007-04-27T17:44:09Z</time></trkpt>
<trkpt lat="47.73905300" lon="-3.47032700"><ele>26.5810051056</ele><time>2007-04-27T17:44:12Z</time></trkpt>
<trkpt lat="47.73913800" lon="-3.47018300"><ele>26.2304762664</ele><time>2007-04-27T17:44:15Z</time></trkpt>
<trkpt lat="47.73922300" lon="-3.47007500"><ele>25.50349992</ele><time>2007-04-27T17:44:18Z</time></trkpt>
<trkpt lat="47.73929500" lon="-3.46996700"><ele>24.5826719928</ele><time>2007-04-27T17:44:21Z</time></trkpt>
<trkpt lat="47.73937400" lon="-3.46986900"><ele>23.3674526808</ele><time>2007-04-27T17:44:24Z</time></trkpt>
<trkpt lat="47.73944100" lon="-3.46977900"><ele>22.1195621616</ele><time>2007-04-27T17:44:29Z</time></trkpt>
<trkpt lat="47.73948300" lon="-3.46990400"><ele>22.2317008248</ele><time>2007-04-27T17:44:38Z</time></trkpt>
<trkpt lat="47.73957400" lon="-3.46995800"><ele>21.3663254664</ele><time>2007-04-27T17:44:42Z</time></trkpt>
<trkpt lat="47.73970100" lon="-3.46992200"><ele>19.5747622728</ele><time>2007-04-27T17:44:45Z</time></trkpt>
<trkpt lat="47.73980400" lon="-3.46986000"><ele>18.0324669576</ele><time>2007-04-27T17:44:47Z</time></trkpt>
<trkpt lat="47.73991900" lon="-3.46980600"><ele>16.4405060064</ele><time>2007-04-27T17:44:49Z</time></trkpt>
<trkpt lat="47.74004100" lon="-3.46977900"><ele>15.1307496216</ele><time>2007-04-27T17:44:51Z</time></trkpt>
<trkpt lat="47.74021739" lon="-3.46978118"><ele>13.4006222208</ele><time>2007-04-27T17:44:55Z</time></trkpt>
<trkpt lat="47.74022384" lon="-3.46999079"><ele>13.7340191664</ele><time>2008-07-03T09:22:52Z</time></trkpt>
<trkpt lat="47.74026101" lon="-3.47026226"><ele>13.7003402904</ele><time>2008-07-03T09:22:52Z</time></trkpt>
<trkpt lat="47.74026870" lon="-3.47044694"><ele>13.807724988</ele><time>2008-07-03T09:22:52Z</time></trkpt>
<trkpt lat="47.74027722" lon="-3.47061499"><ele>13.8017118936</ele><time>2008-07-03T09:22:52Z</time></trkpt>
<trkpt lat="47.74027930" lon="-3.47079906"><ele>13.9203299952</ele><time>2008-07-03T09:22:52Z</time></trkpt>
<trkpt lat="47.74031626" lon="-3.47096188"><ele>13.6945905432</ele><time>2008-07-03T09:22:52Z</time></trkpt>
<trkpt lat="47.74035488" lon="-3.47109146"><ele>13.3775177712</ele><time>2008-07-03T09:22:52Z</time></trkpt>
<trkpt lat="47.74037710" lon="-3.47121088"><ele>13.0013732352</ele><time>2008-07-03T09:22:52Z</time></trkpt>
<trkpt lat="47.74038686" lon="-3.47135400"><ele>12.6899234136</ele><time>2008-07-03T09:22:52Z</time></trkpt>
<trkpt lat="47.74042029" lon="-3.47147466"><ele>12.2698355568</ele><time>2008-07-03T09:22:52Z</time></trkpt>
<trkpt lat="47.74043732" lon="-3.47158516"><ele>11.9996937552</ele><time>2008-07-03T09:22:52Z</time></trkpt>
<trkpt lat="47.74044791" lon="-3.47171166"><ele>11.7619314672</ele><time>2008-07-03T09:22:52Z</time></trkpt>
<trkpt lat="47.74047490" lon="-3.47184832"><ele>11.272529652</ele><time>2008-07-03T09:22:52Z</time></trkpt>
<trkpt lat="47.74048508" lon="-3.47198314"><ele>10.8558531168</ele><time>2008-07-03T09:22:52Z</time></trkpt>
<trkpt lat="47.74049443" lon="-3.47213457"><ele>10.3681155096</ele><time>2008-07-03T09:22:52Z</time></trkpt>
<trkpt lat="47.74049609" lon="-3.47232695"><ele>9.8198738832</ele><time>2008-07-03T09:22:52Z</time></trkpt>
<trkpt lat="47.74048945" lon="-3.47245992"><ele>9.4706248992</ele><time>2008-07-03T09:22:52Z</time></trkpt>
<trkpt lat="47.74048281" lon="-3.47259288"><ele>9.0706251912</ele><time>2008-07-03T09:22:52Z</time></trkpt>
<trkpt lat="47.74046578" lon="-3.47270800"><ele>8.8206251832</ele><time>2008-07-03T09:22:52Z</time></trkpt>
<trkpt lat="47.74045271" lon="-3.47285698"><ele>8.4306250488</ele><time>2008-07-03T09:22:52Z</time></trkpt>
<trkpt lat="47.74045686" lon="-3.47299948"><ele>7.9056247272</ele><time>2008-07-03T09:22:52Z</time></trkpt>
<trkpt lat="47.74043091" lon="-3.47318047"><ele>7.6578131832</ele><time>2008-07-03T09:22:52Z</time></trkpt>
<trkpt lat="47.74041056" lon="-3.47336207"><ele>7.4828119584</ele><time>2008-07-03T09:22:52Z</time></trkpt>
<trkpt lat="47.74038067" lon="-3.47350920"><ele>7.4578119576</ele><time>2008-07-03T09:22:52Z</time></trkpt>
<trkpt lat="47.74034911" lon="-3.47368957"><ele>7.3828128696</ele><time>2008-07-03T09:22:52Z</time></trkpt>
<trkpt lat="47.74031278" lon="-3.47385270"><ele>7.3385281728</ele><time>2008-07-03T09:22:52Z</time></trkpt>
<trkpt lat="47.74028246" lon="-3.47400814"><ele>7.1896839696</ele><time>2008-07-03T09:22:52Z</time></trkpt>
<trkpt lat="47.74024011" lon="-3.47417896"><ele>7.02173094</ele><time>2008-07-03T09:22:52Z</time></trkpt>
<trkpt lat="47.74021063" lon="-3.47431778"><ele>6.8045130864</ele><time>2008-07-03T09:22:52Z</time></trkpt>
<trkpt lat="47.74016869" lon="-3.47448030"><ele>6.6403130592</ele><time>2008-07-03T09:22:52Z</time></trkpt>
<trkpt lat="47.74012716" lon="-3.47463450"><ele>6.552812904</ele><time>2008-07-03T09:22:52Z</time></trkpt>
<trkpt lat="47.74009207" lon="-3.47477270"><ele>6.538350144</ele><time>2008-07-03T09:22:52Z</time></trkpt>
<trkpt lat="47.74005179" lon="-3.47490197"><ele>6.5994439512</ele><time>2008-07-03T09:22:52Z</time></trkpt>
<trkpt lat="47.73999387" lon="-3.47504602"><ele>6.5997618576</ele><time>2008-07-03T09:22:52Z</time></trkpt>
<trkpt lat="47.73992597" lon="-3.47516391"><ele>6.4899719832</ele><time>2008-07-03T09:22:52Z</time></trkpt>
<trkpt lat="47.73984853" lon="-3.47524731"><ele>6.4969500744</ele><time>2008-07-03T09:22:52Z</time></trkpt>
<trkpt lat="47.73976860" lon="-3.47538059"><ele>6.1510502328</ele><time>2008-07-03T09:22:52Z</time></trkpt>
<trkpt lat="47.73968555" lon="-3.47546338"><ele>5.9691602232</ele><time>2008-07-03T09:22:52Z</time></trkpt>
<trkpt lat="47.73960561" lon="-3.47559665"><ele>5.3747630376</ele><time>2008-07-03T09:22:52Z</time></trkpt>
<trkpt lat="47.73955972" lon="-3.47572531"><ele>4.992812976</ele><time>2008-07-03T09:22:52Z</time></trkpt>
<trkpt lat="47.73952027" lon="-3.47583796"><ele>4.8928132776</ele><time>2008-07-03T09:22:52Z</time></trkpt>
<trkpt lat="47.73949764" lon="-3.47595246"><ele>4.7578130904</ele><time>2008-07-03T09:22:52Z</time></trkpt>
<trkpt lat="47.73958193" lon="-3.47607035"><ele>4.3953117072</ele><time>2008-07-03T09:22:52Z</time></trkpt>
<trkpt lat="47.73965460" lon="-3.47619531"><ele>4.1692637976</ele><time>2008-07-03T09:22:52Z</time></trkpt>
<trkpt lat="47.73973848" lon="-3.47632151"><ele>4.0163258256</ele><time>2008-07-03T09:22:52Z</time></trkpt>
<trkpt lat="47.73980595" lon="-3.47643755"><ele>4.000000128</ele><time>2008-07-03T09:22:52Z</time></trkpt>
<trkpt lat="47.73989544" lon="-3.47656437"><ele>4.000000128</ele><time>2008-07-03T09:22:52Z</time></trkpt>
<trkpt lat="47.73997931" lon="-3.47669057"><ele>4.000000128</ele><time>2008-07-03T09:22:52Z</time></trkpt>
<trkpt lat="47.74007398" lon="-3.47682631"><ele>4.104577008</ele><time>2008-07-03T09:22:52Z</time></trkpt>
<trkpt lat="47.74015309" lon="-3.47693527"><ele>4.2845169072</ele><time>2008-07-03T09:22:52Z</time></trkpt>
<trkpt lat="47.74023779" lon="-3.47704485"><ele>4.5312052632</ele><time>2008-07-03T09:22:52Z</time></trkpt>
<trkpt lat="47.74033682" lon="-3.47720614"><ele>4.979688288</ele><time>2008-07-03T09:22:52Z</time></trkpt>
<trkpt lat="47.74045433" lon="-3.47733604"><ele>5.3952961944</ele><time>2008-07-03T09:22:52Z</time></trkpt>
<trkpt lat="47.74056146" lon="-3.47744808"><ele>5.6847172056</ele><time>2008-07-03T09:22:52Z</time></trkpt>
<trkpt lat="47.74066216" lon="-3.47757613"><ele>6.0810169464</ele><time>2008-07-03T09:22:52Z</time></trkpt>
<trkpt lat="47.74078050" lon="-3.47768941"><ele>6.5464310016</ele><time>2008-07-03T09:22:52Z</time></trkpt>
<trkpt lat="47.74089448" lon="-3.47777714"><ele>7.0013498784</ele><time>2008-07-03T09:22:52Z</time></trkpt>
<trkpt lat="47.74099725" lon="-3.47786364"><ele>7.5440630424</ele><time>2008-07-03T09:22:52Z</time></trkpt>
<trkpt lat="47.74110604" lon="-3.47794244"><ele>8.0940627552</ele><time>2008-07-03T09:22:52Z</time></trkpt>
<trkpt lat="47.74121358" lon="-3.47804618"><ele>8.7565623192</ele><time>2008-07-03T09:22:52Z</time></trkpt>
<trkpt lat="47.74131552" lon="-3.47814930"><ele>9.4040623704</ele><time>2008-07-03T09:22:52Z</time></trkpt>
<trkpt lat="47.74140148" lon="-3.47823395"><ele>9.94156254</ele><time>2008-07-03T09:22:52Z</time></trkpt>
<trkpt lat="47.74147622" lon="-3.47831737"><ele>10.454062404</ele><time>2008-07-03T09:22:52Z</time></trkpt>
<trkpt lat="47.74157774" lon="-3.47842881"><ele>11.1440628528</ele><time>2008-07-03T09:22:52Z</time></trkpt>
<trkpt lat="47.74165373" lon="-3.47848729"><ele>11.5440625608</ele><time>2008-07-03T09:22:52Z</time></trkpt>
<trkpt lat="47.74176044" lon="-3.47860765"><ele>12.3706551672</ele><time>2008-07-03T09:22:52Z</time></trkpt>
<trkpt lat="47.74184120" lon="-3.47868338"><ele>13.0011501216</ele><time>2008-07-03T09:22:52Z</time></trkpt>
<trkpt lat="47.74191677" lon="-3.47875018"><ele>13.5454549512</ele><time>2008-07-03T09:22:52Z</time></trkpt>
<trkpt lat="47.74199151" lon="-3.47883360"><ele>14.1183844632</ele><time>2008-07-03T09:22:52Z</time></trkpt>
<trkpt lat="47.74207663" lon="-3.47893488"><ele>14.7443217432</ele><time>2008-07-03T09:22:52Z</time></trkpt>
<trkpt lat="47.74216861" lon="-3.47901184"><ele>15.262389084</ele><time>2008-07-03T09:22:52Z</time></trkpt>
<trkpt lat="47.74227096" lon="-3.47910665"><ele>15.8064622656</ele><time>2008-07-03T09:22:52Z</time></trkpt>
<trkpt lat="47.74236729" lon="-3.47920916"><ele>16.298971212</ele><time>2008-07-03T09:22:52Z</time></trkpt>
<trkpt lat="47.74245324" lon="-3.47929382"><ele>16.672220148</ele><time>2008-07-03T09:22:52Z</time></trkpt>
<trkpt lat="47.74253961" lon="-3.47937016"><ele>16.9796868432</ele><time>2008-07-03T09:22:52Z</time></trkpt>
<trkpt lat="47.74263200" lon="-3.47943881"><ele>17.262725952</ele><time>2008-07-03T09:22:52Z</time></trkpt>
<trkpt lat="47.74273041" lon="-3.47949977"><ele>17.5003587</ele><time>2008-07-03T09:22:52Z</time></trkpt>
<trkpt lat="47.74284044" lon="-3.47955365"><ele>17.716373508</ele><time>2008-07-03T09:22:52Z</time></trkpt>
<trkpt lat="47.74293885" lon="-3.47961460"><ele>17.8874434224</ele><time>2008-07-03T09:22:52Z</time></trkpt>
<trkpt lat="47.74303291" lon="-3.47965001"><ele>18.0123653976</ele><time>2008-07-03T09:22:52Z</time></trkpt>
<trkpt lat="47.74313100" lon="-3.47972300"><ele>18.1287746136</ele><time>2007-04-27T17:44:55Z</time></trkpt>
<trkpt lat="47.74323400" lon="-3.47972300"><ele>18.23674026</ele><time>2007-04-27T17:45:41Z</time></trkpt>
<trkpt lat="47.74331900" lon="-3.47977700"><ele>18.377399364</ele><time>2007-04-27T17:45:44Z</time></trkpt>
<trkpt lat="47.74344000" lon="-3.47980400"><ele>18.5468443896</ele><time>2007-04-27T17:45:47Z</time></trkpt>
<trkpt lat="47.74354900" lon="-3.47985800"><ele>18.6384373992</ele><time>2007-04-27T17:45:50Z</time></trkpt>
<trkpt lat="47.74364000" lon="-3.47986700"><ele>18.6368752992</ele><time>2007-04-27T17:45:52Z</time></trkpt>
<trkpt lat="47.74373100" lon="-3.47985800"><ele>18.6084365448</ele><time>2007-04-27T17:45:54Z</time></trkpt>
<trkpt lat="47.74383400" lon="-3.47986700"><ele>18.60499962</ele><time>2007-04-27T17:45:56Z</time></trkpt>
<trkpt lat="47.74395500" lon="-3.47984000"><ele>18.3979416648</ele><time>2007-04-27T17:45:58Z</time></trkpt>
<trkpt lat="47.74407600" lon="-3.47981300"><ele>17.9500008792</ele><time>2007-04-27T17:46:00Z</time></trkpt>
<trkpt lat="47.74420300" lon="-3.47979500"><ele>17.517162324</ele><time>2007-04-27T17:46:02Z</time></trkpt>
<trkpt lat="47.74433100" lon="-3.47979500"><ele>17.1061724424</ele><time>2007-04-27T17:46:04Z</time></trkpt>
<trkpt lat="47.74447000" lon="-3.47980400"><ele>16.2949999728</ele><time>2007-04-27T17:46:06Z</time></trkpt>
<trkpt lat="47.74460900" lon="-3.47980400"><ele>15.3649996992</ele><time>2007-04-27T17:46:08Z</time></trkpt>
<trkpt lat="47.74473100" lon="-3.47984000"><ele>14.5399999776</ele><time>2007-04-27T17:46:10Z</time></trkpt>
<trkpt lat="47.74485800" lon="-3.47990300"><ele>13.845550668</ele><time>2007-04-27T17:46:12Z</time></trkpt>
<trkpt lat="47.74497900" lon="-3.48001100"><ele>13.269823092</ele><time>2007-04-27T17:46:14Z</time></trkpt>
<trkpt lat="47.74511200" lon="-3.48011800"><ele>12.393897996</ele><time>2007-04-27T17:46:16Z</time></trkpt>
<trkpt lat="47.74524600" lon="-3.48023500"><ele>11.2402409688</ele><time>2007-04-27T17:46:18Z</time></trkpt>
<trkpt lat="47.74532400" lon="-3.48029800"><ele>11.3533354848</ele><time>2007-04-27T17:46:19Z</time></trkpt>
<trkpt lat="47.74547000" lon="-3.48041500"><ele>11.3303499072</ele><time>2007-04-27T17:46:21Z</time></trkpt>
<trkpt lat="47.74560900" lon="-3.48054100"><ele>10.9118814528</ele><time>2007-04-27T17:46:23Z</time></trkpt>
<trkpt lat="47.74574800" lon="-3.48063900"><ele>10.0100001984</ele><time>2007-04-27T17:46:25Z</time></trkpt>
<trkpt lat="47.74586400" lon="-3.48074700"><ele>8.614999788</ele><time>2007-04-27T17:46:27Z</time></trkpt>
<trkpt lat="47.74596000" lon="-3.48082800"><ele>7.5331249896</ele><time>2007-04-27T17:46:29Z</time></trkpt>
<trkpt lat="47.74605100" lon="-3.48083700"><ele>7.1425000152</ele><time>2007-04-27T17:46:31Z</time></trkpt>
<trkpt lat="47.74612400" lon="-3.48075600"><ele>7.6324120656</ele><time>2007-04-27T17:46:33Z</time></trkpt>
<trkpt lat="47.74617900" lon="-3.48061200"><ele>8.7292622976</ele><time>2007-04-27T17:46:35Z</time></trkpt>
<trkpt lat="47.74621500" lon="-3.48047800"><ele>9.7426625568</ele><time>2007-04-27T17:46:37Z</time></trkpt>
<trkpt lat="47.74626900" lon="-3.48031600"><ele>10.531249956</ele><time>2007-04-27T17:46:40Z</time></trkpt>
<trkpt lat="47.74629400" lon="-3.48019000"><ele>10.9746876264</ele><time>2007-04-27T17:46:42Z</time></trkpt>
<trkpt lat="47.74634200" lon="-3.48004600"><ele>11.3740624944</ele><time>2007-04-27T17:46:45Z</time></trkpt>
<trkpt lat="47.74640900" lon="-3.47995700"><ele>11.40124974</ele><time>2007-04-27T17:46:47Z</time></trkpt>
<trkpt lat="47.74650000" lon="-3.47984000"><ele>11.40124974</ele><time>2007-04-27T17:46:50Z</time></trkpt>
<trkpt lat="47.74657800" lon="-3.47967800"><ele>11.6750841936</ele><time>2007-04-27T17:46:53Z</time></trkpt>
<trkpt lat="47.74663900" lon="-3.47955200"><ele>11.9374999248</ele><time>2007-04-27T17:46:55Z</time></trkpt>
<trkpt lat="47.74670600" lon="-3.47940900"><ele>12.207500604</ele><time>2007-04-27T17:46:57Z</time></trkpt>
<trkpt lat="47.74673600" lon="-3.47925600"><ele>12.7587499968</ele><time>2007-04-27T17:46:59Z</time></trkpt>
<trkpt lat="47.74674800" lon="-3.47911200"><ele>13.3783187856</ele><time>2007-04-27T17:47:01Z</time></trkpt>
<trkpt lat="47.74674200" lon="-3.47896800"><ele>13.9740372792</ele><time>2007-04-27T17:47:03Z</time></trkpt>
<trkpt lat="47.74676000" lon="-3.47881600"><ele>14.4649810776</ele><time>2007-04-27T17:47:05Z</time></trkpt>
<trkpt lat="47.74677800" lon="-3.47868100"><ele>14.9166870576</ele><time>2007-04-27T17:47:07Z</time></trkpt>
<trkpt lat="47.74679100" lon="-3.47854600"><ele>15.3993969888</ele><time>2007-04-27T17:47:09Z</time></trkpt>
<trkpt lat="47.74682100" lon="-3.47838500"><ele>15.9886217184</ele><time>2007-04-27T17:47:12Z</time></trkpt>
<trkpt lat="47.74687500" lon="-3.47825900"><ele>16.3873138344</ele><time>2007-04-27T17:47:15Z</time></trkpt>
<trkpt lat="47.74690600" lon="-3.47812400"><ele>16.8433284672</ele><time>2007-04-27T17:47:18Z</time></trkpt>
<trkpt lat="47.74693600" lon="-3.47796200"><ele>17.38593678</ele><time>2007-04-27T17:47:21Z</time></trkpt>
<trkpt lat="47.74696000" lon="-3.47781900"><ele>17.8614424584</ele><time>2007-04-27T17:47:24Z</time></trkpt>
<trkpt lat="47.74697800" lon="-3.47764800"><ele>18.2402628336</ele><time>2007-04-27T17:47:27Z</time></trkpt>
<trkpt lat="47.74700900" lon="-3.47747700"><ele>18.5719184568</ele><time>2007-04-27T17:47:30Z</time></trkpt>
<trkpt lat="47.74706900" lon="-3.47733400"><ele>18.7844524488</ele><time>2007-04-27T17:47:34Z</time></trkpt>
<trkpt lat="47.74711800" lon="-3.47719000"><ele>19.0743980208</ele><time>2007-04-27T17:47:37Z</time></trkpt>
<trkpt lat="47.74712400" lon="-3.47704600"><ele>19.2137336832</ele><time>2007-04-27T17:47:39Z</time></trkpt>
<trkpt lat="47.74714200" lon="-3.47691100"><ele>19.2176494488</ele><time>2007-04-27T17:47:41Z</time></trkpt>
<trkpt lat="47.74716000" lon="-3.47677700"><ele>19.2111053928</ele><time>2007-04-27T17:47:43Z</time></trkpt>
<trkpt lat="47.74719000" lon="-3.47660600"><ele>19.1641942344</ele><time>2007-04-27T17:47:46Z</time></trkpt>
<trkpt lat="47.74721500" lon="-3.47648000"><ele>19.0892411712</ele><time>2007-04-27T17:47:48Z</time></trkpt>
<trkpt lat="47.74725700" lon="-3.47635400"><ele>18.9724369344</ele><time>2007-04-27T17:47:50Z</time></trkpt>
<trkpt lat="47.74731200" lon="-3.47622000"><ele>18.9190615776</ele><time>2007-04-27T17:47:52Z</time></trkpt>
<trkpt lat="47.74736600" lon="-3.47606700"><ele>18.916624092</ele><time>2007-04-27T17:47:54Z</time></trkpt>
<trkpt lat="47.74741500" lon="-3.47590500"><ele>18.9698504016</ele><time>2007-04-27T17:47:56Z</time></trkpt>
<trkpt lat="47.74746900" lon="-3.47576100"><ele>18.790191528</ele><time>2007-04-27T17:47:58Z</time></trkpt>
<trkpt lat="47.74758400" lon="-3.47569000"><ele>18.6589220928</ele><time>2007-04-27T17:48:01Z</time></trkpt>
<trkpt lat="47.74769900" lon="-3.47577900"><ele>18.8477496552</ele><time>2007-04-27T17:48:03Z</time></trkpt>
<trkpt lat="47.74779600" lon="-3.47586000"><ele>18.7992020256</ele><time>2007-04-27T17:48:05Z</time></trkpt>
<trkpt lat="47.74790500" lon="-3.47592300"><ele>18.5434379448</ele><time>2007-04-27T17:48:07Z</time></trkpt>
<trkpt lat="47.74802000" lon="-3.47599500"><ele>18.1896876744</ele><time>2007-04-27T17:48:09Z</time></trkpt>
<trkpt lat="47.74814800" lon="-3.47607600"><ele>17.794687296</ele><time>2007-04-27T17:48:11Z</time></trkpt>
<trkpt lat="47.74828100" lon="-3.47616600"><ele>17.376875076</ele><time>2007-04-27T17:48:13Z</time></trkpt>
<trkpt lat="47.74841400" lon="-3.47623800"><ele>16.9909382304</ele><time>2007-04-27T17:48:15Z</time></trkpt>
<trkpt lat="47.74855400" lon="-3.47630900"><ele>16.5878124936</ele><time>2007-04-27T17:48:17Z</time></trkpt>
<trkpt lat="47.74869300" lon="-3.47636300"><ele>16.3106996112</ele><time>2007-04-27T17:48:19Z</time></trkpt>
<trkpt lat="47.74883800" lon="-3.47641700"><ele>16.0387210848</ele><time>2007-04-27T17:48:21Z</time></trkpt>
<trkpt lat="47.74898400" lon="-3.47647100"><ele>15.7273435008</ele><time>2007-04-27T17:48:23Z</time></trkpt>
<trkpt lat="47.74911700" lon="-3.47652500"><ele>15.8284922952</ele><time>2007-04-27T17:48:25Z</time></trkpt>
<trkpt lat="47.74925000" lon="-3.47659700"><ele>16.2283743504</ele><time>2007-04-27T17:48:27Z</time></trkpt>
<trkpt lat="47.74937800" lon="-3.47666900"><ele>16.6503163056</ele><time>2007-04-27T17:48:29Z</time></trkpt>
<trkpt lat="47.74949900" lon="-3.47675900"><ele>17.1262493136</ele><time>2007-04-27T17:48:31Z</time></trkpt>
<trkpt lat="47.74961400" lon="-3.47684800"><ele>17.8497430152</ele><time>2007-04-27T17:48:33Z</time></trkpt>
<trkpt lat="47.74972300" lon="-3.47695600"><ele>18.5883904584</ele><time>2007-04-27T17:48:35Z</time></trkpt>
<trkpt lat="47.74982600" lon="-3.47705500"><ele>19.3513280232</ele><time>2007-04-27T17:48:37Z</time></trkpt>
<trkpt lat="47.74992300" lon="-3.47713600"><ele>20.0900001552</ele><time>2007-04-27T17:48:39Z</time></trkpt>
<trkpt lat="47.75003200" lon="-3.47719900"><ele>20.8400001792</ele><time>2007-04-27T17:48:41Z</time></trkpt>
<trkpt lat="47.75013500" lon="-3.47725300"><ele>21.5450001408</ele><time>2007-04-27T17:48:43Z</time></trkpt>
<trkpt lat="47.75023200" lon="-3.47728900"><ele>22.20500004</ele><time>2007-04-27T17:48:45Z</time></trkpt>
<trkpt lat="47.75032900" lon="-3.47732500"><ele>22.8649996344</ele><time>2007-04-27T17:48:47Z</time></trkpt>
<trkpt lat="47.75042600" lon="-3.47735200"><ele>23.3400002592</ele><time>2007-04-27T17:48:49Z</time></trkpt>
<trkpt lat="47.75052300" lon="-3.47737800"><ele>23.7800007</ele><time>2007-04-27T17:48:51Z</time></trkpt>
<trkpt lat="47.75062000" lon="-3.47740500"><ele>24.219999312</ele><time>2007-04-27T17:48:53Z</time></trkpt>
<trkpt lat="47.75071000" lon="-3.47744100"><ele>24.6200008488</ele><time>2007-04-27T17:48:55Z</time></trkpt>
<trkpt lat="47.75080100" lon="-3.47749500"><ele>25.0200005568</ele><time>2007-04-27T17:48:57Z</time></trkpt>
<trkpt lat="47.75089200" lon="-3.47755800"><ele>25.2299995272</ele><time>2007-04-27T17:48:59Z</time></trkpt>
<trkpt lat="47.75096500" lon="-3.47765700"><ele>25.349124816</ele><time>2007-04-27T17:49:01Z</time></trkpt>
<trkpt lat="47.75101300" lon="-3.47777400"><ele>25.367088204</ele><time>2007-04-27T17:49:03Z</time></trkpt>
<trkpt lat="47.75103800" lon="-3.47790800"><ele>25.3005314664</ele><time>2007-04-27T17:49:05Z</time></trkpt>
<trkpt lat="47.75105000" lon="-3.47805200"><ele>25.1881178736</ele><time>2007-04-27T17:49:07Z</time></trkpt>
<trkpt lat="47.75106200" lon="-3.47819600"><ele>25.0558986816</ele><time>2007-04-27T17:49:09Z</time></trkpt>
<trkpt lat="47.75107400" lon="-3.47833100"><ele>24.9999998856</ele><time>2007-04-27T17:49:11Z</time></trkpt>
<trkpt lat="47.75108600" lon="-3.47848300"><ele>24.9999998856</ele><time>2007-04-27T17:49:13Z</time></trkpt>
<trkpt lat="47.75109200" lon="-3.47862700"><ele>24.9999998856</ele><time>2007-04-27T17:49:15Z</time></trkpt>
<trkpt lat="47.75109800" lon="-3.47877100"><ele>24.9999998856</ele><time>2007-04-27T17:49:17Z</time></trkpt>
<trkpt lat="47.75109800" lon="-3.47892400"><ele>24.9999998856</ele><time>2007-04-27T17:49:19Z</time></trkpt>
<trkpt lat="47.75108600" lon="-3.47907600"><ele>24.9999998856</ele><time>2007-04-27T17:49:21Z</time></trkpt>
<trkpt lat="47.75106200" lon="-3.47922900"><ele>24.9999998856</ele><time>2007-04-27T17:49:23Z</time></trkpt>
<trkpt lat="47.75105000" lon="-3.47938200"><ele>24.9999998856</ele><time>2007-04-27T17:49:25Z</time></trkpt>
<trkpt lat="47.75102500" lon="-3.47954300"><ele>24.9999998856</ele><time>2007-04-27T17:49:27Z</time></trkpt>
<trkpt lat="47.75100100" lon="-3.47969600"><ele>24.9999998856</ele><time>2007-04-27T17:49:29Z</time></trkpt>
<trkpt lat="47.75096500" lon="-3.47985800"><ele>24.9999998856</ele><time>2007-04-27T17:49:31Z</time></trkpt>
<trkpt lat="47.75093500" lon="-3.48002800"><ele>24.9999998856</ele><time>2007-04-27T17:49:33Z</time></trkpt>
<trkpt lat="47.75089200" lon="-3.48019900"><ele>24.9999998856</ele><time>2007-04-27T17:49:35Z</time></trkpt>
<trkpt lat="47.75085600" lon="-3.48037900"><ele>24.8833943784</ele><time>2007-04-27T17:49:37Z</time></trkpt>
<trkpt lat="47.75081900" lon="-3.48055900"><ele>24.7052497512</ele><time>2007-04-27T17:49:39Z</time></trkpt>
<trkpt lat="47.75078300" lon="-3.48075600"><ele>24.477361764</ele><time>2007-04-27T17:49:41Z</time></trkpt>
<trkpt lat="47.75074100" lon="-3.48096300"><ele>24.1908415344</ele><time>2007-04-27T17:49:43Z</time></trkpt>
<trkpt lat="47.75070400" lon="-3.48116900"><ele>23.876224536</ele><time>2007-04-27T17:49:45Z</time></trkpt>
<trkpt lat="47.75066200" lon="-3.48138500"><ele>23.4928492296</ele><time>2007-04-27T17:49:47Z</time></trkpt>
<trkpt lat="47.75062000" lon="-3.48161000"><ele>23.1499995216</ele><time>2007-04-27T17:49:49Z</time></trkpt>
<trkpt lat="47.75057700" lon="-3.48182500"><ele>23.0000001264</ele><time>2007-04-27T17:49:51Z</time></trkpt>
<trkpt lat="47.75054100" lon="-3.48204100"><ele>22.7935600008</ele><time>2007-04-27T17:49:53Z</time></trkpt>
<trkpt lat="47.75050400" lon="-3.48225600"><ele>22.4064368736</ele><time>2007-04-27T17:49:55Z</time></trkpt>
<trkpt lat="47.75046200" lon="-3.48248100"><ele>21.5070686952</ele><time>2007-04-27T17:49:57Z</time></trkpt>
<trkpt lat="47.75042000" lon="-3.48269600"><ele>20.6820314832</ele><time>2007-04-27T17:49:59Z</time></trkpt>
<trkpt lat="47.75038900" lon="-3.48293000"><ele>20.0218755264</ele><time>2007-04-27T17:50:01Z</time></trkpt>
<trkpt lat="47.75036500" lon="-3.48316400"><ele>19.5778121016</ele><time>2007-04-27T17:50:03Z</time></trkpt>
<trkpt lat="47.75037100" lon="-3.48340600"><ele>19.3368741024</ele><time>2007-04-27T17:50:05Z</time></trkpt>
<trkpt lat="47.75041400" lon="-3.48364000"><ele>18.7765998864</ele><time>2007-04-27T17:50:07Z</time></trkpt>
<trkpt lat="47.75050400" lon="-3.48383700"><ele>18.3474997032</ele><time>2007-04-27T17:50:09Z</time></trkpt>
<trkpt lat="47.75063200" lon="-3.48399900"><ele>18.0625001208</ele><time>2007-04-27T17:50:11Z</time></trkpt>
<trkpt lat="47.75077700" lon="-3.48414300"><ele>17.9762496456</ele><time>2007-04-27T17:50:13Z</time></trkpt>
<trkpt lat="47.75086200" lon="-3.48420600"><ele>18.0450000288</ele><time>2007-04-27T17:50:14Z</time></trkpt>
<trkpt lat="47.75101300" lon="-3.48434900"><ele>15.221875068</ele><time>2007-04-27T17:50:16Z</time></trkpt>
<trkpt lat="47.75108600" lon="-3.48443000"><ele>13.2723245856</ele><time>2007-04-27T17:50:17Z</time></trkpt>
<trkpt lat="47.75120100" lon="-3.48461000"><ele>9.8253182208</ele><time>2007-04-27T17:50:19Z</time></trkpt>
<trkpt lat="47.75129200" lon="-3.48481700"><ele>6.7566747264</ele><time>2007-04-27T17:50:21Z</time></trkpt>
<trkpt lat="47.75137100" lon="-3.48503200"><ele>5.2239751248</ele><time>2007-04-27T17:50:23Z</time></trkpt>
<trkpt lat="47.75144300" lon="-3.48521200"><ele>6.1129999152</ele><time>2007-04-27T17:50:25Z</time></trkpt>
<trkpt lat="47.75145600" lon="-3.48541800"><ele>7.2227501976</ele><time>2007-04-27T17:50:27Z</time></trkpt>
<trkpt lat="47.75139500" lon="-3.48554400"><ele>7.4883879696</ele><time>2007-04-27T17:50:29Z</time></trkpt>
<trkpt lat="47.75129800" lon="-3.48558000"><ele>6.917500008</ele><time>2007-04-27T17:50:31Z</time></trkpt>
<trkpt lat="47.75121900" lon="-3.48567000"><ele>7.5525590376</ele><time>2007-04-27T17:50:33Z</time></trkpt>
<trkpt lat="47.75112200" lon="-3.48569700"><ele>7.8365869176</ele><time>2007-04-27T17:50:35Z</time></trkpt>
<trkpt lat="47.75100100" lon="-3.48568800"><ele>7.4095276752</ele><time>2007-04-27T17:50:37Z</time></trkpt>
<trkpt lat="47.75089200" lon="-3.48569700"><ele>7.3674631416</ele><time>2007-04-27T17:50:39Z</time></trkpt>
<trkpt lat="47.75078900" lon="-3.48573300"><ele>7.9800782232</ele><time>2007-04-27T17:50:41Z</time></trkpt>
<trkpt lat="47.75069200" lon="-3.48576900"><ele>8.6783713656</ele><time>2007-04-27T17:50:43Z</time></trkpt>
<trkpt lat="47.75057700" lon="-3.48580500"><ele>9.2754203112</ele><time>2007-04-27T17:50:45Z</time></trkpt>
<trkpt lat="47.75047400" lon="-3.48582300"><ele>9.487194132</ele><time>2007-04-27T17:50:47Z</time></trkpt>
<trkpt lat="47.75035300" lon="-3.48584100"><ele>9.5547341544</ele><time>2007-04-27T17:50:50Z</time></trkpt>
<trkpt lat="47.75025600" lon="-3.48588600"><ele>9.846131184</ele><time>2007-04-27T17:50:52Z</time></trkpt>
<trkpt lat="47.75015900" lon="-3.48592100"><ele>9.9626437272</ele><time>2007-04-27T17:50:54Z</time></trkpt>
<trkpt lat="47.75006200" lon="-3.48596600"><ele>10.190212284</ele><time>2007-04-27T17:50:56Z</time></trkpt>
<trkpt lat="47.74993500" lon="-3.48602000"><ele>10.3655719536</ele><time>2007-04-27T17:50:58Z</time></trkpt>
<trkpt lat="47.74980200" lon="-3.48607400"><ele>10.0509528216</ele><time>2007-04-27T17:51:00Z</time></trkpt>
<trkpt lat="47.74966200" lon="-3.48612800"><ele>9.4020308784</ele><time>2007-04-27T17:51:02Z</time></trkpt>
<trkpt lat="47.74954100" lon="-3.48615500"><ele>8.8776121152</ele><time>2007-04-27T17:51:04Z</time></trkpt>
<trkpt lat="47.74940800" lon="-3.48620900"><ele>8.8890189504</ele><time>2007-04-27T17:51:06Z</time></trkpt>
<trkpt lat="47.74927500" lon="-3.48626300"><ele>9.0825861528</ele><time>2007-04-27T17:51:08Z</time></trkpt>
<trkpt lat="47.74916600" lon="-3.48630800"><ele>9.1269598512</ele><time>2007-04-27T17:51:10Z</time></trkpt>
<trkpt lat="47.74905000" lon="-3.48636200"><ele>9.1417874568</ele><time>2007-04-27T17:51:12Z</time></trkpt>
<trkpt lat="47.74892300" lon="-3.48642400"><ele>9.4197778584</ele><time>2007-04-27T17:51:14Z</time></trkpt>
<trkpt lat="47.74881400" lon="-3.48646000"><ele>9.5627183904</ele><time>2007-04-27T17:51:16Z</time></trkpt>
<trkpt lat="47.74871700" lon="-3.48651400"><ele>9.9449997696</ele><time>2007-04-27T17:51:18Z</time></trkpt>
<trkpt lat="47.74862000" lon="-3.48655000"><ele>9.9934721136</ele><time>2007-04-27T17:51:20Z</time></trkpt>
<trkpt lat="47.74848100" lon="-3.48656800"><ele>9.7002755448</ele><time>2007-04-27T17:51:23Z</time></trkpt>
<trkpt lat="47.74839000" lon="-3.48659500"><ele>9.7619999832</ele><time>2007-04-27T17:51:25Z</time></trkpt>
<trkpt lat="47.74829300" lon="-3.48662200"><ele>9.7665003552</ele><time>2007-04-27T17:51:27Z</time></trkpt>
<trkpt lat="47.74816600" lon="-3.48665800"><ele>10.0661839824</ele><time>2007-04-27T17:51:30Z</time></trkpt>
<trkpt lat="47.74805100" lon="-3.48669400"><ele>10.8129500784</ele><time>2007-04-27T17:51:33Z</time></trkpt>
<trkpt lat="47.74791700" lon="-3.48672100"><ele>12.1029749304</ele><time>2007-04-27T17:51:36Z</time></trkpt>
<trkpt lat="47.74782700" lon="-3.48674800"><ele>13.067859564</ele><time>2007-04-27T17:51:38Z</time></trkpt>
<trkpt lat="47.74773600" lon="-3.48678400"><ele>14.1314841576</ele><time>2007-04-27T17:51:40Z</time></trkpt>
<trkpt lat="47.74763900" lon="-3.48682900"><ele>15.28112514</ele><time>2007-04-27T17:51:42Z</time></trkpt>
<trkpt lat="47.74754200" lon="-3.48685600"><ele>15.724813356</ele><time>2007-04-27T17:51:44Z</time></trkpt>
<trkpt lat="47.74740900" lon="-3.48690100"><ele>16.1389695</ele><time>2007-04-27T17:51:47Z</time></trkpt>
<trkpt lat="47.74731200" lon="-3.48692800"><ele>16.2145784928</ele><time>2007-04-27T17:51:49Z</time></trkpt>
<trkpt lat="47.74722100" lon="-3.48695500"><ele>16.1904221784</ele><time>2007-04-27T17:51:51Z</time></trkpt>
<trkpt lat="47.74708700" lon="-3.48699900"><ele>16.1816253456</ele><time>2007-04-27T17:51:54Z</time></trkpt>
<trkpt lat="47.74700300" lon="-3.48703500"><ele>16.2745494168</ele><time>2007-04-27T17:51:56Z</time></trkpt>
<trkpt lat="47.74689400" lon="-3.48711600"><ele>16.5692614512</ele><time>2007-04-27T17:51:59Z</time></trkpt>
<trkpt lat="47.74679700" lon="-3.48722400"><ele>17.2641926496</ele><time>2007-04-27T17:52:02Z</time></trkpt>
<trkpt lat="47.74677200" lon="-3.48736800"><ele>18.687324576</ele><time>2007-04-27T17:52:06Z</time></trkpt>
<trkpt lat="47.74676000" lon="-3.48750200"><ele>20.0538121656</ele><time>2007-04-27T17:52:10Z</time></trkpt>
<trkpt lat="47.74675400" lon="-3.48763700"><ele>21.4390220952</ele><time>2007-04-27T17:52:14Z</time></trkpt>
<trkpt lat="47.74674800" lon="-3.48777200"><ele>22.824230196</ele><time>2007-04-27T17:52:18Z</time></trkpt>
<trkpt lat="47.74673600" lon="-3.48790700"><ele>23.5712127</ele><time>2007-04-27T17:52:22Z</time></trkpt>
<trkpt lat="47.74668100" lon="-3.48804100"><ele>24.1021557072</ele><time>2007-04-27T17:52:27Z</time></trkpt>
<trkpt lat="47.74658500" lon="-3.48798800"><ele>24.2113152552</ele><time>2007-04-27T17:52:32Z</time></trkpt>
<trkpt lat="47.74647500" lon="-3.48797900"><ele>24.6961840848</ele><time>2007-04-27T17:52:56Z</time></trkpt>
<trkpt lat="47.74638500" lon="-3.48797900"><ele>25.1495628072</ele><time>2007-04-27T17:53:01Z</time></trkpt>
<trkpt lat="47.74631200" lon="-3.48806800"><ele>26.2222097856</ele><time>2007-04-27T17:53:06Z</time></trkpt>
<trkpt lat="47.74631200" lon="-3.48822100"><ele>27.3718739328</ele><time>2007-04-27T17:53:09Z</time></trkpt>
<trkpt lat="47.74632400" lon="-3.48838300"><ele>28.458936732</ele><time>2007-04-27T17:53:12Z</time></trkpt>
<trkpt lat="47.74631200" lon="-3.48852700"><ele>28.8204191688</ele><time>2007-04-27T17:53:15Z</time></trkpt>
<trkpt lat="47.74626900" lon="-3.48867000"><ele>29.0225219904</ele><time>2007-04-27T17:53:18Z</time></trkpt>
<trkpt lat="47.74619100" lon="-3.48882300"><ele>29.2680417432</ele><time>2007-04-27T17:53:21Z</time></trkpt>
<trkpt lat="47.74612400" lon="-3.48891300"><ele>29.2852382544</ele><time>2007-04-27T17:53:23Z</time></trkpt>
<trkpt lat="47.74604500" lon="-3.48899400"><ele>29.3035945296</ele><time>2007-04-27T17:53:25Z</time></trkpt>
<trkpt lat="47.74594800" lon="-3.48906600"><ele>29.4026947632</ele><time>2007-04-27T17:53:27Z</time></trkpt>
<trkpt lat="47.74587000" lon="-3.48914600"><ele>29.0846481552</ele><time>2007-04-27T17:53:29Z</time></trkpt>
<trkpt lat="47.74582700" lon="-3.48933500"><ele>28.0754681568</ele><time>2007-04-27T17:53:32Z</time></trkpt>
<trkpt lat="47.74580300" lon="-3.48948800"><ele>27.2267132376</ele><time>2007-04-27T17:53:34Z</time></trkpt>
<trkpt lat="47.74576700" lon="-3.48964900"><ele>26.3095301088</ele><time>2007-04-27T17:53:36Z</time></trkpt>
<trkpt lat="47.74571200" lon="-3.48981100"><ele>25.8472804872</ele><time>2007-04-27T17:53:38Z</time></trkpt>
<trkpt lat="47.74565100" lon="-3.48999100"><ele>25.499200716</ele><time>2007-04-27T17:53:40Z</time></trkpt>
<trkpt lat="47.74559100" lon="-3.49020600"><ele>24.7467976488</ele><time>2007-04-27T17:53:42Z</time></trkpt>
<trkpt lat="47.74555500" lon="-3.49044000"><ele>23.9822940216</ele><time>2007-04-27T17:53:44Z</time></trkpt>
<trkpt lat="47.74553600" lon="-3.49068300"><ele>23.1156406368</ele><time>2007-04-27T17:53:46Z</time></trkpt>
<trkpt lat="47.74551200" lon="-3.49092500"><ele>22.1906814504</ele><time>2007-04-27T17:53:48Z</time></trkpt>
<trkpt lat="47.74548800" lon="-3.49106000"><ele>21.4944993528</ele><time>2007-04-27T17:53:49Z</time></trkpt>
<trkpt lat="47.74543900" lon="-3.49130200"><ele>20.1163004328</ele><time>2007-04-27T17:53:51Z</time></trkpt>
<trkpt lat="47.74539700" lon="-3.49155400"><ele>18.8243943552</ele><time>2007-04-27T17:53:53Z</time></trkpt>
<trkpt lat="47.74536100" lon="-3.49181400"><ele>17.488613232</ele><time>2007-04-27T17:53:55Z</time></trkpt>
<trkpt lat="47.74533600" lon="-3.49194000"><ele>16.7670879288</ele><time>2007-04-27T17:53:56Z</time></trkpt>
<trkpt lat="47.74530600" lon="-3.49206600"><ele>16.0319060616</ele><time>2007-04-27T17:53:57Z</time></trkpt>
<trkpt lat="47.74525200" lon="-3.49229000"><ele>14.8361854152</ele><time>2007-04-27T17:53:59Z</time></trkpt>
<trkpt lat="47.74519700" lon="-3.49249700"><ele>13.8962172672</ele><time>2007-04-27T17:54:01Z</time></trkpt>
<trkpt lat="47.74515500" lon="-3.49270400"><ele>13.0835808432</ele><time>2007-04-27T17:54:03Z</time></trkpt>
<trkpt lat="47.74510600" lon="-3.49291900"><ele>12.2712812232</ele><time>2007-04-27T17:54:05Z</time></trkpt>
<trkpt lat="47.74506400" lon="-3.49311700"><ele>11.8084372416</ele><time>2007-04-27T17:54:07Z</time></trkpt>
<trkpt lat="47.74502700" lon="-3.49331500"><ele>11.431962912</ele><time>2007-04-27T17:54:09Z</time></trkpt>
<trkpt lat="47.74497900" lon="-3.49352100"><ele>11.0268763968</ele><time>2007-04-27T17:54:11Z</time></trkpt>
<trkpt lat="47.74490600" lon="-3.49370100"><ele>10.6240624704</ele><time>2007-04-27T17:54:13Z</time></trkpt>
<trkpt lat="47.74479700" lon="-3.49383600"><ele>10.1790627</ele><time>2007-04-27T17:54:15Z</time></trkpt>
<trkpt lat="47.74467000" lon="-3.49395200"><ele>9.7146874032</ele><time>2007-04-27T17:54:17Z</time></trkpt>
<trkpt lat="47.74453100" lon="-3.49406000"><ele>9.1899995016</ele><time>2007-04-27T17:54:19Z</time></trkpt>
<trkpt lat="47.74439100" lon="-3.49415900"><ele>8.4190627656</ele><time>2007-04-27T17:54:21Z</time></trkpt>
<trkpt lat="47.74425200" lon="-3.49425800"><ele>7.666068996</ele><time>2007-04-27T17:54:23Z</time></trkpt>
<trkpt lat="47.74412500" lon="-3.49438400"><ele>7.1311187832</ele><time>2007-04-27T17:54:25Z</time></trkpt>
<trkpt lat="47.74400300" lon="-3.49454500"><ele>6.8350000968</ele><time>2007-04-27T17:54:27Z</time></trkpt>
<trkpt lat="47.74391300" lon="-3.49471600"><ele>6.655000152</ele><time>2007-04-27T17:54:29Z</time></trkpt>
<trkpt lat="47.74384000" lon="-3.49491400"><ele>6.4037498544</ele><time>2007-04-27T17:54:31Z</time></trkpt>
<trkpt lat="47.74379100" lon="-3.49511100"><ele>6.0159369648</ele><time>2007-04-27T17:54:33Z</time></trkpt>
<trkpt lat="47.74374300" lon="-3.49531800"><ele>5.6134382016</ele><time>2007-04-27T17:54:35Z</time></trkpt>
<trkpt lat="47.74368800" lon="-3.49552400"><ele>5.2330560312</ele><time>2007-04-27T17:54:37Z</time></trkpt>
<trkpt lat="47.74363400" lon="-3.49573100"><ele>5.0949221952</ele><time>2007-04-27T17:54:39Z</time></trkpt>
<trkpt lat="47.74357900" lon="-3.49592900"><ele>5.0163749304</ele><time>2007-04-27T17:54:41Z</time></trkpt>
<trkpt lat="47.74351900" lon="-3.49612600"><ele>4.9999998552</ele><time>2007-04-27T17:54:43Z</time></trkpt>
<trkpt lat="47.74345800" lon="-3.49631500"><ele>4.9999998552</ele><time>2007-04-27T17:54:45Z</time></trkpt>
<trkpt lat="47.74339800" lon="-3.49649500"><ele>4.9999998552</ele><time>2007-04-27T17:54:47Z</time></trkpt>
<trkpt lat="47.74333700" lon="-3.49667400"><ele>4.9999998552</ele><time>2007-04-27T17:54:49Z</time></trkpt>
<trkpt lat="47.74327000" lon="-3.49685400"><ele>5.0496968856</ele><time>2007-04-27T17:54:51Z</time></trkpt>
<trkpt lat="47.74319800" lon="-3.49702500"><ele>5.1217726368</ele><time>2007-04-27T17:54:53Z</time></trkpt>
<trkpt lat="47.74311900" lon="-3.49719500"><ele>5.1091188648</ele><time>2007-04-27T17:54:55Z</time></trkpt>
<trkpt lat="47.74304000" lon="-3.49735700"><ele>5.0134576896</ele><time>2007-04-27T17:54:57Z</time></trkpt>
<trkpt lat="47.74296100" lon="-3.49752800"><ele>4.8791061168</ele><time>2007-04-27T17:54:59Z</time></trkpt>
<trkpt lat="47.74289500" lon="-3.49768000"><ele>4.8391809744</ele><time>2007-04-27T17:55:01Z</time></trkpt>
<trkpt lat="47.74282200" lon="-3.49783300"><ele>4.8528052296</ele><time>2007-04-27T17:55:03Z</time></trkpt>
<trkpt lat="47.74274300" lon="-3.49798600"><ele>4.9351329288</ele><time>2007-04-27T17:55:05Z</time></trkpt>
<trkpt lat="47.74267000" lon="-3.49814800"><ele>5.0396381808</ele><time>2007-04-27T17:55:07Z</time></trkpt>
<trkpt lat="47.74259800" lon="-3.49830000"><ele>5.0532880392</ele><time>2007-04-27T17:55:09Z</time></trkpt>
<trkpt lat="47.74253100" lon="-3.49845300"><ele>5.0031027192</ele><time>2007-04-27T17:55:11Z</time></trkpt>
<trkpt lat="47.74245800" lon="-3.49860600"><ele>4.8600000336</ele><time>2007-04-27T17:55:13Z</time></trkpt>
<trkpt lat="47.74240400" lon="-3.49876700"><ele>4.7600003352</ele><time>2007-04-27T17:55:15Z</time></trkpt>
<trkpt lat="47.74234900" lon="-3.49892000"><ele>4.655000088</ele><time>2007-04-27T17:55:17Z</time></trkpt>
<trkpt lat="47.74228900" lon="-3.49907300"><ele>4.5399999624</ele><time>2007-04-27T17:55:19Z</time></trkpt>
<trkpt lat="47.74224000" lon="-3.49923400"><ele>4.4499998376</ele><time>2007-04-27T17:55:21Z</time></trkpt>
<trkpt lat="47.74218600" lon="-3.49938700"><ele>4.419686868</ele><time>2007-04-27T17:55:23Z</time></trkpt>
<trkpt lat="47.74213100" lon="-3.49954900"><ele>4.5659381376</ele><time>2007-04-27T17:55:25Z</time></trkpt>
<trkpt lat="47.74208300" lon="-3.49970200"><ele>4.7128118088</ele><time>2007-04-27T17:55:27Z</time></trkpt>
<trkpt lat="47.74202200" lon="-3.49986300"><ele>4.8487501704</ele><time>2007-04-27T17:55:29Z</time></trkpt>
<trkpt lat="47.74197400" lon="-3.50003400"><ele>4.9675002504</ele><time>2007-04-27T17:55:31Z</time></trkpt>
<trkpt lat="47.74191300" lon="-3.50019600"><ele>4.989999672</ele><time>2007-04-27T17:55:33Z</time></trkpt>
<trkpt lat="47.74185800" lon="-3.50034800"><ele>5.0162502672</ele><time>2007-04-27T17:55:35Z</time></trkpt>
<trkpt lat="47.74180400" lon="-3.50050100"><ele>5.0440629624</ele><time>2007-04-27T17:55:37Z</time></trkpt>
<trkpt lat="47.74174900" lon="-3.50065400"><ele>5.0300001</ele><time>2007-04-27T17:55:39Z</time></trkpt>
<trkpt lat="47.74169500" lon="-3.50081600"><ele>4.8299997888</ele><time>2007-04-27T17:55:41Z</time></trkpt>
<trkpt lat="47.74164600" lon="-3.50096800"><ele>4.6500001488</ele><time>2007-04-27T17:55:43Z</time></trkpt>
<trkpt lat="47.74158600" lon="-3.50112100"><ele>4.4200002024</ele><time>2007-04-27T17:55:45Z</time></trkpt>
<trkpt lat="47.74152500" lon="-3.50127400"><ele>4.1856879456</ele><time>2007-04-27T17:55:47Z</time></trkpt>
<trkpt lat="47.74145200" lon="-3.50139900"><ele>4.2053131032</ele><time>2007-04-27T17:55:49Z</time></trkpt>
<trkpt lat="47.74135600" lon="-3.50149800"><ele>4.3693753608</ele><time>2007-04-27T17:55:51Z</time></trkpt>
<trkpt lat="47.74125300" lon="-3.50154300"><ele>4.4537500968</ele><time>2007-04-27T17:55:53Z</time></trkpt>
<trkpt lat="47.74115000" lon="-3.50156100"><ele>4.4974998696</ele><time>2007-04-27T17:55:55Z</time></trkpt>
<trkpt lat="47.74102800" lon="-3.50151600"><ele>4.450313172</ele><time>2007-04-27T17:55:58Z</time></trkpt>
<trkpt lat="47.74090100" lon="-3.50147100"><ele>4.5131586648</ele><time>2007-04-27T17:56:01Z</time></trkpt>
<trkpt lat="47.74081600" lon="-3.50142600"><ele>4.5136661568</ele><time>2007-04-27T17:56:03Z</time></trkpt>
<trkpt lat="47.74070700" lon="-3.50132800"><ele>4.38216294</ele><time>2007-04-27T17:56:06Z</time></trkpt>
<trkpt lat="47.74061600" lon="-3.50123800"><ele>4.1978250816</ele><time>2007-04-27T17:56:08Z</time></trkpt>
<trkpt lat="47.74051300" lon="-3.50116600"><ele>4.1887496616</ele><time>2007-04-27T17:56:10Z</time></trkpt>
<trkpt lat="47.74043500" lon="-3.50109400"><ele>4.2668747784</ele><time>2007-04-27T17:56:12Z</time></trkpt>
<trkpt lat="47.74036200" lon="-3.50101300"><ele>4.3278131376</ele><time>2007-04-27T17:56:14Z</time></trkpt>
<trkpt lat="47.74028300" lon="-3.50091400"><ele>4.37781192</ele><time>2007-04-27T17:56:16Z</time></trkpt>
<trkpt lat="47.74019800" lon="-3.50082400"><ele>4.4571882408</ele><time>2007-04-27T17:56:18Z</time></trkpt>
<trkpt lat="47.74012500" lon="-3.50072600"><ele>4.49281296</ele><time>2007-04-27T17:56:20Z</time></trkpt>
<trkpt lat="47.74001000" lon="-3.50060900"><ele>4.6065631008</ele><time>2007-04-27T17:56:23Z</time></trkpt>
<trkpt lat="47.73993800" lon="-3.50052800"><ele>4.667499936</ele><time>2007-04-27T17:56:25Z</time></trkpt>
<trkpt lat="47.73986500" lon="-3.50042900"><ele>4.7012501352</ele><time>2007-04-27T17:56:27Z</time></trkpt>
<trkpt lat="47.73978600" lon="-3.50032100"><ele>4.6271480736</ele><time>2007-04-27T17:56:29Z</time></trkpt>
<trkpt lat="47.73968300" lon="-3.50024100"><ele>4.555850172</ele><time>2007-04-27T17:56:32Z</time></trkpt>
<trkpt lat="47.73959200" lon="-3.50014200"><ele>4.383914016</ele><time>2007-04-27T17:56:35Z</time></trkpt>
<trkpt lat="47.73948300" lon="-3.50003400"><ele>4.2710228016</ele><time>2007-04-27T17:56:38Z</time></trkpt>
<trkpt lat="47.73938000" lon="-3.49998900"><ele>4.3313689344</ele><time>2007-04-27T17:56:41Z</time></trkpt>
<trkpt lat="47.73924700" lon="-3.49997100"><ele>4.4926471488</ele><time>2007-04-27T17:56:44Z</time></trkpt>
<trkpt lat="47.73912600" lon="-3.49991700"><ele>4.6109500872</ele><time>2007-04-27T17:56:47Z</time></trkpt>
<trkpt lat="47.73905300" lon="-3.49980900"><ele>4.6541509152</ele><time>2007-04-27T17:56:50Z</time></trkpt>
<trkpt lat="47.73899200" lon="-3.49970200"><ele>4.7264799552</ele><time>2007-04-27T17:56:54Z</time></trkpt>
<trkpt lat="47.73890700" lon="-3.49963000"><ele>4.9397811288</ele><time>2007-04-27T17:56:58Z</time></trkpt>
<trkpt lat="47.73895000" lon="-3.49950400"><ele>5.2141441056</ele><time>2007-04-27T17:57:27Z</time></trkpt>
<trkpt lat="47.73899200" lon="-3.49937800"><ele>5.4566631024</ele><time>2007-04-27T17:57:30Z</time></trkpt>
<trkpt lat="47.73907100" lon="-3.49923400"><ele>5.5916937696</ele><time>2007-04-27T17:57:33Z</time></trkpt>
<trkpt lat="47.73913800" lon="-3.49912700"><ele>5.6172561264</ele><time>2007-04-27T17:57:35Z</time></trkpt>
<trkpt lat="47.73919800" lon="-3.49901900"><ele>5.6173119048</ele><time>2007-04-27T17:57:37Z</time></trkpt>
<trkpt lat="47.73928900" lon="-3.49890200"><ele>5.4661420776</ele><time>2007-04-27T17:57:40Z</time></trkpt>
<trkpt lat="47.73938000" lon="-3.49882100"><ele>5.230518876</ele><time>2007-04-27T17:57:42Z</time></trkpt>
<trkpt lat="47.73950700" lon="-3.49874900"><ele>4.9561449264</ele><time>2007-04-27T17:57:44Z</time></trkpt>
<trkpt lat="47.73961600" lon="-3.49865100"><ele>4.6969509312</ele><time>2007-04-27T17:57:46Z</time></trkpt>
<trkpt lat="47.73967100" lon="-3.49848000"><ele>4.6255079448</ele><time>2007-04-27T17:57:48Z</time></trkpt>
<trkpt lat="47.73973800" lon="-3.49828200"><ele>4.2713717976</ele><time>2007-04-27T17:57:50Z</time></trkpt>
<trkpt lat="47.73979800" lon="-3.49812100"><ele>3.7932500208</ele><time>2007-04-27T17:57:52Z</time></trkpt>
<trkpt lat="47.73979800" lon="-3.49797700"><ele>3.6366410376</ele><time>2007-04-27T17:57:54Z</time></trkpt>
<trkpt lat="47.73975600" lon="-3.49786000"><ele>3.7951309416</ele><time>2007-04-27T17:57:56Z</time></trkpt>
<trkpt lat="47.73971900" lon="-3.49768900"><ele>3.926592096</ele><time>2007-04-27T17:57:59Z</time></trkpt>
<trkpt lat="47.73970700" lon="-3.49751000"><ele>3.9633369552</ele><time>2007-04-27T17:58:02Z</time></trkpt>
<trkpt lat="47.73970100" lon="-3.49732100"><ele>3.9456552024</ele><time>2007-04-27T17:58:05Z</time></trkpt>
<trkpt lat="47.73970700" lon="-3.49717700"><ele>3.8711248968</ele><time>2007-04-27T17:58:07Z</time></trkpt>
<trkpt lat="47.73970700" lon="-3.49698900"><ele>3.9434380872</ele><time>2007-04-27T17:58:10Z</time></trkpt>
<trkpt lat="47.73970700" lon="-3.49683600"><ele>4.2024997992</ele><time>2007-04-27T17:58:12Z</time></trkpt>
<trkpt lat="47.73969500" lon="-3.49667400"><ele>4.5328130832</ele><time>2007-04-27T17:58:14Z</time></trkpt>
<trkpt lat="47.73969500" lon="-3.49648600"><ele>4.8540631392</ele><time>2007-04-27T17:58:16Z</time></trkpt>
<trkpt lat="47.73968900" lon="-3.49629700"><ele>5.3412499728</ele><time>2007-04-27T17:58:18Z</time></trkpt>
<trkpt lat="47.73968300" lon="-3.49613500"><ele>5.8837500816</ele><time>2007-04-27T17:58:20Z</time></trkpt>
<trkpt lat="47.73967100" lon="-3.49595600"><ele>6.5156248656</ele><time>2007-04-27T17:58:23Z</time></trkpt>
<trkpt lat="47.73968300" lon="-3.49581200"><ele>6.9306250008</ele><time>2007-04-27T17:58:40Z</time></trkpt>
<trkpt lat="47.73968300" lon="-3.49567700"><ele>7.2785557248</ele><time>2007-04-27T17:58:43Z</time></trkpt>
<trkpt lat="47.73967100" lon="-3.49554200"><ele>7.4930437896</ele><time>2007-04-27T17:58:45Z</time></trkpt>
<trkpt lat="47.73965900" lon="-3.49540800"><ele>7.7224368792</ele><time>2007-04-27T17:58:47Z</time></trkpt>
<trkpt lat="47.73964100" lon="-3.49527300"><ele>8.0080643496</ele><time>2007-04-27T17:58:49Z</time></trkpt>
<trkpt lat="47.73962900" lon="-3.49512900"><ele>8.29850004</ele><time>2007-04-27T17:58:51Z</time></trkpt>
<trkpt lat="47.73963500" lon="-3.49498500"><ele>8.3999996592</ele><time>2007-04-27T17:58:53Z</time></trkpt>
<trkpt lat="47.73964700" lon="-3.49484200"><ele>8.370000024</ele><time>2007-04-27T17:58:55Z</time></trkpt>
<trkpt lat="47.73966500" lon="-3.49469800"><ele>8.2950000216</ele><time>2007-04-27T17:58:57Z</time></trkpt>
<trkpt lat="47.73969500" lon="-3.49453600"><ele>8.1599998344</ele><time>2007-04-27T17:58:59Z</time></trkpt>
<trkpt lat="47.73973200" lon="-3.49433900"><ele>8.0748749856</ele><time>2007-04-27T17:59:01Z</time></trkpt>
<trkpt lat="47.73976800" lon="-3.49419500"><ele>8.1338187336</ele><time>2007-04-27T17:59:03Z</time></trkpt>
<trkpt lat="47.73981000" lon="-3.49406000"><ele>8.0619316536</ele><time>2007-04-27T17:59:05Z</time></trkpt>
<trkpt lat="47.73987100" lon="-3.49389800"><ele>7.803500268</ele><time>2007-04-27T17:59:07Z</time></trkpt>
<trkpt lat="47.73992600" lon="-3.49373700"><ele>7.4749999344</ele><time>2007-04-27T17:59:09Z</time></trkpt>
<trkpt lat="47.73999200" lon="-3.49360200"><ele>6.8249999136</ele><time>2007-04-27T17:59:11Z</time></trkpt>
<trkpt lat="47.74006500" lon="-3.49347600"><ele>6.0749998896</ele><time>2007-04-27T17:59:13Z</time></trkpt>
<trkpt lat="47.74014400" lon="-3.49333300"><ele>5.7100000608</ele><time>2007-04-27T17:59:15Z</time></trkpt>
<trkpt lat="47.74021000" lon="-3.49318000"><ele>5.4499998696</ele><time>2007-04-27T17:59:17Z</time></trkpt>
<trkpt lat="47.74025900" lon="-3.49305400"><ele>5.2600003512</ele><time>2007-04-27T17:59:19Z</time></trkpt>
<trkpt lat="47.74031300" lon="-3.49294600"><ele>5.0500001616</ele><time>2007-04-27T17:59:21Z</time></trkpt>
<trkpt lat="47.74041000" lon="-3.49280300"><ele>4.6500001488</ele><time>2007-04-27T17:59:24Z</time></trkpt>
<trkpt lat="47.74047700" lon="-3.49266800"><ele>4.3800000792</ele><time>2007-04-27T17:59:27Z</time></trkpt>
<trkpt lat="47.74051300" lon="-3.49251500"><ele>4.2600003192</ele><time>2007-04-27T17:59:30Z</time></trkpt>
<trkpt lat="47.74055000" lon="-3.49233500"><ele>4.1565688776</ele><time>2007-04-27T17:59:33Z</time></trkpt>
<trkpt lat="47.74058000" lon="-3.49215600"><ele>4.0590868272</ele><time>2007-04-27T17:59:36Z</time></trkpt>
<trkpt lat="47.74060400" lon="-3.49202100"><ele>4.000000128</ele><time>2007-04-27T17:59:38Z</time></trkpt>
<trkpt lat="47.74064100" lon="-3.49188600"><ele>4.000000128</ele><time>2007-04-27T17:59:41Z</time></trkpt>
<trkpt lat="47.74067700" lon="-3.49172500"><ele>4.000000128</ele><time>2007-04-27T17:59:45Z</time></trkpt>
<trkpt lat="47.74070100" lon="-3.49154500"><ele>4.000000128</ele><time>2007-04-27T17:59:48Z</time></trkpt>
<trkpt lat="47.74070700" lon="-3.49137400"><ele>4.000000128</ele><time>2007-04-27T17:59:51Z</time></trkpt>
<trkpt lat="47.74069500" lon="-3.49120400"><ele>4.000000128</ele><time>2007-04-27T17:59:54Z</time></trkpt>
<trkpt lat="47.74067100" lon="-3.49107800"><ele>4.000000128</ele><time>2007-04-27T17:59:56Z</time></trkpt>
<trkpt lat="47.74062800" lon="-3.49093400"><ele>4.068718812</ele><time>2007-04-27T17:59:58Z</time></trkpt>
<trkpt lat="47.74057400" lon="-3.49080800"><ele>4.187775216</ele><time>2007-04-27T18:00:00Z</time></trkpt>
<trkpt lat="47.74047700" lon="-3.49068300"><ele>4.2759809832</ele><time>2007-04-27T18:00:03Z</time></trkpt>
<trkpt lat="47.74038600" lon="-3.49065600"><ele>4.3828368528</ele><time>2007-04-27T18:00:05Z</time></trkpt>
<trkpt lat="47.74029500" lon="-3.49063800"><ele>4.4904617328</ele><time>2007-04-27T18:00:07Z</time></trkpt>
<trkpt lat="47.74020400" lon="-3.49062000"><ele>4.5815548704</ele><time>2007-04-27T18:00:09Z</time></trkpt>
<trkpt lat="47.74010100" lon="-3.49059300"><ele>4.5947560632</ele><time>2007-04-27T18:00:11Z</time></trkpt>
<trkpt lat="47.73999800" lon="-3.49061100"><ele>4.764914016</ele><time>2007-04-27T18:00:13Z</time></trkpt>
<trkpt lat="47.73991900" lon="-3.49068300"><ele>5.135358792</ele><time>2007-04-27T18:00:15Z</time></trkpt>
<trkpt lat="47.73984100" lon="-3.49082600"><ele>5.8381510872</ele><time>2007-04-27T18:00:18Z</time></trkpt>
<trkpt lat="47.73981000" lon="-3.49096100"><ele>6.4658562072</ele><time>2007-04-27T18:00:20Z</time></trkpt>
<trkpt lat="47.73972600" lon="-3.49108700"><ele>7.2237502464</ele><time>2007-04-27T18:00:23Z</time></trkpt>
<trkpt lat="47.73964700" lon="-3.49115900"><ele>7.541250348</ele><time>2007-04-27T18:00:35Z</time></trkpt>
<trkpt lat="47.73956800" lon="-3.49130200"><ele>8.2887497928</ele><time>2007-04-27T18:00:40Z</time></trkpt>
<trkpt lat="47.73950700" lon="-3.49144600"><ele>9.0712500312</ele><time>2007-04-27T18:00:43Z</time></trkpt>
<trkpt lat="47.73944100" lon="-3.49159000"><ele>9.8462506656</ele><time>2007-04-27T18:00:46Z</time></trkpt>
<trkpt lat="47.73934400" lon="-3.49159900"><ele>9.7487497176</ele><time>2007-04-27T18:00:50Z</time></trkpt>
<trkpt lat="47.73925300" lon="-3.49154500"><ele>9.2303495352</ele><time>2007-04-27T18:00:52Z</time></trkpt>
<trkpt lat="47.73913800" lon="-3.49148200"><ele>8.2699594824</ele><time>2007-04-27T18:00:54Z</time></trkpt>
<trkpt lat="47.73903500" lon="-3.49141900"><ele>7.4545003056</ele><time>2007-04-27T18:00:56Z</time></trkpt>
<trkpt lat="47.73895000" lon="-3.49134700"><ele>6.7571867904</ele><time>2007-04-27T18:00:58Z</time></trkpt>
<trkpt lat="47.73887700" lon="-3.49119500"><ele>5.8964029392</ele><time>2007-04-27T18:01:01Z</time></trkpt>
<trkpt lat="47.73882300" lon="-3.49102400"><ele>5.3174100408</ele><time>2007-04-27T18:01:04Z</time></trkpt>
<trkpt lat="47.73878000" lon="-3.49086200"><ele>5.4442693248</ele><time>2007-04-27T18:01:06Z</time></trkpt>
<trkpt lat="47.73873800" lon="-3.49069100"><ele>6.0035501976</ele><time>2007-04-27T18:01:08Z</time></trkpt>
<trkpt lat="47.73869500" lon="-3.49054800"><ele>6.5491882224</ele><time>2007-04-27T18:01:10Z</time></trkpt>
<trkpt lat="47.73867100" lon="-3.49039500"><ele>7.0554689472</ele><time>2007-04-27T18:01:12Z</time></trkpt>
<trkpt lat="47.73866500" lon="-3.49026000"><ele>7.43676186</ele><time>2007-04-27T18:01:14Z</time></trkpt>
<trkpt lat="47.73866500" lon="-3.49012600"><ele>7.6851058896</ele><time>2007-04-27T18:01:16Z</time></trkpt>
<trkpt lat="47.73867700" lon="-3.48996400"><ele>7.9107752376</ele><time>2007-04-27T18:01:19Z</time></trkpt>
<trkpt lat="47.73863500" lon="-3.48983800"><ele>8.281731468</ele><time>2007-04-27T18:01:22Z</time></trkpt>
<trkpt lat="47.73862300" lon="-3.48970300"><ele>8.5065659688</ele><time>2007-04-27T18:01:44Z</time></trkpt>
<trkpt lat="47.73855000" lon="-3.48962300"><ele>8.7784308048</ele><time>2007-04-27T18:01:49Z</time></trkpt>
<trkpt lat="47.73845900" lon="-3.48955100"><ele>9.1654128096</ele><time>2007-04-27T18:01:52Z</time></trkpt>
<trkpt lat="47.73838000" lon="-3.48948800"><ele>10.030737876</ele><time>2007-04-27T18:01:54Z</time></trkpt>
<trkpt lat="47.73828300" lon="-3.48940700"><ele>10.9603129536</ele><time>2007-04-27T18:01:56Z</time></trkpt>
<trkpt lat="47.73818600" lon="-3.48931700"><ele>11.7328434888</ele><time>2007-04-27T18:01:58Z</time></trkpt>
<trkpt lat="47.73808900" lon="-3.48922700"><ele>12.2911502208</ele><time>2007-04-27T18:02:00Z</time></trkpt>
<trkpt lat="47.73799200" lon="-3.48914600"><ele>12.7960139304</ele><time>2007-04-27T18:02:02Z</time></trkpt>
<trkpt lat="47.73788900" lon="-3.48905700"><ele>13.5506841</ele><time>2007-04-27T18:02:04Z</time></trkpt>
<trkpt lat="47.73779200" lon="-3.48896700"><ele>14.3355340416</ele><time>2007-04-27T18:02:06Z</time></trkpt>
<trkpt lat="47.73770200" lon="-3.48887700"><ele>15.1328402448</ele><time>2007-04-27T18:02:08Z</time></trkpt>
<trkpt lat="47.73761100" lon="-3.48878700"><ele>15.941669412</ele><time>2007-04-27T18:02:10Z</time></trkpt>
<trkpt lat="47.73751400" lon="-3.48869700"><ele>16.0599632064</ele><time>2007-04-27T18:02:12Z</time></trkpt>
<trkpt lat="47.73741700" lon="-3.48861600"><ele>16.21634298</ele><time>2007-04-27T18:02:14Z</time></trkpt>
<trkpt lat="47.73732000" lon="-3.48853600"><ele>16.4619063192</ele><time>2007-04-27T18:02:16Z</time></trkpt>
<trkpt lat="47.73722300" lon="-3.48844600"><ele>16.8296088096</ele><time>2007-04-27T18:02:18Z</time></trkpt>
<trkpt lat="47.73712600" lon="-3.48836500"><ele>17.3739377184</ele><time>2007-04-27T18:02:20Z</time></trkpt>
<trkpt lat="47.73702900" lon="-3.48827500"><ele>18.1742038344</ele><time>2007-04-27T18:02:22Z</time></trkpt>
<trkpt lat="47.73693200" lon="-3.48819400"><ele>19.0396880064</ele><time>2007-04-27T18:02:24Z</time></trkpt>
<trkpt lat="47.73682900" lon="-3.48812200"><ele>19.9756870488</ele><time>2007-04-27T18:02:26Z</time></trkpt>
<trkpt lat="47.73673800" lon="-3.48806800"><ele>20.824153932</ele><time>2007-04-27T18:02:28Z</time></trkpt>
<trkpt lat="47.73664700" lon="-3.48801500"><ele>21.3092498376</ele><time>2007-04-27T18:02:30Z</time></trkpt>
<trkpt lat="47.73655600" lon="-3.48797000"><ele>21.7287253512</ele><time>2007-04-27T18:02:32Z</time></trkpt>
<trkpt lat="47.73646500" lon="-3.48794300"><ele>21.9978905736</ele><time>2007-04-27T18:02:34Z</time></trkpt>
<trkpt lat="47.73636200" lon="-3.48791600"><ele>22.2587509104</ele><time>2007-04-27T18:02:36Z</time></trkpt>
<trkpt lat="47.73626500" lon="-3.48788900"><ele>22.4384155752</ele><time>2007-04-27T18:02:38Z</time></trkpt>
<trkpt lat="47.73616200" lon="-3.48786200"><ele>22.467458748</ele><time>2007-04-27T18:02:40Z</time></trkpt>
<trkpt lat="47.73606500" lon="-3.48785300"><ele>22.424078088</ele><time>2007-04-27T18:02:42Z</time></trkpt>
<trkpt lat="47.73596200" lon="-3.48785300"><ele>22.3467692256</ele><time>2007-04-27T18:02:44Z</time></trkpt>
<trkpt lat="47.73585300" lon="-3.48786200"><ele>22.2461873592</ele><time>2007-04-27T18:02:46Z</time></trkpt>
<trkpt lat="47.73575600" lon="-3.48787100"><ele>22.1669616096</ele><time>2007-04-27T18:02:48Z</time></trkpt>
<trkpt lat="47.73566500" lon="-3.48788900"><ele>22.0812530688</ele><time>2007-04-27T18:02:50Z</time></trkpt>
<trkpt lat="47.73556200" lon="-3.48785300"><ele>22.1203116648</ele><time>2007-04-27T18:02:53Z</time></trkpt>
<trkpt lat="47.73559900" lon="-3.48766400"><ele>22.5403672128</ele><time>2007-04-27T18:02:56Z</time></trkpt>
<trkpt lat="47.73561100" lon="-3.48752900"><ele>22.8385524432</ele><time>2007-04-27T18:02:58Z</time></trkpt>
<trkpt lat="47.73559300" lon="-3.48737700"><ele>23.1185149008</ele><time>2007-04-27T18:03:00Z</time></trkpt>
<trkpt lat="47.73554400" lon="-3.48716100"><ele>23.3750001384</ele><time>2007-04-27T18:03:02Z</time></trkpt>
<trkpt lat="47.73549600" lon="-3.48697200"><ele>23.5246868088</ele><time>2007-04-27T18:03:04Z</time></trkpt>
<trkpt lat="47.73544700" lon="-3.48678400"><ele>23.6678123544</ele><time>2007-04-27T18:03:06Z</time></trkpt>
<trkpt lat="47.73540500" lon="-3.48663100"><ele>23.7921009552</ele><time>2007-04-27T18:03:08Z</time></trkpt>
<trkpt lat="47.73540500" lon="-3.48649600"><ele>23.7831249</ele><time>2007-04-27T18:03:12Z</time></trkpt>
<trkpt lat="47.73549600" lon="-3.48646900"><ele>23.938850268</ele><time>2007-04-27T18:03:15Z</time></trkpt>
<trkpt lat="47.73558700" lon="-3.48641600"><ele>24.0936603216</ele><time>2007-04-27T18:03:17Z</time></trkpt>
<trkpt lat="47.73566500" lon="-3.48633500"><ele>24.2227726872</ele><time>2007-04-27T18:03:19Z</time></trkpt>
<trkpt lat="47.73578100" lon="-3.48626300"><ele>24.5193004152</ele><time>2007-04-27T18:03:21Z</time></trkpt>
<trkpt lat="47.73589000" lon="-3.48619100"><ele>24.8616084936</ele><time>2007-04-27T18:03:23Z</time></trkpt>
<trkpt lat="47.73599900" lon="-3.48612800"><ele>25.2999992856</ele><time>2007-04-27T18:03:25Z</time></trkpt>
<trkpt lat="47.73609600" lon="-3.48605600"><ele>25.71999936</ele><time>2007-04-27T18:03:27Z</time></trkpt>
<trkpt lat="47.73619900" lon="-3.48598400"><ele>26.1599998008</ele><time>2007-04-27T18:03:29Z</time></trkpt>
<trkpt lat="47.73629600" lon="-3.48590300"><ele>26.2201347072</ele><time>2007-04-27T18:03:31Z</time></trkpt>
<trkpt lat="47.73642300" lon="-3.48583200"><ele>26.1960564216</ele><time>2007-04-27T18:03:33Z</time></trkpt>
<trkpt lat="47.73657400" lon="-3.48563400"><ele>24.6418876224</ele><time>2007-04-27T18:03:40Z</time></trkpt>
<trkpt lat="47.75936900" lon="-2.85874300"><ele>116.9000016072</ele><time>2008-05-04T08:18:14Z</time></trkpt>
<trkpt lat="47.75936900" lon="-2.85874300"><ele>116.9000016072</ele><time>2008-05-04T08:18:15Z</time></trkpt>
<trkpt lat="47.75936900" lon="-2.85874400"><ele>116.9000016072</ele><time>2008-05-04T08:18:16Z</time></trkpt>
<trkpt lat="47.75936700" lon="-2.85874200"><ele>116.9000016072</ele><time>2008-05-04T08:18:19Z</time></trkpt>
<trkpt lat="47.75937700" lon="-2.85871500"><ele>116.9000016072</ele><time>2008-05-04T08:18:20Z</time></trkpt>
<trkpt lat="47.75940500" lon="-2.85868900"><ele>117.4000016232</ele><time>2008-05-04T08:18:21Z</time></trkpt>
<trkpt lat="47.75954900" lon="-2.85866600"><ele>117.9000016392</ele><time>2008-05-04T08:18:26Z</time></trkpt>
<trkpt lat="47.75966500" lon="-2.85865700"><ele>117.9000016392</ele><time>2008-05-04T08:18:30Z</time></trkpt>
<trkpt lat="47.75987200" lon="-2.85864400"><ele>118.4000016552</ele><time>2008-05-04T08:18:38Z</time></trkpt>
<trkpt lat="47.76001900" lon="-2.85862200"><ele>119.3000029032</ele><time>2008-05-04T08:18:44Z</time></trkpt>
<trkpt lat="47.76019700" lon="-2.85858700"><ele>119.3000029032</ele><time>2008-05-04T08:18:51Z</time></trkpt>
<trkpt lat="47.76030200" lon="-2.85847200"><ele>119.8000029192</ele><time>2008-05-04T08:18:56Z</time></trkpt>
<trkpt lat="47.76032500" lon="-2.85829700"><ele>120.3000029352</ele><time>2008-05-04T08:19:01Z</time></trkpt>
<trkpt lat="47.76032400" lon="-2.85804900"><ele>120.3000029352</ele><time>2008-05-04T08:19:07Z</time></trkpt>
<trkpt lat="47.76029700" lon="-2.85766100"><ele>119.8000029192</ele><time>2008-05-04T08:19:15Z</time></trkpt>
<trkpt lat="47.76026400" lon="-2.85726200"><ele>120.8000029512</ele><time>2008-05-04T08:19:23Z</time></trkpt>
<trkpt lat="47.76023100" lon="-2.85685800"><ele>120.3000029352</ele><time>2008-05-04T08:19:30Z</time></trkpt>
<trkpt lat="47.76021900" lon="-2.85674600"><ele>118.9000016712</ele><time>2008-05-04T08:19:32Z</time></trkpt>
<trkpt lat="47.76021200" lon="-2.85669300"><ele>119.3000029032</ele><time>2008-05-04T08:19:33Z</time></trkpt>
<trkpt lat="47.76018100" lon="-2.85632100"><ele>118.9000016712</ele><time>2008-05-04T08:19:39Z</time></trkpt>
<trkpt lat="47.76012500" lon="-2.85587500"><ele>118.9000016712</ele><time>2008-05-04T08:19:46Z</time></trkpt>
<trkpt lat="47.76009800" lon="-2.85553200"><ele>118.4000016552</ele><time>2008-05-04T08:19:51Z</time></trkpt>
<trkpt lat="47.76008100" lon="-2.85523800"><ele>117.4000016232</ele><time>2008-05-04T08:19:55Z</time></trkpt>
<trkpt lat="47.76004300" lon="-2.85479400"><ele>117.4000016232</ele><time>2008-05-04T08:20:01Z</time></trkpt>
<trkpt lat="47.75999900" lon="-2.85417100"><ele>116.9000016072</ele><time>2008-05-04T08:20:10Z</time></trkpt>
<trkpt lat="47.75999500" lon="-2.85410400"><ele>116.9000016072</ele><time>2008-05-04T08:20:11Z</time></trkpt>
<trkpt lat="47.75996200" lon="-2.85367800"><ele>116.9000016072</ele><time>2008-05-04T08:20:18Z</time></trkpt>
<trkpt lat="47.75994100" lon="-2.85332200"><ele>117.4000016232</ele><time>2008-05-04T08:20:24Z</time></trkpt>
<trkpt lat="47.75993000" lon="-2.85301600"><ele>117.4000016232</ele><time>2008-05-04T08:20:30Z</time></trkpt>
<trkpt lat="47.75996800" lon="-2.85288800"><ele>116.9000016072</ele><time>2008-05-04T08:20:36Z</time></trkpt>
<trkpt lat="47.75998600" lon="-2.85284900"><ele>117.4000016232</ele><time>2008-05-04T08:20:39Z</time></trkpt>
<trkpt lat="47.76011000" lon="-2.85284100"><ele>116.5000000704</ele><time>2008-05-04T08:20:44Z</time></trkpt>
<trkpt lat="47.76031100" lon="-2.85283800"><ele>115.5000000384</ele><time>2008-05-04T08:20:49Z</time></trkpt>
<trkpt lat="47.76056300" lon="-2.85282700"><ele>115.5000000384</ele><time>2008-05-04T08:20:54Z</time></trkpt>
<trkpt lat="47.76062000" lon="-2.85282900"><ele>115.0000000224</ele><time>2008-05-04T08:20:55Z</time></trkpt>
<trkpt lat="47.76095700" lon="-2.85296700"><ele>115.0000000224</ele><time>2008-05-04T08:21:01Z</time></trkpt>
<trkpt lat="47.76113800" lon="-2.85303200"><ele>113.5999984536</ele><time>2008-05-04T08:21:04Z</time></trkpt>
<trkpt lat="47.76138300" lon="-2.85301400"><ele>113.0999984376</ele><time>2008-05-04T08:21:08Z</time></trkpt>
<trkpt lat="47.76178800" lon="-2.85280600"><ele>112.0999984056</ele><time>2008-05-04T08:21:15Z</time></trkpt>
<trkpt lat="47.76225400" lon="-2.85252600"><ele>109.6999968048</ele><time>2008-05-04T08:21:22Z</time></trkpt>
<trkpt lat="47.76232600" lon="-2.85248800"><ele>109.1999970936</ele><time>2008-05-04T08:21:23Z</time></trkpt>
<trkpt lat="47.76254000" lon="-2.85237000"><ele>107.8000031448</ele><time>2008-05-04T08:21:26Z</time></trkpt>
<trkpt lat="47.76270000" lon="-2.85222200"><ele>106.400001576</ele><time>2008-05-04T08:21:29Z</time></trkpt>
<trkpt lat="47.76270900" lon="-2.85201100"><ele>105.90000156</ele><time>2008-05-04T08:21:32Z</time></trkpt>
<trkpt lat="47.76253200" lon="-2.85146100"><ele>105.90000156</ele><time>2008-05-04T08:21:41Z</time></trkpt>
<trkpt lat="47.76242200" lon="-2.85111500"><ele>107.3000031288</ele><time>2008-05-04T08:21:47Z</time></trkpt>
<trkpt lat="47.76236800" lon="-2.85094600"><ele>107.3000031288</ele><time>2008-05-04T08:21:50Z</time></trkpt>
<trkpt lat="47.76231400" lon="-2.85077400"><ele>107.8000031448</ele><time>2008-05-04T08:21:53Z</time></trkpt>
<trkpt lat="47.76228200" lon="-2.85065500"><ele>107.8000031448</ele><time>2008-05-04T08:21:55Z</time></trkpt>
<trkpt lat="47.76221800" lon="-2.85042500"><ele>108.3000031608</ele><time>2008-05-04T08:21:59Z</time></trkpt>
<trkpt lat="47.76205400" lon="-2.85007100"><ele>109.6999968048</ele><time>2008-05-04T08:22:06Z</time></trkpt>
<trkpt lat="47.76198600" lon="-2.84986100"><ele>110.6999968368</ele><time>2008-05-04T08:22:10Z</time></trkpt>
<trkpt lat="47.76186900" lon="-2.84958900"><ele>111.6999968688</ele><time>2008-05-04T08:22:16Z</time></trkpt>
<trkpt lat="47.76174300" lon="-2.84933900"><ele>113.0999984376</ele><time>2008-05-04T08:22:22Z</time></trkpt>
<trkpt lat="47.76156800" lon="-2.84898900"><ele>115.5000000384</ele><time>2008-05-04T08:22:30Z</time></trkpt>
<trkpt lat="47.76150000" lon="-2.84886000"><ele>116.0000000544</ele><time>2008-05-04T08:22:33Z</time></trkpt>
<trkpt lat="47.76130300" lon="-2.84850700"><ele>118.9000016712</ele><time>2008-05-04T08:22:42Z</time></trkpt>
<trkpt lat="47.76111900" lon="-2.84825800"><ele>121.3000029672</ele><time>2008-05-04T08:22:49Z</time></trkpt>
<trkpt lat="47.76085700" lon="-2.84796700"><ele>121.699996884</ele><time>2008-05-04T08:22:58Z</time></trkpt>
<trkpt lat="47.76064300" lon="-2.84775100"><ele>121.699996884</ele><time>2008-05-04T08:23:05Z</time></trkpt>
<trkpt lat="47.76052400" lon="-2.84750100"><ele>122.699996916</ele><time>2008-05-04T08:23:11Z</time></trkpt>
<trkpt lat="47.76050500" lon="-2.84726800"><ele>123.199996932</ele><time>2008-05-04T08:23:16Z</time></trkpt>
<trkpt lat="47.76047100" lon="-2.84693400"><ele>123.699996948</ele><time>2008-05-04T08:23:23Z</time></trkpt>
<trkpt lat="47.76042200" lon="-2.84655900"><ele>123.699996948</ele><time>2008-05-04T08:23:30Z</time></trkpt>
<trkpt lat="47.76039200" lon="-2.84622500"><ele>123.699996948</ele><time>2008-05-04T08:23:36Z</time></trkpt>
<trkpt lat="47.76035400" lon="-2.84588500"><ele>123.199996932</ele><time>2008-05-04T08:23:42Z</time></trkpt>
<trkpt lat="47.76034700" lon="-2.84582800"><ele>123.699996948</ele><time>2008-05-04T08:23:43Z</time></trkpt>
<trkpt lat="47.76040900" lon="-2.84560000"><ele>122.1999969</ele><time>2008-05-04T08:23:47Z</time></trkpt>
<trkpt lat="47.76050000" lon="-2.84556100"><ele>121.699996884</ele><time>2008-05-04T08:23:49Z</time></trkpt>
<trkpt lat="47.76054800" lon="-2.84555700"><ele>121.699996884</ele><time>2008-05-04T08:23:50Z</time></trkpt>
<trkpt lat="47.76070100" lon="-2.84554500"><ele>121.3000029672</ele><time>2008-05-04T08:23:53Z</time></trkpt>
<trkpt lat="47.76080700" lon="-2.84551800"><ele>120.3000029352</ele><time>2008-05-04T08:23:55Z</time></trkpt>
<trkpt lat="47.76106100" lon="-2.84547800"><ele>118.9000016712</ele><time>2008-05-04T08:24:00Z</time></trkpt>
<trkpt lat="47.76138300" lon="-2.84540000"><ele>116.9000016072</ele><time>2008-05-04T08:24:05Z</time></trkpt>
<trkpt lat="47.76167600" lon="-2.84537700"><ele>114.5000000064</ele><time>2008-05-04T08:24:09Z</time></trkpt>
<trkpt lat="47.76177300" lon="-2.84534800"><ele>113.5999984536</ele><time>2008-05-04T08:24:11Z</time></trkpt>
<trkpt lat="47.76181400" lon="-2.84532700"><ele>112.5999984216</ele><time>2008-05-04T08:24:12Z</time></trkpt>
<trkpt lat="47.76190300" lon="-2.84532400"><ele>109.6999968048</ele><time>2008-05-04T08:24:14Z</time></trkpt>
<trkpt lat="47.76205000" lon="-2.84531400"><ele>107.8000031448</ele><time>2008-05-04T08:24:17Z</time></trkpt>
<trkpt lat="47.76207100" lon="-2.84531000"><ele>107.8000031448</ele><time>2008-05-04T08:24:20Z</time></trkpt>
<trkpt lat="47.76205400" lon="-2.84530000"><ele>107.8000031448</ele><time>2008-05-04T08:24:24Z</time></trkpt>
<trkpt lat="47.76204000" lon="-2.84522400"><ele>108.3000031608</ele><time>2008-05-04T08:24:40Z</time></trkpt>
<trkpt lat="47.76203400" lon="-2.84521000"><ele>108.3000031608</ele><time>2008-05-04T08:24:41Z</time></trkpt>
<trkpt lat="47.76202800" lon="-2.84519700"><ele>108.3000031608</ele><time>2008-05-04T08:24:42Z</time></trkpt>
<trkpt lat="47.76198000" lon="-2.84505100"><ele>108.3000031608</ele><time>2008-05-04T08:24:46Z</time></trkpt>
<trkpt lat="47.76198000" lon="-2.84489100"><ele>107.8000031448</ele><time>2008-05-04T08:24:50Z</time></trkpt>
<trkpt lat="47.76197000" lon="-2.84474600"><ele>107.3000031288</ele><time>2008-05-04T08:24:53Z</time></trkpt>
<trkpt lat="47.76190300" lon="-2.84448800"><ele>107.3000031288</ele><time>2008-05-04T08:24:58Z</time></trkpt>
<trkpt lat="47.76183700" lon="-2.84419100"><ele>107.8000031448</ele><time>2008-05-04T08:25:03Z</time></trkpt>
<trkpt lat="47.76179700" lon="-2.84391800"><ele>107.8000031448</ele><time>2008-05-04T08:25:08Z</time></trkpt>
<trkpt lat="47.76177800" lon="-2.84377400"><ele>107.8000031448</ele><time>2008-05-04T08:25:13Z</time></trkpt>
<trkpt lat="47.76176000" lon="-2.84367800"><ele>108.3000031608</ele><time>2008-05-04T08:25:19Z</time></trkpt>
<trkpt lat="47.76175600" lon="-2.84360400"><ele>106.400001576</ele><time>2008-05-04T08:25:24Z</time></trkpt>
<trkpt lat="47.76172200" lon="-2.84345300"><ele>106.400001576</ele><time>2008-05-04T08:25:30Z</time></trkpt>
<trkpt lat="47.76172200" lon="-2.84341700"><ele>106.400001576</ele><time>2008-05-04T08:25:33Z</time></trkpt>
<trkpt lat="47.76173500" lon="-2.84322200"><ele>104.400001512</ele><time>2008-05-04T08:25:38Z</time></trkpt>
<trkpt lat="47.76167900" lon="-2.84305900"><ele>104.400001512</ele><time>2008-05-04T08:25:41Z</time></trkpt>
<trkpt lat="47.76161900" lon="-2.84299800"><ele>104.400001512</ele><time>2008-05-04T08:25:43Z</time></trkpt>
<trkpt lat="47.76151400" lon="-2.84283700"><ele>104.900001528</ele><time>2008-05-04T08:25:48Z</time></trkpt>
<trkpt lat="47.76148800" lon="-2.84266300"><ele>106.8000031128</ele><time>2008-05-04T08:25:53Z</time></trkpt>
<trkpt lat="47.76147300" lon="-2.84263900"><ele>106.8000031128</ele><time>2008-05-04T08:25:54Z</time></trkpt>
<trkpt lat="47.76141400" lon="-2.84248700"><ele>106.8000031128</ele><time>2008-05-04T08:25:59Z</time></trkpt>
<trkpt lat="47.76141200" lon="-2.84239700"><ele>106.400001576</ele><time>2008-05-04T08:26:01Z</time></trkpt>
<trkpt lat="47.76137200" lon="-2.84222000"><ele>104.900001528</ele><time>2008-05-04T08:26:09Z</time></trkpt>
<trkpt lat="47.76135700" lon="-2.84219700"><ele>104.900001528</ele><time>2008-05-04T08:26:11Z</time></trkpt>
<trkpt lat="47.76133000" lon="-2.84215500"><ele>105.400001544</ele><time>2008-05-04T08:26:14Z</time></trkpt>
<trkpt lat="47.76133200" lon="-2.84199500"><ele>103.4999999592</ele><time>2008-05-04T08:26:18Z</time></trkpt>
<trkpt lat="47.76133500" lon="-2.84175600"><ele>102.9999999432</ele><time>2008-05-04T08:26:23Z</time></trkpt>
<trkpt lat="47.76136100" lon="-2.84153600"><ele>101.9999999112</ele><time>2008-05-04T08:26:27Z</time></trkpt>
<trkpt lat="47.76135200" lon="-2.84121700"><ele>101.0999983584</ele><time>2008-05-04T08:26:31Z</time></trkpt>
<trkpt lat="47.76135300" lon="-2.84111100"><ele>101.0999983584</ele><time>2008-05-04T08:26:33Z</time></trkpt>
<trkpt lat="47.76126400" lon="-2.84099200"><ele>101.9999999112</ele><time>2008-05-04T08:26:39Z</time></trkpt>
<trkpt lat="47.76122300" lon="-2.84103000"><ele>102.4999999272</ele><time>2008-05-04T08:26:42Z</time></trkpt>
<trkpt lat="47.76111100" lon="-2.84117300"><ele>104.400001512</ele><time>2008-05-04T08:26:50Z</time></trkpt>
<trkpt lat="47.76102700" lon="-2.84134600"><ele>105.90000156</ele><time>2008-05-04T08:26:57Z</time></trkpt>
<trkpt lat="47.76096900" lon="-2.84134100"><ele>107.3000031288</ele><time>2008-05-04T08:27:01Z</time></trkpt>
<trkpt lat="47.76096600" lon="-2.84130300"><ele>107.3000031288</ele><time>2008-05-04T08:27:02Z</time></trkpt>
<trkpt lat="47.76098200" lon="-2.84094000"><ele>105.90000156</ele><time>2008-05-04T08:27:08Z</time></trkpt>
<trkpt lat="47.76094800" lon="-2.84070700"><ele>104.900001528</ele><time>2008-05-04T08:27:12Z</time></trkpt>
<trkpt lat="47.76089700" lon="-2.84033400"><ele>104.900001528</ele><time>2008-05-04T08:27:18Z</time></trkpt>
<trkpt lat="47.76084300" lon="-2.84001100"><ele>103.9999999752</ele><time>2008-05-04T08:27:24Z</time></trkpt>
<trkpt lat="47.76081300" lon="-2.83975500"><ele>103.9999999752</ele><time>2008-05-04T08:27:29Z</time></trkpt>
<trkpt lat="47.76081300" lon="-2.83942900"><ele>103.4999999592</ele><time>2008-05-04T08:27:35Z</time></trkpt>
<trkpt lat="47.76079800" lon="-2.83926000"><ele>102.9999999432</ele><time>2008-05-04T08:27:38Z</time></trkpt>
<trkpt lat="47.76073400" lon="-2.83888500"><ele>102.9999999432</ele><time>2008-05-04T08:27:45Z</time></trkpt>
<trkpt lat="47.76070400" lon="-2.83866200"><ele>101.9999999112</ele><time>2008-05-04T08:27:49Z</time></trkpt>
<trkpt lat="47.76070900" lon="-2.83828300"><ele>101.0999983584</ele><time>2008-05-04T08:27:55Z</time></trkpt>
<trkpt lat="47.76070200" lon="-2.83799300"><ele>101.5999983744</ele><time>2008-05-04T08:28:00Z</time></trkpt>
<trkpt lat="47.76070300" lon="-2.83778600"><ele>100.5999983424</ele><time>2008-05-04T08:28:04Z</time></trkpt>
<trkpt lat="47.76059300" lon="-2.83769600"><ele>101.9999999112</ele><time>2008-05-04T08:28:09Z</time></trkpt>
<trkpt lat="47.76054200" lon="-2.83769700"><ele>102.9999999432</ele><time>2008-05-04T08:28:11Z</time></trkpt>
<trkpt lat="47.76049800" lon="-2.83769500"><ele>103.9999999752</ele><time>2008-05-04T08:28:13Z</time></trkpt>
<trkpt lat="47.76042700" lon="-2.83767700"><ele>105.400001544</ele><time>2008-05-04T08:28:16Z</time></trkpt>
<trkpt lat="47.76035900" lon="-2.83766700"><ele>106.8000031128</ele><time>2008-05-04T08:28:19Z</time></trkpt>
<trkpt lat="47.76028000" lon="-2.83765300"><ele>107.8000031448</ele><time>2008-05-04T08:28:23Z</time></trkpt>
<trkpt lat="47.76025600" lon="-2.83764900"><ele>107.8000031448</ele><time>2008-05-04T08:28:24Z</time></trkpt>
<trkpt lat="47.76017800" lon="-2.83763700"><ele>108.8000031768</ele><time>2008-05-04T08:28:28Z</time></trkpt>
<trkpt lat="47.76009200" lon="-2.83762200"><ele>111.1999968528</ele><time>2008-05-04T08:28:32Z</time></trkpt>
<trkpt lat="47.76002000" lon="-2.83759800"><ele>112.0999984056</ele><time>2008-05-04T08:28:36Z</time></trkpt>
<trkpt lat="47.75993100" lon="-2.83762600"><ele>113.5999984536</ele><time>2008-05-04T08:28:41Z</time></trkpt>
<trkpt lat="47.75992200" lon="-2.83762300"><ele>113.5999984536</ele><time>2008-05-04T08:28:42Z</time></trkpt>
<trkpt lat="47.75978900" lon="-2.83762500"><ele>115.0000000224</ele><time>2008-05-04T08:28:49Z</time></trkpt>
<trkpt lat="47.75974700" lon="-2.83762000"><ele>115.5000000384</ele><time>2008-05-04T08:28:51Z</time></trkpt>
<trkpt lat="47.75966600" lon="-2.83760500"><ele>116.9000016072</ele><time>2008-05-04T08:28:56Z</time></trkpt>
<trkpt lat="47.75962600" lon="-2.83759900"><ele>116.5000000704</ele><time>2008-05-04T08:28:58Z</time></trkpt>
<trkpt lat="47.75948700" lon="-2.83753800"><ele>117.9000016392</ele><time>2008-05-04T08:29:06Z</time></trkpt>
<trkpt lat="47.75938400" lon="-2.83753000"><ele>118.9000016712</ele><time>2008-05-04T08:29:11Z</time></trkpt>
<trkpt lat="47.75926600" lon="-2.83759800"><ele>120.8000029512</ele><time>2008-05-04T08:29:18Z</time></trkpt>
<trkpt lat="47.75918400" lon="-2.83766800"><ele>122.699996916</ele><time>2008-05-04T08:29:23Z</time></trkpt>
<trkpt lat="47.75909500" lon="-2.83774200"><ele>123.699996948</ele><time>2008-05-04T08:29:29Z</time></trkpt>
<trkpt lat="47.75900000" lon="-2.83791100"><ele>124.5999985008</ele><time>2008-05-04T08:29:37Z</time></trkpt>
<trkpt lat="47.75882200" lon="-2.83816500"><ele>126.0999985488</ele><time>2008-05-04T08:29:48Z</time></trkpt>
<trkpt lat="47.75870900" lon="-2.83826800"><ele>127.0000001016</ele><time>2008-05-04T08:29:55Z</time></trkpt>
<trkpt lat="47.75859100" lon="-2.83833500"><ele>127.0000001016</ele><time>2008-05-04T08:30:01Z</time></trkpt>
<trkpt lat="47.75856000" lon="-2.83835300"><ele>127.0000001016</ele><time>2008-05-04T08:30:02Z</time></trkpt>
<trkpt lat="47.75842700" lon="-2.83825900"><ele>126.0999985488</ele><time>2008-05-04T08:30:06Z</time></trkpt>
<trkpt lat="47.75841400" lon="-2.83814400"><ele>125.5999985328</ele><time>2008-05-04T08:30:08Z</time></trkpt>
<trkpt lat="47.75844600" lon="-2.83775400"><ele>125.0999985168</ele><time>2008-05-04T08:30:13Z</time></trkpt>
<trkpt lat="47.75848900" lon="-2.83739700"><ele>122.1999969</ele><time>2008-05-04T08:30:17Z</time></trkpt>
<trkpt lat="47.75849800" lon="-2.83725700"><ele>121.3000029672</ele><time>2008-05-04T08:30:19Z</time></trkpt>
<trkpt lat="47.75842300" lon="-2.83710200"><ele>121.3000029672</ele><time>2008-05-04T08:30:22Z</time></trkpt>
<trkpt lat="47.75835500" lon="-2.83700100"><ele>122.699996916</ele><time>2008-05-04T08:30:26Z</time></trkpt>
<trkpt lat="47.75833100" lon="-2.83694600"><ele>124.0999984848</ele><time>2008-05-04T08:30:28Z</time></trkpt>
<trkpt lat="47.75828500" lon="-2.83666800"><ele>124.0999984848</ele><time>2008-05-04T08:30:35Z</time></trkpt>
<trkpt lat="47.75826700" lon="-2.83642500"><ele>124.5999985008</ele><time>2008-05-04T08:30:41Z</time></trkpt>
<trkpt lat="47.75825500" lon="-2.83616900"><ele>125.0999985168</ele><time>2008-05-04T08:30:47Z</time></trkpt>
<trkpt lat="47.75822400" lon="-2.83601100"><ele>125.5999985328</ele><time>2008-05-04T08:30:51Z</time></trkpt>
<trkpt lat="47.75821200" lon="-2.83597000"><ele>125.5999985328</ele><time>2008-05-04T08:30:52Z</time></trkpt>
<trkpt lat="47.75814600" lon="-2.83588900"><ele>126.5999985648</ele><time>2008-05-04T08:30:56Z</time></trkpt>
<trkpt lat="47.75798800" lon="-2.83582700"><ele>128.5000001496</ele><time>2008-05-04T08:31:03Z</time></trkpt>
<trkpt lat="47.75787200" lon="-2.83584200"><ele>129.8999937936</ele><time>2008-05-04T08:31:08Z</time></trkpt>
<trkpt lat="47.75783700" lon="-2.83595300"><ele>130.3999938096</ele><time>2008-05-04T08:31:13Z</time></trkpt>
<trkpt lat="47.75773200" lon="-2.83595800"><ele>131.3999938416</ele><time>2008-05-04T08:31:18Z</time></trkpt>
<trkpt lat="47.75754000" lon="-2.83595800"><ele>133.3000030464</ele><time>2008-05-04T08:31:25Z</time></trkpt>
<trkpt lat="47.75740100" lon="-2.83597800"><ele>132.8000030304</ele><time>2008-05-04T08:31:30Z</time></trkpt>
<trkpt lat="47.75730200" lon="-2.83609700"><ele>133.3000030464</ele><time>2008-05-04T08:31:35Z</time></trkpt>
<trkpt lat="47.75727900" lon="-2.83611100"><ele>133.3000030464</ele><time>2008-05-04T08:31:36Z</time></trkpt>
<trkpt lat="47.75705100" lon="-2.83628400"><ele>133.8000030624</ele><time>2008-05-04T08:31:44Z</time></trkpt>
<trkpt lat="47.75683500" lon="-2.83638800"><ele>133.8000030624</ele><time>2008-05-04T08:31:50Z</time></trkpt>
<trkpt lat="47.75660100" lon="-2.83647400"><ele>133.3000030464</ele><time>2008-05-04T08:31:56Z</time></trkpt>
<trkpt lat="47.75640100" lon="-2.83655100"><ele>132.3000030144</ele><time>2008-05-04T08:32:01Z</time></trkpt>
<trkpt lat="47.75624200" lon="-2.83661800"><ele>131.3999938416</ele><time>2008-05-04T08:32:05Z</time></trkpt>
<trkpt lat="47.75596400" lon="-2.83672000"><ele>130.8999938256</ele><time>2008-05-04T08:32:12Z</time></trkpt>
<trkpt lat="47.75567400" lon="-2.83685100"><ele>128.9999998608</ele><time>2008-05-04T08:32:19Z</time></trkpt>
<trkpt lat="47.75531400" lon="-2.83704900"><ele>128.0000001336</ele><time>2008-05-04T08:32:27Z</time></trkpt>
<trkpt lat="47.75494200" lon="-2.83723600"><ele>128.0000001336</ele><time>2008-05-04T08:32:35Z</time></trkpt>
<trkpt lat="47.75489700" lon="-2.83726100"><ele>127.0000001016</ele><time>2008-05-04T08:32:36Z</time></trkpt>
<trkpt lat="47.75471400" lon="-2.83719700"><ele>127.0000001016</ele><time>2008-05-04T08:32:40Z</time></trkpt>
<trkpt lat="47.75467600" lon="-2.83707900"><ele>127.5000001176</ele><time>2008-05-04T08:32:42Z</time></trkpt>
<trkpt lat="47.75463600" lon="-2.83689000"><ele>127.0000001016</ele><time>2008-05-04T08:32:45Z</time></trkpt>
<trkpt lat="47.75462000" lon="-2.83682700"><ele>127.0000001016</ele><time>2008-05-04T08:32:46Z</time></trkpt>
<trkpt lat="47.75449900" lon="-2.83643400"><ele>127.0000001016</ele><time>2008-05-04T08:32:52Z</time></trkpt>
<trkpt lat="47.75435500" lon="-2.83604000"><ele>127.5000001176</ele><time>2008-05-04T08:32:58Z</time></trkpt>
<trkpt lat="47.75422100" lon="-2.83569800"><ele>127.0000001016</ele><time>2008-05-04T08:33:03Z</time></trkpt>
<trkpt lat="47.75409900" lon="-2.83541300"><ele>127.0000001016</ele><time>2008-05-04T08:33:07Z</time></trkpt>
<trkpt lat="47.75392000" lon="-2.83500900"><ele>127.0000001016</ele><time>2008-05-04T08:33:14Z</time></trkpt>
<trkpt lat="47.75376800" lon="-2.83474200"><ele>126.5999985648</ele><time>2008-05-04T08:33:19Z</time></trkpt>
<trkpt lat="47.75364600" lon="-2.83456400"><ele>126.0999985488</ele><time>2008-05-04T08:33:23Z</time></trkpt>
<trkpt lat="47.75360100" lon="-2.83442800"><ele>126.0999985488</ele><time>2008-05-04T08:33:26Z</time></trkpt>
<trkpt lat="47.75370500" lon="-2.83431400"><ele>127.0000001016</ele><time>2008-05-04T08:33:30Z</time></trkpt>
<trkpt lat="47.75378800" lon="-2.83415300"><ele>126.5999985648</ele><time>2008-05-04T08:33:34Z</time></trkpt>
<trkpt lat="47.75382600" lon="-2.83414900"><ele>127.0000001016</ele><time>2008-05-04T08:33:35Z</time></trkpt>
<trkpt lat="47.75414300" lon="-2.83415400"><ele>127.5000001176</ele><time>2008-05-04T08:33:43Z</time></trkpt>
<trkpt lat="47.75448800" lon="-2.83425000"><ele>128.0000001336</ele><time>2008-05-04T08:33:52Z</time></trkpt>
<trkpt lat="47.75459600" lon="-2.83428100"><ele>127.5000001176</ele><time>2008-05-04T08:33:55Z</time></trkpt>
<trkpt lat="47.75469800" lon="-2.83411900"><ele>128.5000001496</ele><time>2008-05-04T08:34:00Z</time></trkpt>
<trkpt lat="47.75478300" lon="-2.83386200"><ele>128.5000001496</ele><time>2008-05-04T08:34:05Z</time></trkpt>
<trkpt lat="47.75472100" lon="-2.83364000"><ele>128.9999998608</ele><time>2008-05-04T08:34:09Z</time></trkpt>
<trkpt lat="47.75469900" lon="-2.83358100"><ele>128.5000001496</ele><time>2008-05-04T08:34:10Z</time></trkpt>
<trkpt lat="47.75445400" lon="-2.83311400"><ele>128.9999998608</ele><time>2008-05-04T08:34:18Z</time></trkpt>
<trkpt lat="47.75418800" lon="-2.83258400"><ele>128.9999998608</ele><time>2008-05-04T08:34:27Z</time></trkpt>
<trkpt lat="47.75405900" lon="-2.83231800"><ele>128.5000001496</ele><time>2008-05-04T08:34:32Z</time></trkpt>
<trkpt lat="47.75400800" lon="-2.83220100"><ele>128.5000001496</ele><time>2008-05-04T08:34:34Z</time></trkpt>
<trkpt lat="47.75393400" lon="-2.83176800"><ele>128.9999998608</ele><time>2008-05-04T08:34:40Z</time></trkpt>
<trkpt lat="47.75387500" lon="-2.83157400"><ele>128.9999998608</ele><time>2008-05-04T08:34:43Z</time></trkpt>
<trkpt lat="47.75383400" lon="-2.83144600"><ele>128.5000001496</ele><time>2008-05-04T08:34:45Z</time></trkpt>
<trkpt lat="47.75387300" lon="-2.83118000"><ele>128.5000001496</ele><time>2008-05-04T08:34:49Z</time></trkpt>
<trkpt lat="47.75401000" lon="-2.83097600"><ele>129.8999937936</ele><time>2008-05-04T08:34:53Z</time></trkpt>
<trkpt lat="47.75409400" lon="-2.83089400"><ele>129.3999937776</ele><time>2008-05-04T08:34:55Z</time></trkpt>
<trkpt lat="47.75431400" lon="-2.83074900"><ele>129.8999937936</ele><time>2008-05-04T08:35:00Z</time></trkpt>
<trkpt lat="47.75453500" lon="-2.83060200"><ele>130.3999938096</ele><time>2008-05-04T08:35:06Z</time></trkpt>
<trkpt lat="47.75476200" lon="-2.83041300"><ele>130.3999938096</ele><time>2008-05-04T08:35:13Z</time></trkpt>
<trkpt lat="47.75498000" lon="-2.83021400"><ele>130.8999938256</ele><time>2008-05-04T08:35:20Z</time></trkpt>
<trkpt lat="47.75513000" lon="-2.83006700"><ele>130.8999938256</ele><time>2008-05-04T08:35:25Z</time></trkpt>
<trkpt lat="47.75536300" lon="-2.82990500"><ele>131.3999938416</ele><time>2008-05-04T08:35:32Z</time></trkpt>
<trkpt lat="47.75567300" lon="-2.82970500"><ele>131.3999938416</ele><time>2008-05-04T08:35:41Z</time></trkpt>
<trkpt lat="47.75583000" lon="-2.82954200"><ele>131.8000029984</ele><time>2008-05-04T08:35:47Z</time></trkpt>
<trkpt lat="47.75582400" lon="-2.82934400"><ele>131.8000029984</ele><time>2008-05-04T08:35:51Z</time></trkpt>
<trkpt lat="47.75579400" lon="-2.82896000"><ele>131.8000029984</ele><time>2008-05-04T08:35:58Z</time></trkpt>
<trkpt lat="47.75575100" lon="-2.82848000"><ele>131.3999938416</ele><time>2008-05-04T08:36:06Z</time></trkpt>
<trkpt lat="47.75569600" lon="-2.82790600"><ele>131.3999938416</ele><time>2008-05-04T08:36:15Z</time></trkpt>
<trkpt lat="47.75564500" lon="-2.82736900"><ele>131.3999938416</ele><time>2008-05-04T08:36:23Z</time></trkpt>
<trkpt lat="47.75562400" lon="-2.82723600"><ele>131.3999938416</ele><time>2008-05-04T08:36:25Z</time></trkpt>
<trkpt lat="47.75554900" lon="-2.82677900"><ele>130.3999938096</ele><time>2008-05-04T08:36:32Z</time></trkpt>
<trkpt lat="47.75544100" lon="-2.82628800"><ele>130.3999938096</ele><time>2008-05-04T08:36:40Z</time></trkpt>
<trkpt lat="47.75529400" lon="-2.82561000"><ele>129.8999937936</ele><time>2008-05-04T08:36:51Z</time></trkpt>
<trkpt lat="47.75515700" lon="-2.82519000"><ele>130.3999938096</ele><time>2008-05-04T08:36:58Z</time></trkpt>
<trkpt lat="47.75512800" lon="-2.82513600"><ele>130.3999938096</ele><time>2008-05-04T08:36:59Z</time></trkpt>
<trkpt lat="47.75504700" lon="-2.82491300"><ele>129.8999937936</ele><time>2008-05-04T08:37:03Z</time></trkpt>
<trkpt lat="47.75505400" lon="-2.82472200"><ele>129.8999937936</ele><time>2008-05-04T08:37:06Z</time></trkpt>
<trkpt lat="47.75508900" lon="-2.82428700"><ele>129.8999937936</ele><time>2008-05-04T08:37:12Z</time></trkpt>
<trkpt lat="47.75505100" lon="-2.82368300"><ele>130.3999938096</ele><time>2008-05-04T08:37:20Z</time></trkpt>
<trkpt lat="47.75503600" lon="-2.82355000"><ele>130.8999938256</ele><time>2008-05-04T08:37:22Z</time></trkpt>
<trkpt lat="47.75504800" lon="-2.82323200"><ele>130.3999938096</ele><time>2008-05-04T08:37:28Z</time></trkpt>
<trkpt lat="47.75517400" lon="-2.82314500"><ele>129.8999937936</ele><time>2008-05-04T08:37:32Z</time></trkpt>
<trkpt lat="47.75534500" lon="-2.82315600"><ele>128.5000001496</ele><time>2008-05-04T08:37:36Z</time></trkpt>
<trkpt lat="47.75550100" lon="-2.82313900"><ele>127.5000001176</ele><time>2008-05-04T08:37:39Z</time></trkpt>
<trkpt lat="47.75579800" lon="-2.82311100"><ele>125.0999985168</ele><time>2008-05-04T08:37:44Z</time></trkpt>
<trkpt lat="47.75590800" lon="-2.82302600"><ele>123.699996948</ele><time>2008-05-04T08:37:47Z</time></trkpt>
<trkpt lat="47.75593600" lon="-2.82287100"><ele>122.1999969</ele><time>2008-05-04T08:37:49Z</time></trkpt>
<trkpt lat="47.75595700" lon="-2.82257900"><ele>119.8000029192</ele><time>2008-05-04T08:37:52Z</time></trkpt>
<trkpt lat="47.75593900" lon="-2.82211600"><ele>115.5000000384</ele><time>2008-05-04T08:37:56Z</time></trkpt>
<trkpt lat="47.75594500" lon="-2.82198400"><ele>115.0000000224</ele><time>2008-05-04T08:37:57Z</time></trkpt>
<trkpt lat="47.75606800" lon="-2.82144500"><ele>109.6999968048</ele><time>2008-05-04T08:38:01Z</time></trkpt>
<trkpt lat="47.75614100" lon="-2.82121700"><ele>107.8000031448</ele><time>2008-05-04T08:38:03Z</time></trkpt>
<trkpt lat="47.75634900" lon="-2.82111200"><ele>104.900001528</ele><time>2008-05-04T08:38:06Z</time></trkpt>
<trkpt lat="47.75643000" lon="-2.82107300"><ele>104.900001528</ele><time>2008-05-04T08:38:07Z</time></trkpt>
<trkpt lat="47.75656100" lon="-2.82100200"><ele>102.9999999432</ele><time>2008-05-04T08:38:10Z</time></trkpt>
<trkpt lat="47.75655100" lon="-2.82100400"><ele>102.9999999432</ele><time>2008-05-04T08:38:13Z</time></trkpt>
<trkpt lat="47.75652900" lon="-2.82101900"><ele>102.9999999432</ele><time>2008-05-04T08:38:15Z</time></trkpt>
<trkpt lat="47.75649300" lon="-2.82098000"><ele>104.900001528</ele><time>2008-05-04T08:38:18Z</time></trkpt>
<trkpt lat="47.75647900" lon="-2.82094700"><ele>104.900001528</ele><time>2008-05-04T08:38:21Z</time></trkpt>
<trkpt lat="47.75647500" lon="-2.82094700"><ele>104.900001528</ele><time>2008-05-04T08:38:24Z</time></trkpt>
<trkpt lat="47.75647500" lon="-2.82093600"><ele>104.900001528</ele><time>2008-05-04T08:38:25Z</time></trkpt>
<trkpt lat="47.75645600" lon="-2.82082000"><ele>106.400001576</ele><time>2008-05-04T08:38:30Z</time></trkpt>
<trkpt lat="47.75642900" lon="-2.82063300"><ele>107.8000031448</ele><time>2008-05-04T08:38:37Z</time></trkpt>
<trkpt lat="47.75641700" lon="-2.82044400"><ele>107.3000031288</ele><time>2008-05-04T08:38:43Z</time></trkpt>
<trkpt lat="47.75635800" lon="-2.82020000"><ele>108.3000031608</ele><time>2008-05-04T08:38:50Z</time></trkpt>
<trkpt lat="47.75629600" lon="-2.82007200"><ele>109.6999968048</ele><time>2008-05-04T08:38:56Z</time></trkpt>
<trkpt lat="47.75627100" lon="-2.82003700"><ele>111.1999968528</ele><time>2008-05-04T08:38:58Z</time></trkpt>
<trkpt lat="47.75618300" lon="-2.82001800"><ele>113.5999984536</ele><time>2008-05-04T08:39:05Z</time></trkpt>
<trkpt lat="47.75615200" lon="-2.82002000"><ele>115.0000000224</ele><time>2008-05-04T08:39:08Z</time></trkpt>
<trkpt lat="47.75606100" lon="-2.81998300"><ele>117.4000016232</ele><time>2008-05-04T08:39:17Z</time></trkpt>
<trkpt lat="47.75604700" lon="-2.82001200"><ele>117.4000016232</ele><time>2008-05-04T08:39:21Z</time></trkpt>
<trkpt lat="47.75599900" lon="-2.82007600"><ele>119.3000029032</ele><time>2008-05-04T08:39:26Z</time></trkpt>
<trkpt lat="47.75593700" lon="-2.82007100"><ele>119.8000029192</ele><time>2008-05-04T08:39:32Z</time></trkpt>
<trkpt lat="47.75584500" lon="-2.82009700"><ele>121.3000029672</ele><time>2008-05-04T08:39:39Z</time></trkpt>
<trkpt lat="47.75577400" lon="-2.82012100"><ele>122.699996916</ele><time>2008-05-04T08:39:45Z</time></trkpt>
<trkpt lat="47.75569400" lon="-2.82014900"><ele>123.699996948</ele><time>2008-05-04T08:39:52Z</time></trkpt>
<trkpt lat="47.75563400" lon="-2.82015800"><ele>125.5999985328</ele><time>2008-05-04T08:39:58Z</time></trkpt>
<trkpt lat="47.75553000" lon="-2.82019200"><ele>126.0999985488</ele><time>2008-05-04T08:40:05Z</time></trkpt>
<trkpt lat="47.75548600" lon="-2.82017900"><ele>126.0999985488</ele><time>2008-05-04T08:40:07Z</time></trkpt>
<trkpt lat="47.75544800" lon="-2.82006900"><ele>127.0000001016</ele><time>2008-05-04T08:40:14Z</time></trkpt>
<trkpt lat="47.75536700" lon="-2.82002800"><ele>128.0000001336</ele><time>2008-05-04T08:40:19Z</time></trkpt>
<trkpt lat="47.75528100" lon="-2.81988300"><ele>128.9999998608</ele><time>2008-05-04T08:40:26Z</time></trkpt>
<trkpt lat="47.75518200" lon="-2.81981800"><ele>130.3999938096</ele><time>2008-05-04T08:40:33Z</time></trkpt>
<trkpt lat="47.75511700" lon="-2.81983000"><ele>131.3999938416</ele><time>2008-05-04T08:40:38Z</time></trkpt>
<trkpt lat="47.75505200" lon="-2.81984600"><ele>132.8000030304</ele><time>2008-05-04T08:40:43Z</time></trkpt>
<trkpt lat="47.75503400" lon="-2.81984700"><ele>132.8000030304</ele><time>2008-05-04T08:40:44Z</time></trkpt>
<trkpt lat="47.75495900" lon="-2.81985000"><ele>132.8000030304</ele><time>2008-05-04T08:40:48Z</time></trkpt>
<trkpt lat="47.75489400" lon="-2.81986100"><ele>133.8000030624</ele><time>2008-05-04T08:40:53Z</time></trkpt>
<trkpt lat="47.75481200" lon="-2.81988200"><ele>134.1999969792</ele><time>2008-05-04T08:40:58Z</time></trkpt>
<trkpt lat="47.75470000" lon="-2.82002100"><ele>134.6999969952</ele><time>2008-05-04T08:41:04Z</time></trkpt>
<trkpt lat="47.75461800" lon="-2.82008600"><ele>134.6999969952</ele><time>2008-05-04T08:41:06Z</time></trkpt>
<trkpt lat="47.75447000" lon="-2.82018300"><ele>134.6999969952</ele><time>2008-05-04T08:41:11Z</time></trkpt>
<trkpt lat="47.75443700" lon="-2.82020000"><ele>134.6999969952</ele><time>2008-05-04T08:41:12Z</time></trkpt>
<trkpt lat="47.75430000" lon="-2.82033400"><ele>134.6999969952</ele><time>2008-05-04T08:41:17Z</time></trkpt>
<trkpt lat="47.75426700" lon="-2.82035700"><ele>135.1999970112</ele><time>2008-05-04T08:41:18Z</time></trkpt>
<trkpt lat="47.75417800" lon="-2.82041900"><ele>134.6999969952</ele><time>2008-05-04T08:41:21Z</time></trkpt>
<trkpt lat="47.75406800" lon="-2.82035900"><ele>134.6999969952</ele><time>2008-05-04T08:41:25Z</time></trkpt>
<trkpt lat="47.75397600" lon="-2.82021100"><ele>135.1999970112</ele><time>2008-05-04T08:41:29Z</time></trkpt>
<trkpt lat="47.75393900" lon="-2.82015200"><ele>135.1999970112</ele><time>2008-05-04T08:41:30Z</time></trkpt>
<trkpt lat="47.75372700" lon="-2.81967100"><ele>134.6999969952</ele><time>2008-05-04T08:41:38Z</time></trkpt>
<trkpt lat="47.75359400" lon="-2.81934400"><ele>134.6999969952</ele><time>2008-05-04T08:41:43Z</time></trkpt>
<trkpt lat="47.75331800" lon="-2.81872600"><ele>132.8000030304</ele><time>2008-05-04T08:41:52Z</time></trkpt>
<trkpt lat="47.75303100" lon="-2.81834000"><ele>131.8000029984</ele><time>2008-05-04T08:41:58Z</time></trkpt>
<trkpt lat="47.75293500" lon="-2.81818900"><ele>130.8999938256</ele><time>2008-05-04T08:42:00Z</time></trkpt>
<trkpt lat="47.75275200" lon="-2.81777500"><ele>129.8999937936</ele><time>2008-05-04T08:42:05Z</time></trkpt>
<trkpt lat="47.75268200" lon="-2.81765700"><ele>128.9999998608</ele><time>2008-05-04T08:42:08Z</time></trkpt>
<trkpt lat="47.75272800" lon="-2.81752700"><ele>128.5000001496</ele><time>2008-05-04T08:42:12Z</time></trkpt>
<trkpt lat="47.75285100" lon="-2.81739300"><ele>129.3999937776</ele><time>2008-05-04T08:42:16Z</time></trkpt>
<trkpt lat="47.75283800" lon="-2.81723000"><ele>129.3999937776</ele><time>2008-05-04T08:42:19Z</time></trkpt>
<trkpt lat="47.75283400" lon="-2.81689500"><ele>129.3999937776</ele><time>2008-05-04T08:42:24Z</time></trkpt>
<trkpt lat="47.75274700" lon="-2.81673700"><ele>128.9999998608</ele><time>2008-05-04T08:42:27Z</time></trkpt>
<trkpt lat="47.75259200" lon="-2.81650400"><ele>128.0000001336</ele><time>2008-05-04T08:42:31Z</time></trkpt>
<trkpt lat="47.75254300" lon="-2.81645000"><ele>128.0000001336</ele><time>2008-05-04T08:42:32Z</time></trkpt>
<trkpt lat="47.75232500" lon="-2.81619900"><ele>126.5999985648</ele><time>2008-05-04T08:42:36Z</time></trkpt>
<trkpt lat="47.75198900" lon="-2.81568200"><ele>123.699996948</ele><time>2008-05-04T08:42:43Z</time></trkpt>
<trkpt lat="47.75193900" lon="-2.81560400"><ele>123.199996932</ele><time>2008-05-04T08:42:44Z</time></trkpt>
<trkpt lat="47.75162500" lon="-2.81527400"><ele>121.3000029672</ele><time>2008-05-04T08:42:49Z</time></trkpt>
<trkpt lat="47.75140400" lon="-2.81511400"><ele>119.3000029032</ele><time>2008-05-04T08:42:52Z</time></trkpt>
<trkpt lat="47.75105300" lon="-2.81472100"><ele>115.0000000224</ele><time>2008-05-04T08:42:57Z</time></trkpt>
<trkpt lat="47.75081800" lon="-2.81451500"><ele>111.1999968528</ele><time>2008-05-04T08:43:01Z</time></trkpt>
<trkpt lat="47.75068400" lon="-2.81444500"><ele>107.8000031448</ele><time>2008-05-04T08:43:03Z</time></trkpt>
<trkpt lat="47.75051300" lon="-2.81431000"><ele>106.400001576</ele><time>2008-05-04T08:43:06Z</time></trkpt>
<trkpt lat="47.75040600" lon="-2.81413500"><ele>104.400001512</ele><time>2008-05-04T08:43:09Z</time></trkpt>
<trkpt lat="47.75031600" lon="-2.81363100"><ele>101.0999983584</ele><time>2008-05-04T08:43:15Z</time></trkpt>
<trkpt lat="47.75036100" lon="-2.81347100"><ele>101.5999983744</ele><time>2008-05-04T08:43:17Z</time></trkpt>
<trkpt lat="47.75049100" lon="-2.81315900"><ele>100.5999983424</ele><time>2008-05-04T08:43:21Z</time></trkpt>
<trkpt lat="47.75069900" lon="-2.81281700"><ele>100.0999983264</ele><time>2008-05-04T08:43:25Z</time></trkpt>
<trkpt lat="47.75076300" lon="-2.81272900"><ele>100.0999983264</ele><time>2008-05-04T08:43:26Z</time></trkpt>
<trkpt lat="47.75088500" lon="-2.81258200"><ele>99.5999986152</ele><time>2008-05-04T08:43:28Z</time></trkpt>
<trkpt lat="47.75110700" lon="-2.81236900"><ele>99.5999986152</ele><time>2008-05-04T08:43:32Z</time></trkpt>
<trkpt lat="47.75129800" lon="-2.81211300"><ele>99.5999986152</ele><time>2008-05-04T08:43:36Z</time></trkpt>
<trkpt lat="47.75146100" lon="-2.81180000"><ele>96.6999969984</ele><time>2008-05-04T08:43:40Z</time></trkpt>
<trkpt lat="47.75150200" lon="-2.81172500"><ele>96.6999969984</ele><time>2008-05-04T08:43:41Z</time></trkpt>
<trkpt lat="47.75174100" lon="-2.81134800"><ele>95.3000030496</ele><time>2008-05-04T08:43:46Z</time></trkpt>
<trkpt lat="47.75179200" lon="-2.81127000"><ele>95.3000030496</ele><time>2008-05-04T08:43:47Z</time></trkpt>
<trkpt lat="47.75198800" lon="-2.81096200"><ele>93.4000014648</ele><time>2008-05-04T08:43:51Z</time></trkpt>
<trkpt lat="47.75214800" lon="-2.81072900"><ele>90.499999848</ele><time>2008-05-04T08:43:54Z</time></trkpt>
<trkpt lat="47.75218600" lon="-2.81066800"><ele>90.0000001368</ele><time>2008-05-04T08:43:55Z</time></trkpt>
<trkpt lat="47.75225100" lon="-2.81054400"><ele>89.099998584</ele><time>2008-05-04T08:43:57Z</time></trkpt>
<trkpt lat="47.75240500" lon="-2.81034000"><ele>87.09999852</ele><time>2008-05-04T08:44:02Z</time></trkpt>
<trkpt lat="47.75252100" lon="-2.81033000"><ele>87.599998536</ele><time>2008-05-04T08:44:06Z</time></trkpt>
<trkpt lat="47.75254500" lon="-2.81035600"><ele>88.599998568</ele><time>2008-05-04T08:44:08Z</time></trkpt>
<trkpt lat="47.75255000" lon="-2.81044400"><ele>90.499999848</ele><time>2008-05-04T08:44:11Z</time></trkpt>
<trkpt lat="47.75254700" lon="-2.81047700"><ele>90.499999848</ele><time>2008-05-04T08:44:12Z</time></trkpt>
<trkpt lat="47.75258000" lon="-2.81055600"><ele>91.9000014168</ele><time>2008-05-04T08:44:15Z</time></trkpt>
<trkpt lat="47.75261200" lon="-2.81069200"><ele>93.9000014808</ele><time>2008-05-04T08:44:19Z</time></trkpt>
<trkpt lat="47.75264100" lon="-2.81080900"><ele>94.8000030336</ele><time>2008-05-04T08:44:23Z</time></trkpt>
<trkpt lat="47.75270900" lon="-2.81100900"><ele>96.3000030816</ele><time>2008-05-04T08:44:30Z</time></trkpt>
<trkpt lat="47.75279800" lon="-2.81123700"><ele>99.1999970784</ele><time>2008-05-04T08:44:38Z</time></trkpt>
<trkpt lat="47.75284300" lon="-2.81146800"><ele>101.9999999112</ele><time>2008-05-04T08:44:46Z</time></trkpt>
<trkpt lat="47.75284900" lon="-2.81174300"><ele>102.9999999432</ele><time>2008-05-04T08:44:56Z</time></trkpt>
<trkpt lat="47.75284300" lon="-2.81197800"><ele>104.900001528</ele><time>2008-05-04T08:45:05Z</time></trkpt>
<trkpt lat="47.75286200" lon="-2.81225500"><ele>107.8000031448</ele><time>2008-05-04T08:45:16Z</time></trkpt>
<trkpt lat="47.75288100" lon="-2.81246300"><ele>109.6999968048</ele><time>2008-05-04T08:45:25Z</time></trkpt>
<trkpt lat="47.75289500" lon="-2.81266000"><ele>111.6999968688</ele><time>2008-05-04T08:45:33Z</time></trkpt>
<trkpt lat="47.75291500" lon="-2.81287000"><ele>114.5000000064</ele><time>2008-05-04T08:45:42Z</time></trkpt>
<trkpt lat="47.75293600" lon="-2.81303800"><ele>116.0000000544</ele><time>2008-05-04T08:45:51Z</time></trkpt>
<trkpt lat="47.75295900" lon="-2.81317600"><ele>116.5000000704</ele><time>2008-05-04T08:45:59Z</time></trkpt>
<trkpt lat="47.75305100" lon="-2.81318900"><ele>118.4000016552</ele><time>2008-05-04T08:46:06Z</time></trkpt>
<trkpt lat="47.75306800" lon="-2.81318200"><ele>118.4000016552</ele><time>2008-05-04T08:46:07Z</time></trkpt>
<trkpt lat="47.75323100" lon="-2.81310700"><ele>117.9000016392</ele><time>2008-05-04T08:46:14Z</time></trkpt>
<trkpt lat="47.75342900" lon="-2.81306400"><ele>119.3000029032</ele><time>2008-05-04T08:46:23Z</time></trkpt>
<trkpt lat="47.75358300" lon="-2.81300800"><ele>121.3000029672</ele><time>2008-05-04T08:46:31Z</time></trkpt>
<trkpt lat="47.75372200" lon="-2.81294400"><ele>121.699996884</ele><time>2008-05-04T08:46:37Z</time></trkpt>
<trkpt lat="47.75377500" lon="-2.81276400"><ele>121.3000029672</ele><time>2008-05-04T08:46:42Z</time></trkpt>
<trkpt lat="47.75386000" lon="-2.81243500"><ele>120.3000029352</ele><time>2008-05-04T08:46:49Z</time></trkpt>
<trkpt lat="47.75387100" lon="-2.81238200"><ele>120.3000029352</ele><time>2008-05-04T08:46:50Z</time></trkpt>
<trkpt lat="47.75389600" lon="-2.81219700"><ele>117.9000016392</ele><time>2008-05-04T08:46:53Z</time></trkpt>
<trkpt lat="47.75402200" lon="-2.81191700"><ele>116.9000016072</ele><time>2008-05-04T08:46:58Z</time></trkpt>
<trkpt lat="47.75409600" lon="-2.81186900"><ele>117.4000016232</ele><time>2008-05-04T08:47:00Z</time></trkpt>
<trkpt lat="47.75435100" lon="-2.81182400"><ele>117.4000016232</ele><time>2008-05-04T08:47:07Z</time></trkpt>
<trkpt lat="47.75464400" lon="-2.81179700"><ele>115.5000000384</ele><time>2008-05-04T08:47:14Z</time></trkpt>
<trkpt lat="47.75469300" lon="-2.81179200"><ele>115.0000000224</ele><time>2008-05-04T08:47:15Z</time></trkpt>
<trkpt lat="47.75493600" lon="-2.81188200"><ele>114.0999984696</ele><time>2008-05-04T08:47:20Z</time></trkpt>
<trkpt lat="47.75520800" lon="-2.81200100"><ele>112.0999984056</ele><time>2008-05-04T08:47:25Z</time></trkpt>
<trkpt lat="47.75541600" lon="-2.81220500"><ele>110.6999968368</ele><time>2008-05-04T08:47:29Z</time></trkpt>
<trkpt lat="47.75549400" lon="-2.81235300"><ele>109.6999968048</ele><time>2008-05-04T08:47:31Z</time></trkpt>
<trkpt lat="47.75556100" lon="-2.81251100"><ele>108.8000031768</ele><time>2008-05-04T08:47:33Z</time></trkpt>
<trkpt lat="47.75570900" lon="-2.81294100"><ele>107.3000031288</ele><time>2008-05-04T08:47:39Z</time></trkpt>
<trkpt lat="47.75578300" lon="-2.81316900"><ele>106.8000031128</ele><time>2008-05-04T08:47:44Z</time></trkpt>
<trkpt lat="47.75583000" lon="-2.81326800"><ele>106.400001576</ele><time>2008-05-04T08:47:46Z</time></trkpt>
<trkpt lat="47.75592900" lon="-2.81340000"><ele>104.900001528</ele><time>2008-05-04T08:47:49Z</time></trkpt>
<trkpt lat="47.75609200" lon="-2.81344600"><ele>103.4999999592</ele><time>2008-05-04T08:47:53Z</time></trkpt>
<trkpt lat="47.75619000" lon="-2.81341800"><ele>102.9999999432</ele><time>2008-05-04T08:47:55Z</time></trkpt>
<trkpt lat="47.75635700" lon="-2.81342300"><ele>101.9999999112</ele><time>2008-05-04T08:48:00Z</time></trkpt>
<trkpt lat="47.75638300" lon="-2.81342200"><ele>101.9999999112</ele><time>2008-05-04T08:48:04Z</time></trkpt>
<trkpt lat="47.75641800" lon="-2.81342500"><ele>101.9999999112</ele><time>2008-05-04T08:48:09Z</time></trkpt>
<trkpt lat="47.75647200" lon="-2.81343200"><ele>101.9999999112</ele><time>2008-05-04T08:48:15Z</time></trkpt>
<trkpt lat="47.75654200" lon="-2.81338900"><ele>102.4999999272</ele><time>2008-05-04T08:48:21Z</time></trkpt>
<trkpt lat="47.75660500" lon="-2.81336600"><ele>102.9999999432</ele><time>2008-05-04T08:48:27Z</time></trkpt>
<trkpt lat="47.75664500" lon="-2.81333000"><ele>102.4999999272</ele><time>2008-05-04T08:48:34Z</time></trkpt>
<trkpt lat="47.75665400" lon="-2.81331900"><ele>102.4999999272</ele><time>2008-05-04T08:48:38Z</time></trkpt>
<trkpt lat="47.75665800" lon="-2.81331300"><ele>102.4999999272</ele><time>2008-05-04T08:48:39Z</time></trkpt>
<trkpt lat="47.75666100" lon="-2.81331200"><ele>102.4999999272</ele><time>2008-05-04T08:48:42Z</time></trkpt>
<trkpt lat="47.75666400" lon="-2.81330300"><ele>102.4999999272</ele><time>2008-05-04T08:48:43Z</time></trkpt>
<trkpt lat="47.75666400" lon="-2.81327200"><ele>102.4999999272</ele><time>2008-05-04T08:48:59Z</time></trkpt>
<trkpt lat="47.75666700" lon="-2.81326800"><ele>102.4999999272</ele><time>2008-05-04T08:49:00Z</time></trkpt>
<trkpt lat="47.75667200" lon="-2.81326900"><ele>102.4999999272</ele><time>2008-05-04T08:49:01Z</time></trkpt>
<trkpt lat="47.75670900" lon="-2.81328100"><ele>101.9999999112</ele><time>2008-05-04T08:49:27Z</time></trkpt>
<trkpt lat="47.75671000" lon="-2.81328000"><ele>101.9999999112</ele><time>2008-05-04T08:49:28Z</time></trkpt>
<trkpt lat="47.75671100" lon="-2.81328000"><ele>101.9999999112</ele><time>2008-05-04T08:49:29Z</time></trkpt>
<trkpt lat="47.75668100" lon="-2.81328100"><ele>98.1999970464</ele><time>2008-05-04T08:51:27Z</time></trkpt>
<trkpt lat="47.75668200" lon="-2.81327900"><ele>98.1999970464</ele><time>2008-05-04T08:51:28Z</time></trkpt>
<trkpt lat="47.75668200" lon="-2.81327800"><ele>98.1999970464</ele><time>2008-05-04T08:51:29Z</time></trkpt>
<trkpt lat="47.75668100" lon="-2.81329500"><ele>98.1999970464</ele><time>2008-05-04T08:52:08Z</time></trkpt>
<trkpt lat="47.75668400" lon="-2.81330000"><ele>98.1999970464</ele><time>2008-05-04T08:52:09Z</time></trkpt>
<trkpt lat="47.75668600" lon="-2.81329900"><ele>98.1999970464</ele><time>2008-05-04T08:52:49Z</time></trkpt>
<trkpt lat="47.75680000" lon="-2.81330400"><ele>98.6999970624</ele><time>2008-05-04T08:52:54Z</time></trkpt>
<trkpt lat="47.75702700" lon="-2.81328600"><ele>97.6999970304</ele><time>2008-05-04T08:53:00Z</time></trkpt>
<trkpt lat="47.75707300" lon="-2.81329100"><ele>97.6999970304</ele><time>2008-05-04T08:53:01Z</time></trkpt>
<trkpt lat="47.75730000" lon="-2.81331300"><ele>96.6999969984</ele><time>2008-05-04T08:53:06Z</time></trkpt>
<trkpt lat="47.75738200" lon="-2.81330800"><ele>96.3000030816</ele><time>2008-05-04T08:53:08Z</time></trkpt>
<trkpt lat="47.75770600" lon="-2.81326300"><ele>95.8000030656</ele><time>2008-05-04T08:53:15Z</time></trkpt>
<trkpt lat="47.75790600" lon="-2.81324700"><ele>95.8000030656</ele><time>2008-05-04T08:53:19Z</time></trkpt>
<trkpt lat="47.75826800" lon="-2.81323900"><ele>95.3000030496</ele><time>2008-05-04T08:53:26Z</time></trkpt>
<trkpt lat="47.75843000" lon="-2.81322300"><ele>94.8000030336</ele><time>2008-05-04T08:53:29Z</time></trkpt>
<trkpt lat="47.75869000" lon="-2.81321400"><ele>94.3000030176</ele><time>2008-05-04T08:53:34Z</time></trkpt>
<trkpt lat="47.75890000" lon="-2.81321800"><ele>94.3000030176</ele><time>2008-05-04T08:53:38Z</time></trkpt>
<trkpt lat="47.75929300" lon="-2.81330300"><ele>93.9000014808</ele><time>2008-05-04T08:53:46Z</time></trkpt>
<trkpt lat="47.75952500" lon="-2.81337900"><ele>93.9000014808</ele><time>2008-05-04T08:53:51Z</time></trkpt>
<trkpt lat="47.75977800" lon="-2.81347500"><ele>92.9000014488</ele><time>2008-05-04T08:53:57Z</time></trkpt>
<trkpt lat="47.75981800" lon="-2.81348400"><ele>93.4000014648</ele><time>2008-05-04T08:53:58Z</time></trkpt>
<trkpt lat="47.76002300" lon="-2.81341200"><ele>93.4000014648</ele><time>2008-05-04T08:54:03Z</time></trkpt>
<trkpt lat="47.76007900" lon="-2.81331800"><ele>93.9000014808</ele><time>2008-05-04T08:54:05Z</time></trkpt>
<trkpt lat="47.76018600" lon="-2.81293000"><ele>93.4000014648</ele><time>2008-05-04T08:54:12Z</time></trkpt>
<trkpt lat="47.76021700" lon="-2.81232100"><ele>93.4000014648</ele><time>2008-05-04T08:54:21Z</time></trkpt>
<trkpt lat="47.76022100" lon="-2.81217400"><ele>93.4000014648</ele><time>2008-05-04T08:54:23Z</time></trkpt>
<trkpt lat="47.76025200" lon="-2.81156200"><ele>92.9000014488</ele><time>2008-05-04T08:54:31Z</time></trkpt>
<trkpt lat="47.76027900" lon="-2.81133600"><ele>92.9000014488</ele><time>2008-05-04T08:54:34Z</time></trkpt>
<trkpt lat="47.76044200" lon="-2.81086000"><ele>92.4000014328</ele><time>2008-05-04T08:54:41Z</time></trkpt>
<trkpt lat="47.76070900" lon="-2.81057100"><ele>90.999999864</ele><time>2008-05-04T08:54:47Z</time></trkpt>
<trkpt lat="47.76076600" lon="-2.81054400"><ele>91.49999988</ele><time>2008-05-04T08:54:48Z</time></trkpt>
<trkpt lat="47.76119400" lon="-2.81045500"><ele>90.0000001368</ele><time>2008-05-04T08:54:55Z</time></trkpt>
<trkpt lat="47.76164600" lon="-2.81040200"><ele>88.599998568</ele><time>2008-05-04T08:55:02Z</time></trkpt>
<trkpt lat="47.76178200" lon="-2.81038300"><ele>88.099998552</ele><time>2008-05-04T08:55:04Z</time></trkpt>
<trkpt lat="47.76199600" lon="-2.81035700"><ele>84.6999969192</ele><time>2008-05-04T08:55:07Z</time></trkpt>
<trkpt lat="47.76214100" lon="-2.81037900"><ele>84.3000030024</ele><time>2008-05-04T08:55:09Z</time></trkpt>
<trkpt lat="47.76229800" lon="-2.81045700"><ele>83.8000029864</ele><time>2008-05-04T08:55:12Z</time></trkpt>
<trkpt lat="47.76238600" lon="-2.81037100"><ele>83.3000029704</ele><time>2008-05-04T08:55:15Z</time></trkpt>
<trkpt lat="47.76241800" lon="-2.81024200"><ele>82.8000029544</ele><time>2008-05-04T08:55:17Z</time></trkpt>
<trkpt lat="47.76258400" lon="-2.80989200"><ele>79.9000016424</ele><time>2008-05-04T08:55:22Z</time></trkpt>
<trkpt lat="47.76265800" lon="-2.80972100"><ele>78.5000000736</ele><time>2008-05-04T08:55:24Z</time></trkpt>
<trkpt lat="47.76268400" lon="-2.80963900"><ele>79.4000016264</ele><time>2008-05-04T08:55:25Z</time></trkpt>
<trkpt lat="47.76272900" lon="-2.80942500"><ele>77.5000000416</ele><time>2008-05-04T08:55:27Z</time></trkpt>
<trkpt lat="47.76273600" lon="-2.80932000"><ele>77.5000000416</ele><time>2008-05-04T08:55:28Z</time></trkpt>
<trkpt lat="47.76281700" lon="-2.80889400"><ele>74.5999984248</ele><time>2008-05-04T08:55:32Z</time></trkpt>
<trkpt lat="47.76280200" lon="-2.80848100"><ele>71.300003196</ele><time>2008-05-04T08:55:36Z</time></trkpt>
<trkpt lat="47.76269600" lon="-2.80815000"><ele>70.300003164</ele><time>2008-05-04T08:55:40Z</time></trkpt>
<trkpt lat="47.76250000" lon="-2.80782200"><ele>69.800003148</ele><time>2008-05-04T08:55:45Z</time></trkpt>
<trkpt lat="47.76231500" lon="-2.80751000"><ele>69.4000016112</ele><time>2008-05-04T08:55:50Z</time></trkpt>
<trkpt lat="47.76221500" lon="-2.80725000"><ele>69.4000016112</ele><time>2008-05-04T08:55:55Z</time></trkpt>
<trkpt lat="47.76215500" lon="-2.80712100"><ele>69.4000016112</ele><time>2008-05-04T08:55:57Z</time></trkpt>
<trkpt lat="47.76209600" lon="-2.80688800"><ele>69.4000016112</ele><time>2008-05-04T08:56:02Z</time></trkpt>
<trkpt lat="47.76220900" lon="-2.80678300"><ele>70.80000318</ele><time>2008-05-04T08:56:06Z</time></trkpt>
<trkpt lat="47.76239200" lon="-2.80662400"><ele>70.80000318</ele><time>2008-05-04T08:56:11Z</time></trkpt>
<trkpt lat="47.76247300" lon="-2.80648100"><ele>71.300003196</ele><time>2008-05-04T08:56:15Z</time></trkpt>
<trkpt lat="47.76252600" lon="-2.80631500"><ele>71.8000029072</ele><time>2008-05-04T08:56:19Z</time></trkpt>
<trkpt lat="47.76256400" lon="-2.80605400"><ele>72.69999684</ele><time>2008-05-04T08:56:25Z</time></trkpt>
<trkpt lat="47.76258600" lon="-2.80572400"><ele>75.0999984408</ele><time>2008-05-04T08:56:32Z</time></trkpt>
<trkpt lat="47.76258800" lon="-2.80545900"><ele>77.5000000416</ele><time>2008-05-04T08:56:38Z</time></trkpt>
<trkpt lat="47.76258400" lon="-2.80515200"><ele>78.0000000576</ele><time>2008-05-04T08:56:46Z</time></trkpt>
<trkpt lat="47.76257800" lon="-2.80491800"><ele>78.0000000576</ele><time>2008-05-04T08:56:51Z</time></trkpt>
<trkpt lat="47.76248800" lon="-2.80463400"><ele>79.0000000896</ele><time>2008-05-04T08:56:58Z</time></trkpt>
<trkpt lat="47.76236200" lon="-2.80435900"><ele>79.4000016264</ele><time>2008-05-04T08:57:06Z</time></trkpt>
<trkpt lat="47.76229900" lon="-2.80414400"><ele>79.9000016424</ele><time>2008-05-04T08:57:12Z</time></trkpt>
<trkpt lat="47.76228200" lon="-2.80387000"><ele>79.9000016424</ele><time>2008-05-04T08:57:18Z</time></trkpt>
<trkpt lat="47.76229400" lon="-2.80352400"><ele>80.4000016584</ele><time>2008-05-04T08:57:26Z</time></trkpt>
<trkpt lat="47.76230500" lon="-2.80337300"><ele>80.9000016744</ele><time>2008-05-04T08:57:31Z</time></trkpt>
<trkpt lat="47.76234200" lon="-2.80310100"><ele>80.9000016744</ele><time>2008-05-04T08:57:38Z</time></trkpt>
<trkpt lat="47.76233100" lon="-2.80303300"><ele>81.8000029224</ele><time>2008-05-04T08:57:40Z</time></trkpt>
<trkpt lat="47.76223400" lon="-2.80298200"><ele>81.8000029224</ele><time>2008-05-04T08:57:46Z</time></trkpt>
<trkpt lat="47.76200800" lon="-2.80296900"><ele>82.8000029544</ele><time>2008-05-04T08:57:55Z</time></trkpt>
<trkpt lat="47.76186100" lon="-2.80295300"><ele>83.8000029864</ele><time>2008-05-04T08:58:01Z</time></trkpt>
<trkpt lat="47.76169600" lon="-2.80290500"><ele>84.6999969192</ele><time>2008-05-04T08:58:07Z</time></trkpt>
<trkpt lat="47.76151000" lon="-2.80285800"><ele>85.6999969512</ele><time>2008-05-04T08:58:14Z</time></trkpt>
<trkpt lat="47.76134600" lon="-2.80282600"><ele>86.6999969832</ele><time>2008-05-04T08:58:21Z</time></trkpt>
<trkpt lat="47.76115200" lon="-2.80280500"><ele>88.599998568</ele><time>2008-05-04T08:58:29Z</time></trkpt>
<trkpt lat="47.76101000" lon="-2.80279200"><ele>88.599998568</ele><time>2008-05-04T08:58:35Z</time></trkpt>
<trkpt lat="47.76089000" lon="-2.80277000"><ele>89.099998584</ele><time>2008-05-04T08:58:40Z</time></trkpt>
<trkpt lat="47.76068300" lon="-2.80273300"><ele>90.0000001368</ele><time>2008-05-04T08:58:49Z</time></trkpt>
<trkpt lat="47.76054000" lon="-2.80268700"><ele>90.499999848</ele><time>2008-05-04T08:58:54Z</time></trkpt>
<trkpt lat="47.76041100" lon="-2.80266100"><ele>91.49999988</ele><time>2008-05-04T08:58:59Z</time></trkpt>
<trkpt lat="47.76028000" lon="-2.80264600"><ele>91.9000014168</ele><time>2008-05-04T08:59:05Z</time></trkpt>
<trkpt lat="47.76016900" lon="-2.80264300"><ele>91.9000014168</ele><time>2008-05-04T08:59:10Z</time></trkpt>
<trkpt lat="47.76002900" lon="-2.80264100"><ele>92.9000014488</ele><time>2008-05-04T08:59:15Z</time></trkpt>
<trkpt lat="47.75990700" lon="-2.80263800"><ele>93.4000014648</ele><time>2008-05-04T08:59:20Z</time></trkpt>
<trkpt lat="47.75976300" lon="-2.80265100"><ele>93.4000014648</ele><time>2008-05-04T08:59:26Z</time></trkpt>
<trkpt lat="47.75965500" lon="-2.80266200"><ele>93.9000014808</ele><time>2008-05-04T08:59:31Z</time></trkpt>
<trkpt lat="47.75948600" lon="-2.80268700"><ele>95.3000030496</ele><time>2008-05-04T08:59:37Z</time></trkpt>
<trkpt lat="47.75926200" lon="-2.80269600"><ele>96.3000030816</ele><time>2008-05-04T08:59:43Z</time></trkpt>
<trkpt lat="47.75892600" lon="-2.80266500"><ele>97.1999970144</ele><time>2008-05-04T08:59:52Z</time></trkpt>
<trkpt lat="47.75859700" lon="-2.80266500"><ele>96.6999969984</ele><time>2008-05-04T09:00:00Z</time></trkpt>
<trkpt lat="47.75841500" lon="-2.80266200"><ele>96.3000030816</ele><time>2008-05-04T09:00:04Z</time></trkpt>
<trkpt lat="47.75808700" lon="-2.80261200"><ele>95.8000030656</ele><time>2008-05-04T09:00:11Z</time></trkpt>
<trkpt lat="47.75773700" lon="-2.80261100"><ele>96.3000030816</ele><time>2008-05-04T09:00:18Z</time></trkpt>
<trkpt lat="47.75745600" lon="-2.80263500"><ele>94.3000030176</ele><time>2008-05-04T09:00:24Z</time></trkpt>
<trkpt lat="47.75705500" lon="-2.80270500"><ele>92.9000014488</ele><time>2008-05-04T09:00:31Z</time></trkpt>
<trkpt lat="47.75658100" lon="-2.80272700"><ele>91.49999988</ele><time>2008-05-04T09:00:38Z</time></trkpt>
<trkpt lat="47.75626800" lon="-2.80274900"><ele>90.999999864</ele><time>2008-05-04T09:00:43Z</time></trkpt>
<trkpt lat="47.75607500" lon="-2.80285400"><ele>90.999999864</ele><time>2008-05-04T09:00:47Z</time></trkpt>
<trkpt lat="47.75602500" lon="-2.80286500"><ele>90.0000001368</ele><time>2008-05-04T09:00:48Z</time></trkpt>
<trkpt lat="47.75592000" lon="-2.80287100"><ele>90.499999848</ele><time>2008-05-04T09:00:50Z</time></trkpt>
<trkpt lat="47.75557600" lon="-2.80291700"><ele>89.5000001208</ele><time>2008-05-04T09:00:57Z</time></trkpt>
<trkpt lat="47.75512600" lon="-2.80298700"><ele>89.5000001208</ele><time>2008-05-04T09:01:06Z</time></trkpt>
<trkpt lat="47.75473100" lon="-2.80303000"><ele>87.599998536</ele><time>2008-05-04T09:01:14Z</time></trkpt>
<trkpt lat="47.75440700" lon="-2.80306600"><ele>87.599998536</ele><time>2008-05-04T09:01:20Z</time></trkpt>
<trkpt lat="47.75416300" lon="-2.80311100"><ele>89.099998584</ele><time>2008-05-04T09:01:26Z</time></trkpt>
<trkpt lat="47.75401300" lon="-2.80315600"><ele>89.5000001208</ele><time>2008-05-04T09:01:31Z</time></trkpt>
<trkpt lat="47.75391400" lon="-2.80316500"><ele>90.0000001368</ele><time>2008-05-04T09:01:35Z</time></trkpt>
<trkpt lat="47.75381800" lon="-2.80315300"><ele>90.499999848</ele><time>2008-05-04T09:01:38Z</time></trkpt>
<trkpt lat="47.75366500" lon="-2.80309400"><ele>91.9000014168</ele><time>2008-05-04T09:01:44Z</time></trkpt>
<trkpt lat="47.75364500" lon="-2.80308000"><ele>91.9000014168</ele><time>2008-05-04T09:01:45Z</time></trkpt>
<trkpt lat="47.75353100" lon="-2.80301800"><ele>94.3000030176</ele><time>2008-05-04T09:01:51Z</time></trkpt>
<trkpt lat="47.75342000" lon="-2.80294400"><ele>95.8000030656</ele><time>2008-05-04T09:01:57Z</time></trkpt>
<trkpt lat="47.75330300" lon="-2.80286400"><ele>96.3000030816</ele><time>2008-05-04T09:02:03Z</time></trkpt>
<trkpt lat="47.75318100" lon="-2.80276700"><ele>96.6999969984</ele><time>2008-05-04T09:02:10Z</time></trkpt>
<trkpt lat="47.75305400" lon="-2.80267300"><ele>98.6999970624</ele><time>2008-05-04T09:02:17Z</time></trkpt>
<trkpt lat="47.75290900" lon="-2.80255600"><ele>100.5999983424</ele><time>2008-05-04T09:02:25Z</time></trkpt>
<trkpt lat="47.75275400" lon="-2.80241300"><ele>101.9999999112</ele><time>2008-05-04T09:02:34Z</time></trkpt>
<trkpt lat="47.75262000" lon="-2.80229100"><ele>103.9999999752</ele><time>2008-05-04T09:02:43Z</time></trkpt>
<trkpt lat="47.75259500" lon="-2.80234100"><ele>103.9999999752</ele><time>2008-05-04T09:02:47Z</time></trkpt>
<trkpt lat="47.75262200" lon="-2.80256000"><ele>102.4999999272</ele><time>2008-05-04T09:02:52Z</time></trkpt>
<trkpt lat="47.75262400" lon="-2.80261800"><ele>102.4999999272</ele><time>2008-05-04T09:02:53Z</time></trkpt>
<trkpt lat="47.75267100" lon="-2.80293900"><ele>101.0999983584</ele><time>2008-05-04T09:02:57Z</time></trkpt>
<trkpt lat="47.75283000" lon="-2.80332200"><ele>99.5999986152</ele><time>2008-05-04T09:03:02Z</time></trkpt>
<trkpt lat="47.75285300" lon="-2.80348600"><ele>98.1999970464</ele><time>2008-05-04T09:03:04Z</time></trkpt>
<trkpt lat="47.75288400" lon="-2.80366500"><ele>99.1999970784</ele><time>2008-05-04T09:03:06Z</time></trkpt>
<trkpt lat="47.75296300" lon="-2.80405600"><ele>97.1999970144</ele><time>2008-05-04T09:03:11Z</time></trkpt>
<trkpt lat="47.75297400" lon="-2.80414000"><ele>97.1999970144</ele><time>2008-05-04T09:03:12Z</time></trkpt>
<trkpt lat="47.75307900" lon="-2.80468000"><ele>96.3000030816</ele><time>2008-05-04T09:03:18Z</time></trkpt>
<trkpt lat="47.75311500" lon="-2.80484600"><ele>97.1999970144</ele><time>2008-05-04T09:03:20Z</time></trkpt>
<trkpt lat="47.75315500" lon="-2.80500000"><ele>96.6999969984</ele><time>2008-05-04T09:03:22Z</time></trkpt>
<trkpt lat="47.75322000" lon="-2.80515800"><ele>96.6999969984</ele><time>2008-05-04T09:03:24Z</time></trkpt>
<trkpt lat="47.75328800" lon="-2.80538300"><ele>96.3000030816</ele><time>2008-05-04T09:03:27Z</time></trkpt>
<trkpt lat="47.75333600" lon="-2.80563400"><ele>95.8000030656</ele><time>2008-05-04T09:03:30Z</time></trkpt>
<trkpt lat="47.75351400" lon="-2.80588900"><ele>95.8000030656</ele><time>2008-05-04T09:03:34Z</time></trkpt>
<trkpt lat="47.75363500" lon="-2.80615500"><ele>95.8000030656</ele><time>2008-05-04T09:03:38Z</time></trkpt>
<trkpt lat="47.75364100" lon="-2.80624100"><ele>95.8000030656</ele><time>2008-05-04T09:03:39Z</time></trkpt>
<trkpt lat="47.75365700" lon="-2.80649900"><ele>94.3000030176</ele><time>2008-05-04T09:03:42Z</time></trkpt>
<trkpt lat="47.75370300" lon="-2.80676100"><ele>92.9000014488</ele><time>2008-05-04T09:03:45Z</time></trkpt>
<trkpt lat="47.75379000" lon="-2.80711900"><ele>91.49999988</ele><time>2008-05-04T09:03:49Z</time></trkpt>
<trkpt lat="47.75383500" lon="-2.80731300"><ele>91.49999988</ele><time>2008-05-04T09:03:52Z</time></trkpt>
<trkpt lat="47.75384500" lon="-2.80735800"><ele>91.49999988</ele><time>2008-05-04T09:03:53Z</time></trkpt>
<trkpt lat="47.75376600" lon="-2.80743600"><ele>91.49999988</ele><time>2008-05-04T09:03:57Z</time></trkpt>
<trkpt lat="47.75358400" lon="-2.80745200"><ele>91.9000014168</ele><time>2008-05-04T09:04:04Z</time></trkpt>
<trkpt lat="47.75339100" lon="-2.80748500"><ele>92.9000014488</ele><time>2008-05-04T09:04:12Z</time></trkpt>
<trkpt lat="47.75327900" lon="-2.80752200"><ele>96.3000030816</ele><time>2008-05-04T09:04:18Z</time></trkpt>
<trkpt lat="47.75319800" lon="-2.80755600"><ele>97.1999970144</ele><time>2008-05-04T09:04:22Z</time></trkpt>
<trkpt lat="47.75308300" lon="-2.80760200"><ele>98.6999970624</ele><time>2008-05-04T09:04:28Z</time></trkpt>
<trkpt lat="47.75304300" lon="-2.80762300"><ele>99.5999986152</ele><time>2008-05-04T09:04:30Z</time></trkpt>
<trkpt lat="47.75283600" lon="-2.80773100"><ele>101.9999999112</ele><time>2008-05-04T09:04:40Z</time></trkpt>
<trkpt lat="47.75261300" lon="-2.80781900"><ele>102.4999999272</ele><time>2008-05-04T09:04:50Z</time></trkpt>
<trkpt lat="47.75236800" lon="-2.80787500"><ele>103.4999999592</ele><time>2008-05-04T09:05:01Z</time></trkpt>
<trkpt lat="47.75208900" lon="-2.80788900"><ele>103.4999999592</ele><time>2008-05-04T09:05:12Z</time></trkpt>
<trkpt lat="47.75185000" lon="-2.80789000"><ele>104.900001528</ele><time>2008-05-04T09:05:21Z</time></trkpt>
<trkpt lat="47.75164100" lon="-2.80787100"><ele>104.400001512</ele><time>2008-05-04T09:05:29Z</time></trkpt>
<trkpt lat="47.75148500" lon="-2.80779200"><ele>105.400001544</ele><time>2008-05-04T09:05:35Z</time></trkpt>
<trkpt lat="47.75129300" lon="-2.80758300"><ele>105.90000156</ele><time>2008-05-04T09:05:44Z</time></trkpt>
<trkpt lat="47.75115300" lon="-2.80742600"><ele>106.8000031128</ele><time>2008-05-04T09:05:50Z</time></trkpt>
<trkpt lat="47.75103100" lon="-2.80725500"><ele>107.3000031288</ele><time>2008-05-04T09:05:56Z</time></trkpt>
<trkpt lat="47.75090200" lon="-2.80705000"><ele>107.3000031288</ele><time>2008-05-04T09:06:03Z</time></trkpt>
<trkpt lat="47.75076800" lon="-2.80679300"><ele>107.8000031448</ele><time>2008-05-04T09:06:11Z</time></trkpt>
<trkpt lat="47.75065700" lon="-2.80655100"><ele>107.3000031288</ele><time>2008-05-04T09:06:18Z</time></trkpt>
<trkpt lat="47.75052300" lon="-2.80619500"><ele>108.8000031768</ele><time>2008-05-04T09:06:28Z</time></trkpt>
<trkpt lat="47.75039200" lon="-2.80581400"><ele>109.6999968048</ele><time>2008-05-04T09:06:36Z</time></trkpt>
<trkpt lat="47.75031000" lon="-2.80562300"><ele>110.1999968208</ele><time>2008-05-04T09:06:40Z</time></trkpt>
<trkpt lat="47.75015300" lon="-2.80521000"><ele>111.6999968688</ele><time>2008-05-04T09:06:48Z</time></trkpt>
<trkpt lat="47.75000800" lon="-2.80500600"><ele>111.6999968688</ele><time>2008-05-04T09:06:53Z</time></trkpt>
<trkpt lat="47.74973000" lon="-2.80486800"><ele>111.1999968528</ele><time>2008-05-04T09:07:00Z</time></trkpt>
<trkpt lat="47.74934900" lon="-2.80478700"><ele>109.1999970936</ele><time>2008-05-04T09:07:08Z</time></trkpt>
<trkpt lat="47.74906900" lon="-2.80476300"><ele>107.3000031288</ele><time>2008-05-04T09:07:14Z</time></trkpt>
<trkpt lat="47.74876700" lon="-2.80465300"><ele>106.8000031128</ele><time>2008-05-04T09:07:20Z</time></trkpt>
<trkpt lat="47.74831300" lon="-2.80448200"><ele>105.400001544</ele><time>2008-05-04T09:07:29Z</time></trkpt>
<trkpt lat="47.74819700" lon="-2.80459200"><ele>104.400001512</ele><time>2008-05-04T09:07:33Z</time></trkpt>
<trkpt lat="47.74818500" lon="-2.80464100"><ele>104.400001512</ele><time>2008-05-04T09:07:34Z</time></trkpt>
<trkpt lat="47.74814100" lon="-2.80480600"><ele>103.9999999752</ele><time>2008-05-04T09:07:39Z</time></trkpt>
<trkpt lat="47.74812600" lon="-2.80484400"><ele>103.9999999752</ele><time>2008-05-04T09:07:43Z</time></trkpt>
<trkpt lat="47.74804000" lon="-2.80482300"><ele>103.9999999752</ele><time>2008-05-04T09:07:48Z</time></trkpt>
<trkpt lat="47.74795600" lon="-2.80472000"><ele>103.9999999752</ele><time>2008-05-04T09:07:52Z</time></trkpt>
<trkpt lat="47.74791600" lon="-2.80462900"><ele>104.400001512</ele><time>2008-05-04T09:07:55Z</time></trkpt>
<trkpt lat="47.74791300" lon="-2.80459100"><ele>104.400001512</ele><time>2008-05-04T09:07:58Z</time></trkpt>
<trkpt lat="47.74791600" lon="-2.80458800"><ele>104.400001512</ele><time>2008-05-04T09:08:01Z</time></trkpt>
<trkpt lat="47.74792400" lon="-2.80459400"><ele>104.400001512</ele><time>2008-05-04T09:08:02Z</time></trkpt>
<trkpt lat="47.74796000" lon="-2.80453300"><ele>103.4999999592</ele><time>2008-05-04T09:09:42Z</time></trkpt>
<trkpt lat="47.74796200" lon="-2.80453500"><ele>103.4999999592</ele><time>2008-05-04T09:09:43Z</time></trkpt>
<trkpt lat="47.74796100" lon="-2.80453500"><ele>103.4999999592</ele><time>2008-05-04T09:09:44Z</time></trkpt>
<trkpt lat="47.74795900" lon="-2.80454300"><ele>103.4999999592</ele><time>2008-05-04T09:09:49Z</time></trkpt>
<trkpt lat="47.74795900" lon="-2.80454400"><ele>103.4999999592</ele><time>2008-05-04T09:09:50Z</time></trkpt>
<trkpt lat="47.74795900" lon="-2.80454400"><ele>103.4999999592</ele><time>2008-05-04T09:09:51Z</time></trkpt>
<trkpt lat="47.74795100" lon="-2.80454300"><ele>103.4999999592</ele><time>2008-05-04T09:09:55Z</time></trkpt>
<trkpt lat="47.74783400" lon="-2.80454200"><ele>103.4999999592</ele><time>2008-05-04T09:10:00Z</time></trkpt>
<trkpt lat="47.74767400" lon="-2.80457300"><ele>103.4999999592</ele><time>2008-05-04T09:10:05Z</time></trkpt>
<trkpt lat="47.74751300" lon="-2.80451000"><ele>104.400001512</ele><time>2008-05-04T09:10:09Z</time></trkpt>
<trkpt lat="47.74729200" lon="-2.80449900"><ele>103.9999999752</ele><time>2008-05-04T09:10:14Z</time></trkpt>
<trkpt lat="47.74725100" lon="-2.80448800"><ele>103.9999999752</ele><time>2008-05-04T09:10:15Z</time></trkpt>
<trkpt lat="47.74712300" lon="-2.80433400"><ele>104.400001512</ele><time>2008-05-04T09:10:19Z</time></trkpt>
<trkpt lat="47.74702400" lon="-2.80418600"><ele>104.900001528</ele><time>2008-05-04T09:10:22Z</time></trkpt>
<trkpt lat="47.74686800" lon="-2.80385600"><ele>105.90000156</ele><time>2008-05-04T09:10:27Z</time></trkpt>
<trkpt lat="47.74684300" lon="-2.80360200"><ele>106.8000031128</ele><time>2008-05-04T09:10:31Z</time></trkpt>
<trkpt lat="47.74689700" lon="-2.80309100"><ele>109.6999968048</ele><time>2008-05-04T09:10:41Z</time></trkpt>
<trkpt lat="47.74694600" lon="-2.80287900"><ele>110.6999968368</ele><time>2008-05-04T09:10:47Z</time></trkpt>
<trkpt lat="47.74698000" lon="-2.80270800"><ele>112.0999984056</ele><time>2008-05-04T09:10:52Z</time></trkpt>
<trkpt lat="47.74703500" lon="-2.80245600"><ele>114.5000000064</ele><time>2008-05-04T09:10:59Z</time></trkpt>
<trkpt lat="47.74707700" lon="-2.80222600"><ele>115.5000000384</ele><time>2008-05-04T09:11:06Z</time></trkpt>
<trkpt lat="47.74711000" lon="-2.80203300"><ele>117.9000016392</ele><time>2008-05-04T09:11:11Z</time></trkpt>
<trkpt lat="47.74712600" lon="-2.80191400"><ele>118.9000016712</ele><time>2008-05-04T09:11:14Z</time></trkpt>
<trkpt lat="47.74717800" lon="-2.80162800"><ele>120.3000029352</ele><time>2008-05-04T09:11:21Z</time></trkpt>
<trkpt lat="47.74719500" lon="-2.80136300"><ele>121.3000029672</ele><time>2008-05-04T09:11:27Z</time></trkpt>
<trkpt lat="47.74719700" lon="-2.80103400"><ele>121.699996884</ele><time>2008-05-04T09:11:34Z</time></trkpt>
<trkpt lat="47.74715400" lon="-2.80066300"><ele>123.699996948</ele><time>2008-05-04T09:11:42Z</time></trkpt>
<trkpt lat="47.74710500" lon="-2.80028000"><ele>125.5999985328</ele><time>2008-05-04T09:11:49Z</time></trkpt>
<trkpt lat="47.74705600" lon="-2.79988600"><ele>126.5999985648</ele><time>2008-05-04T09:11:55Z</time></trkpt>
<trkpt lat="47.74698200" lon="-2.79947100"><ele>127.0000001016</ele><time>2008-05-04T09:12:02Z</time></trkpt>
<trkpt lat="47.74693800" lon="-2.79911900"><ele>127.5000001176</ele><time>2008-05-04T09:12:09Z</time></trkpt>
<trkpt lat="47.74689500" lon="-2.79882900"><ele>128.0000001336</ele><time>2008-05-04T09:12:16Z</time></trkpt>
<trkpt lat="47.74685400" lon="-2.79850200"><ele>128.5000001496</ele><time>2008-05-04T09:12:23Z</time></trkpt>
<trkpt lat="47.74683200" lon="-2.79820300"><ele>128.9999998608</ele><time>2008-05-04T09:12:29Z</time></trkpt>
<trkpt lat="47.74681400" lon="-2.79790000"><ele>128.9999998608</ele><time>2008-05-04T09:12:35Z</time></trkpt>
<trkpt lat="47.74681400" lon="-2.79763000"><ele>129.3999937776</ele><time>2008-05-04T09:12:40Z</time></trkpt>
<trkpt lat="47.74679300" lon="-2.79720300"><ele>129.3999937776</ele><time>2008-05-04T09:12:47Z</time></trkpt>
<trkpt lat="47.74679200" lon="-2.79713700"><ele>129.3999937776</ele><time>2008-05-04T09:12:48Z</time></trkpt>
<trkpt lat="47.74678900" lon="-2.79672500"><ele>129.3999937776</ele><time>2008-05-04T09:12:55Z</time></trkpt>
<trkpt lat="47.74679500" lon="-2.79649100"><ele>129.3999937776</ele><time>2008-05-04T09:12:59Z</time></trkpt>
<trkpt lat="47.74679400" lon="-2.79624600"><ele>129.8999937936</ele><time>2008-05-04T09:13:03Z</time></trkpt>
<trkpt lat="47.74682000" lon="-2.79568400"><ele>129.3999937776</ele><time>2008-05-04T09:13:11Z</time></trkpt>
<trkpt lat="47.74682200" lon="-2.79547100"><ele>129.3999937776</ele><time>2008-05-04T09:13:14Z</time></trkpt>
<trkpt lat="47.74685900" lon="-2.79515200"><ele>129.3999937776</ele><time>2008-05-04T09:13:18Z</time></trkpt>
<trkpt lat="47.74695500" lon="-2.79468300"><ele>129.3999937776</ele><time>2008-05-04T09:13:24Z</time></trkpt>
<trkpt lat="47.74697200" lon="-2.79461600"><ele>129.3999937776</ele><time>2008-05-04T09:13:25Z</time></trkpt>
<trkpt lat="47.74703500" lon="-2.79440900"><ele>129.3999937776</ele><time>2008-05-04T09:13:28Z</time></trkpt>
<trkpt lat="47.74706300" lon="-2.79426300"><ele>129.3999937776</ele><time>2008-05-04T09:13:30Z</time></trkpt>
<trkpt lat="47.74707600" lon="-2.79412600"><ele>129.8999937936</ele><time>2008-05-04T09:13:32Z</time></trkpt>
<trkpt lat="47.74701000" lon="-2.79365100"><ele>129.8999937936</ele><time>2008-05-04T09:13:39Z</time></trkpt>
<trkpt lat="47.74694700" lon="-2.79331400"><ele>129.8999937936</ele><time>2008-05-04T09:13:44Z</time></trkpt>
<trkpt lat="47.74693300" lon="-2.79324400"><ele>129.8999937936</ele><time>2008-05-04T09:13:45Z</time></trkpt>
<trkpt lat="47.74687200" lon="-2.79272400"><ele>130.3999938096</ele><time>2008-05-04T09:13:52Z</time></trkpt>
<trkpt lat="47.74680200" lon="-2.79235400"><ele>129.8999937936</ele><time>2008-05-04T09:13:57Z</time></trkpt>
<trkpt lat="47.74668700" lon="-2.79183900"><ele>129.3999937776</ele><time>2008-05-04T09:14:04Z</time></trkpt>
<trkpt lat="47.74659900" lon="-2.79137000"><ele>129.3999937776</ele><time>2008-05-04T09:14:10Z</time></trkpt>
<trkpt lat="47.74653000" lon="-2.79063600"><ele>128.5000001496</ele><time>2008-05-04T09:14:18Z</time></trkpt>
<trkpt lat="47.74652600" lon="-2.79026600"><ele>128.5000001496</ele><time>2008-05-04T09:14:22Z</time></trkpt>
<trkpt lat="47.74651200" lon="-2.79008600"><ele>128.0000001336</ele><time>2008-05-04T09:14:24Z</time></trkpt>
<trkpt lat="47.74648900" lon="-2.78953400"><ele>127.0000001016</ele><time>2008-05-04T09:14:30Z</time></trkpt>
<trkpt lat="47.74648800" lon="-2.78943700"><ele>126.5999985648</ele><time>2008-05-04T09:14:31Z</time></trkpt>
<trkpt lat="47.74645800" lon="-2.78894200"><ele>125.0999985168</ele><time>2008-05-04T09:14:36Z</time></trkpt>
<trkpt lat="47.74637500" lon="-2.78823400"><ele>125.5999985328</ele><time>2008-05-04T09:14:43Z</time></trkpt>
<trkpt lat="47.74632400" lon="-2.78755100"><ele>123.699996948</ele><time>2008-05-04T09:14:50Z</time></trkpt>
<trkpt lat="47.74631000" lon="-2.78701000"><ele>122.699996916</ele><time>2008-05-04T09:14:55Z</time></trkpt>
<trkpt lat="47.74630800" lon="-2.78642900"><ele>118.9000016712</ele><time>2008-05-04T09:14:59Z</time></trkpt>
<trkpt lat="47.74631400" lon="-2.78607000"><ele>113.0999984376</ele><time>2008-05-04T09:15:01Z</time></trkpt>
<trkpt lat="47.74631800" lon="-2.78565100"><ele>109.1999970936</ele><time>2008-05-04T09:15:03Z</time></trkpt>
<trkpt lat="47.74633400" lon="-2.78499800"><ele>106.400001576</ele><time>2008-05-04T09:15:06Z</time></trkpt>
<trkpt lat="47.74634400" lon="-2.78477800"><ele>106.400001576</ele><time>2008-05-04T09:15:07Z</time></trkpt>
<trkpt lat="47.74637800" lon="-2.78419100"><ele>109.6999968048</ele><time>2008-05-04T09:15:10Z</time></trkpt>
<trkpt lat="47.74638800" lon="-2.78359500"><ele>112.5999984216</ele><time>2008-05-04T09:15:14Z</time></trkpt>
<trkpt lat="47.74638900" lon="-2.78302000"><ele>114.5000000064</ele><time>2008-05-04T09:15:19Z</time></trkpt>
<trkpt lat="47.74636200" lon="-2.78263400"><ele>116.0000000544</ele><time>2008-05-04T09:15:23Z</time></trkpt>
<trkpt lat="47.74630300" lon="-2.78202700"><ele>116.9000016072</ele><time>2008-05-04T09:15:30Z</time></trkpt>
<trkpt lat="47.74629400" lon="-2.78195400"><ele>117.4000016232</ele><time>2008-05-04T09:15:31Z</time></trkpt>
<trkpt lat="47.74623300" lon="-2.78162000"><ele>118.9000016712</ele><time>2008-05-04T09:15:37Z</time></trkpt>
<trkpt lat="47.74618700" lon="-2.78145300"><ele>119.3000029032</ele><time>2008-05-04T09:15:40Z</time></trkpt>
<trkpt lat="47.74602600" lon="-2.78107100"><ele>120.8000029512</ele><time>2008-05-04T09:15:47Z</time></trkpt>
<trkpt lat="47.74586100" lon="-2.78077900"><ele>122.1999969</ele><time>2008-05-04T09:15:53Z</time></trkpt>
<trkpt lat="47.74572800" lon="-2.78049100"><ele>122.699996916</ele><time>2008-05-04T09:15:59Z</time></trkpt>
<trkpt lat="47.74559700" lon="-2.78015100"><ele>123.199996932</ele><time>2008-05-04T09:16:05Z</time></trkpt>
<trkpt lat="47.74550200" lon="-2.77987000"><ele>123.699996948</ele><time>2008-05-04T09:16:10Z</time></trkpt>
<trkpt lat="47.74537500" lon="-2.77948600"><ele>125.0999985168</ele><time>2008-05-04T09:16:17Z</time></trkpt>
<trkpt lat="47.74530600" lon="-2.77918000"><ele>125.0999985168</ele><time>2008-05-04T09:16:22Z</time></trkpt>
<trkpt lat="47.74525400" lon="-2.77885000"><ele>124.5999985008</ele><time>2008-05-04T09:16:27Z</time></trkpt>
<trkpt lat="47.74523000" lon="-2.77871000"><ele>125.0999985168</ele><time>2008-05-04T09:16:29Z</time></trkpt>
<trkpt lat="47.74516300" lon="-2.77833600"><ele>123.699996948</ele><time>2008-05-04T09:16:34Z</time></trkpt>
<trkpt lat="47.74503900" lon="-2.77780400"><ele>122.1999969</ele><time>2008-05-04T09:16:40Z</time></trkpt>
<trkpt lat="47.74499900" lon="-2.77727100"><ele>122.699996916</ele><time>2008-05-04T09:16:45Z</time></trkpt>
<trkpt lat="47.74496400" lon="-2.77681500"><ele>123.199996932</ele><time>2008-05-04T09:16:50Z</time></trkpt>
<trkpt lat="47.74492800" lon="-2.77617300"><ele>122.1999969</ele><time>2008-05-04T09:16:58Z</time></trkpt>
<trkpt lat="47.74498200" lon="-2.77584600"><ele>120.8000029512</ele><time>2008-05-04T09:17:03Z</time></trkpt>
<trkpt lat="47.74499000" lon="-2.77581300"><ele>120.8000029512</ele><time>2008-05-04T09:17:04Z</time></trkpt>
<trkpt lat="47.74499700" lon="-2.77578900"><ele>120.8000029512</ele><time>2008-05-04T09:17:05Z</time></trkpt>
<trkpt lat="47.74498200" lon="-2.77565100"><ele>119.8000029192</ele><time>2008-05-04T09:17:09Z</time></trkpt>
<trkpt lat="47.74501000" lon="-2.77557300"><ele>120.3000029352</ele><time>2008-05-04T09:17:13Z</time></trkpt>
<trkpt lat="47.74502000" lon="-2.77557100"><ele>120.3000029352</ele><time>2008-05-04T09:17:18Z</time></trkpt>
<trkpt lat="47.74502000" lon="-2.77557700"><ele>120.3000029352</ele><time>2008-05-04T09:17:22Z</time></trkpt>
<trkpt lat="47.74504100" lon="-2.77563000"><ele>121.3000029672</ele><time>2008-05-04T09:21:02Z</time></trkpt>
<trkpt lat="47.74504100" lon="-2.77562400"><ele>121.3000029672</ele><time>2008-05-04T09:21:03Z</time></trkpt>
<trkpt lat="47.74503900" lon="-2.77562000"><ele>121.3000029672</ele><time>2008-05-04T09:21:04Z</time></trkpt>
<trkpt lat="47.74503300" lon="-2.77561700"><ele>121.3000029672</ele><time>2008-05-04T09:21:07Z</time></trkpt>
<trkpt lat="47.74501100" lon="-2.77561800"><ele>121.3000029672</ele><time>2008-05-04T09:21:08Z</time></trkpt>
<trkpt lat="47.74499200" lon="-2.77556700"><ele>121.3000029672</ele><time>2008-05-04T09:21:15Z</time></trkpt>
<trkpt lat="47.74498300" lon="-2.77555500"><ele>121.3000029672</ele><time>2008-05-04T09:21:18Z</time></trkpt>
<trkpt lat="47.74498200" lon="-2.77553800"><ele>121.3000029672</ele><time>2008-05-04T09:21:24Z</time></trkpt>
<trkpt lat="47.74498600" lon="-2.77553800"><ele>121.3000029672</ele><time>2008-05-04T09:21:25Z</time></trkpt>
<trkpt lat="47.74496300" lon="-2.77557600"><ele>121.3000029672</ele><time>2008-05-04T09:21:35Z</time></trkpt>
<trkpt lat="47.74495900" lon="-2.77557800"><ele>121.3000029672</ele><time>2008-05-04T09:21:36Z</time></trkpt>
<trkpt lat="47.74496800" lon="-2.77551800"><ele>120.8000029512</ele><time>2008-05-04T09:21:59Z</time></trkpt>
<trkpt lat="47.74496100" lon="-2.77550300"><ele>120.8000029512</ele><time>2008-05-04T09:22:00Z</time></trkpt>
<trkpt lat="47.74495900" lon="-2.77549400"><ele>120.8000029512</ele><time>2008-05-04T09:22:03Z</time></trkpt>
<trkpt lat="47.74495900" lon="-2.77549100"><ele>120.8000029512</ele><time>2008-05-04T09:22:04Z</time></trkpt>
<trkpt lat="47.74495800" lon="-2.77548700"><ele>120.8000029512</ele><time>2008-05-04T09:22:05Z</time></trkpt>
<trkpt lat="47.74498300" lon="-2.77550100"><ele>120.8000029512</ele><time>2008-05-04T09:22:59Z</time></trkpt>
<trkpt lat="47.74499400" lon="-2.77550500"><ele>120.8000029512</ele><time>2008-05-04T09:23:00Z</time></trkpt>
<trkpt lat="47.74497800" lon="-2.77549700"><ele>120.8000029512</ele><time>2008-05-04T09:23:12Z</time></trkpt>
<trkpt lat="47.74493800" lon="-2.77539000"><ele>122.1999969</ele><time>2008-05-04T09:23:17Z</time></trkpt>
<trkpt lat="47.74490100" lon="-2.77527300"><ele>122.699996916</ele><time>2008-05-04T09:23:23Z</time></trkpt>
<trkpt lat="47.74486500" lon="-2.77518400"><ele>123.699996948</ele><time>2008-05-04T09:23:28Z</time></trkpt>
<trkpt lat="47.74487200" lon="-2.77503600"><ele>125.0999985168</ele><time>2008-05-04T09:23:33Z</time></trkpt>
<trkpt lat="47.74485000" lon="-2.77487700"><ele>126.5999985648</ele><time>2008-05-04T09:23:38Z</time></trkpt>
<trkpt lat="47.74483600" lon="-2.77474500"><ele>127.0000001016</ele><time>2008-05-04T09:23:42Z</time></trkpt>
<trkpt lat="47.74481400" lon="-2.77471000"><ele>127.0000001016</ele><time>2008-05-04T09:23:44Z</time></trkpt>
<trkpt lat="47.74478300" lon="-2.77452600"><ele>128.5000001496</ele><time>2008-05-04T09:23:50Z</time></trkpt>
<trkpt lat="47.74481100" lon="-2.77428100"><ele>128.9999998608</ele><time>2008-05-04T09:23:56Z</time></trkpt>
<trkpt lat="47.74488400" lon="-2.77404900"><ele>128.9999998608</ele><time>2008-05-04T09:24:01Z</time></trkpt>
<trkpt lat="47.74495800" lon="-2.77379800"><ele>128.9999998608</ele><time>2008-05-04T09:24:06Z</time></trkpt>
<trkpt lat="47.74497800" lon="-2.77350100"><ele>129.8999937936</ele><time>2008-05-04T09:24:12Z</time></trkpt>
<trkpt lat="47.74497800" lon="-2.77320200"><ele>129.8999937936</ele><time>2008-05-04T09:24:18Z</time></trkpt>
<trkpt lat="47.74493600" lon="-2.77290100"><ele>130.8999938256</ele><time>2008-05-04T09:24:24Z</time></trkpt>
<trkpt lat="47.74490100" lon="-2.77261400"><ele>130.3999938096</ele><time>2008-05-04T09:24:30Z</time></trkpt>
<trkpt lat="47.74489100" lon="-2.77240100"><ele>130.8999938256</ele><time>2008-05-04T09:24:34Z</time></trkpt>
<trkpt lat="47.74484000" lon="-2.77220500"><ele>130.8999938256</ele><time>2008-05-04T09:24:38Z</time></trkpt>
<trkpt lat="47.74479100" lon="-2.77189000"><ele>130.8999938256</ele><time>2008-05-04T09:24:44Z</time></trkpt>
<trkpt lat="47.74475000" lon="-2.77164700"><ele>130.3999938096</ele><time>2008-05-04T09:24:49Z</time></trkpt>
<trkpt lat="47.74473100" lon="-2.77149000"><ele>130.3999938096</ele><time>2008-05-04T09:24:52Z</time></trkpt>
<trkpt lat="47.74469300" lon="-2.77121000"><ele>130.3999938096</ele><time>2008-05-04T09:24:57Z</time></trkpt>
<trkpt lat="47.74466400" lon="-2.77087100"><ele>129.8999937936</ele><time>2008-05-04T09:25:02Z</time></trkpt>
<trkpt lat="47.74457900" lon="-2.77036900"><ele>128.9999998608</ele><time>2008-05-04T09:25:09Z</time></trkpt>
<trkpt lat="47.74450700" lon="-2.77004800"><ele>130.3999938096</ele><time>2008-05-04T09:25:14Z</time></trkpt>
<trkpt lat="47.74441300" lon="-2.76994500"><ele>130.3999938096</ele><time>2008-05-04T09:25:17Z</time></trkpt>
<trkpt lat="47.74429400" lon="-2.76980600"><ele>132.3000030144</ele><time>2008-05-04T09:25:20Z</time></trkpt>
<trkpt lat="47.74422300" lon="-2.76969600"><ele>132.8000030304</ele><time>2008-05-04T09:25:22Z</time></trkpt>
<trkpt lat="47.74419900" lon="-2.76964100"><ele>132.8000030304</ele><time>2008-05-04T09:25:23Z</time></trkpt>
<trkpt lat="47.74410400" lon="-2.76932800"><ele>133.3000030464</ele><time>2008-05-04T09:25:28Z</time></trkpt>
<trkpt lat="47.74410100" lon="-2.76926000"><ele>133.3000030464</ele><time>2008-05-04T09:25:29Z</time></trkpt>
<trkpt lat="47.74412300" lon="-2.76881900"><ele>133.8000030624</ele><time>2008-05-04T09:25:35Z</time></trkpt>
<trkpt lat="47.74414100" lon="-2.76858800"><ele>132.8000030304</ele><time>2008-05-04T09:25:38Z</time></trkpt>
<trkpt lat="47.74416900" lon="-2.76843200"><ele>132.3000030144</ele><time>2008-05-04T09:25:40Z</time></trkpt>
<trkpt lat="47.74408700" lon="-2.76816900"><ele>131.8000029984</ele><time>2008-05-04T09:25:44Z</time></trkpt>
<trkpt lat="47.74402900" lon="-2.76811400"><ele>132.3000030144</ele><time>2008-05-04T09:25:45Z</time></trkpt>
<trkpt lat="47.74355600" lon="-2.76772500"><ele>131.8000029984</ele><time>2008-05-04T09:25:53Z</time></trkpt>
<trkpt lat="47.74317900" lon="-2.76741000"><ele>132.3000030144</ele><time>2008-05-04T09:26:00Z</time></trkpt>
<trkpt lat="47.74290800" lon="-2.76718800"><ele>133.8000030624</ele><time>2008-05-04T09:26:06Z</time></trkpt>
<trkpt lat="47.74259100" lon="-2.76692400"><ele>136.1999970432</ele><time>2008-05-04T09:26:13Z</time></trkpt>
<trkpt lat="47.74234300" lon="-2.76672600"><ele>137.100006216</ele><time>2008-05-04T09:26:20Z</time></trkpt>
<trkpt lat="47.74206000" lon="-2.76653000"><ele>137.600006232</ele><time>2008-05-04T09:26:28Z</time></trkpt>
<trkpt lat="47.74182700" lon="-2.76637400"><ele>137.600006232</ele><time>2008-05-04T09:26:35Z</time></trkpt>
<trkpt lat="47.74179300" lon="-2.76635500"><ele>137.600006232</ele><time>2008-05-04T09:26:36Z</time></trkpt>
<trkpt lat="47.74166000" lon="-2.76647400"><ele>136.6000062</ele><time>2008-05-04T09:26:40Z</time></trkpt>
<trkpt lat="47.74164800" lon="-2.76671500"><ele>135.6999970272</ele><time>2008-05-04T09:26:43Z</time></trkpt>
<trkpt lat="47.74166200" lon="-2.76697100"><ele>136.1999970432</ele><time>2008-05-04T09:26:46Z</time></trkpt>
<trkpt lat="47.74173200" lon="-2.76750000"><ele>135.6999970272</ele><time>2008-05-04T09:26:52Z</time></trkpt>
<trkpt lat="47.74166500" lon="-2.76774500"><ele>135.6999970272</ele><time>2008-05-04T09:26:56Z</time></trkpt>
<trkpt lat="47.74158100" lon="-2.76769400"><ele>135.6999970272</ele><time>2008-05-04T09:26:59Z</time></trkpt>
<trkpt lat="47.74157200" lon="-2.76765300"><ele>135.6999970272</ele><time>2008-05-04T09:27:00Z</time></trkpt>
<trkpt lat="47.74153200" lon="-2.76726200"><ele>136.1999970432</ele><time>2008-05-04T09:27:08Z</time></trkpt>
<trkpt lat="47.74146000" lon="-2.76695100"><ele>136.1999970432</ele><time>2008-05-04T09:27:14Z</time></trkpt>
<trkpt lat="47.74140600" lon="-2.76667400"><ele>136.1999970432</ele><time>2008-05-04T09:27:19Z</time></trkpt>
<trkpt lat="47.74130100" lon="-2.76643400"><ele>137.100006216</ele><time>2008-05-04T09:27:24Z</time></trkpt>
<trkpt lat="47.74121600" lon="-2.76622900"><ele>138.100006248</ele><time>2008-05-04T09:27:28Z</time></trkpt>
<trkpt lat="47.74116700" lon="-2.76613300"><ele>138.999999876</ele><time>2008-05-04T09:27:30Z</time></trkpt>
<trkpt lat="47.74102500" lon="-2.76592100"><ele>139.999999908</ele><time>2008-05-04T09:27:35Z</time></trkpt>
<trkpt lat="47.74076600" lon="-2.76572200"><ele>140.99999994</ele><time>2008-05-04T09:27:42Z</time></trkpt>
<trkpt lat="47.74054500" lon="-2.76558200"><ele>141.8999938728</ele><time>2008-05-04T09:27:47Z</time></trkpt>
<trkpt lat="47.74020200" lon="-2.76542800"><ele>142.3999938888</ele><time>2008-05-04T09:27:55Z</time></trkpt>
<trkpt lat="47.73979800" lon="-2.76524100"><ele>143.3999939208</ele><time>2008-05-04T09:28:05Z</time></trkpt>
<trkpt lat="47.73936500" lon="-2.76506700"><ele>143.8999939368</ele><time>2008-05-04T09:28:15Z</time></trkpt>
<trkpt lat="47.73903200" lon="-2.76493200"><ele>144.3000030936</ele><time>2008-05-04T09:28:23Z</time></trkpt>
<trkpt lat="47.73854400" lon="-2.76475900"><ele>143.8999939368</ele><time>2008-05-04T09:28:33Z</time></trkpt>
<trkpt lat="47.73827700" lon="-2.76469400"><ele>143.3999939208</ele><time>2008-05-04T09:28:38Z</time></trkpt>
<trkpt lat="47.73798300" lon="-2.76461500"><ele>143.3999939208</ele><time>2008-05-04T09:28:44Z</time></trkpt>
<trkpt lat="47.73773500" lon="-2.76457300"><ele>143.3999939208</ele><time>2008-05-04T09:28:49Z</time></trkpt>
<trkpt lat="47.73756500" lon="-2.76454100"><ele>143.3999939208</ele><time>2008-05-04T09:28:52Z</time></trkpt>
<trkpt lat="47.73711400" lon="-2.76444500"><ele>142.3999938888</ele><time>2008-05-04T09:29:00Z</time></trkpt>
<trkpt lat="47.73672300" lon="-2.76438700"><ele>140.99999994</ele><time>2008-05-04T09:29:07Z</time></trkpt>
<trkpt lat="47.73666300" lon="-2.76437400"><ele>140.499999924</ele><time>2008-05-04T09:29:08Z</time></trkpt>
<trkpt lat="47.73654700" lon="-2.76432600"><ele>139.999999908</ele><time>2008-05-04T09:29:10Z</time></trkpt>
<trkpt lat="47.73637500" lon="-2.76440200"><ele>138.100006248</ele><time>2008-05-04T09:29:14Z</time></trkpt>
<trkpt lat="47.73637900" lon="-2.76460500"><ele>138.6000059592</ele><time>2008-05-04T09:29:17Z</time></trkpt>
<trkpt lat="47.73638100" lon="-2.76514200"><ele>138.6000059592</ele><time>2008-05-04T09:29:24Z</time></trkpt>
<trkpt lat="47.73638200" lon="-2.76539000"><ele>138.6000059592</ele><time>2008-05-04T09:29:27Z</time></trkpt>
<trkpt lat="47.73637900" lon="-2.76556400"><ele>138.100006248</ele><time>2008-05-04T09:29:29Z</time></trkpt>
<trkpt lat="47.73634500" lon="-2.76606400"><ele>138.6000059592</ele><time>2008-05-04T09:29:35Z</time></trkpt>
<trkpt lat="47.73632500" lon="-2.76644600"><ele>138.100006248</ele><time>2008-05-04T09:29:39Z</time></trkpt>
<trkpt lat="47.73630700" lon="-2.76701300"><ele>137.600006232</ele><time>2008-05-04T09:29:45Z</time></trkpt>
<trkpt lat="47.73631000" lon="-2.76738700"><ele>136.1999970432</ele><time>2008-05-04T09:29:49Z</time></trkpt>
<trkpt lat="47.73633700" lon="-2.76770000"><ele>135.1999970112</ele><time>2008-05-04T09:29:52Z</time></trkpt>
<trkpt lat="47.73638000" lon="-2.76791400"><ele>135.1999970112</ele><time>2008-05-04T09:29:54Z</time></trkpt>
<trkpt lat="47.73638700" lon="-2.76820200"><ele>133.8000030624</ele><time>2008-05-04T09:29:57Z</time></trkpt>
<trkpt lat="47.73630300" lon="-2.76852400"><ele>133.3000030464</ele><time>2008-05-04T09:30:02Z</time></trkpt>
<trkpt lat="47.73629400" lon="-2.76855200"><ele>133.3000030464</ele><time>2008-05-04T09:30:03Z</time></trkpt>
<trkpt lat="47.73624900" lon="-2.76868600"><ele>133.3000030464</ele><time>2008-05-04T09:30:08Z</time></trkpt>
<trkpt lat="47.73618200" lon="-2.76871600"><ele>132.8000030304</ele><time>2008-05-04T09:30:11Z</time></trkpt>
<trkpt lat="47.73614100" lon="-2.76869200"><ele>132.8000030304</ele><time>2008-05-04T09:30:12Z</time></trkpt>
<trkpt lat="47.73595000" lon="-2.76854900"><ele>133.3000030464</ele><time>2008-05-04T09:30:16Z</time></trkpt>
<trkpt lat="47.73564400" lon="-2.76830700"><ele>132.8000030304</ele><time>2008-05-04T09:30:22Z</time></trkpt>
<trkpt lat="47.73522900" lon="-2.76792700"><ele>132.8000030304</ele><time>2008-05-04T09:30:30Z</time></trkpt>
<trkpt lat="47.73482700" lon="-2.76754100"><ele>132.8000030304</ele><time>2008-05-04T09:30:37Z</time></trkpt>
<trkpt lat="47.73439100" lon="-2.76720900"><ele>132.3000030144</ele><time>2008-05-04T09:30:44Z</time></trkpt>
<trkpt lat="47.73388900" lon="-2.76686300"><ele>131.3999938416</ele><time>2008-05-04T09:30:52Z</time></trkpt>
<trkpt lat="47.73340700" lon="-2.76655500"><ele>130.3999938096</ele><time>2008-05-04T09:30:59Z</time></trkpt>
<trkpt lat="47.73279800" lon="-2.76617600"><ele>129.3999937776</ele><time>2008-05-04T09:31:07Z</time></trkpt>
<trkpt lat="47.73256400" lon="-2.76605000"><ele>128.0000001336</ele><time>2008-05-04T09:31:10Z</time></trkpt>
<trkpt lat="47.73241700" lon="-2.76594800"><ele>128.0000001336</ele><time>2008-05-04T09:31:12Z</time></trkpt>
<trkpt lat="47.73219100" lon="-2.76583600"><ele>127.5000001176</ele><time>2008-05-04T09:31:15Z</time></trkpt>
<trkpt lat="47.73195400" lon="-2.76598100"><ele>126.0999985488</ele><time>2008-05-04T09:31:19Z</time></trkpt>
<trkpt lat="47.73181600" lon="-2.76622200"><ele>125.5999985328</ele><time>2008-05-04T09:31:22Z</time></trkpt>
<trkpt lat="47.73172500" lon="-2.76636200"><ele>125.0999985168</ele><time>2008-05-04T09:31:24Z</time></trkpt>
<trkpt lat="47.73153200" lon="-2.76666800"><ele>125.0999985168</ele><time>2008-05-04T09:31:28Z</time></trkpt>
<trkpt lat="47.73121600" lon="-2.76723400"><ele>124.0999984848</ele><time>2008-05-04T09:31:35Z</time></trkpt>
<trkpt lat="47.73095200" lon="-2.76771500"><ele>124.0999984848</ele><time>2008-05-04T09:31:40Z</time></trkpt>
<trkpt lat="47.73091100" lon="-2.76779700"><ele>124.5999985008</ele><time>2008-05-04T09:31:41Z</time></trkpt>
<trkpt lat="47.73074800" lon="-2.76802300"><ele>123.699996948</ele><time>2008-05-04T09:31:45Z</time></trkpt>
<trkpt lat="47.73046700" lon="-2.76830500"><ele>122.1999969</ele><time>2008-05-04T09:31:51Z</time></trkpt>
<trkpt lat="47.73030200" lon="-2.76838700"><ele>121.3000029672</ele><time>2008-05-04T09:31:54Z</time></trkpt>
<trkpt lat="47.73015500" lon="-2.76860500"><ele>120.8000029512</ele><time>2008-05-04T09:31:59Z</time></trkpt>
<trkpt lat="47.73015300" lon="-2.76890500"><ele>120.8000029512</ele><time>2008-05-04T09:32:03Z</time></trkpt>
<trkpt lat="47.73017500" lon="-2.76907000"><ele>121.699996884</ele><time>2008-05-04T09:32:05Z</time></trkpt>
<trkpt lat="47.73021100" lon="-2.76921200"><ele>122.699996916</ele><time>2008-05-04T09:32:07Z</time></trkpt>
<trkpt lat="47.73021300" lon="-2.76961000"><ele>123.199996932</ele><time>2008-05-04T09:32:12Z</time></trkpt>
<trkpt lat="47.73020600" lon="-2.76987200"><ele>123.199996932</ele><time>2008-05-04T09:32:15Z</time></trkpt>
<trkpt lat="47.73026000" lon="-2.77024500"><ele>123.699996948</ele><time>2008-05-04T09:32:20Z</time></trkpt>
<trkpt lat="47.73047000" lon="-2.77071800"><ele>125.0999985168</ele><time>2008-05-04T09:32:27Z</time></trkpt>
<trkpt lat="47.73049400" lon="-2.77083400"><ele>125.0999985168</ele><time>2008-05-04T09:32:29Z</time></trkpt>
<trkpt lat="47.73052700" lon="-2.77117600"><ele>125.5999985328</ele><time>2008-05-04T09:32:34Z</time></trkpt>
<trkpt lat="47.73050500" lon="-2.77145300"><ele>126.0999985488</ele><time>2008-05-04T09:32:38Z</time></trkpt>
<trkpt lat="47.73040200" lon="-2.77162300"><ele>125.5999985328</ele><time>2008-05-04T09:32:42Z</time></trkpt>
<trkpt lat="47.73028100" lon="-2.77163900"><ele>124.5999985008</ele><time>2008-05-04T09:32:45Z</time></trkpt>
<trkpt lat="47.73003400" lon="-2.77191900"><ele>123.199996932</ele><time>2008-05-04T09:32:50Z</time></trkpt>
<trkpt lat="47.72976200" lon="-2.77220400"><ele>122.699996916</ele><time>2008-05-04T09:32:55Z</time></trkpt>
<trkpt lat="47.72954900" lon="-2.77244600"><ele>121.699996884</ele><time>2008-05-04T09:32:59Z</time></trkpt>
<trkpt lat="47.72930900" lon="-2.77273000"><ele>120.8000029512</ele><time>2008-05-04T09:33:03Z</time></trkpt>
<trkpt lat="47.72913300" lon="-2.77297300"><ele>119.3000029032</ele><time>2008-05-04T09:33:07Z</time></trkpt>
<trkpt lat="47.72888800" lon="-2.77310700"><ele>118.4000016552</ele><time>2008-05-04T09:33:13Z</time></trkpt>
<trkpt lat="47.72880800" lon="-2.77312200"><ele>116.9000016072</ele><time>2008-05-04T09:33:16Z</time></trkpt>
<trkpt lat="47.72863600" lon="-2.77297600"><ele>114.5000000064</ele><time>2008-05-04T09:33:21Z</time></trkpt>
<trkpt lat="47.72849500" lon="-2.77293900"><ele>114.5000000064</ele><time>2008-05-04T09:33:25Z</time></trkpt>
<trkpt lat="47.72838800" lon="-2.77298700"><ele>111.1999968528</ele><time>2008-05-04T09:33:28Z</time></trkpt>
<trkpt lat="47.72835900" lon="-2.77301600"><ele>111.1999968528</ele><time>2008-05-04T09:33:29Z</time></trkpt>
<trkpt lat="47.72834400" lon="-2.77302300"><ele>111.1999968528</ele><time>2008-05-04T09:33:32Z</time></trkpt>
<trkpt lat="47.72835200" lon="-2.77301100"><ele>111.1999968528</ele><time>2008-05-04T09:33:35Z</time></trkpt>
<trkpt lat="47.72830900" lon="-2.77290200"><ele>111.1999968528</ele><time>2008-05-04T09:34:00Z</time></trkpt>
<trkpt lat="47.72830000" lon="-2.77289300"><ele>111.1999968528</ele><time>2008-05-04T09:34:03Z</time></trkpt>
<trkpt lat="47.72831600" lon="-2.77291400"><ele>111.1999968528</ele><time>2008-05-04T09:34:23Z</time></trkpt>
<trkpt lat="47.72832800" lon="-2.77292300"><ele>111.1999968528</ele><time>2008-05-04T09:34:24Z</time></trkpt>
<trkpt lat="47.72834700" lon="-2.77294000"><ele>111.1999968528</ele><time>2008-05-04T09:34:29Z</time></trkpt>
<trkpt lat="47.72835300" lon="-2.77295200"><ele>111.1999968528</ele><time>2008-05-04T09:34:31Z</time></trkpt>
<trkpt lat="47.72836400" lon="-2.77298200"><ele>111.1999968528</ele><time>2008-05-04T09:34:41Z</time></trkpt>
<trkpt lat="47.72836700" lon="-2.77298900"><ele>111.1999968528</ele><time>2008-05-04T09:34:42Z</time></trkpt>
<trkpt lat="47.72837200" lon="-2.77299500"><ele>111.1999968528</ele><time>2008-05-04T09:34:46Z</time></trkpt>
<trkpt lat="47.72837600" lon="-2.77300000"><ele>111.1999968528</ele><time>2008-05-04T09:34:47Z</time></trkpt>
<trkpt lat="47.72837800" lon="-2.77300200"><ele>111.1999968528</ele><time>2008-05-04T09:34:50Z</time></trkpt>
<trkpt lat="47.72838000" lon="-2.77300400"><ele>111.1999968528</ele><time>2008-05-04T09:34:51Z</time></trkpt>
<trkpt lat="47.72837700" lon="-2.77299900"><ele>111.1999968528</ele><time>2008-05-04T09:34:56Z</time></trkpt>
<trkpt lat="47.72838000" lon="-2.77299900"><ele>111.1999968528</ele><time>2008-05-04T09:34:57Z</time></trkpt>
<trkpt lat="47.72837800" lon="-2.77299700"><ele>111.1999968528</ele><time>2008-05-04T09:35:00Z</time></trkpt>
<trkpt lat="47.72837100" lon="-2.77299000"><ele>111.1999968528</ele><time>2008-05-04T09:35:01Z</time></trkpt>
<trkpt lat="47.72837000" lon="-2.77299100"><ele>111.1999968528</ele><time>2008-05-04T09:35:04Z</time></trkpt>
<trkpt lat="47.72837300" lon="-2.77299600"><ele>111.1999968528</ele><time>2008-05-04T09:35:06Z</time></trkpt>
<trkpt lat="47.72837600" lon="-2.77300200"><ele>111.1999968528</ele><time>2008-05-04T09:35:10Z</time></trkpt>
<trkpt lat="47.72837600" lon="-2.77300400"><ele>111.1999968528</ele><time>2008-05-04T09:35:11Z</time></trkpt>
<trkpt lat="47.72838300" lon="-2.77301400"><ele>111.1999968528</ele><time>2008-05-04T09:35:21Z</time></trkpt>
<trkpt lat="47.72838400" lon="-2.77301600"><ele>111.1999968528</ele><time>2008-05-04T09:35:22Z</time></trkpt>
<trkpt lat="47.72838400" lon="-2.77301600"><ele>111.1999968528</ele><time>2008-05-04T09:35:26Z</time></trkpt>
<trkpt lat="47.72838300" lon="-2.77301700"><ele>111.1999968528</ele><time>2008-05-04T09:35:27Z</time></trkpt>
<trkpt lat="47.72838300" lon="-2.77301800"><ele>111.1999968528</ele><time>2008-05-04T09:35:28Z</time></trkpt>
<trkpt lat="47.72838400" lon="-2.77302000"><ele>111.1999968528</ele><time>2008-05-04T09:35:31Z</time></trkpt>
<trkpt lat="47.72838600" lon="-2.77302300"><ele>111.1999968528</ele><time>2008-05-04T09:35:32Z</time></trkpt>
<trkpt lat="47.72838500" lon="-2.77302200"><ele>111.1999968528</ele><time>2008-05-04T09:35:35Z</time></trkpt>
<trkpt lat="47.72837900" lon="-2.77301500"><ele>111.1999968528</ele><time>2008-05-04T09:35:38Z</time></trkpt>
<trkpt lat="47.72837900" lon="-2.77301600"><ele>111.1999968528</ele><time>2008-05-04T09:35:40Z</time></trkpt>
<trkpt lat="47.72834600" lon="-2.77301700"><ele>111.6999968688</ele><time>2008-05-04T09:36:05Z</time></trkpt>
<trkpt lat="47.72834500" lon="-2.77301700"><ele>111.6999968688</ele><time>2008-05-04T09:36:07Z</time></trkpt>
<trkpt lat="47.72833200" lon="-2.77301000"><ele>111.6999968688</ele><time>2008-05-04T09:36:17Z</time></trkpt>
<trkpt lat="47.72832900" lon="-2.77301000"><ele>111.6999968688</ele><time>2008-05-04T09:36:18Z</time></trkpt>
<trkpt lat="47.72831400" lon="-2.77300100"><ele>111.6999968688</ele><time>2008-05-04T09:36:31Z</time></trkpt>
<trkpt lat="47.72831100" lon="-2.77299600"><ele>111.6999968688</ele><time>2008-05-04T09:36:33Z</time></trkpt>
<trkpt lat="47.72830700" lon="-2.77299400"><ele>111.6999968688</ele><time>2008-05-04T09:36:40Z</time></trkpt>
<trkpt lat="47.72830600" lon="-2.77298600"><ele>111.6999968688</ele><time>2008-05-04T09:36:42Z</time></trkpt>
<trkpt lat="47.72830600" lon="-2.77298600"><ele>111.6999968688</ele><time>2008-05-04T09:36:43Z</time></trkpt>
<trkpt lat="47.72830700" lon="-2.77298700"><ele>111.6999968688</ele><time>2008-05-04T09:36:44Z</time></trkpt>
<trkpt lat="47.72831100" lon="-2.77299600"><ele>111.6999968688</ele><time>2008-05-04T09:36:52Z</time></trkpt>
<trkpt lat="47.72831300" lon="-2.77299800"><ele>111.6999968688</ele><time>2008-05-04T09:36:54Z</time></trkpt>
<trkpt lat="47.72831300" lon="-2.77300100"><ele>111.6999968688</ele><time>2008-05-04T09:36:59Z</time></trkpt>
<trkpt lat="47.72829700" lon="-2.77299400"><ele>111.6999968688</ele><time>2008-05-04T09:37:01Z</time></trkpt>
<trkpt lat="47.72828100" lon="-2.77299500"><ele>111.6999968688</ele><time>2008-05-04T09:37:04Z</time></trkpt>
<trkpt lat="47.72818800" lon="-2.77293400"><ele>107.8000031448</ele><time>2008-05-04T09:37:06Z</time></trkpt>
<trkpt lat="47.72809700" lon="-2.77270500"><ele>106.8000031128</ele><time>2008-05-04T09:37:11Z</time></trkpt>
<trkpt lat="47.72810100" lon="-2.77261500"><ele>106.400001576</ele><time>2008-05-04T09:37:15Z</time></trkpt>
<trkpt lat="47.72809100" lon="-2.77262900"><ele>106.400001576</ele><time>2008-05-04T09:37:16Z</time></trkpt>
<trkpt lat="47.72799800" lon="-2.77286000"><ele>105.400001544</ele><time>2008-05-04T09:37:21Z</time></trkpt>
<trkpt lat="47.72797700" lon="-2.77291500"><ele>104.400001512</ele><time>2008-05-04T09:37:22Z</time></trkpt>
<trkpt lat="47.72781300" lon="-2.77314800"><ele>103.4999999592</ele><time>2008-05-04T09:37:28Z</time></trkpt>
<trkpt lat="47.72770800" lon="-2.77328700"><ele>102.4999999272</ele><time>2008-05-04T09:37:32Z</time></trkpt>
<trkpt lat="47.72764800" lon="-2.77335300"><ele>101.9999999112</ele><time>2008-05-04T09:37:34Z</time></trkpt>
<trkpt lat="47.72754400" lon="-2.77345800"><ele>100.5999983424</ele><time>2008-05-04T09:37:37Z</time></trkpt>
<trkpt lat="47.72750200" lon="-2.77348600"><ele>100.0999983264</ele><time>2008-05-04T09:37:38Z</time></trkpt>
<trkpt lat="47.72731300" lon="-2.77360500"><ele>99.5999986152</ele><time>2008-05-04T09:37:42Z</time></trkpt>
<trkpt lat="47.72710500" lon="-2.77364300"><ele>99.5999986152</ele><time>2008-05-04T09:37:46Z</time></trkpt>
<trkpt lat="47.72709800" lon="-2.77373700"><ele>100.0999983264</ele><time>2008-05-04T09:37:49Z</time></trkpt>
<trkpt lat="47.72710100" lon="-2.77375700"><ele>100.0999983264</ele><time>2008-05-04T09:37:50Z</time></trkpt>
<trkpt lat="47.72710300" lon="-2.77387600"><ele>103.4999999592</ele><time>2008-05-04T09:37:55Z</time></trkpt>
<trkpt lat="47.72709600" lon="-2.77402100"><ele>105.90000156</ele><time>2008-05-04T09:38:00Z</time></trkpt>
<trkpt lat="47.72710600" lon="-2.77419500"><ele>108.3000031608</ele><time>2008-05-04T09:38:06Z</time></trkpt>
<trkpt lat="47.72713700" lon="-2.77441800"><ele>108.3000031608</ele><time>2008-05-04T09:38:12Z</time></trkpt>
<trkpt lat="47.72719900" lon="-2.77466500"><ele>108.3000031608</ele><time>2008-05-04T09:38:19Z</time></trkpt>
<trkpt lat="47.72728300" lon="-2.77484800"><ele>108.8000031768</ele><time>2008-05-04T09:38:24Z</time></trkpt>
<trkpt lat="47.72732900" lon="-2.77507500"><ele>108.8000031768</ele><time>2008-05-04T09:38:29Z</time></trkpt>
<trkpt lat="47.72737200" lon="-2.77528100"><ele>108.8000031768</ele><time>2008-05-04T09:38:33Z</time></trkpt>
<trkpt lat="47.72742400" lon="-2.77540400"><ele>108.3000031608</ele><time>2008-05-04T09:38:36Z</time></trkpt>
<trkpt lat="47.72744300" lon="-2.77568000"><ele>106.400001576</ele><time>2008-05-04T09:38:41Z</time></trkpt>
<trkpt lat="47.72749300" lon="-2.77575100"><ele>105.90000156</ele><time>2008-05-04T09:38:43Z</time></trkpt>
<trkpt lat="47.72770400" lon="-2.77592900"><ele>103.4999999592</ele><time>2008-05-04T09:38:49Z</time></trkpt>
<trkpt lat="47.72777200" lon="-2.77595300"><ele>102.9999999432</ele><time>2008-05-04T09:38:51Z</time></trkpt>
<trkpt lat="47.72791300" lon="-2.77593800"><ele>103.4999999592</ele><time>2008-05-04T09:38:57Z</time></trkpt>
<trkpt lat="47.72798000" lon="-2.77587900"><ele>104.900001528</ele><time>2008-05-04T09:39:01Z</time></trkpt>
<trkpt lat="47.72806500" lon="-2.77579400"><ele>105.90000156</ele><time>2008-05-04T09:39:06Z</time></trkpt>
<trkpt lat="47.72810000" lon="-2.77575900"><ele>105.90000156</ele><time>2008-05-04T09:39:09Z</time></trkpt>
<trkpt lat="47.72820600" lon="-2.77567000"><ele>103.4999999592</ele><time>2008-05-04T09:39:14Z</time></trkpt>
<trkpt lat="47.72822700" lon="-2.77564100"><ele>103.4999999592</ele><time>2008-05-04T09:39:15Z</time></trkpt>
<trkpt lat="47.72828300" lon="-2.77552400"><ele>103.4999999592</ele><time>2008-05-04T09:39:19Z</time></trkpt>
<trkpt lat="47.72831200" lon="-2.77547400"><ele>103.4999999592</ele><time>2008-05-04T09:39:21Z</time></trkpt>
<trkpt lat="47.72835900" lon="-2.77537200"><ele>104.400001512</ele><time>2008-05-04T09:39:26Z</time></trkpt>
<trkpt lat="47.72836700" lon="-2.77536300"><ele>104.400001512</ele><time>2008-05-04T09:39:27Z</time></trkpt>
<trkpt lat="47.72847900" lon="-2.77526500"><ele>101.9999999112</ele><time>2008-05-04T09:39:32Z</time></trkpt>
<trkpt lat="47.72857600" lon="-2.77515800"><ele>103.4999999592</ele><time>2008-05-04T09:39:40Z</time></trkpt>
<trkpt lat="47.72863600" lon="-2.77508100"><ele>104.400001512</ele><time>2008-05-04T09:39:46Z</time></trkpt>
<trkpt lat="47.72868000" lon="-2.77503800"><ele>104.900001528</ele><time>2008-05-04T09:39:52Z</time></trkpt>
<trkpt lat="47.72874500" lon="-2.77500200"><ele>104.900001528</ele><time>2008-05-04T09:39:58Z</time></trkpt>
<trkpt lat="47.72877700" lon="-2.77498400"><ele>105.400001544</ele><time>2008-05-04T09:40:01Z</time></trkpt>
<trkpt lat="47.72880300" lon="-2.77498000"><ele>105.400001544</ele><time>2008-05-04T09:40:05Z</time></trkpt>
<trkpt lat="47.72882700" lon="-2.77497200"><ele>105.400001544</ele><time>2008-05-04T09:40:06Z</time></trkpt>
<trkpt lat="47.72887400" lon="-2.77491300"><ele>106.8000031128</ele><time>2008-05-04T09:40:12Z</time></trkpt>
<trkpt lat="47.72888900" lon="-2.77486900"><ele>108.3000031608</ele><time>2008-05-04T09:40:16Z</time></trkpt>
<trkpt lat="47.72891500" lon="-2.77486500"><ele>108.3000031608</ele><time>2008-05-04T09:40:18Z</time></trkpt>
<trkpt lat="47.72893100" lon="-2.77486200"><ele>108.3000031608</ele><time>2008-05-04T09:40:21Z</time></trkpt>
<trkpt lat="47.72895000" lon="-2.77484300"><ele>108.3000031608</ele><time>2008-05-04T09:40:22Z</time></trkpt>
<trkpt lat="47.72902900" lon="-2.77480200"><ele>110.1999968208</ele><time>2008-05-04T09:40:26Z</time></trkpt>
<trkpt lat="47.72912000" lon="-2.77473300"><ele>110.6999968368</ele><time>2008-05-04T09:40:32Z</time></trkpt>
<trkpt lat="47.72918300" lon="-2.77466100"><ele>111.1999968528</ele><time>2008-05-04T09:40:37Z</time></trkpt>
<trkpt lat="47.72928200" lon="-2.77467700"><ele>109.1999970936</ele><time>2008-05-04T09:40:42Z</time></trkpt>
<trkpt lat="47.72937200" lon="-2.77462000"><ele>110.1999968208</ele><time>2008-05-04T09:40:46Z</time></trkpt>
<trkpt lat="47.72945900" lon="-2.77463600"><ele>109.1999970936</ele><time>2008-05-04T09:40:49Z</time></trkpt>
<trkpt lat="47.72948800" lon="-2.77463000"><ele>109.1999970936</ele><time>2008-05-04T09:40:50Z</time></trkpt>
<trkpt lat="47.72954900" lon="-2.77459900"><ele>109.6999968048</ele><time>2008-05-04T09:40:53Z</time></trkpt>
<trkpt lat="47.72959800" lon="-2.77470300"><ele>106.400001576</ele><time>2008-05-04T09:40:57Z</time></trkpt>
<trkpt lat="47.72964700" lon="-2.77479300"><ele>104.900001528</ele><time>2008-05-04T09:40:59Z</time></trkpt>
<trkpt lat="47.72971400" lon="-2.77480800"><ele>105.400001544</ele><time>2008-05-04T09:41:02Z</time></trkpt>
<trkpt lat="47.72990200" lon="-2.77474200"><ele>105.400001544</ele><time>2008-05-04T09:41:10Z</time></trkpt>
<trkpt lat="47.73007700" lon="-2.77476800"><ele>106.8000031128</ele><time>2008-05-04T09:41:17Z</time></trkpt>
<trkpt lat="47.73018900" lon="-2.77478100"><ele>108.3000031608</ele><time>2008-05-04T09:41:24Z</time></trkpt>
<trkpt lat="47.73030400" lon="-2.77473000"><ele>109.1999970936</ele><time>2008-05-04T09:41:31Z</time></trkpt>
<trkpt lat="47.73031400" lon="-2.77473000"><ele>109.1999970936</ele><time>2008-05-04T09:41:34Z</time></trkpt>
<trkpt lat="47.73032400" lon="-2.77474300"><ele>109.1999970936</ele><time>2008-05-04T09:41:35Z</time></trkpt>
<trkpt lat="47.73040700" lon="-2.77480200"><ele>108.3000031608</ele><time>2008-05-04T09:41:38Z</time></trkpt>
<trkpt lat="47.73048800" lon="-2.77480700"><ele>109.1999970936</ele><time>2008-05-04T09:41:42Z</time></trkpt>
<trkpt lat="47.73060600" lon="-2.77478200"><ele>109.6999968048</ele><time>2008-05-04T09:41:49Z</time></trkpt>
<trkpt lat="47.73066300" lon="-2.77479700"><ele>111.1999968528</ele><time>2008-05-04T09:41:54Z</time></trkpt>
<trkpt lat="47.73067800" lon="-2.77481000"><ele>111.1999968528</ele><time>2008-05-04T09:41:56Z</time></trkpt>
<trkpt lat="47.73069200" lon="-2.77480800"><ele>111.1999968528</ele><time>2008-05-04T09:41:59Z</time></trkpt>
<trkpt lat="47.73071400" lon="-2.77481100"><ele>111.1999968528</ele><time>2008-05-04T09:42:00Z</time></trkpt>
<trkpt lat="47.73075300" lon="-2.77485000"><ele>113.5999984536</ele><time>2008-05-04T09:42:03Z</time></trkpt>
<trkpt lat="47.73076300" lon="-2.77486400"><ele>113.5999984536</ele><time>2008-05-04T09:42:06Z</time></trkpt>
<trkpt lat="47.73077200" lon="-2.77487900"><ele>113.5999984536</ele><time>2008-05-04T09:42:07Z</time></trkpt>
<trkpt lat="47.73080600" lon="-2.77490600"><ele>114.5000000064</ele><time>2008-05-04T09:42:08Z</time></trkpt>
<trkpt lat="47.73087000" lon="-2.77488600"><ele>115.5000000384</ele><time>2008-05-04T09:42:15Z</time></trkpt>
<trkpt lat="47.73093700" lon="-2.77487600"><ele>116.9000016072</ele><time>2008-05-04T09:42:21Z</time></trkpt>
<trkpt lat="47.73100800" lon="-2.77487800"><ele>118.9000016712</ele><time>2008-05-04T09:42:28Z</time></trkpt>
<trkpt lat="47.73102000" lon="-2.77488100"><ele>118.9000016712</ele><time>2008-05-04T09:42:31Z</time></trkpt>
<trkpt lat="47.73104100" lon="-2.77488900"><ele>118.9000016712</ele><time>2008-05-04T09:42:32Z</time></trkpt>
<trkpt lat="47.73105800" lon="-2.77488600"><ele>118.9000016712</ele><time>2008-05-04T09:42:35Z</time></trkpt>
<trkpt lat="47.73108800" lon="-2.77487700"><ele>119.3000029032</ele><time>2008-05-04T09:42:36Z</time></trkpt>
<trkpt lat="47.73116200" lon="-2.77484800"><ele>120.8000029512</ele><time>2008-05-04T09:42:42Z</time></trkpt>
<trkpt lat="47.73116800" lon="-2.77484600"><ele>120.8000029512</ele><time>2008-05-04T09:42:45Z</time></trkpt>
<trkpt lat="47.73120700" lon="-2.77482600"><ele>121.3000029672</ele><time>2008-05-04T09:42:49Z</time></trkpt>
<trkpt lat="47.73130000" lon="-2.77487300"><ele>122.1999969</ele><time>2008-05-04T09:42:57Z</time></trkpt>
<trkpt lat="47.73138100" lon="-2.77492800"><ele>123.199996932</ele><time>2008-05-04T09:43:02Z</time></trkpt>
<trkpt lat="47.73144800" lon="-2.77497000"><ele>123.699996948</ele><time>2008-05-04T09:43:08Z</time></trkpt>
<trkpt lat="47.73149900" lon="-2.77500200"><ele>124.5999985008</ele><time>2008-05-04T09:43:12Z</time></trkpt>
<trkpt lat="47.73148600" lon="-2.77510900"><ele>125.0999985168</ele><time>2008-05-04T09:43:18Z</time></trkpt>
<trkpt lat="47.73145400" lon="-2.77517100"><ele>125.0999985168</ele><time>2008-05-04T09:43:22Z</time></trkpt>
<trkpt lat="47.73143400" lon="-2.77529200"><ele>125.0999985168</ele><time>2008-05-04T09:43:28Z</time></trkpt>
<trkpt lat="47.73143000" lon="-2.77536500"><ele>125.0999985168</ele><time>2008-05-04T09:43:31Z</time></trkpt>
<trkpt lat="47.73141800" lon="-2.77555500"><ele>125.0999985168</ele><time>2008-05-04T09:43:38Z</time></trkpt>
<trkpt lat="47.73141600" lon="-2.77572100"><ele>125.0999985168</ele><time>2008-05-04T09:43:43Z</time></trkpt>
<trkpt lat="47.73139600" lon="-2.77588500"><ele>125.5999985328</ele><time>2008-05-04T09:43:47Z</time></trkpt>
<trkpt lat="47.73136600" lon="-2.77612400"><ele>125.5999985328</ele><time>2008-05-04T09:43:52Z</time></trkpt>
<trkpt lat="47.73133800" lon="-2.77638900"><ele>126.0999985488</ele><time>2008-05-04T09:43:58Z</time></trkpt>
<trkpt lat="47.73135800" lon="-2.77657700"><ele>126.0999985488</ele><time>2008-05-04T09:44:03Z</time></trkpt>
<trkpt lat="47.73137400" lon="-2.77664200"><ele>126.5999985648</ele><time>2008-05-04T09:44:05Z</time></trkpt>
<trkpt lat="47.73144100" lon="-2.77689100"><ele>126.0999985488</ele><time>2008-05-04T09:44:11Z</time></trkpt>
<trkpt lat="47.73154200" lon="-2.77707700"><ele>126.5999985648</ele><time>2008-05-04T09:44:16Z</time></trkpt>
<trkpt lat="47.73162600" lon="-2.77731800"><ele>126.5999985648</ele><time>2008-05-04T09:44:21Z</time></trkpt>
<trkpt lat="47.73164500" lon="-2.77753500"><ele>126.5999985648</ele><time>2008-05-04T09:44:25Z</time></trkpt>
<trkpt lat="47.73166000" lon="-2.77782700"><ele>126.5999985648</ele><time>2008-05-04T09:44:30Z</time></trkpt>
<trkpt lat="47.73166200" lon="-2.77788900"><ele>126.5999985648</ele><time>2008-05-04T09:44:32Z</time></trkpt>
<trkpt lat="47.73150400" lon="-2.77805700"><ele>126.5999985648</ele><time>2008-05-04T09:44:40Z</time></trkpt>
<trkpt lat="47.73133300" lon="-2.77815600"><ele>126.0999985488</ele><time>2008-05-04T09:44:46Z</time></trkpt>
<trkpt lat="47.73115700" lon="-2.77825700"><ele>125.5999985328</ele><time>2008-05-04T09:44:52Z</time></trkpt>
<trkpt lat="47.73105200" lon="-2.77837600"><ele>125.0999985168</ele><time>2008-05-04T09:44:56Z</time></trkpt>
<trkpt lat="47.73091300" lon="-2.77849700"><ele>123.699996948</ele><time>2008-05-04T09:45:01Z</time></trkpt>
<trkpt lat="47.73081200" lon="-2.77863300"><ele>123.199996932</ele><time>2008-05-04T09:45:05Z</time></trkpt>
<trkpt lat="47.73083300" lon="-2.77886600"><ele>122.1999969</ele><time>2008-05-04T09:45:10Z</time></trkpt>
<trkpt lat="47.73094700" lon="-2.77924700"><ele>121.699996884</ele><time>2008-05-04T09:45:18Z</time></trkpt>
<trkpt lat="47.73100000" lon="-2.77944200"><ele>121.699996884</ele><time>2008-05-04T09:45:23Z</time></trkpt>
<trkpt lat="47.73107700" lon="-2.77957000"><ele>121.3000029672</ele><time>2008-05-04T09:45:27Z</time></trkpt>
<trkpt lat="47.73110400" lon="-2.77969400"><ele>120.3000029352</ele><time>2008-05-04T09:45:30Z</time></trkpt>
<trkpt lat="47.73107200" lon="-2.77978700"><ele>119.3000029032</ele><time>2008-05-04T09:45:32Z</time></trkpt>
<trkpt lat="47.73093200" lon="-2.78013300"><ele>115.0000000224</ele><time>2008-05-04T09:45:37Z</time></trkpt>
<trkpt lat="47.73087700" lon="-2.78028000"><ele>114.0999984696</ele><time>2008-05-04T09:45:39Z</time></trkpt>
<trkpt lat="47.73080400" lon="-2.78047400"><ele>113.5999984536</ele><time>2008-05-04T09:45:43Z</time></trkpt>
<trkpt lat="47.73078400" lon="-2.78053500"><ele>113.0999984376</ele><time>2008-05-04T09:45:45Z</time></trkpt>
<trkpt lat="47.73084300" lon="-2.78057700"><ele>113.0999984376</ele><time>2008-05-04T09:45:49Z</time></trkpt>
<trkpt lat="47.73086100" lon="-2.78055400"><ele>113.0999984376</ele><time>2008-05-04T09:45:50Z</time></trkpt>
<trkpt lat="47.73098200" lon="-2.78037500"><ele>114.5000000064</ele><time>2008-05-04T09:45:56Z</time></trkpt>
<trkpt lat="47.73107200" lon="-2.78025500"><ele>115.5000000384</ele><time>2008-05-04T09:46:00Z</time></trkpt>
<trkpt lat="47.73116400" lon="-2.78014300"><ele>116.5000000704</ele><time>2008-05-04T09:46:04Z</time></trkpt>
<trkpt lat="47.73129000" lon="-2.77999800"><ele>117.9000016392</ele><time>2008-05-04T09:46:10Z</time></trkpt>
<trkpt lat="47.73142900" lon="-2.77985700"><ele>119.8000029192</ele><time>2008-05-04T09:46:17Z</time></trkpt>
<trkpt lat="47.73144900" lon="-2.77983300"><ele>119.8000029192</ele><time>2008-05-04T09:46:18Z</time></trkpt>
<trkpt lat="47.73161000" lon="-2.77967400"><ele>120.8000029512</ele><time>2008-05-04T09:46:25Z</time></trkpt>
<trkpt lat="47.73175700" lon="-2.77941600"><ele>121.699996884</ele><time>2008-05-04T09:46:33Z</time></trkpt>
<trkpt lat="47.73189500" lon="-2.77919100"><ele>123.699996948</ele><time>2008-05-04T09:46:41Z</time></trkpt>
<trkpt lat="47.73204800" lon="-2.77898600"><ele>124.5999985008</ele><time>2008-05-04T09:46:49Z</time></trkpt>
<trkpt lat="47.73219500" lon="-2.77894200"><ele>125.0999985168</ele><time>2008-05-04T09:46:55Z</time></trkpt>
<trkpt lat="47.73236100" lon="-2.77899100"><ele>125.0999985168</ele><time>2008-05-04T09:47:00Z</time></trkpt>
<trkpt lat="47.73247800" lon="-2.77899100"><ele>125.5999985328</ele><time>2008-05-04T09:47:04Z</time></trkpt>
<trkpt lat="47.73269700" lon="-2.77892300"><ele>125.5999985328</ele><time>2008-05-04T09:47:12Z</time></trkpt>
<trkpt lat="47.73292600" lon="-2.77883100"><ele>126.5999985648</ele><time>2008-05-04T09:47:20Z</time></trkpt>
<trkpt lat="47.73307000" lon="-2.77875400"><ele>127.0000001016</ele><time>2008-05-04T09:47:26Z</time></trkpt>
<trkpt lat="47.73318500" lon="-2.77867800"><ele>127.5000001176</ele><time>2008-05-04T09:47:32Z</time></trkpt>
<trkpt lat="47.73336700" lon="-2.77857800"><ele>128.5000001496</ele><time>2008-05-04T09:47:39Z</time></trkpt>
<trkpt lat="47.73352600" lon="-2.77849700"><ele>128.5000001496</ele><time>2008-05-04T09:47:44Z</time></trkpt>
<trkpt lat="47.73358900" lon="-2.77847000"><ele>128.5000001496</ele><time>2008-05-04T09:47:46Z</time></trkpt>
<trkpt lat="47.73368400" lon="-2.77856400"><ele>128.5000001496</ele><time>2008-05-04T09:47:50Z</time></trkpt>
<trkpt lat="47.73369800" lon="-2.77860400"><ele>128.5000001496</ele><time>2008-05-04T09:47:51Z</time></trkpt>
<trkpt lat="47.73379300" lon="-2.77886400"><ele>128.0000001336</ele><time>2008-05-04T09:47:58Z</time></trkpt>
<trkpt lat="47.73389800" lon="-2.77908500"><ele>128.0000001336</ele><time>2008-05-04T09:48:04Z</time></trkpt>
<trkpt lat="47.73406900" lon="-2.77943600"><ele>128.5000001496</ele><time>2008-05-04T09:48:12Z</time></trkpt>
<trkpt lat="47.73413400" lon="-2.77968100"><ele>127.5000001176</ele><time>2008-05-04T09:48:18Z</time></trkpt>
<trkpt lat="47.73413600" lon="-2.77971100"><ele>127.5000001176</ele><time>2008-05-04T09:48:19Z</time></trkpt>
<trkpt lat="47.73420000" lon="-2.77986500"><ele>127.5000001176</ele><time>2008-05-04T09:48:23Z</time></trkpt>
<trkpt lat="47.73434300" lon="-2.78009500"><ele>127.5000001176</ele><time>2008-05-04T09:48:28Z</time></trkpt>
<trkpt lat="47.73451000" lon="-2.78030400"><ele>127.5000001176</ele><time>2008-05-04T09:48:34Z</time></trkpt>
<trkpt lat="47.73464200" lon="-2.78052000"><ele>127.0000001016</ele><time>2008-05-04T09:48:39Z</time></trkpt>
<trkpt lat="47.73476700" lon="-2.78067800"><ele>127.0000001016</ele><time>2008-05-04T09:48:43Z</time></trkpt>
<trkpt lat="47.73498000" lon="-2.78088700"><ele>126.5999985648</ele><time>2008-05-04T09:48:48Z</time></trkpt>
<trkpt lat="47.73520300" lon="-2.78103500"><ele>124.5999985008</ele><time>2008-05-04T09:48:53Z</time></trkpt>
<trkpt lat="47.73536300" lon="-2.78115000"><ele>124.5999985008</ele><time>2008-05-04T09:48:56Z</time></trkpt>
<trkpt lat="47.73544300" lon="-2.78124400"><ele>124.0999984848</ele><time>2008-05-04T09:48:58Z</time></trkpt>
<trkpt lat="47.73543300" lon="-2.78151300"><ele>123.199996932</ele><time>2008-05-04T09:49:02Z</time></trkpt>
<trkpt lat="47.73549500" lon="-2.78185400"><ele>122.1999969</ele><time>2008-05-04T09:49:07Z</time></trkpt>
<trkpt lat="47.73557300" lon="-2.78220600"><ele>124.0999984848</ele><time>2008-05-04T09:49:13Z</time></trkpt>
<trkpt lat="47.73562000" lon="-2.78245600"><ele>125.5999985328</ele><time>2008-05-04T09:49:17Z</time></trkpt>
<trkpt lat="47.73564700" lon="-2.78266500"><ele>125.5999985328</ele><time>2008-05-04T09:49:21Z</time></trkpt>
<trkpt lat="47.73569700" lon="-2.78289100"><ele>126.0999985488</ele><time>2008-05-04T09:49:26Z</time></trkpt>
<trkpt lat="47.73576100" lon="-2.78318800"><ele>126.5999985648</ele><time>2008-05-04T09:49:32Z</time></trkpt>
<trkpt lat="47.73582900" lon="-2.78342600"><ele>127.0000001016</ele><time>2008-05-04T09:49:37Z</time></trkpt>
<trkpt lat="47.73583100" lon="-2.78362400"><ele>126.5999985648</ele><time>2008-05-04T09:49:41Z</time></trkpt>
<trkpt lat="47.73570700" lon="-2.78388500"><ele>126.0999985488</ele><time>2008-05-04T09:49:46Z</time></trkpt>
<trkpt lat="47.73559100" lon="-2.78413800"><ele>125.5999985328</ele><time>2008-05-04T09:49:51Z</time></trkpt>
<trkpt lat="47.73561400" lon="-2.78444000"><ele>126.0999985488</ele><time>2008-05-04T09:49:56Z</time></trkpt>
<trkpt lat="47.73562700" lon="-2.78449600"><ele>126.5999985648</ele><time>2008-05-04T09:49:57Z</time></trkpt>
<trkpt lat="47.73569900" lon="-2.78481500"><ele>126.5999985648</ele><time>2008-05-04T09:50:03Z</time></trkpt>
<trkpt lat="47.73572700" lon="-2.78506500"><ele>127.5000001176</ele><time>2008-05-04T09:50:08Z</time></trkpt>
<trkpt lat="47.73576500" lon="-2.78531600"><ele>127.5000001176</ele><time>2008-05-04T09:50:13Z</time></trkpt>
<trkpt lat="47.73578800" lon="-2.78557600"><ele>127.5000001176</ele><time>2008-05-04T09:50:19Z</time></trkpt>
<trkpt lat="47.73585200" lon="-2.78585700"><ele>128.0000001336</ele><time>2008-05-04T09:50:25Z</time></trkpt>
<trkpt lat="47.73591600" lon="-2.78625700"><ele>128.0000001336</ele><time>2008-05-04T09:50:32Z</time></trkpt>
<trkpt lat="47.73589300" lon="-2.78645900"><ele>128.5000001496</ele><time>2008-05-04T09:50:36Z</time></trkpt>
<trkpt lat="47.73589700" lon="-2.78673400"><ele>128.5000001496</ele><time>2008-05-04T09:50:40Z</time></trkpt>
<trkpt lat="47.73593300" lon="-2.78705300"><ele>128.5000001496</ele><time>2008-05-04T09:50:45Z</time></trkpt>
<trkpt lat="47.73593600" lon="-2.78731100"><ele>128.5000001496</ele><time>2008-05-04T09:50:50Z</time></trkpt>
<trkpt lat="47.73593200" lon="-2.78757800"><ele>128.5000001496</ele><time>2008-05-04T09:50:55Z</time></trkpt>
<trkpt lat="47.73591700" lon="-2.78797000"><ele>128.0000001336</ele><time>2008-05-04T09:51:01Z</time></trkpt>
<trkpt lat="47.73588400" lon="-2.78815300"><ele>128.9999998608</ele><time>2008-05-04T09:51:04Z</time></trkpt>
<trkpt lat="47.73590100" lon="-2.78824200"><ele>128.5000001496</ele><time>2008-05-04T09:51:08Z</time></trkpt>
<trkpt lat="47.73591800" lon="-2.78825700"><ele>128.5000001496</ele><time>2008-05-04T09:51:10Z</time></trkpt>
<trkpt lat="47.73600000" lon="-2.78833900"><ele>128.5000001496</ele><time>2008-05-04T09:51:15Z</time></trkpt>
<trkpt lat="47.73602100" lon="-2.78837900"><ele>128.9999998608</ele><time>2008-05-04T09:51:18Z</time></trkpt>
<trkpt lat="47.73602800" lon="-2.78844500"><ele>128.0000001336</ele><time>2008-05-04T09:52:27Z</time></trkpt>
<trkpt lat="47.73602900" lon="-2.78845500"><ele>128.0000001336</ele><time>2008-05-04T09:52:28Z</time></trkpt>
<trkpt lat="47.73599900" lon="-2.78861500"><ele>128.0000001336</ele><time>2008-05-04T09:52:33Z</time></trkpt>
<trkpt lat="47.73596300" lon="-2.78880100"><ele>127.5000001176</ele><time>2008-05-04T09:52:38Z</time></trkpt>
<trkpt lat="47.73590400" lon="-2.78908700"><ele>127.0000001016</ele><time>2008-05-04T09:52:44Z</time></trkpt>
<trkpt lat="47.73585700" lon="-2.78935100"><ele>127.0000001016</ele><time>2008-05-04T09:52:49Z</time></trkpt>
<trkpt lat="47.73582800" lon="-2.78969800"><ele>127.5000001176</ele><time>2008-05-04T09:52:55Z</time></trkpt>
<trkpt lat="47.73585200" lon="-2.79000000"><ele>127.5000001176</ele><time>2008-05-04T09:53:00Z</time></trkpt>
<trkpt lat="47.73590600" lon="-2.79029600"><ele>128.0000001336</ele><time>2008-05-04T09:53:06Z</time></trkpt>
<trkpt lat="47.73595900" lon="-2.79052000"><ele>128.5000001496</ele><time>2008-05-04T09:53:11Z</time></trkpt>
<trkpt lat="47.73603800" lon="-2.79081900"><ele>128.5000001496</ele><time>2008-05-04T09:53:17Z</time></trkpt>
<trkpt lat="47.73612300" lon="-2.79108100"><ele>128.5000001496</ele><time>2008-05-04T09:53:22Z</time></trkpt>
<trkpt lat="47.73626200" lon="-2.79147800"><ele>128.5000001496</ele><time>2008-05-04T09:53:28Z</time></trkpt>
<trkpt lat="47.73640200" lon="-2.79186500"><ele>128.5000001496</ele><time>2008-05-04T09:53:34Z</time></trkpt>
<trkpt lat="47.73649200" lon="-2.79214200"><ele>128.5000001496</ele><time>2008-05-04T09:53:38Z</time></trkpt>
<trkpt lat="47.73663100" lon="-2.79261300"><ele>127.5000001176</ele><time>2008-05-04T09:53:45Z</time></trkpt>
<trkpt lat="47.73664900" lon="-2.79268100"><ele>127.5000001176</ele><time>2008-05-04T09:53:46Z</time></trkpt>
<trkpt lat="47.73671100" lon="-2.79303300"><ele>127.5000001176</ele><time>2008-05-04T09:53:51Z</time></trkpt>
<trkpt lat="47.73671800" lon="-2.79310600"><ele>127.0000001016</ele><time>2008-05-04T09:53:52Z</time></trkpt>
<trkpt lat="47.73673900" lon="-2.79333200"><ele>126.0999985488</ele><time>2008-05-04T09:53:55Z</time></trkpt>
<trkpt lat="47.73667900" lon="-2.79366300"><ele>125.0999985168</ele><time>2008-05-04T09:53:59Z</time></trkpt>
<trkpt lat="47.73664400" lon="-2.79374100"><ele>124.5999985008</ele><time>2008-05-04T09:54:00Z</time></trkpt>
<trkpt lat="47.73644500" lon="-2.79412500"><ele>124.0999984848</ele><time>2008-05-04T09:54:05Z</time></trkpt>
<trkpt lat="47.73633700" lon="-2.79438600"><ele>123.199996932</ele><time>2008-05-04T09:54:08Z</time></trkpt>
<trkpt lat="47.73627200" lon="-2.79471200"><ele>121.699996884</ele><time>2008-05-04T09:54:11Z</time></trkpt>
<trkpt lat="47.73622900" lon="-2.79507000"><ele>119.8000029192</ele><time>2008-05-04T09:54:14Z</time></trkpt>
<trkpt lat="47.73615700" lon="-2.79572900"><ele>116.9000016072</ele><time>2008-05-04T09:54:19Z</time></trkpt>
<trkpt lat="47.73606600" lon="-2.79628300"><ele>114.0999984696</ele><time>2008-05-04T09:54:23Z</time></trkpt>
<trkpt lat="47.73596000" lon="-2.79725400"><ele>112.0999984056</ele><time>2008-05-04T09:54:30Z</time></trkpt>
<trkpt lat="47.73586900" lon="-2.79811000"><ele>110.1999968208</ele><time>2008-05-04T09:54:37Z</time></trkpt>
<trkpt lat="47.73580100" lon="-2.79857900"><ele>108.3000031608</ele><time>2008-05-04T09:54:41Z</time></trkpt>
<trkpt lat="47.73576000" lon="-2.79882200"><ele>106.400001576</ele><time>2008-05-04T09:54:43Z</time></trkpt>
<trkpt lat="47.73569400" lon="-2.79908400"><ele>104.400001512</ele><time>2008-05-04T09:54:45Z</time></trkpt>
<trkpt lat="47.73536100" lon="-2.79959200"><ele>101.5999983744</ele><time>2008-05-04T09:54:50Z</time></trkpt>
<trkpt lat="47.73510900" lon="-2.79986600"><ele>101.5999983744</ele><time>2008-05-04T09:54:54Z</time></trkpt>
<trkpt lat="47.73497000" lon="-2.79985600"><ele>100.5999983424</ele><time>2008-05-04T09:54:58Z</time></trkpt>
<trkpt lat="47.73484100" lon="-2.79977600"><ele>100.5999983424</ele><time>2008-05-04T09:55:02Z</time></trkpt>
<trkpt lat="47.73467900" lon="-2.79980300"><ele>100.5999983424</ele><time>2008-05-04T09:55:06Z</time></trkpt>
<trkpt lat="47.73456800" lon="-2.79993900"><ele>101.0999983584</ele><time>2008-05-04T09:55:10Z</time></trkpt>
<trkpt lat="47.73448700" lon="-2.80002600"><ele>102.9999999432</ele><time>2008-05-04T09:55:14Z</time></trkpt>
<trkpt lat="47.73439300" lon="-2.80012000"><ele>103.9999999752</ele><time>2008-05-04T09:55:18Z</time></trkpt>
<trkpt lat="47.73430200" lon="-2.80023500"><ele>105.90000156</ele><time>2008-05-04T09:55:22Z</time></trkpt>
<trkpt lat="47.73426900" lon="-2.80031900"><ele>106.8000031128</ele><time>2008-05-04T09:55:24Z</time></trkpt>
<trkpt lat="47.73428700" lon="-2.80070700"><ele>105.90000156</ele><time>2008-05-04T09:55:30Z</time></trkpt>
<trkpt lat="47.73437200" lon="-2.80126200"><ele>104.400001512</ele><time>2008-05-04T09:55:38Z</time></trkpt>
<trkpt lat="47.73443800" lon="-2.80167700"><ele>104.400001512</ele><time>2008-05-04T09:55:44Z</time></trkpt>
<trkpt lat="47.73445700" lon="-2.80180200"><ele>103.9999999752</ele><time>2008-05-04T09:55:46Z</time></trkpt>
<trkpt lat="47.73441200" lon="-2.80204700"><ele>104.900001528</ele><time>2008-05-04T09:55:50Z</time></trkpt>
<trkpt lat="47.73433000" lon="-2.80212900"><ele>105.90000156</ele><time>2008-05-04T09:55:52Z</time></trkpt>
<trkpt lat="47.73417000" lon="-2.80222500"><ele>106.8000031128</ele><time>2008-05-04T09:55:56Z</time></trkpt>
<trkpt lat="47.73414300" lon="-2.80244700"><ele>105.90000156</ele><time>2008-05-04T09:56:00Z</time></trkpt>
<trkpt lat="47.73423200" lon="-2.80294600"><ele>105.90000156</ele><time>2008-05-04T09:56:08Z</time></trkpt>
<trkpt lat="47.73439700" lon="-2.80337900"><ele>105.400001544</ele><time>2008-05-04T09:56:16Z</time></trkpt>
<trkpt lat="47.73449100" lon="-2.80365500"><ele>105.400001544</ele><time>2008-05-04T09:56:21Z</time></trkpt>
<trkpt lat="47.73451600" lon="-2.80391200"><ele>104.900001528</ele><time>2008-05-04T09:56:25Z</time></trkpt>
<trkpt lat="47.73450300" lon="-2.80422700"><ele>104.900001528</ele><time>2008-05-04T09:56:30Z</time></trkpt>
<trkpt lat="47.73459200" lon="-2.80437300"><ele>104.900001528</ele><time>2008-05-04T09:56:34Z</time></trkpt>
<trkpt lat="47.73473900" lon="-2.80444300"><ele>103.9999999752</ele><time>2008-05-04T09:56:38Z</time></trkpt>
<trkpt lat="47.73492100" lon="-2.80432800"><ele>102.4999999272</ele><time>2008-05-04T09:56:43Z</time></trkpt>
<trkpt lat="47.73508900" lon="-2.80440900"><ele>99.5999986152</ele><time>2008-05-04T09:56:47Z</time></trkpt>
<trkpt lat="47.73511200" lon="-2.80457700"><ele>98.1999970464</ele><time>2008-05-04T09:56:49Z</time></trkpt>
<trkpt lat="47.73515800" lon="-2.80494500"><ele>95.8000030656</ele><time>2008-05-04T09:56:53Z</time></trkpt>
<trkpt lat="47.73529600" lon="-2.80518600"><ele>93.4000014648</ele><time>2008-05-04T09:56:56Z</time></trkpt>
<trkpt lat="47.73547500" lon="-2.80539800"><ele>91.49999988</ele><time>2008-05-04T09:57:00Z</time></trkpt>
<trkpt lat="47.73550400" lon="-2.80545900"><ele>92.4000014328</ele><time>2008-05-04T09:57:01Z</time></trkpt>
<trkpt lat="47.73558200" lon="-2.80577400"><ele>90.999999864</ele><time>2008-05-04T09:57:05Z</time></trkpt>
<trkpt lat="47.73566500" lon="-2.80603800"><ele>90.499999848</ele><time>2008-05-04T09:57:08Z</time></trkpt>
<trkpt lat="47.73573800" lon="-2.80646000"><ele>89.5000001208</ele><time>2008-05-04T09:57:12Z</time></trkpt>
<trkpt lat="47.73573500" lon="-2.80655100"><ele>88.599998568</ele><time>2008-05-04T09:57:13Z</time></trkpt>
<trkpt lat="47.73573700" lon="-2.80669600"><ele>88.599998568</ele><time>2008-05-04T09:57:15Z</time></trkpt>
<trkpt lat="47.73580600" lon="-2.80669200"><ele>88.599998568</ele><time>2008-05-04T09:57:19Z</time></trkpt>
<trkpt lat="47.73586900" lon="-2.80667600"><ele>88.599998568</ele><time>2008-05-04T09:57:25Z</time></trkpt>
<trkpt lat="47.73593300" lon="-2.80661700"><ele>90.0000001368</ele><time>2008-05-04T09:57:33Z</time></trkpt>
<trkpt lat="47.73594600" lon="-2.80661400"><ele>90.0000001368</ele><time>2008-05-04T09:57:41Z</time></trkpt>
<trkpt lat="47.73596500" lon="-2.80660400"><ele>90.0000001368</ele><time>2008-05-04T09:57:44Z</time></trkpt>
<trkpt lat="47.73597000" lon="-2.80659400"><ele>90.0000001368</ele><time>2008-05-04T09:57:47Z</time></trkpt>
<trkpt lat="47.73600800" lon="-2.80654600"><ele>94.3000030176</ele><time>2008-05-04T09:57:51Z</time></trkpt>
<trkpt lat="47.73603500" lon="-2.80647600"><ele>94.3000030176</ele><time>2008-05-04T09:57:55Z</time></trkpt>
<trkpt lat="47.73605800" lon="-2.80633300"><ele>94.3000030176</ele><time>2008-05-04T09:58:03Z</time></trkpt>
<trkpt lat="47.73610300" lon="-2.80629500"><ele>95.8000030656</ele><time>2008-05-04T09:58:10Z</time></trkpt>
<trkpt lat="47.73617300" lon="-2.80628800"><ele>98.6999970624</ele><time>2008-05-04T09:58:18Z</time></trkpt>
<trkpt lat="47.73626000" lon="-2.80625800"><ele>99.5999986152</ele><time>2008-05-04T09:58:27Z</time></trkpt>
<trkpt lat="47.73630800" lon="-2.80622200"><ele>100.0999983264</ele><time>2008-05-04T09:58:33Z</time></trkpt>
<trkpt lat="47.73633300" lon="-2.80622600"><ele>100.0999983264</ele><time>2008-05-04T09:58:37Z</time></trkpt>
<trkpt lat="47.73634500" lon="-2.80623500"><ele>100.0999983264</ele><time>2008-05-04T09:58:50Z</time></trkpt>
<trkpt lat="47.73637700" lon="-2.80628000"><ele>99.5999986152</ele><time>2008-05-04T09:58:53Z</time></trkpt>
<trkpt lat="47.73645700" lon="-2.80632500"><ele>99.5999986152</ele><time>2008-05-04T09:58:58Z</time></trkpt>
<trkpt lat="47.73662900" lon="-2.80638800"><ele>99.5999986152</ele><time>2008-05-04T09:59:05Z</time></trkpt>
<trkpt lat="47.73682800" lon="-2.80655500"><ele>100.0999983264</ele><time>2008-05-04T09:59:11Z</time></trkpt>
<trkpt lat="47.73703200" lon="-2.80687800"><ele>99.5999986152</ele><time>2008-05-04T09:59:17Z</time></trkpt>
<trkpt lat="47.73717300" lon="-2.80711500"><ele>98.1999970464</ele><time>2008-05-04T09:59:20Z</time></trkpt>
<trkpt lat="47.73729400" lon="-2.80729600"><ele>96.3000030816</ele><time>2008-05-04T09:59:22Z</time></trkpt>
<trkpt lat="47.73748000" lon="-2.80786600"><ele>92.4000014328</ele><time>2008-05-04T09:59:27Z</time></trkpt>
<trkpt lat="47.73738300" lon="-2.80809000"><ele>93.4000014648</ele><time>2008-05-04T09:59:29Z</time></trkpt>
<trkpt lat="47.73732500" lon="-2.80819300"><ele>93.9000014808</ele><time>2008-05-04T09:59:30Z</time></trkpt>
<trkpt lat="47.73723900" lon="-2.80836500"><ele>95.8000030656</ele><time>2008-05-04T09:59:32Z</time></trkpt>
<trkpt lat="47.73709600" lon="-2.80865200"><ele>98.1999970464</ele><time>2008-05-04T09:59:37Z</time></trkpt>
<trkpt lat="47.73690700" lon="-2.80892500"><ele>99.1999970784</ele><time>2008-05-04T09:59:43Z</time></trkpt>
<trkpt lat="47.73682600" lon="-2.80893300"><ele>100.0999983264</ele><time>2008-05-04T09:59:45Z</time></trkpt>
<trkpt lat="47.73652400" lon="-2.80889000"><ele>101.5999983744</ele><time>2008-05-04T09:59:52Z</time></trkpt>
<trkpt lat="47.73613100" lon="-2.80881800"><ele>102.4999999272</ele><time>2008-05-04T10:00:01Z</time></trkpt>
<trkpt lat="47.73608600" lon="-2.80882000"><ele>102.4999999272</ele><time>2008-05-04T10:00:02Z</time></trkpt>
<trkpt lat="47.73582800" lon="-2.80893100"><ele>102.9999999432</ele><time>2008-05-04T10:00:09Z</time></trkpt>
<trkpt lat="47.73574900" lon="-2.80900900"><ele>102.9999999432</ele><time>2008-05-04T10:00:14Z</time></trkpt>
<trkpt lat="47.73568000" lon="-2.80909200"><ele>102.9999999432</ele><time>2008-05-04T10:00:20Z</time></trkpt>
<trkpt lat="47.73562100" lon="-2.80904800"><ele>102.4999999272</ele><time>2008-05-04T10:00:25Z</time></trkpt>
<trkpt lat="47.73558200" lon="-2.80900200"><ele>102.4999999272</ele><time>2008-05-04T10:00:28Z</time></trkpt>
<trkpt lat="47.73559100" lon="-2.80888200"><ele>101.9999999112</ele><time>2008-05-04T10:00:32Z</time></trkpt>
<trkpt lat="47.73561600" lon="-2.80883400"><ele>101.5999983744</ele><time>2008-05-04T10:00:34Z</time></trkpt>
<trkpt lat="47.73562500" lon="-2.80870300"><ele>101.9999999112</ele><time>2008-05-04T10:00:41Z</time></trkpt>
<trkpt lat="47.73562300" lon="-2.80868800"><ele>101.9999999112</ele><time>2008-05-04T10:00:44Z</time></trkpt>
<trkpt lat="47.73563200" lon="-2.80869100"><ele>101.9999999112</ele><time>2008-05-04T10:00:52Z</time></trkpt>
<trkpt lat="47.73562600" lon="-2.80868600"><ele>101.9999999112</ele><time>2008-05-04T10:00:53Z</time></trkpt>
<trkpt lat="47.73560100" lon="-2.80861300"><ele>101.5999983744</ele><time>2008-05-04T10:00:56Z</time></trkpt>
<trkpt lat="47.73560400" lon="-2.80841900"><ele>101.0999983584</ele><time>2008-05-04T10:01:01Z</time></trkpt>
<trkpt lat="47.73563900" lon="-2.80834300"><ele>100.5999983424</ele><time>2008-05-04T10:01:03Z</time></trkpt>
<trkpt lat="47.73565100" lon="-2.80822600"><ele>99.1999970784</ele><time>2008-05-04T10:01:07Z</time></trkpt>
<trkpt lat="47.73565700" lon="-2.80816800"><ele>98.1999970464</ele><time>2008-05-04T10:01:09Z</time></trkpt>
<trkpt lat="47.73564800" lon="-2.80806500"><ele>96.3000030816</ele><time>2008-05-04T10:01:14Z</time></trkpt>
<trkpt lat="47.73561600" lon="-2.80797000"><ele>93.4000014648</ele><time>2008-05-04T10:01:17Z</time></trkpt>
<trkpt lat="47.73559600" lon="-2.80786800"><ele>90.0000001368</ele><time>2008-05-04T10:01:19Z</time></trkpt>
<trkpt lat="47.73556200" lon="-2.80774600"><ele>86.6999969832</ele><time>2008-05-04T10:01:21Z</time></trkpt>
<trkpt lat="47.73554500" lon="-2.80771100"><ele>87.09999852</ele><time>2008-05-04T10:01:22Z</time></trkpt>
<trkpt lat="47.73536200" lon="-2.80769000"><ele>86.6999969832</ele><time>2008-05-04T10:01:28Z</time></trkpt>
<trkpt lat="47.73533100" lon="-2.80769300"><ele>86.6999969832</ele><time>2008-05-04T10:01:29Z</time></trkpt>
<trkpt lat="47.73511100" lon="-2.80760400"><ele>86.1999969672</ele><time>2008-05-04T10:01:35Z</time></trkpt>
<trkpt lat="47.73494500" lon="-2.80755100"><ele>85.1999969352</ele><time>2008-05-04T10:01:39Z</time></trkpt>
<trkpt lat="47.73478500" lon="-2.80743600"><ele>84.6999969192</ele><time>2008-05-04T10:01:44Z</time></trkpt>
<trkpt lat="47.73473500" lon="-2.80733700"><ele>84.3000030024</ele><time>2008-05-04T10:01:49Z</time></trkpt>
<trkpt lat="47.73472500" lon="-2.80726300"><ele>83.8000029864</ele><time>2008-05-04T10:01:54Z</time></trkpt>
<trkpt lat="47.73468000" lon="-2.80715800"><ele>83.8000029864</ele><time>2008-05-04T10:02:01Z</time></trkpt>
<trkpt lat="47.73465100" lon="-2.80712900"><ele>83.3000029704</ele><time>2008-05-04T10:02:06Z</time></trkpt>
<trkpt lat="47.73463300" lon="-2.80711900"><ele>83.3000029704</ele><time>2008-05-04T10:02:07Z</time></trkpt>
<trkpt lat="47.73452800" lon="-2.80711500"><ele>83.3000029704</ele><time>2008-05-04T10:02:14Z</time></trkpt>
<trkpt lat="47.73441800" lon="-2.80716500"><ele>82.8000029544</ele><time>2008-05-04T10:02:19Z</time></trkpt>
<trkpt lat="47.73433000" lon="-2.80719400"><ele>82.8000029544</ele><time>2008-05-04T10:02:25Z</time></trkpt>
<trkpt lat="47.73420500" lon="-2.80724800"><ele>82.3000029384</ele><time>2008-05-04T10:02:31Z</time></trkpt>
<trkpt lat="47.73418900" lon="-2.80725800"><ele>82.3000029384</ele><time>2008-05-04T10:02:32Z</time></trkpt>
<trkpt lat="47.73400600" lon="-2.80733300"><ele>82.8000029544</ele><time>2008-05-04T10:02:39Z</time></trkpt>
<trkpt lat="47.73396800" lon="-2.80734300"><ele>82.8000029544</ele><time>2008-05-04T10:02:41Z</time></trkpt>
<trkpt lat="47.73381700" lon="-2.80730200"><ele>83.8000029864</ele><time>2008-05-04T10:02:47Z</time></trkpt>
<trkpt lat="47.73367600" lon="-2.80737200"><ele>83.3000029704</ele><time>2008-05-04T10:02:52Z</time></trkpt>
<trkpt lat="47.73352300" lon="-2.80737300"><ele>83.3000029704</ele><time>2008-05-04T10:02:56Z</time></trkpt>
<trkpt lat="47.73333800" lon="-2.80733600"><ele>83.8000029864</ele><time>2008-05-04T10:03:01Z</time></trkpt>
<trkpt lat="47.73310500" lon="-2.80736100"><ele>83.8000029864</ele><time>2008-05-04T10:03:07Z</time></trkpt>
<trkpt lat="47.73292100" lon="-2.80739200"><ele>83.3000029704</ele><time>2008-05-04T10:03:11Z</time></trkpt>
<trkpt lat="47.73284600" lon="-2.80741900"><ele>82.3000029384</ele><time>2008-05-04T10:03:13Z</time></trkpt>
<trkpt lat="47.73264800" lon="-2.80747100"><ele>80.9000016744</ele><time>2008-05-04T10:03:17Z</time></trkpt>
<trkpt lat="47.73251600" lon="-2.80752200"><ele>79.9000016424</ele><time>2008-05-04T10:03:20Z</time></trkpt>
<trkpt lat="47.73233600" lon="-2.80757500"><ele>78.5000000736</ele><time>2008-05-04T10:03:25Z</time></trkpt>
<trkpt lat="47.73216300" lon="-2.80765100"><ele>78.5000000736</ele><time>2008-05-04T10:03:31Z</time></trkpt>
<trkpt lat="47.73204400" lon="-2.80770700"><ele>78.0000000576</ele><time>2008-05-04T10:03:36Z</time></trkpt>
<trkpt lat="47.73193300" lon="-2.80779500"><ele>78.0000000576</ele><time>2008-05-04T10:03:41Z</time></trkpt>
<trkpt lat="47.73186400" lon="-2.80788900"><ele>78.0000000576</ele><time>2008-05-04T10:03:45Z</time></trkpt>
<trkpt lat="47.73170800" lon="-2.80801800"><ele>78.0000000576</ele><time>2008-05-04T10:03:51Z</time></trkpt>
<trkpt lat="47.73154600" lon="-2.80819400"><ele>78.0000000576</ele><time>2008-05-04T10:04:00Z</time></trkpt>
<trkpt lat="47.73147300" lon="-2.80830400"><ele>78.0000000576</ele><time>2008-05-04T10:04:06Z</time></trkpt>
<trkpt lat="47.73140600" lon="-2.80834900"><ele>78.0000000576</ele><time>2008-05-04T10:04:11Z</time></trkpt>
<trkpt lat="47.73138300" lon="-2.80835900"><ele>78.0000000576</ele><time>2008-05-04T10:04:13Z</time></trkpt>
<trkpt lat="47.73132300" lon="-2.80837000"><ele>78.0000000576</ele><time>2008-05-04T10:04:27Z</time></trkpt>
<trkpt lat="47.73130400" lon="-2.80840000"><ele>78.0000000576</ele><time>2008-05-04T10:04:28Z</time></trkpt>
<trkpt lat="47.73122600" lon="-2.80847600"><ele>78.0000000576</ele><time>2008-05-04T10:04:35Z</time></trkpt>
<trkpt lat="47.73113100" lon="-2.80852500"><ele>77.0000000256</ele><time>2008-05-04T10:04:40Z</time></trkpt>
<trkpt lat="47.73100600" lon="-2.80857500"><ele>76.0999984728</ele><time>2008-05-04T10:04:46Z</time></trkpt>
<trkpt lat="47.73085100" lon="-2.80859400"><ele>75.5999984568</ele><time>2008-05-04T10:04:52Z</time></trkpt>
<trkpt lat="47.73074100" lon="-2.80865300"><ele>75.5999984568</ele><time>2008-05-04T10:04:57Z</time></trkpt>
<trkpt lat="47.73059800" lon="-2.80870400"><ele>75.5999984568</ele><time>2008-05-04T10:05:02Z</time></trkpt>
<trkpt lat="47.73049600" lon="-2.80874100"><ele>76.0999984728</ele><time>2008-05-04T10:05:07Z</time></trkpt>
<trkpt lat="47.73035200" lon="-2.80878100"><ele>75.5999984568</ele><time>2008-05-04T10:05:12Z</time></trkpt>
<trkpt lat="47.73020100" lon="-2.80876200"><ele>75.5999984568</ele><time>2008-05-04T10:05:17Z</time></trkpt>
<trkpt lat="47.73005300" lon="-2.80864700"><ele>76.5999984888</ele><time>2008-05-04T10:05:22Z</time></trkpt>
<trkpt lat="47.72999800" lon="-2.80868100"><ele>76.5999984888</ele><time>2008-05-04T10:05:26Z</time></trkpt>
<trkpt lat="47.72999400" lon="-2.80875000"><ele>75.5999984568</ele><time>2008-05-04T10:05:32Z</time></trkpt>
<trkpt lat="47.72993600" lon="-2.80888700"><ele>74.5999984248</ele><time>2008-05-04T10:05:39Z</time></trkpt>
<trkpt lat="47.72983700" lon="-2.80897100"><ele>74.199996888</ele><time>2008-05-04T10:05:45Z</time></trkpt>
<trkpt lat="47.72970600" lon="-2.80904700"><ele>73.699996872</ele><time>2008-05-04T10:05:50Z</time></trkpt>
<trkpt lat="47.72954300" lon="-2.80910300"><ele>73.699996872</ele><time>2008-05-04T10:05:55Z</time></trkpt>
<trkpt lat="47.72934200" lon="-2.80916300"><ele>73.699996872</ele><time>2008-05-04T10:06:01Z</time></trkpt>
<trkpt lat="47.72911500" lon="-2.80918600"><ele>73.199996856</ele><time>2008-05-04T10:06:07Z</time></trkpt>
<trkpt lat="47.72889300" lon="-2.80923100"><ele>73.199996856</ele><time>2008-05-04T10:06:12Z</time></trkpt>
<trkpt lat="47.72864400" lon="-2.80931900"><ele>73.199996856</ele><time>2008-05-04T10:06:17Z</time></trkpt>
<trkpt lat="47.72843000" lon="-2.80939800"><ele>72.69999684</ele><time>2008-05-04T10:06:21Z</time></trkpt>
<trkpt lat="47.72808300" lon="-2.80944100"><ele>71.8000029072</ele><time>2008-05-04T10:06:28Z</time></trkpt>
<trkpt lat="47.72799800" lon="-2.80945900"><ele>71.8000029072</ele><time>2008-05-04T10:06:30Z</time></trkpt>
<trkpt lat="47.72789900" lon="-2.80947300"><ele>71.8000029072</ele><time>2008-05-04T10:06:32Z</time></trkpt>
<trkpt lat="47.72771200" lon="-2.80947500"><ele>71.8000029072</ele><time>2008-05-04T10:06:36Z</time></trkpt>
<trkpt lat="47.72746100" lon="-2.80941200"><ele>71.300003196</ele><time>2008-05-04T10:06:42Z</time></trkpt>
<trkpt lat="47.72737500" lon="-2.80924200"><ele>71.300003196</ele><time>2008-05-04T10:06:47Z</time></trkpt>
<trkpt lat="47.72728900" lon="-2.80903500"><ele>70.80000318</ele><time>2008-05-04T10:06:52Z</time></trkpt>
<trkpt lat="47.72719800" lon="-2.80888800"><ele>70.80000318</ele><time>2008-05-04T10:06:56Z</time></trkpt>
<trkpt lat="47.72704100" lon="-2.80888600"><ele>70.300003164</ele><time>2008-05-04T10:07:00Z</time></trkpt>
<trkpt lat="47.72675500" lon="-2.80893200"><ele>69.800003148</ele><time>2008-05-04T10:07:06Z</time></trkpt>
<trkpt lat="47.72660300" lon="-2.80896800"><ele>69.800003148</ele><time>2008-05-04T10:07:09Z</time></trkpt>
<trkpt lat="47.72628700" lon="-2.80902700"><ele>69.4000016112</ele><time>2008-05-04T10:07:15Z</time></trkpt>
<trkpt lat="47.72607500" lon="-2.80902200"><ele>69.4000016112</ele><time>2008-05-04T10:07:20Z</time></trkpt>
<trkpt lat="47.72590400" lon="-2.80900100"><ele>68.9000015952</ele><time>2008-05-04T10:07:25Z</time></trkpt>
<trkpt lat="47.72564000" lon="-2.80899200"><ele>68.4000015792</ele><time>2008-05-04T10:07:32Z</time></trkpt>
<trkpt lat="47.72543200" lon="-2.80898300"><ele>68.4000015792</ele><time>2008-05-04T10:07:38Z</time></trkpt>
<trkpt lat="47.72525800" lon="-2.80897200"><ele>67.4000015472</ele><time>2008-05-04T10:07:43Z</time></trkpt>
<trkpt lat="47.72514600" lon="-2.80896500"><ele>67.4000015472</ele><time>2008-05-04T10:07:48Z</time></trkpt>
<trkpt lat="47.72510100" lon="-2.80896800"><ele>67.4000015472</ele><time>2008-05-04T10:07:54Z</time></trkpt>
<trkpt lat="47.72509100" lon="-2.80896300"><ele>67.4000015472</ele><time>2008-05-04T10:07:57Z</time></trkpt>
<trkpt lat="47.72507500" lon="-2.80895900"><ele>67.4000015472</ele><time>2008-05-04T10:07:58Z</time></trkpt>
<trkpt lat="47.72497800" lon="-2.80902000"><ele>67.4000015472</ele><time>2008-05-04T10:08:02Z</time></trkpt>
<trkpt lat="47.72494900" lon="-2.80906800"><ele>67.9000015632</ele><time>2008-05-04T10:08:07Z</time></trkpt>
<trkpt lat="47.72494200" lon="-2.80906000"><ele>67.9000015632</ele><time>2008-05-04T10:08:11Z</time></trkpt>
<trkpt lat="47.72493900" lon="-2.80906600"><ele>67.9000015632</ele><time>2008-05-04T10:08:12Z</time></trkpt>
<trkpt lat="47.72492600" lon="-2.80909800"><ele>67.9000015632</ele><time>2008-05-04T10:08:13Z</time></trkpt>
<trkpt lat="47.72489100" lon="-2.80918600"><ele>68.4000015792</ele><time>2008-05-04T10:08:19Z</time></trkpt>
<trkpt lat="47.72488700" lon="-2.80929300"><ele>67.9000015632</ele><time>2008-05-04T10:08:25Z</time></trkpt>
<trkpt lat="47.72489200" lon="-2.80940300"><ele>68.9000015952</ele><time>2008-05-04T10:08:33Z</time></trkpt>
<trkpt lat="47.72490400" lon="-2.80943400"><ele>68.9000015952</ele><time>2008-05-04T10:08:35Z</time></trkpt>
<trkpt lat="47.72490600" lon="-2.80944100"><ele>68.9000015952</ele><time>2008-05-04T10:08:38Z</time></trkpt>
<trkpt lat="47.72490900" lon="-2.80946100"><ele>68.9000015952</ele><time>2008-05-04T10:08:39Z</time></trkpt>
<trkpt lat="47.72490800" lon="-2.80946400"><ele>68.9000015952</ele><time>2008-05-04T10:08:42Z</time></trkpt>
<trkpt lat="47.72492000" lon="-2.80952000"><ele>68.4000015792</ele><time>2008-05-04T10:08:46Z</time></trkpt>
<trkpt lat="47.72495300" lon="-2.80956600"><ele>67.9000015632</ele><time>2008-05-04T10:09:07Z</time></trkpt>
<trkpt lat="47.72495000" lon="-2.80958500"><ele>67.9000015632</ele><time>2008-05-04T10:09:09Z</time></trkpt>
<trkpt lat="47.72491900" lon="-2.80958300"><ele>67.9000015632</ele><time>2008-05-04T10:09:24Z</time></trkpt>
<trkpt lat="47.72492700" lon="-2.80959100"><ele>67.9000015632</ele><time>2008-05-04T10:09:25Z</time></trkpt>
<trkpt lat="47.72493100" lon="-2.80959300"><ele>67.9000015632</ele><time>2008-05-04T10:09:26Z</time></trkpt>
<trkpt lat="47.72493000" lon="-2.80964700"><ele>67.9000015632</ele><time>2008-05-04T10:09:40Z</time></trkpt>
<trkpt lat="47.72492800" lon="-2.80964600"><ele>67.9000015632</ele><time>2008-05-04T10:09:41Z</time></trkpt>
<trkpt lat="47.72493200" lon="-2.80965300"><ele>67.9000015632</ele><time>2008-05-04T10:09:44Z</time></trkpt>
<trkpt lat="47.72493700" lon="-2.80966800"><ele>67.9000015632</ele><time>2008-05-04T10:09:45Z</time></trkpt>
<trkpt lat="47.72493900" lon="-2.80968100"><ele>67.9000015632</ele><time>2008-05-04T10:09:46Z</time></trkpt>
<trkpt lat="47.72497000" lon="-2.80978500"><ele>67.9000015632</ele><time>2008-05-04T10:09:51Z</time></trkpt>
<trkpt lat="47.72497700" lon="-2.80980600"><ele>67.9000015632</ele><time>2008-05-04T10:09:54Z</time></trkpt>
<trkpt lat="47.72499200" lon="-2.80986600"><ele>68.9000015952</ele><time>2008-05-04T10:09:57Z</time></trkpt>
<trkpt lat="47.72499200" lon="-2.80991200"><ele>68.9000015952</ele><time>2008-05-04T10:10:01Z</time></trkpt>
<trkpt lat="47.72500600" lon="-2.80999500"><ele>69.800003148</ele><time>2008-05-04T10:10:06Z</time></trkpt>
<trkpt lat="47.72502000" lon="-2.81013200"><ele>69.800003148</ele><time>2008-05-04T10:10:12Z</time></trkpt>
<trkpt lat="47.72504600" lon="-2.81028500"><ele>69.800003148</ele><time>2008-05-04T10:10:19Z</time></trkpt>
<trkpt lat="47.72506300" lon="-2.81043300"><ele>69.800003148</ele><time>2008-05-04T10:10:25Z</time></trkpt>
<trkpt lat="47.72508900" lon="-2.81057900"><ele>69.800003148</ele><time>2008-05-04T10:10:31Z</time></trkpt>
<trkpt lat="47.72509800" lon="-2.81068400"><ele>69.800003148</ele><time>2008-05-04T10:10:37Z</time></trkpt>
<trkpt lat="47.72510300" lon="-2.81080200"><ele>69.800003148</ele><time>2008-05-04T10:10:43Z</time></trkpt>
<trkpt lat="47.72509600" lon="-2.81096500"><ele>69.800003148</ele><time>2008-05-04T10:10:50Z</time></trkpt>
<trkpt lat="47.72501800" lon="-2.81114900"><ele>70.300003164</ele><time>2008-05-04T10:10:58Z</time></trkpt>
<trkpt lat="47.72493400" lon="-2.81126800"><ele>70.80000318</ele><time>2008-05-04T10:11:04Z</time></trkpt>
<trkpt lat="47.72487100" lon="-2.81133600"><ele>70.80000318</ele><time>2008-05-04T10:11:08Z</time></trkpt>
<trkpt lat="47.72472800" lon="-2.81146300"><ele>71.8000029072</ele><time>2008-05-04T10:11:14Z</time></trkpt>
<trkpt lat="47.72454700" lon="-2.81156300"><ele>72.199996824</ele><time>2008-05-04T10:11:21Z</time></trkpt>
<trkpt lat="47.72438800" lon="-2.81162700"><ele>72.69999684</ele><time>2008-05-04T10:11:27Z</time></trkpt>
<trkpt lat="47.72426600" lon="-2.81169200"><ele>73.199996856</ele><time>2008-05-04T10:11:32Z</time></trkpt>
<trkpt lat="47.72413800" lon="-2.81176200"><ele>73.699996872</ele><time>2008-05-04T10:11:38Z</time></trkpt>
<trkpt lat="47.72397800" lon="-2.81185300"><ele>74.199996888</ele><time>2008-05-04T10:11:44Z</time></trkpt>
<trkpt lat="47.72385200" lon="-2.81193900"><ele>74.5999984248</ele><time>2008-05-04T10:11:49Z</time></trkpt>
<trkpt lat="47.72374300" lon="-2.81199500"><ele>75.0999984408</ele><time>2008-05-04T10:11:53Z</time></trkpt>
<trkpt lat="47.72358400" lon="-2.81209400"><ele>76.0999984728</ele><time>2008-05-04T10:11:59Z</time></trkpt>
<trkpt lat="47.72339300" lon="-2.81222900"><ele>77.0000000256</ele><time>2008-05-04T10:12:07Z</time></trkpt>
<trkpt lat="47.72337100" lon="-2.81225200"><ele>77.0000000256</ele><time>2008-05-04T10:12:08Z</time></trkpt>
<trkpt lat="47.72322400" lon="-2.81234700"><ele>77.0000000256</ele><time>2008-05-04T10:12:14Z</time></trkpt>
<trkpt lat="47.72310900" lon="-2.81242600"><ele>77.5000000416</ele><time>2008-05-04T10:12:19Z</time></trkpt>
<trkpt lat="47.72302000" lon="-2.81249100"><ele>78.0000000576</ele><time>2008-05-04T10:12:23Z</time></trkpt>
<trkpt lat="47.72296600" lon="-2.81262600"><ele>77.5000000416</ele><time>2008-05-04T10:12:28Z</time></trkpt>
<trkpt lat="47.72290800" lon="-2.81275000"><ele>78.0000000576</ele><time>2008-05-04T10:12:32Z</time></trkpt>
<trkpt lat="47.72290100" lon="-2.81278600"><ele>78.0000000576</ele><time>2008-05-04T10:12:33Z</time></trkpt>
<trkpt lat="47.72298100" lon="-2.81306100"><ele>78.0000000576</ele><time>2008-05-04T10:12:41Z</time></trkpt>
<trkpt lat="47.72305400" lon="-2.81320500"><ele>78.0000000576</ele><time>2008-05-04T10:12:46Z</time></trkpt>
<trkpt lat="47.72315900" lon="-2.81345100"><ele>78.5000000736</ele><time>2008-05-04T10:12:53Z</time></trkpt>
<trkpt lat="47.72328200" lon="-2.81373300"><ele>78.5000000736</ele><time>2008-05-04T10:13:00Z</time></trkpt>
<trkpt lat="47.72339600" lon="-2.81404400"><ele>79.0000000896</ele><time>2008-05-04T10:13:07Z</time></trkpt>
<trkpt lat="47.72349600" lon="-2.81432600"><ele>79.4000016264</ele><time>2008-05-04T10:13:13Z</time></trkpt>
<trkpt lat="47.72365200" lon="-2.81471000"><ele>79.4000016264</ele><time>2008-05-04T10:13:21Z</time></trkpt>
<trkpt lat="47.72375000" lon="-2.81494300"><ele>79.4000016264</ele><time>2008-05-04T10:13:27Z</time></trkpt>
<trkpt lat="47.72387500" lon="-2.81525100"><ele>79.9000016424</ele><time>2008-05-04T10:13:33Z</time></trkpt>
<trkpt lat="47.72394500" lon="-2.81544900"><ele>79.9000016424</ele><time>2008-05-04T10:13:37Z</time></trkpt>
<trkpt lat="47.72396500" lon="-2.81550700"><ele>79.9000016424</ele><time>2008-05-04T10:13:38Z</time></trkpt>
<trkpt lat="47.72415800" lon="-2.81593000"><ele>79.9000016424</ele><time>2008-05-04T10:13:44Z</time></trkpt>
<trkpt lat="47.72431600" lon="-2.81639800"><ele>80.9000016744</ele><time>2008-05-04T10:13:51Z</time></trkpt>
<trkpt lat="47.72445300" lon="-2.81677400"><ele>79.9000016424</ele><time>2008-05-04T10:13:56Z</time></trkpt>
<trkpt lat="47.72455700" lon="-2.81705700"><ele>79.9000016424</ele><time>2008-05-04T10:14:00Z</time></trkpt>
<trkpt lat="47.72473800" lon="-2.81746400"><ele>79.9000016424</ele><time>2008-05-04T10:14:07Z</time></trkpt>
<trkpt lat="47.72496100" lon="-2.81790600"><ele>79.9000016424</ele><time>2008-05-04T10:14:15Z</time></trkpt>
<trkpt lat="47.72500100" lon="-2.81800400"><ele>79.9000016424</ele><time>2008-05-04T10:14:17Z</time></trkpt>
<trkpt lat="47.72512400" lon="-2.81849400"><ele>80.4000016584</ele><time>2008-05-04T10:14:25Z</time></trkpt>
<trkpt lat="47.72525200" lon="-2.81892300"><ele>79.9000016424</ele><time>2008-05-04T10:14:33Z</time></trkpt>
<trkpt lat="47.72537200" lon="-2.81934200"><ele>80.9000016744</ele><time>2008-05-04T10:14:41Z</time></trkpt>
<trkpt lat="47.72546100" lon="-2.81969700"><ele>80.4000016584</ele><time>2008-05-04T10:14:49Z</time></trkpt>
<trkpt lat="47.72554400" lon="-2.81998800"><ele>80.9000016744</ele><time>2008-05-04T10:14:56Z</time></trkpt>
<trkpt lat="47.72562900" lon="-2.82029000"><ele>80.4000016584</ele><time>2008-05-04T10:15:02Z</time></trkpt>
<trkpt lat="47.72571400" lon="-2.82065600"><ele>80.9000016744</ele><time>2008-05-04T10:15:09Z</time></trkpt>
<trkpt lat="47.72587100" lon="-2.82108000"><ele>80.4000016584</ele><time>2008-05-04T10:15:16Z</time></trkpt>
<trkpt lat="47.72605900" lon="-2.82147300"><ele>80.4000016584</ele><time>2008-05-04T10:15:23Z</time></trkpt>
<trkpt lat="47.72610500" lon="-2.82157700"><ele>80.4000016584</ele><time>2008-05-04T10:15:25Z</time></trkpt>
<trkpt lat="47.72626500" lon="-2.82156800"><ele>80.4000016584</ele><time>2008-05-04T10:15:29Z</time></trkpt>
<trkpt lat="47.72651700" lon="-2.82131900"><ele>79.4000016264</ele><time>2008-05-04T10:15:36Z</time></trkpt>
<trkpt lat="47.72660000" lon="-2.82124600"><ele>79.4000016264</ele><time>2008-05-04T10:15:38Z</time></trkpt>
<trkpt lat="47.72668800" lon="-2.82117700"><ele>79.9000016424</ele><time>2008-05-04T10:15:40Z</time></trkpt>
<trkpt lat="47.72682100" lon="-2.82105600"><ele>79.4000016264</ele><time>2008-05-04T10:15:43Z</time></trkpt>
<trkpt lat="47.72701200" lon="-2.82088300"><ele>78.5000000736</ele><time>2008-05-04T10:15:48Z</time></trkpt>
<trkpt lat="47.72735200" lon="-2.82054700"><ele>76.0999984728</ele><time>2008-05-04T10:15:55Z</time></trkpt>
<trkpt lat="47.72768700" lon="-2.82020300"><ele>74.5999984248</ele><time>2008-05-04T10:16:01Z</time></trkpt>
<trkpt lat="47.72796900" lon="-2.81989200"><ele>73.699996872</ele><time>2008-05-04T10:16:06Z</time></trkpt>
<trkpt lat="47.72821300" lon="-2.81960500"><ele>73.199996856</ele><time>2008-05-04T10:16:11Z</time></trkpt>
<trkpt lat="47.72830000" lon="-2.81950800"><ele>72.69999684</ele><time>2008-05-04T10:16:13Z</time></trkpt>
<trkpt lat="47.72858100" lon="-2.81931300"><ele>72.69999684</ele><time>2008-05-04T10:16:20Z</time></trkpt>
<trkpt lat="47.72881200" lon="-2.81917100"><ele>72.199996824</ele><time>2008-05-04T10:16:26Z</time></trkpt>
<trkpt lat="47.72904800" lon="-2.81902400"><ele>72.69999684</ele><time>2008-05-04T10:16:32Z</time></trkpt>
<trkpt lat="47.72927400" lon="-2.81889900"><ele>72.199996824</ele><time>2008-05-04T10:16:38Z</time></trkpt>
<trkpt lat="47.72945300" lon="-2.81889200"><ele>71.8000029072</ele><time>2008-05-04T10:16:43Z</time></trkpt>
<trkpt lat="47.72959400" lon="-2.81900400"><ele>72.199996824</ele><time>2008-05-04T10:16:48Z</time></trkpt>
<trkpt lat="47.72975000" lon="-2.81917000"><ele>73.199996856</ele><time>2008-05-04T10:16:53Z</time></trkpt>
<trkpt lat="47.72987300" lon="-2.81922900"><ele>73.199996856</ele><time>2008-05-04T10:16:56Z</time></trkpt>
<trkpt lat="47.73006500" lon="-2.81929600"><ele>72.69999684</ele><time>2008-05-04T10:17:00Z</time></trkpt>
<trkpt lat="47.73036800" lon="-2.81943100"><ele>73.199996856</ele><time>2008-05-04T10:17:07Z</time></trkpt>
<trkpt lat="47.73041800" lon="-2.81947000"><ele>72.69999684</ele><time>2008-05-04T10:17:08Z</time></trkpt>
<trkpt lat="47.73057300" lon="-2.81964600"><ele>73.199996856</ele><time>2008-05-04T10:17:11Z</time></trkpt>
<trkpt lat="47.73077800" lon="-2.81976900"><ele>73.199996856</ele><time>2008-05-04T10:17:15Z</time></trkpt>
<trkpt lat="47.73083000" lon="-2.81976800"><ele>73.199996856</ele><time>2008-05-04T10:17:16Z</time></trkpt>
<trkpt lat="47.73097600" lon="-2.81977300"><ele>72.69999684</ele><time>2008-05-04T10:17:19Z</time></trkpt>
<trkpt lat="47.73107600" lon="-2.81978900"><ele>72.69999684</ele><time>2008-05-04T10:17:21Z</time></trkpt>
<trkpt lat="47.73138900" lon="-2.81982500"><ele>72.69999684</ele><time>2008-05-04T10:17:27Z</time></trkpt>
<trkpt lat="47.73158900" lon="-2.81994200"><ele>73.199996856</ele><time>2008-05-04T10:17:31Z</time></trkpt>
<trkpt lat="47.73163400" lon="-2.81999100"><ele>73.199996856</ele><time>2008-05-04T10:17:32Z</time></trkpt>
<trkpt lat="47.73193500" lon="-2.82030300"><ele>73.199996856</ele><time>2008-05-04T10:17:39Z</time></trkpt>
<trkpt lat="47.73218000" lon="-2.82051700"><ele>73.699996872</ele><time>2008-05-04T10:17:45Z</time></trkpt>
<trkpt lat="47.73234500" lon="-2.82060900"><ele>73.699996872</ele><time>2008-05-04T10:17:49Z</time></trkpt>
<trkpt lat="47.73255800" lon="-2.82058200"><ele>73.699996872</ele><time>2008-05-04T10:17:54Z</time></trkpt>
<trkpt lat="47.73259400" lon="-2.82055200"><ele>73.699996872</ele><time>2008-05-04T10:17:55Z</time></trkpt>
<trkpt lat="47.73270500" lon="-2.82047300"><ele>73.699996872</ele><time>2008-05-04T10:17:58Z</time></trkpt>
<trkpt lat="47.73297900" lon="-2.82039600"><ele>74.199996888</ele><time>2008-05-04T10:18:05Z</time></trkpt>
<trkpt lat="47.73321200" lon="-2.82056900"><ele>74.199996888</ele><time>2008-05-04T10:18:11Z</time></trkpt>
<trkpt lat="47.73347700" lon="-2.82098900"><ele>74.199996888</ele><time>2008-05-04T10:18:20Z</time></trkpt>
<trkpt lat="47.73367100" lon="-2.82110000"><ele>74.5999984248</ele><time>2008-05-04T10:18:25Z</time></trkpt>
<trkpt lat="47.73375400" lon="-2.82109400"><ele>74.5999984248</ele><time>2008-05-04T10:18:27Z</time></trkpt>
<trkpt lat="47.73416900" lon="-2.82100200"><ele>75.5999984568</ele><time>2008-05-04T10:18:38Z</time></trkpt>
<trkpt lat="47.73460800" lon="-2.82083300"><ele>76.0999984728</ele><time>2008-05-04T10:18:50Z</time></trkpt>
<trkpt lat="47.73495800" lon="-2.82065800"><ele>77.0000000256</ele><time>2008-05-04T10:19:00Z</time></trkpt>
<trkpt lat="47.73520500" lon="-2.82053800"><ele>78.5000000736</ele><time>2008-05-04T10:19:07Z</time></trkpt>
<trkpt lat="47.73553400" lon="-2.82035600"><ele>78.5000000736</ele><time>2008-05-04T10:19:17Z</time></trkpt>
<trkpt lat="47.73571800" lon="-2.82028600"><ele>79.4000016264</ele><time>2008-05-04T10:19:23Z</time></trkpt>
<trkpt lat="47.73581900" lon="-2.82037800"><ele>79.0000000896</ele><time>2008-05-04T10:19:27Z</time></trkpt>
<trkpt lat="47.73594900" lon="-2.82065900"><ele>78.5000000736</ele><time>2008-05-04T10:19:34Z</time></trkpt>
<trkpt lat="47.73603300" lon="-2.82091100"><ele>78.5000000736</ele><time>2008-05-04T10:19:40Z</time></trkpt>
<trkpt lat="47.73605200" lon="-2.82100200"><ele>78.5000000736</ele><time>2008-05-04T10:19:42Z</time></trkpt>
<trkpt lat="47.73617600" lon="-2.82124600"><ele>78.5000000736</ele><time>2008-05-04T10:19:48Z</time></trkpt>
<trkpt lat="47.73621900" lon="-2.82137100"><ele>78.5000000736</ele><time>2008-05-04T10:19:51Z</time></trkpt>
<trkpt lat="47.73628500" lon="-2.82170900"><ele>77.0000000256</ele><time>2008-05-04T10:19:57Z</time></trkpt>
<trkpt lat="47.73629200" lon="-2.82193600"><ele>74.5999984248</ele><time>2008-05-04T10:20:00Z</time></trkpt>
<trkpt lat="47.73635100" lon="-2.82213800"><ele>74.199996888</ele><time>2008-05-04T10:20:04Z</time></trkpt>
<trkpt lat="47.73644700" lon="-2.82231200"><ele>74.5999984248</ele><time>2008-05-04T10:20:09Z</time></trkpt>
<trkpt lat="47.73655300" lon="-2.82241200"><ele>75.0999984408</ele><time>2008-05-04T10:20:14Z</time></trkpt>
<trkpt lat="47.73663300" lon="-2.82255200"><ele>76.5999984888</ele><time>2008-05-04T10:20:19Z</time></trkpt>
<trkpt lat="47.73664400" lon="-2.82257200"><ele>76.5999984888</ele><time>2008-05-04T10:20:20Z</time></trkpt>
<trkpt lat="47.73674900" lon="-2.82262700"><ele>78.0000000576</ele><time>2008-05-04T10:20:27Z</time></trkpt>
<trkpt lat="47.73684500" lon="-2.82266400"><ele>80.4000016584</ele><time>2008-05-04T10:20:32Z</time></trkpt>
<trkpt lat="47.73686500" lon="-2.82267600"><ele>80.4000016584</ele><time>2008-05-04T10:20:33Z</time></trkpt>
<trkpt lat="47.73703000" lon="-2.82273000"><ele>82.3000029384</ele><time>2008-05-04T10:20:40Z</time></trkpt>
<trkpt lat="47.73717700" lon="-2.82269100"><ele>83.3000029704</ele><time>2008-05-04T10:20:47Z</time></trkpt>
<trkpt lat="47.73734700" lon="-2.82259400"><ele>84.3000030024</ele><time>2008-05-04T10:20:56Z</time></trkpt>
<trkpt lat="47.73743800" lon="-2.82249600"><ele>85.1999969352</ele><time>2008-05-04T10:21:02Z</time></trkpt>
<trkpt lat="47.73749900" lon="-2.82238300"><ele>85.6999969512</ele><time>2008-05-04T10:21:08Z</time></trkpt>
<trkpt lat="47.73757500" lon="-2.82220500"><ele>86.6999969832</ele><time>2008-05-04T10:21:15Z</time></trkpt>
<trkpt lat="47.73766100" lon="-2.82209600"><ele>87.599998536</ele><time>2008-05-04T10:21:22Z</time></trkpt>
<trkpt lat="47.73776900" lon="-2.82201800"><ele>88.599998568</ele><time>2008-05-04T10:21:29Z</time></trkpt>
<trkpt lat="47.73778100" lon="-2.82200700"><ele>88.599998568</ele><time>2008-05-04T10:21:30Z</time></trkpt>
<trkpt lat="47.73793200" lon="-2.82199800"><ele>90.999999864</ele><time>2008-05-04T10:21:39Z</time></trkpt>
<trkpt lat="47.73807000" lon="-2.82198000"><ele>91.49999988</ele><time>2008-05-04T10:21:46Z</time></trkpt>
<trkpt lat="47.73823500" lon="-2.82190800"><ele>93.4000014648</ele><time>2008-05-04T10:21:54Z</time></trkpt>
<trkpt lat="47.73842700" lon="-2.82187700"><ele>94.3000030176</ele><time>2008-05-04T10:22:03Z</time></trkpt>
<trkpt lat="47.73867000" lon="-2.82184200"><ele>95.8000030656</ele><time>2008-05-04T10:22:13Z</time></trkpt>
<trkpt lat="47.73897200" lon="-2.82177600"><ele>97.1999970144</ele><time>2008-05-04T10:22:25Z</time></trkpt>
<trkpt lat="47.73913000" lon="-2.82171300"><ele>97.1999970144</ele><time>2008-05-04T10:22:32Z</time></trkpt>
<trkpt lat="47.73926000" lon="-2.82164700"><ele>98.6999970624</ele><time>2008-05-04T10:22:38Z</time></trkpt>
<trkpt lat="47.73940400" lon="-2.82172400"><ele>98.6999970624</ele><time>2008-05-04T10:22:44Z</time></trkpt>
<trkpt lat="47.73959500" lon="-2.82188300"><ele>99.5999986152</ele><time>2008-05-04T10:22:51Z</time></trkpt>
<trkpt lat="47.73978400" lon="-2.82202700"><ele>100.0999983264</ele><time>2008-05-04T10:22:56Z</time></trkpt>
<trkpt lat="47.74009700" lon="-2.82218500"><ele>101.0999983584</ele><time>2008-05-04T10:23:05Z</time></trkpt>
<trkpt lat="47.74037800" lon="-2.82232600"><ele>100.5999983424</ele><time>2008-05-04T10:23:13Z</time></trkpt>
<trkpt lat="47.74058300" lon="-2.82241800"><ele>100.5999983424</ele><time>2008-05-04T10:23:19Z</time></trkpt>
<trkpt lat="47.74079500" lon="-2.82255600"><ele>100.5999983424</ele><time>2008-05-04T10:23:25Z</time></trkpt>
<trkpt lat="47.74109500" lon="-2.82271800"><ele>101.5999983744</ele><time>2008-05-04T10:23:34Z</time></trkpt>
<trkpt lat="47.74140100" lon="-2.82287200"><ele>101.0999983584</ele><time>2008-05-04T10:23:43Z</time></trkpt>
<trkpt lat="47.74171900" lon="-2.82300500"><ele>101.0999983584</ele><time>2008-05-04T10:23:52Z</time></trkpt>
<trkpt lat="47.74195800" lon="-2.82319500"><ele>101.0999983584</ele><time>2008-05-04T10:23:59Z</time></trkpt>
<trkpt lat="47.74210800" lon="-2.82341500"><ele>101.0999983584</ele><time>2008-05-04T10:24:05Z</time></trkpt>
<trkpt lat="47.74229000" lon="-2.82358600"><ele>101.5999983744</ele><time>2008-05-04T10:24:12Z</time></trkpt>
<trkpt lat="47.74251000" lon="-2.82373100"><ele>101.5999983744</ele><time>2008-05-04T10:24:18Z</time></trkpt>
<trkpt lat="47.74271900" lon="-2.82384500"><ele>102.4999999272</ele><time>2008-05-04T10:24:24Z</time></trkpt>
<trkpt lat="47.74302700" lon="-2.82398900"><ele>104.400001512</ele><time>2008-05-04T10:24:34Z</time></trkpt>
<trkpt lat="47.74320900" lon="-2.82409600"><ele>104.400001512</ele><time>2008-05-04T10:24:40Z</time></trkpt>
<trkpt lat="47.74345400" lon="-2.82433200"><ele>105.400001544</ele><time>2008-05-04T10:24:50Z</time></trkpt>
<trkpt lat="47.74366900" lon="-2.82451100"><ele>106.400001576</ele><time>2008-05-04T10:24:58Z</time></trkpt>
<trkpt lat="47.74380400" lon="-2.82467800"><ele>108.8000031768</ele><time>2008-05-04T10:25:04Z</time></trkpt>
<trkpt lat="47.74390300" lon="-2.82475600"><ele>109.6999968048</ele><time>2008-05-04T10:25:08Z</time></trkpt>
<trkpt lat="47.74407000" lon="-2.82467300"><ele>108.8000031768</ele><time>2008-05-04T10:25:14Z</time></trkpt>
<trkpt lat="47.74425000" lon="-2.82455400"><ele>108.8000031768</ele><time>2008-05-04T10:25:20Z</time></trkpt>
<trkpt lat="47.74453900" lon="-2.82443800"><ele>108.8000031768</ele><time>2008-05-04T10:25:29Z</time></trkpt>
<trkpt lat="47.74469700" lon="-2.82446100"><ele>108.3000031608</ele><time>2008-05-04T10:25:34Z</time></trkpt>
<trkpt lat="47.74492200" lon="-2.82460400"><ele>109.6999968048</ele><time>2008-05-04T10:25:42Z</time></trkpt>
<trkpt lat="47.74501400" lon="-2.82465600"><ele>110.1999968208</ele><time>2008-05-04T10:25:45Z</time></trkpt>
<trkpt lat="47.74504400" lon="-2.82467500"><ele>111.1999968528</ele><time>2008-05-04T10:25:48Z</time></trkpt>
<trkpt lat="47.74507600" lon="-2.82469600"><ele>111.6999968688</ele><time>2008-05-04T10:25:49Z</time></trkpt>
<trkpt lat="47.74512900" lon="-2.82480600"><ele>111.6999968688</ele><time>2008-05-04T10:25:51Z</time></trkpt>
<trkpt lat="47.74509300" lon="-2.82490600"><ele>112.0999984056</ele><time>2008-05-04T10:25:55Z</time></trkpt>
<trkpt lat="47.74504900" lon="-2.82508600"><ele>112.0999984056</ele><time>2008-05-04T10:25:59Z</time></trkpt>
<trkpt lat="47.74508700" lon="-2.82551700"><ele>113.0999984376</ele><time>2008-05-04T10:26:08Z</time></trkpt>
<trkpt lat="47.74520000" lon="-2.82580300"><ele>113.5999984536</ele><time>2008-05-04T10:26:14Z</time></trkpt>
<trkpt lat="47.74541500" lon="-2.82606400"><ele>113.5999984536</ele><time>2008-05-04T10:26:21Z</time></trkpt>
<trkpt lat="47.74567300" lon="-2.82634300"><ele>115.0000000224</ele><time>2008-05-04T10:26:29Z</time></trkpt>
<trkpt lat="47.74585000" lon="-2.82645400"><ele>115.5000000384</ele><time>2008-05-04T10:26:34Z</time></trkpt>
<trkpt lat="47.74610700" lon="-2.82658000"><ele>117.4000016232</ele><time>2008-05-04T10:26:41Z</time></trkpt>
<trkpt lat="47.74613700" lon="-2.82660600"><ele>117.4000016232</ele><time>2008-05-04T10:26:42Z</time></trkpt>
<trkpt lat="47.74619300" lon="-2.82654400"><ele>116.9000016072</ele><time>2008-05-04T10:26:46Z</time></trkpt>
<trkpt lat="47.74623500" lon="-2.82637300"><ele>117.4000016232</ele><time>2008-05-04T10:26:51Z</time></trkpt>
<trkpt lat="47.74633300" lon="-2.82621200"><ele>118.4000016552</ele><time>2008-05-04T10:26:57Z</time></trkpt>
<trkpt lat="47.74638200" lon="-2.82598200"><ele>118.9000016712</ele><time>2008-05-04T10:27:04Z</time></trkpt>
<trkpt lat="47.74644300" lon="-2.82571700"><ele>119.8000029192</ele><time>2008-05-04T10:27:12Z</time></trkpt>
<trkpt lat="47.74653600" lon="-2.82539900"><ele>121.699996884</ele><time>2008-05-04T10:27:22Z</time></trkpt>
<trkpt lat="47.74660700" lon="-2.82508400"><ele>121.699996884</ele><time>2008-05-04T10:27:31Z</time></trkpt>
<trkpt lat="47.74662600" lon="-2.82502300"><ele>121.699996884</ele><time>2008-05-04T10:27:33Z</time></trkpt>
<trkpt lat="47.74671900" lon="-2.82486100"><ele>121.699996884</ele><time>2008-05-04T10:27:40Z</time></trkpt>
<trkpt lat="47.74678800" lon="-2.82488400"><ele>121.699996884</ele><time>2008-05-04T10:27:44Z</time></trkpt>
<trkpt lat="47.74691400" lon="-2.82508700"><ele>122.1999969</ele><time>2008-05-04T10:27:52Z</time></trkpt>
<trkpt lat="47.74700600" lon="-2.82520600"><ele>122.699996916</ele><time>2008-05-04T10:27:57Z</time></trkpt>
<trkpt lat="47.74699300" lon="-2.82538200"><ele>122.1999969</ele><time>2008-05-04T10:28:02Z</time></trkpt>
<trkpt lat="47.74696400" lon="-2.82545800"><ele>122.1999969</ele><time>2008-05-04T10:28:04Z</time></trkpt>
<trkpt lat="47.74698500" lon="-2.82568100"><ele>122.699996916</ele><time>2008-05-04T10:28:11Z</time></trkpt>
<trkpt lat="47.74710200" lon="-2.82582400"><ele>122.1999969</ele><time>2008-05-04T10:28:18Z</time></trkpt>
<trkpt lat="47.74717400" lon="-2.82597500"><ele>122.1999969</ele><time>2008-05-04T10:28:23Z</time></trkpt>
<trkpt lat="47.74719900" lon="-2.82617300"><ele>121.3000029672</ele><time>2008-05-04T10:28:29Z</time></trkpt>
<trkpt lat="47.74722700" lon="-2.82638800"><ele>120.8000029512</ele><time>2008-05-04T10:28:34Z</time></trkpt>
<trkpt lat="47.74728700" lon="-2.82664100"><ele>120.3000029352</ele><time>2008-05-04T10:28:39Z</time></trkpt>
<trkpt lat="47.74737500" lon="-2.82682800"><ele>119.3000029032</ele><time>2008-05-04T10:28:43Z</time></trkpt>
<trkpt lat="47.74746700" lon="-2.82699900"><ele>117.9000016392</ele><time>2008-05-04T10:28:49Z</time></trkpt>
<trkpt lat="47.74742800" lon="-2.82705500"><ele>118.4000016552</ele><time>2008-05-04T10:28:52Z</time></trkpt>
<trkpt lat="47.74740700" lon="-2.82706200"><ele>118.4000016552</ele><time>2008-05-04T10:28:53Z</time></trkpt>
<trkpt lat="47.74728500" lon="-2.82711700"><ele>118.4000016552</ele><time>2008-05-04T10:28:58Z</time></trkpt>
<trkpt lat="47.74719200" lon="-2.82720600"><ele>117.9000016392</ele><time>2008-05-04T10:29:02Z</time></trkpt>
<trkpt lat="47.74700100" lon="-2.82740500"><ele>116.5000000704</ele><time>2008-05-04T10:29:08Z</time></trkpt>
<trkpt lat="47.74684700" lon="-2.82750500"><ele>115.5000000384</ele><time>2008-05-04T10:29:13Z</time></trkpt>
<trkpt lat="47.74677500" lon="-2.82761800"><ele>114.5000000064</ele><time>2008-05-04T10:29:15Z</time></trkpt>
<trkpt lat="47.74670600" lon="-2.82774900"><ele>114.0999984696</ele><time>2008-05-04T10:29:17Z</time></trkpt>
<trkpt lat="47.74667300" lon="-2.82813100"><ele>114.0999984696</ele><time>2008-05-04T10:29:22Z</time></trkpt>
<trkpt lat="47.74668800" lon="-2.82846500"><ele>115.0000000224</ele><time>2008-05-04T10:29:28Z</time></trkpt>
<trkpt lat="47.74660300" lon="-2.82875300"><ele>115.0000000224</ele><time>2008-05-04T10:29:34Z</time></trkpt>
<trkpt lat="47.74656600" lon="-2.82899300"><ele>115.0000000224</ele><time>2008-05-04T10:29:39Z</time></trkpt>
<trkpt lat="47.74651500" lon="-2.82921300"><ele>114.5000000064</ele><time>2008-05-04T10:29:44Z</time></trkpt>
<trkpt lat="47.74642100" lon="-2.82943000"><ele>114.5000000064</ele><time>2008-05-04T10:29:49Z</time></trkpt>
<trkpt lat="47.74635500" lon="-2.82950600"><ele>114.0999984696</ele><time>2008-05-04T10:29:51Z</time></trkpt>
<trkpt lat="47.74624000" lon="-2.82979700"><ele>113.5999984536</ele><time>2008-05-04T10:29:56Z</time></trkpt>
<trkpt lat="47.74618400" lon="-2.83011500"><ele>114.0999984696</ele><time>2008-05-04T10:30:01Z</time></trkpt>
<trkpt lat="47.74598400" lon="-2.83033100"><ele>113.0999984376</ele><time>2008-05-04T10:30:07Z</time></trkpt>
<trkpt lat="47.74591400" lon="-2.83037300"><ele>112.5999984216</ele><time>2008-05-04T10:30:09Z</time></trkpt>
<trkpt lat="47.74584300" lon="-2.83056300"><ele>112.5999984216</ele><time>2008-05-04T10:30:13Z</time></trkpt>
<trkpt lat="47.74596400" lon="-2.83072400"><ele>113.0999984376</ele><time>2008-05-04T10:30:17Z</time></trkpt>
<trkpt lat="47.74602400" lon="-2.83093000"><ele>112.5999984216</ele><time>2008-05-04T10:30:21Z</time></trkpt>
<trkpt lat="47.74599200" lon="-2.83110500"><ele>112.5999984216</ele><time>2008-05-04T10:30:25Z</time></trkpt>
<trkpt lat="47.74597500" lon="-2.83122900"><ele>111.6999968688</ele><time>2008-05-04T10:30:28Z</time></trkpt>
<trkpt lat="47.74604100" lon="-2.83150500"><ele>111.6999968688</ele><time>2008-05-04T10:30:33Z</time></trkpt>
<trkpt lat="47.74608500" lon="-2.83172300"><ele>111.1999968528</ele><time>2008-05-04T10:30:38Z</time></trkpt>
<trkpt lat="47.74612600" lon="-2.83193400"><ele>110.1999968208</ele><time>2008-05-04T10:30:42Z</time></trkpt>
<trkpt lat="47.74621500" lon="-2.83215200"><ele>107.8000031448</ele><time>2008-05-04T10:30:46Z</time></trkpt>
<trkpt lat="47.74623000" lon="-2.83228800"><ele>105.400001544</ele><time>2008-05-04T10:30:49Z</time></trkpt>
<trkpt lat="47.74620100" lon="-2.83254500"><ele>102.4999999272</ele><time>2008-05-04T10:30:53Z</time></trkpt>
<trkpt lat="47.74613100" lon="-2.83276200"><ele>101.0999983584</ele><time>2008-05-04T10:30:56Z</time></trkpt>
<trkpt lat="47.74600100" lon="-2.83288900"><ele>98.1999970464</ele><time>2008-05-04T10:30:59Z</time></trkpt>
<trkpt lat="47.74580500" lon="-2.83317800"><ele>96.6999969984</ele><time>2008-05-04T10:31:05Z</time></trkpt>
<trkpt lat="47.74580200" lon="-2.83321700"><ele>96.6999969984</ele><time>2008-05-04T10:31:06Z</time></trkpt>
<trkpt lat="47.74583900" lon="-2.83324300"><ele>97.6999970304</ele><time>2008-05-04T10:31:13Z</time></trkpt>
<trkpt lat="47.74589800" lon="-2.83330400"><ele>101.0999983584</ele><time>2008-05-04T10:31:18Z</time></trkpt>
<trkpt lat="47.74592500" lon="-2.83332800"><ele>101.9999999112</ele><time>2008-05-04T10:31:20Z</time></trkpt>
<trkpt lat="47.74595300" lon="-2.83336600"><ele>103.4999999592</ele><time>2008-05-04T10:31:22Z</time></trkpt>
<trkpt lat="47.74601400" lon="-2.83341600"><ele>103.9999999752</ele><time>2008-05-04T10:31:28Z</time></trkpt>
<trkpt lat="47.74607800" lon="-2.83346800"><ele>104.900001528</ele><time>2008-05-04T10:31:34Z</time></trkpt>
<trkpt lat="47.74616900" lon="-2.83354300"><ele>106.400001576</ele><time>2008-05-04T10:31:41Z</time></trkpt>
<trkpt lat="47.74621100" lon="-2.83359500"><ele>106.8000031128</ele><time>2008-05-04T10:31:45Z</time></trkpt>
<trkpt lat="47.74622200" lon="-2.83362100"><ele>106.8000031128</ele><time>2008-05-04T10:31:46Z</time></trkpt>
<trkpt lat="47.74621600" lon="-2.83370300"><ele>107.3000031288</ele><time>2008-05-04T10:31:50Z</time></trkpt>
<trkpt lat="47.74611800" lon="-2.83379500"><ele>105.90000156</ele><time>2008-05-04T10:31:55Z</time></trkpt>
<trkpt lat="47.74609900" lon="-2.83382500"><ele>105.90000156</ele><time>2008-05-04T10:31:56Z</time></trkpt>
<trkpt lat="47.74603200" lon="-2.83405400"><ele>106.400001576</ele><time>2008-05-04T10:32:02Z</time></trkpt>
<trkpt lat="47.74596600" lon="-2.83432300"><ele>106.400001576</ele><time>2008-05-04T10:32:08Z</time></trkpt>
<trkpt lat="47.74598900" lon="-2.83453200"><ele>106.400001576</ele><time>2008-05-04T10:32:13Z</time></trkpt>
<trkpt lat="47.74602600" lon="-2.83461600"><ele>106.400001576</ele><time>2008-05-04T10:32:16Z</time></trkpt>
<trkpt lat="47.74607900" lon="-2.83459500"><ele>107.8000031448</ele><time>2008-05-04T10:32:20Z</time></trkpt>
<trkpt lat="47.74620800" lon="-2.83452600"><ele>107.8000031448</ele><time>2008-05-04T10:32:27Z</time></trkpt>
<trkpt lat="47.74628300" lon="-2.83439000"><ele>107.8000031448</ele><time>2008-05-04T10:32:32Z</time></trkpt>
<trkpt lat="47.74638700" lon="-2.83441400"><ele>108.8000031768</ele><time>2008-05-04T10:32:37Z</time></trkpt>
<trkpt lat="47.74642800" lon="-2.83451700"><ele>109.1999970936</ele><time>2008-05-04T10:32:40Z</time></trkpt>
<trkpt lat="47.74646600" lon="-2.83487200"><ele>109.1999970936</ele><time>2008-05-04T10:32:48Z</time></trkpt>
<trkpt lat="47.74644800" lon="-2.83516300"><ele>109.1999970936</ele><time>2008-05-04T10:32:54Z</time></trkpt>
<trkpt lat="47.74643600" lon="-2.83543600"><ele>108.8000031768</ele><time>2008-05-04T10:33:00Z</time></trkpt>
<trkpt lat="47.74653800" lon="-2.83568400"><ele>109.1999970936</ele><time>2008-05-04T10:33:06Z</time></trkpt>
<trkpt lat="47.74668100" lon="-2.83591800"><ele>109.1999970936</ele><time>2008-05-04T10:33:12Z</time></trkpt>
<trkpt lat="47.74683300" lon="-2.83620400"><ele>109.6999968048</ele><time>2008-05-04T10:33:19Z</time></trkpt>
<trkpt lat="47.74691900" lon="-2.83635600"><ele>109.1999970936</ele><time>2008-05-04T10:33:23Z</time></trkpt>
<trkpt lat="47.74690300" lon="-2.83646800"><ele>108.8000031768</ele><time>2008-05-04T10:33:28Z</time></trkpt>
<trkpt lat="47.74679500" lon="-2.83656500"><ele>107.3000031288</ele><time>2008-05-04T10:33:32Z</time></trkpt>
<trkpt lat="47.74667600" lon="-2.83662300"><ele>105.400001544</ele><time>2008-05-04T10:33:35Z</time></trkpt>
<trkpt lat="47.74613200" lon="-2.83681300"><ele>103.9999999752</ele><time>2008-05-04T10:33:43Z</time></trkpt>
<trkpt lat="47.74575700" lon="-2.83691300"><ele>102.4999999272</ele><time>2008-05-04T10:33:49Z</time></trkpt>
<trkpt lat="47.74563500" lon="-2.83693300"><ele>100.0999983264</ele><time>2008-05-04T10:33:51Z</time></trkpt>
<trkpt lat="47.74557400" lon="-2.83694200"><ele>100.0999983264</ele><time>2008-05-04T10:33:52Z</time></trkpt>
<trkpt lat="47.74521700" lon="-2.83698000"><ele>96.6999969984</ele><time>2008-05-04T10:33:58Z</time></trkpt>
<trkpt lat="47.74496400" lon="-2.83701200"><ele>96.3000030816</ele><time>2008-05-04T10:34:03Z</time></trkpt>
<trkpt lat="47.74486000" lon="-2.83720900"><ele>94.8000030336</ele><time>2008-05-04T10:34:07Z</time></trkpt>
<trkpt lat="47.74474500" lon="-2.83753100"><ele>92.4000014328</ele><time>2008-05-04T10:34:11Z</time></trkpt>
<trkpt lat="47.74468200" lon="-2.83784200"><ele>89.5000001208</ele><time>2008-05-04T10:34:15Z</time></trkpt>
<trkpt lat="47.74464800" lon="-2.83787700"><ele>89.5000001208</ele><time>2008-05-04T10:34:16Z</time></trkpt>
<trkpt lat="47.74460300" lon="-2.83788100"><ele>89.5000001208</ele><time>2008-05-04T10:34:17Z</time></trkpt>
<trkpt lat="47.74444500" lon="-2.83786400"><ele>89.099998584</ele><time>2008-05-04T10:34:20Z</time></trkpt>
<trkpt lat="47.74407200" lon="-2.83774700"><ele>87.09999852</ele><time>2008-05-04T10:34:26Z</time></trkpt>
<trkpt lat="47.74356700" lon="-2.83754000"><ele>84.3000030024</ele><time>2008-05-04T10:34:33Z</time></trkpt>
<trkpt lat="47.74341000" lon="-2.83745500"><ele>82.3000029384</ele><time>2008-05-04T10:34:35Z</time></trkpt>
<trkpt lat="47.74307900" lon="-2.83717900"><ele>78.0000000576</ele><time>2008-05-04T10:34:39Z</time></trkpt>
<trkpt lat="47.74268400" lon="-2.83681900"><ele>75.0999984408</ele><time>2008-05-04T10:34:44Z</time></trkpt>
<trkpt lat="47.74256400" lon="-2.83671900"><ele>74.199996888</ele><time>2008-05-04T10:34:48Z</time></trkpt>
<trkpt lat="47.74256300" lon="-2.83675600"><ele>74.199996888</ele><time>2008-05-04T10:34:49Z</time></trkpt>
<trkpt lat="47.74249200" lon="-2.83695700"><ele>73.699996872</ele><time>2008-05-04T10:34:54Z</time></trkpt>
<trkpt lat="47.74240700" lon="-2.83711400"><ele>72.69999684</ele><time>2008-05-04T10:34:57Z</time></trkpt>
<trkpt lat="47.74236000" lon="-2.83717800"><ele>72.199996824</ele><time>2008-05-04T10:34:59Z</time></trkpt>
<trkpt lat="47.74230500" lon="-2.83717600"><ele>71.8000029072</ele><time>2008-05-04T10:35:03Z</time></trkpt>
<trkpt lat="47.74230100" lon="-2.83717400"><ele>71.8000029072</ele><time>2008-05-04T10:35:06Z</time></trkpt>
<trkpt lat="47.74229600" lon="-2.83717700"><ele>71.8000029072</ele><time>2008-05-04T10:35:07Z</time></trkpt>
<trkpt lat="47.74228900" lon="-2.83718100"><ele>71.8000029072</ele><time>2008-05-04T10:35:11Z</time></trkpt>
<trkpt lat="47.74228900" lon="-2.83716900"><ele>71.8000029072</ele><time>2008-05-04T10:35:12Z</time></trkpt>
<trkpt lat="47.74229000" lon="-2.83716600"><ele>71.8000029072</ele><time>2008-05-04T10:35:15Z</time></trkpt>
<trkpt lat="47.74231400" lon="-2.83719100"><ele>72.69999684</ele><time>2008-05-04T10:40:05Z</time></trkpt>
<trkpt lat="47.74231600" lon="-2.83719000"><ele>72.69999684</ele><time>2008-05-04T10:40:06Z</time></trkpt>
<trkpt lat="47.74229800" lon="-2.83716400"><ele>72.69999684</ele><time>2008-05-04T10:41:52Z</time></trkpt>
<trkpt lat="47.74230000" lon="-2.83716300"><ele>72.69999684</ele><time>2008-05-04T10:41:53Z</time></trkpt>
<trkpt lat="47.74230200" lon="-2.83716300"><ele>72.69999684</ele><time>2008-05-04T10:41:54Z</time></trkpt>
<trkpt lat="47.74232600" lon="-2.83716700"><ele>72.69999684</ele><time>2008-05-04T10:42:15Z</time></trkpt>
<trkpt lat="47.74232000" lon="-2.83719700"><ele>72.69999684</ele><time>2008-05-04T10:42:18Z</time></trkpt>
<trkpt lat="47.74232300" lon="-2.83720900"><ele>72.69999684</ele><time>2008-05-04T10:42:19Z</time></trkpt>
<trkpt lat="47.74235800" lon="-2.83725000"><ele>72.199996824</ele><time>2008-05-04T10:42:24Z</time></trkpt>
<trkpt lat="47.74239500" lon="-2.83729800"><ele>71.8000029072</ele><time>2008-05-04T10:42:31Z</time></trkpt>
<trkpt lat="47.74237300" lon="-2.83733000"><ele>71.8000029072</ele><time>2008-05-04T10:42:37Z</time></trkpt>
<trkpt lat="47.74236100" lon="-2.83734200"><ele>71.8000029072</ele><time>2008-05-04T10:42:38Z</time></trkpt>
<trkpt lat="47.74234800" lon="-2.83738200"><ele>71.8000029072</ele><time>2008-05-04T10:43:11Z</time></trkpt>
<trkpt lat="47.74234600" lon="-2.83738700"><ele>71.8000029072</ele><time>2008-05-04T10:43:12Z</time></trkpt>
<trkpt lat="47.74234200" lon="-2.83739400"><ele>71.8000029072</ele><time>2008-05-04T10:43:13Z</time></trkpt>
<trkpt lat="47.74234200" lon="-2.83735800"><ele>71.8000029072</ele><time>2008-05-04T10:43:16Z</time></trkpt>
<trkpt lat="47.74234900" lon="-2.83731200"><ele>71.8000029072</ele><time>2008-05-04T10:43:18Z</time></trkpt>
<trkpt lat="47.74235000" lon="-2.83731300"><ele>71.8000029072</ele><time>2008-05-04T10:43:19Z</time></trkpt>
<trkpt lat="47.74234600" lon="-2.83733900"><ele>71.8000029072</ele><time>2008-05-04T10:43:35Z</time></trkpt>
<trkpt lat="47.74235500" lon="-2.83732600"><ele>71.8000029072</ele><time>2008-05-04T10:43:38Z</time></trkpt>
<trkpt lat="47.74235800" lon="-2.83732200"><ele>71.8000029072</ele><time>2008-05-04T10:43:41Z</time></trkpt>
<trkpt lat="47.74236100" lon="-2.83731500"><ele>71.8000029072</ele><time>2008-05-04T10:43:43Z</time></trkpt>
<trkpt lat="47.74235900" lon="-2.83731900"><ele>71.8000029072</ele><time>2008-05-04T10:43:44Z</time></trkpt>
<trkpt lat="47.74236800" lon="-2.83730300"><ele>71.8000029072</ele><time>2008-05-04T10:43:54Z</time></trkpt>
<trkpt lat="47.74237000" lon="-2.83730300"><ele>71.8000029072</ele><time>2008-05-04T10:43:55Z</time></trkpt>
<trkpt lat="47.74237300" lon="-2.83733600"><ele>71.8000029072</ele><time>2008-05-04T10:44:09Z</time></trkpt>
<trkpt lat="47.74234500" lon="-2.83752800"><ele>71.300003196</ele><time>2008-05-04T10:44:15Z</time></trkpt>
<trkpt lat="47.74230700" lon="-2.83761400"><ele>70.300003164</ele><time>2008-05-04T10:44:17Z</time></trkpt>
<trkpt lat="47.74216700" lon="-2.83790000"><ele>69.4000016112</ele><time>2008-05-04T10:44:22Z</time></trkpt>
<trkpt lat="47.74203100" lon="-2.83817600"><ele>68.9000015952</ele><time>2008-05-04T10:44:26Z</time></trkpt>
<trkpt lat="47.74202500" lon="-2.83839700"><ele>68.9000015952</ele><time>2008-05-04T10:44:29Z</time></trkpt>
<trkpt lat="47.74195300" lon="-2.83864400"><ele>67.9000015632</ele><time>2008-05-04T10:44:33Z</time></trkpt>
<trkpt lat="47.74186400" lon="-2.83872000"><ele>67.4000015472</ele><time>2008-05-04T10:44:35Z</time></trkpt>
<trkpt lat="47.74176000" lon="-2.83877400"><ele>66.4999999944</ele><time>2008-05-04T10:44:37Z</time></trkpt>
<trkpt lat="47.74146400" lon="-2.83884700"><ele>65.4999999624</ele><time>2008-05-04T10:44:42Z</time></trkpt>
<trkpt lat="47.74100800" lon="-2.83893300"><ele>63.5999983776</ele><time>2008-05-04T10:44:49Z</time></trkpt>
<trkpt lat="47.74055800" lon="-2.83910200"><ele>62.5999983456</ele><time>2008-05-04T10:44:56Z</time></trkpt>
<trkpt lat="47.74028800" lon="-2.83922600"><ele>63.0999983616</ele><time>2008-05-04T10:45:01Z</time></trkpt>
<trkpt lat="47.74013500" lon="-2.83926700"><ele>64.0999983936</ele><time>2008-05-04T10:45:04Z</time></trkpt>
<trkpt lat="47.73999000" lon="-2.83925300"><ele>64.0999983936</ele><time>2008-05-04T10:45:07Z</time></trkpt>
<trkpt lat="47.73986600" lon="-2.83920600"><ele>64.9999999464</ele><time>2008-05-04T10:45:10Z</time></trkpt>
<trkpt lat="47.73982600" lon="-2.83918200"><ele>65.9999999784</ele><time>2008-05-04T10:45:11Z</time></trkpt>
<trkpt lat="47.73978500" lon="-2.83915800"><ele>65.9999999784</ele><time>2008-05-04T10:45:12Z</time></trkpt>
<trkpt lat="47.73946500" lon="-2.83896900"><ele>66.9000015312</ele><time>2008-05-04T10:45:20Z</time></trkpt>
<trkpt lat="47.73907400" lon="-2.83891100"><ele>68.4000015792</ele><time>2008-05-04T10:45:29Z</time></trkpt>
<trkpt lat="47.73863300" lon="-2.83890200"><ele>68.9000015952</ele><time>2008-05-04T10:45:39Z</time></trkpt>
<trkpt lat="47.73833500" lon="-2.83892000"><ele>67.4000015472</ele><time>2008-05-04T10:45:45Z</time></trkpt>
<trkpt lat="47.73795700" lon="-2.83910400"><ele>65.4999999624</ele><time>2008-05-04T10:45:51Z</time></trkpt>
<trkpt lat="47.73774100" lon="-2.83931100"><ele>63.5999983776</ele><time>2008-05-04T10:45:54Z</time></trkpt>
<trkpt lat="47.73742500" lon="-2.83967300"><ele>59.2999991544</ele><time>2008-05-04T10:45:58Z</time></trkpt>
<trkpt lat="47.73724600" lon="-2.84014500"><ele>58.7999991384</ele><time>2008-05-04T10:46:02Z</time></trkpt>
<trkpt lat="47.73730800" lon="-2.84030300"><ele>58.7999991384</ele><time>2008-05-04T10:46:04Z</time></trkpt>
<trkpt lat="47.73735900" lon="-2.84035400"><ele>59.7000006912</ele><time>2008-05-04T10:46:05Z</time></trkpt>
<trkpt lat="47.73750200" lon="-2.84063100"><ele>61.2000007392</ele><time>2008-05-04T10:46:10Z</time></trkpt>
<trkpt lat="47.73751700" lon="-2.84067700"><ele>61.2000007392</ele><time>2008-05-04T10:46:11Z</time></trkpt>
<trkpt lat="47.73758600" lon="-2.84089000"><ele>63.0999983616</ele><time>2008-05-04T10:46:15Z</time></trkpt>
<trkpt lat="47.73760800" lon="-2.84094900"><ele>63.0999983616</ele><time>2008-05-04T10:46:16Z</time></trkpt>
<trkpt lat="47.73770200" lon="-2.84125700"><ele>64.4999999304</ele><time>2008-05-04T10:46:21Z</time></trkpt>
<trkpt lat="47.73785300" lon="-2.84131400"><ele>64.4999999304</ele><time>2008-05-04T10:46:25Z</time></trkpt>
<trkpt lat="47.73825000" lon="-2.84152100"><ele>65.9999999784</ele><time>2008-05-04T10:46:35Z</time></trkpt>
<trkpt lat="47.73868100" lon="-2.84172500"><ele>67.4000015472</ele><time>2008-05-04T10:46:47Z</time></trkpt>
<trkpt lat="47.73911200" lon="-2.84185800"><ele>69.4000016112</ele><time>2008-05-04T10:47:00Z</time></trkpt>
<trkpt lat="47.73921500" lon="-2.84183300"><ele>69.4000016112</ele><time>2008-05-04T10:47:04Z</time></trkpt>
<trkpt lat="47.73921300" lon="-2.84198300"><ele>69.4000016112</ele><time>2008-05-04T10:47:08Z</time></trkpt>
<trkpt lat="47.73920900" lon="-2.84203900"><ele>68.4000015792</ele><time>2008-05-04T10:47:09Z</time></trkpt>
<trkpt lat="47.73920100" lon="-2.84220300"><ele>67.9000015632</ele><time>2008-05-04T10:47:12Z</time></trkpt>
<trkpt lat="47.73920600" lon="-2.84234900"><ele>66.9000015312</ele><time>2008-05-04T10:47:14Z</time></trkpt>
<trkpt lat="47.73921100" lon="-2.84249800"><ele>67.4000015472</ele><time>2008-05-04T10:47:16Z</time></trkpt>
<trkpt lat="47.73917500" lon="-2.84302300"><ele>66.9000015312</ele><time>2008-05-04T10:47:23Z</time></trkpt>
<trkpt lat="47.73909500" lon="-2.84353000"><ele>65.4999999624</ele><time>2008-05-04T10:47:29Z</time></trkpt>
<trkpt lat="47.73900000" lon="-2.84397700"><ele>64.4999999304</ele><time>2008-05-04T10:47:35Z</time></trkpt>
<trkpt lat="47.73898300" lon="-2.84405100"><ele>64.4999999304</ele><time>2008-05-04T10:47:36Z</time></trkpt>
<trkpt lat="47.73901200" lon="-2.84423400"><ele>64.9999999464</ele><time>2008-05-04T10:47:39Z</time></trkpt>
<trkpt lat="47.73904100" lon="-2.84424500"><ele>64.9999999464</ele><time>2008-05-04T10:47:40Z</time></trkpt>
<trkpt lat="47.73930900" lon="-2.84425600"><ele>66.9000015312</ele><time>2008-05-04T10:47:48Z</time></trkpt>
<trkpt lat="47.73942600" lon="-2.84423000"><ele>67.4000015472</ele><time>2008-05-04T10:47:53Z</time></trkpt>
<trkpt lat="47.73954900" lon="-2.84423400"><ele>68.4000015792</ele><time>2008-05-04T10:47:59Z</time></trkpt>
<trkpt lat="47.73978400" lon="-2.84419900"><ele>70.300003164</ele><time>2008-05-04T10:48:08Z</time></trkpt>
<trkpt lat="47.74004000" lon="-2.84413200"><ele>71.300003196</ele><time>2008-05-04T10:48:17Z</time></trkpt>
<trkpt lat="47.74031600" lon="-2.84406700"><ele>72.69999684</ele><time>2008-05-04T10:48:27Z</time></trkpt>
<trkpt lat="47.74056300" lon="-2.84400800"><ele>72.69999684</ele><time>2008-05-04T10:48:36Z</time></trkpt>
<trkpt lat="47.74084200" lon="-2.84393900"><ele>72.69999684</ele><time>2008-05-04T10:48:45Z</time></trkpt>
<trkpt lat="47.74121400" lon="-2.84384200"><ele>71.8000029072</ele><time>2008-05-04T10:48:53Z</time></trkpt>
<trkpt lat="47.74138800" lon="-2.84380100"><ele>70.300003164</ele><time>2008-05-04T10:48:56Z</time></trkpt>
<trkpt lat="47.74170800" lon="-2.84373000"><ele>68.9000015952</ele><time>2008-05-04T10:49:01Z</time></trkpt>
<trkpt lat="47.74194800" lon="-2.84367300"><ele>69.4000016112</ele><time>2008-05-04T10:49:05Z</time></trkpt>
<trkpt lat="47.74212400" lon="-2.84363500"><ele>68.9000015952</ele><time>2008-05-04T10:49:08Z</time></trkpt>
<trkpt lat="47.74232700" lon="-2.84349200"><ele>68.4000015792</ele><time>2008-05-04T10:49:12Z</time></trkpt>
<trkpt lat="47.74245300" lon="-2.84333500"><ele>68.4000015792</ele><time>2008-05-04T10:49:15Z</time></trkpt>
<trkpt lat="47.74276700" lon="-2.84319700"><ele>67.9000015632</ele><time>2008-05-04T10:49:22Z</time></trkpt>
<trkpt lat="47.74301500" lon="-2.84310300"><ele>68.9000015952</ele><time>2008-05-04T10:49:28Z</time></trkpt>
<trkpt lat="47.74308900" lon="-2.84306600"><ele>68.9000015952</ele><time>2008-05-04T10:49:30Z</time></trkpt>
<trkpt lat="47.74320700" lon="-2.84315200"><ele>69.4000016112</ele><time>2008-05-04T10:49:34Z</time></trkpt>
<trkpt lat="47.74342500" lon="-2.84357700"><ele>70.300003164</ele><time>2008-05-04T10:49:44Z</time></trkpt>
<trkpt lat="47.74352700" lon="-2.84386200"><ele>69.800003148</ele><time>2008-05-04T10:49:50Z</time></trkpt>
<trkpt lat="47.74362800" lon="-2.84426400"><ele>70.300003164</ele><time>2008-05-04T10:49:57Z</time></trkpt>
<trkpt lat="47.74370600" lon="-2.84482000"><ele>68.9000015952</ele><time>2008-05-04T10:50:05Z</time></trkpt>
<trkpt lat="47.74371600" lon="-2.84489500"><ele>69.4000016112</ele><time>2008-05-04T10:50:06Z</time></trkpt>
<trkpt lat="47.74373500" lon="-2.84520600"><ele>67.4000015472</ele><time>2008-05-04T10:50:10Z</time></trkpt>
<trkpt lat="47.74384900" lon="-2.84594200"><ele>65.9999999784</ele><time>2008-05-04T10:50:19Z</time></trkpt>
<trkpt lat="47.74392600" lon="-2.84647900"><ele>65.9999999784</ele><time>2008-05-04T10:50:26Z</time></trkpt>
<trkpt lat="47.74399500" lon="-2.84692600"><ele>65.4999999624</ele><time>2008-05-04T10:50:32Z</time></trkpt>
<trkpt lat="47.74408200" lon="-2.84743700"><ele>64.9999999464</ele><time>2008-05-04T10:50:39Z</time></trkpt>
<trkpt lat="47.74416200" lon="-2.84767300"><ele>65.4999999624</ele><time>2008-05-04T10:50:43Z</time></trkpt>
<trkpt lat="47.74424800" lon="-2.84764000"><ele>64.9999999464</ele><time>2008-05-04T10:50:45Z</time></trkpt>
<trkpt lat="47.74448700" lon="-2.84747600"><ele>65.4999999624</ele><time>2008-05-04T10:50:51Z</time></trkpt>
<trkpt lat="47.74456100" lon="-2.84742900"><ele>65.4999999624</ele><time>2008-05-04T10:50:53Z</time></trkpt>
<trkpt lat="47.74484000" lon="-2.84726200"><ele>65.9999999784</ele><time>2008-05-04T10:51:01Z</time></trkpt>
<trkpt lat="47.74514700" lon="-2.84704100"><ele>68.4000015792</ele><time>2008-05-04T10:51:11Z</time></trkpt>
<trkpt lat="47.74540800" lon="-2.84680300"><ele>69.800003148</ele><time>2008-05-04T10:51:22Z</time></trkpt>
<trkpt lat="47.74556400" lon="-2.84668100"><ele>72.199996824</ele><time>2008-05-04T10:51:30Z</time></trkpt>
<trkpt lat="47.74578900" lon="-2.84655400"><ele>75.5999984568</ele><time>2008-05-04T10:51:43Z</time></trkpt>
<trkpt lat="47.74599400" lon="-2.84645000"><ele>77.5000000416</ele><time>2008-05-04T10:51:56Z</time></trkpt>
<trkpt lat="47.74610700" lon="-2.84639300"><ele>79.4000016264</ele><time>2008-05-04T10:52:03Z</time></trkpt>
<trkpt lat="47.74628600" lon="-2.84630100"><ele>82.3000029384</ele><time>2008-05-04T10:52:14Z</time></trkpt>
<trkpt lat="47.74630100" lon="-2.84629500"><ele>82.3000029384</ele><time>2008-05-04T10:52:15Z</time></trkpt>
<trkpt lat="47.74640800" lon="-2.84626600"><ele>83.3000029704</ele><time>2008-05-04T10:52:22Z</time></trkpt>
<trkpt lat="47.74657900" lon="-2.84619000"><ele>84.6999969192</ele><time>2008-05-04T10:52:32Z</time></trkpt>
<trkpt lat="47.74677600" lon="-2.84608500"><ele>86.6999969832</ele><time>2008-05-04T10:52:43Z</time></trkpt>
<trkpt lat="47.74692700" lon="-2.84601400"><ele>89.5000001208</ele><time>2008-05-04T10:52:53Z</time></trkpt>
<trkpt lat="47.74705800" lon="-2.84593600"><ele>91.49999988</ele><time>2008-05-04T10:53:03Z</time></trkpt>
<trkpt lat="47.74715000" lon="-2.84589900"><ele>93.9000014808</ele><time>2008-05-04T10:53:11Z</time></trkpt>
<trkpt lat="47.74719600" lon="-2.84589800"><ele>94.8000030336</ele><time>2008-05-04T10:53:14Z</time></trkpt>
<trkpt lat="47.74730100" lon="-2.84582900"><ele>95.8000030656</ele><time>2008-05-04T10:53:23Z</time></trkpt>
<trkpt lat="47.74734400" lon="-2.84580600"><ele>96.3000030816</ele><time>2008-05-04T10:53:27Z</time></trkpt>
<trkpt lat="47.74740400" lon="-2.84576800"><ele>97.6999970304</ele><time>2008-05-04T10:53:35Z</time></trkpt>
<trkpt lat="47.74743000" lon="-2.84574700"><ele>98.1999970464</ele><time>2008-05-04T10:53:38Z</time></trkpt>
<trkpt lat="47.74749500" lon="-2.84576900"><ele>98.6999970624</ele><time>2008-05-04T10:53:44Z</time></trkpt>
<trkpt lat="47.74751600" lon="-2.84575200"><ele>98.6999970624</ele><time>2008-05-04T10:53:48Z</time></trkpt>
<trkpt lat="47.74757400" lon="-2.84564300"><ele>99.5999986152</ele><time>2008-05-04T10:53:54Z</time></trkpt>
<trkpt lat="47.74769800" lon="-2.84558500"><ele>100.5999983424</ele><time>2008-05-04T10:54:01Z</time></trkpt>
<trkpt lat="47.74778100" lon="-2.84556600"><ele>101.5999983744</ele><time>2008-05-04T10:54:06Z</time></trkpt>
<trkpt lat="47.74788500" lon="-2.84555500"><ele>102.4999999272</ele><time>2008-05-04T10:54:12Z</time></trkpt>
<trkpt lat="47.74801800" lon="-2.84546800"><ele>102.4999999272</ele><time>2008-05-04T10:54:19Z</time></trkpt>
<trkpt lat="47.74808800" lon="-2.84543700"><ele>102.9999999432</ele><time>2008-05-04T10:54:22Z</time></trkpt>
<trkpt lat="47.74812100" lon="-2.84538000"><ele>103.4999999592</ele><time>2008-05-04T10:54:25Z</time></trkpt>
<trkpt lat="47.74823200" lon="-2.84535800"><ele>103.9999999752</ele><time>2008-05-04T10:54:31Z</time></trkpt>
<trkpt lat="47.74834000" lon="-2.84558800"><ele>103.4999999592</ele><time>2008-05-04T10:54:38Z</time></trkpt>
<trkpt lat="47.74847900" lon="-2.84589300"><ele>103.4999999592</ele><time>2008-05-04T10:54:46Z</time></trkpt>
<trkpt lat="47.74867500" lon="-2.84637500"><ele>103.4999999592</ele><time>2008-05-04T10:54:57Z</time></trkpt>
<trkpt lat="47.74878600" lon="-2.84665800"><ele>101.9999999112</ele><time>2008-05-04T10:55:03Z</time></trkpt>
<trkpt lat="47.74897000" lon="-2.84710700"><ele>101.0999983584</ele><time>2008-05-04T10:55:12Z</time></trkpt>
<trkpt lat="47.74899500" lon="-2.84715900"><ele>101.0999983584</ele><time>2008-05-04T10:55:13Z</time></trkpt>
<trkpt lat="47.74914100" lon="-2.84727300"><ele>100.5999983424</ele><time>2008-05-04T10:55:17Z</time></trkpt>
<trkpt lat="47.74918600" lon="-2.84726400"><ele>100.5999983424</ele><time>2008-05-04T10:55:18Z</time></trkpt>
<trkpt lat="47.74940200" lon="-2.84718700"><ele>100.5999983424</ele><time>2008-05-04T10:55:23Z</time></trkpt>
<trkpt lat="47.74972800" lon="-2.84705200"><ele>100.0999983264</ele><time>2008-05-04T10:55:30Z</time></trkpt>
<trkpt lat="47.74991000" lon="-2.84709000"><ele>99.1999970784</ele><time>2008-05-04T10:55:34Z</time></trkpt>
<trkpt lat="47.74992600" lon="-2.84715200"><ele>99.1999970784</ele><time>2008-05-04T10:55:37Z</time></trkpt>
<trkpt lat="47.74989100" lon="-2.84711000"><ele>98.6999970624</ele><time>2008-05-04T10:55:41Z</time></trkpt>
<trkpt lat="47.74980000" lon="-2.84703400"><ele>99.1999970784</ele><time>2008-05-04T10:55:48Z</time></trkpt>
<trkpt lat="47.74978000" lon="-2.84701000"><ele>99.1999970784</ele><time>2008-05-04T10:55:50Z</time></trkpt>
<trkpt lat="47.74977600" lon="-2.84697700"><ele>99.1999970784</ele><time>2008-05-04T10:55:52Z</time></trkpt>
<trkpt lat="47.74981300" lon="-2.84689800"><ele>101.9999999112</ele><time>2008-05-04T10:55:56Z</time></trkpt>
<trkpt lat="47.74983600" lon="-2.84685000"><ele>102.4999999272</ele><time>2008-05-04T10:55:59Z</time></trkpt>
<trkpt lat="47.74986100" lon="-2.84679800"><ele>102.9999999432</ele><time>2008-05-04T10:56:02Z</time></trkpt>
<trkpt lat="47.74992400" lon="-2.84667900"><ele>103.4999999592</ele><time>2008-05-04T10:56:08Z</time></trkpt>
<trkpt lat="47.75005000" lon="-2.84653800"><ele>104.400001512</ele><time>2008-05-04T10:56:15Z</time></trkpt>
<trkpt lat="47.75011100" lon="-2.84640200"><ele>105.90000156</ele><time>2008-05-04T10:56:20Z</time></trkpt>
<trkpt lat="47.75021700" lon="-2.84619800"><ele>107.3000031288</ele><time>2008-05-04T10:56:28Z</time></trkpt>
<trkpt lat="47.75032400" lon="-2.84611700"><ele>108.3000031608</ele><time>2008-05-04T10:56:34Z</time></trkpt>
<trkpt lat="47.75042200" lon="-2.84595100"><ele>109.6999968048</ele><time>2008-05-04T10:56:41Z</time></trkpt>
<trkpt lat="47.75037900" lon="-2.84579000"><ele>111.1999968528</ele><time>2008-05-04T10:56:46Z</time></trkpt>
<trkpt lat="47.75031100" lon="-2.84554700"><ele>112.0999984056</ele><time>2008-05-04T10:56:54Z</time></trkpt>
<trkpt lat="47.75025700" lon="-2.84531700"><ele>112.5999984216</ele><time>2008-05-04T10:57:02Z</time></trkpt>
<trkpt lat="47.75022700" lon="-2.84513700"><ele>113.5999984536</ele><time>2008-05-04T10:57:08Z</time></trkpt>
<trkpt lat="47.75022100" lon="-2.84504900"><ele>113.0999984376</ele><time>2008-05-04T10:57:11Z</time></trkpt>
<trkpt lat="47.75029200" lon="-2.84497400"><ele>114.0999984696</ele><time>2008-05-04T10:57:17Z</time></trkpt>
<trkpt lat="47.75041900" lon="-2.84490200"><ele>115.0000000224</ele><time>2008-05-04T10:57:24Z</time></trkpt>
<trkpt lat="47.75055500" lon="-2.84482500"><ele>115.0000000224</ele><time>2008-05-04T10:57:30Z</time></trkpt>
<trkpt lat="47.75064200" lon="-2.84476000"><ele>115.0000000224</ele><time>2008-05-04T10:57:34Z</time></trkpt>
<trkpt lat="47.75076900" lon="-2.84470400"><ele>115.0000000224</ele><time>2008-05-04T10:57:39Z</time></trkpt>
<trkpt lat="47.75097500" lon="-2.84460800"><ele>115.0000000224</ele><time>2008-05-04T10:57:47Z</time></trkpt>
<trkpt lat="47.75115800" lon="-2.84452100"><ele>114.5000000064</ele><time>2008-05-04T10:57:53Z</time></trkpt>
<trkpt lat="47.75136400" lon="-2.84441900"><ele>114.0999984696</ele><time>2008-05-04T10:57:58Z</time></trkpt>
<trkpt lat="47.75151500" lon="-2.84442200"><ele>114.0999984696</ele><time>2008-05-04T10:58:02Z</time></trkpt>
<trkpt lat="47.75153800" lon="-2.84453200"><ele>114.5000000064</ele><time>2008-05-04T10:58:07Z</time></trkpt>
<trkpt lat="47.75150800" lon="-2.84477200"><ele>114.5000000064</ele><time>2008-05-04T10:58:13Z</time></trkpt>
<trkpt lat="47.75147100" lon="-2.84518200"><ele>114.5000000064</ele><time>2008-05-04T10:58:22Z</time></trkpt>
<trkpt lat="47.75144400" lon="-2.84554200"><ele>116.0000000544</ele><time>2008-05-04T10:58:29Z</time></trkpt>
<trkpt lat="47.75142100" lon="-2.84591300"><ele>116.0000000544</ele><time>2008-05-04T10:58:36Z</time></trkpt>
<trkpt lat="47.75144300" lon="-2.84616900"><ele>116.0000000544</ele><time>2008-05-04T10:58:41Z</time></trkpt>
<trkpt lat="47.75148000" lon="-2.84648300"><ele>116.9000016072</ele><time>2008-05-04T10:58:47Z</time></trkpt>
<trkpt lat="47.75148800" lon="-2.84683900"><ele>116.5000000704</ele><time>2008-05-04T10:58:54Z</time></trkpt>
<trkpt lat="47.75152200" lon="-2.84716900"><ele>117.4000016232</ele><time>2008-05-04T10:59:00Z</time></trkpt>
<trkpt lat="47.75158000" lon="-2.84734800"><ele>116.9000016072</ele><time>2008-05-04T10:59:04Z</time></trkpt>
<trkpt lat="47.75152000" lon="-2.84753900"><ele>116.5000000704</ele><time>2008-05-04T10:59:07Z</time></trkpt>
<trkpt lat="47.75136700" lon="-2.84771800"><ele>115.5000000384</ele><time>2008-05-04T10:59:11Z</time></trkpt>
<trkpt lat="47.75108100" lon="-2.84776800"><ele>112.5999984216</ele><time>2008-05-04T10:59:16Z</time></trkpt>
<trkpt lat="47.75083000" lon="-2.84770600"><ele>112.0999984056</ele><time>2008-05-04T10:59:20Z</time></trkpt>
<trkpt lat="47.75057800" lon="-2.84783000"><ele>110.6999968368</ele><time>2008-05-04T10:59:24Z</time></trkpt>
<trkpt lat="47.75028400" lon="-2.84786600"><ele>107.3000031288</ele><time>2008-05-04T10:59:29Z</time></trkpt>
<trkpt lat="47.75015700" lon="-2.84778400"><ele>106.400001576</ele><time>2008-05-04T10:59:31Z</time></trkpt>
<trkpt lat="47.75007600" lon="-2.84764700"><ele>104.900001528</ele><time>2008-05-04T10:59:33Z</time></trkpt>
<trkpt lat="47.75002600" lon="-2.84740100"><ele>102.9999999432</ele><time>2008-05-04T10:59:36Z</time></trkpt>
<trkpt lat="47.74996500" lon="-2.84726800"><ele>101.0999983584</ele><time>2008-05-04T10:59:39Z</time></trkpt>
<trkpt lat="47.74992700" lon="-2.84731800"><ele>100.5999983424</ele><time>2008-05-04T10:59:42Z</time></trkpt>
<trkpt lat="47.74995600" lon="-2.84757300"><ele>101.5999983744</ele><time>2008-05-04T10:59:47Z</time></trkpt>
<trkpt lat="47.74997000" lon="-2.84800100"><ele>101.9999999112</ele><time>2008-05-04T10:59:54Z</time></trkpt>
<trkpt lat="47.74994900" lon="-2.84830700"><ele>102.4999999272</ele><time>2008-05-04T11:00:00Z</time></trkpt>
<trkpt lat="47.74986900" lon="-2.84865800"><ele>102.4999999272</ele><time>2008-05-04T11:00:07Z</time></trkpt>
<trkpt lat="47.74975600" lon="-2.84917100"><ele>103.4999999592</ele><time>2008-05-04T11:00:17Z</time></trkpt>
<trkpt lat="47.74971800" lon="-2.84952900"><ele>104.400001512</ele><time>2008-05-04T11:00:24Z</time></trkpt>
<trkpt lat="47.74976000" lon="-2.84990200"><ele>104.400001512</ele><time>2008-05-04T11:00:31Z</time></trkpt>
<trkpt lat="47.74987200" lon="-2.85035300"><ele>104.400001512</ele><time>2008-05-04T11:00:40Z</time></trkpt>
<trkpt lat="47.75006400" lon="-2.85069400"><ele>104.900001528</ele><time>2008-05-04T11:00:48Z</time></trkpt>
<trkpt lat="47.75020300" lon="-2.85097000"><ele>104.900001528</ele><time>2008-05-04T11:00:54Z</time></trkpt>
<trkpt lat="47.75029800" lon="-2.85139000"><ele>104.400001512</ele><time>2008-05-04T11:01:01Z</time></trkpt>
<trkpt lat="47.75036700" lon="-2.85173800"><ele>103.9999999752</ele><time>2008-05-04T11:01:06Z</time></trkpt>
<trkpt lat="47.75041900" lon="-2.85197300"><ele>103.4999999592</ele><time>2008-05-04T11:01:09Z</time></trkpt>
<trkpt lat="47.75053500" lon="-2.85212500"><ele>101.9999999112</ele><time>2008-05-04T11:01:12Z</time></trkpt>
<trkpt lat="47.75062400" lon="-2.85206500"><ele>101.5999983744</ele><time>2008-05-04T11:01:14Z</time></trkpt>
<trkpt lat="47.75101200" lon="-2.85176300"><ele>101.9999999112</ele><time>2008-05-04T11:01:24Z</time></trkpt>
<trkpt lat="47.75125900" lon="-2.85156400"><ele>103.4999999592</ele><time>2008-05-04T11:01:32Z</time></trkpt>
<trkpt lat="47.75148900" lon="-2.85139100"><ele>104.400001512</ele><time>2008-05-04T11:01:41Z</time></trkpt>
<trkpt lat="47.75162600" lon="-2.85130200"><ele>105.400001544</ele><time>2008-05-04T11:01:47Z</time></trkpt>
<trkpt lat="47.75175400" lon="-2.85122500"><ele>105.400001544</ele><time>2008-05-04T11:01:52Z</time></trkpt>
<trkpt lat="47.75198600" lon="-2.85108700"><ele>106.8000031128</ele><time>2008-05-04T11:02:02Z</time></trkpt>
<trkpt lat="47.75215300" lon="-2.85097000"><ele>108.3000031608</ele><time>2008-05-04T11:02:09Z</time></trkpt>
<trkpt lat="47.75235400" lon="-2.85085300"><ele>109.1999970936</ele><time>2008-05-04T11:02:17Z</time></trkpt>
<trkpt lat="47.75252800" lon="-2.85070300"><ele>109.6999968048</ele><time>2008-05-04T11:02:24Z</time></trkpt>
<trkpt lat="47.75268100" lon="-2.85054100"><ele>109.6999968048</ele><time>2008-05-04T11:02:30Z</time></trkpt>
<trkpt lat="47.75281100" lon="-2.85045700"><ele>110.6999968368</ele><time>2008-05-04T11:02:35Z</time></trkpt>
<trkpt lat="47.75293800" lon="-2.85036200"><ele>111.6999968688</ele><time>2008-05-04T11:02:40Z</time></trkpt>
<trkpt lat="47.75316000" lon="-2.85018000"><ele>112.5999984216</ele><time>2008-05-04T11:02:48Z</time></trkpt>
<trkpt lat="47.75338300" lon="-2.85003300"><ele>113.5999984536</ele><time>2008-05-04T11:02:55Z</time></trkpt>
<trkpt lat="47.75354900" lon="-2.84993300"><ele>114.0999984696</ele><time>2008-05-04T11:03:01Z</time></trkpt>
<trkpt lat="47.75370500" lon="-2.84983600"><ele>114.0999984696</ele><time>2008-05-04T11:03:07Z</time></trkpt>
<trkpt lat="47.75388700" lon="-2.84969100"><ele>114.5000000064</ele><time>2008-05-04T11:03:13Z</time></trkpt>
<trkpt lat="47.75401000" lon="-2.84959800"><ele>115.0000000224</ele><time>2008-05-04T11:03:17Z</time></trkpt>
<trkpt lat="47.75412200" lon="-2.84948700"><ele>115.5000000384</ele><time>2008-05-04T11:03:21Z</time></trkpt>
<trkpt lat="47.75431800" lon="-2.84932200"><ele>116.0000000544</ele><time>2008-05-04T11:03:28Z</time></trkpt>
<trkpt lat="47.75448000" lon="-2.84923500"><ele>116.5000000704</ele><time>2008-05-04T11:03:34Z</time></trkpt>
<trkpt lat="47.75469900" lon="-2.84911400"><ele>117.9000016392</ele><time>2008-05-04T11:03:41Z</time></trkpt>
<trkpt lat="47.75478900" lon="-2.84907800"><ele>118.4000016552</ele><time>2008-05-04T11:03:43Z</time></trkpt>
<trkpt lat="47.75483300" lon="-2.84913500"><ele>118.4000016552</ele><time>2008-05-04T11:03:48Z</time></trkpt>
<trkpt lat="47.75481000" lon="-2.84917500"><ele>117.9000016392</ele><time>2008-05-04T11:03:50Z</time></trkpt>
<trkpt lat="47.75469000" lon="-2.84937400"><ele>117.9000016392</ele><time>2008-05-04T11:03:57Z</time></trkpt>
<trkpt lat="47.75465200" lon="-2.84946900"><ele>117.9000016392</ele><time>2008-05-04T11:04:02Z</time></trkpt>
<trkpt lat="47.75471000" lon="-2.84942900"><ele>117.9000016392</ele><time>2008-05-04T11:06:14Z</time></trkpt>
<trkpt lat="47.75471100" lon="-2.84942500"><ele>117.9000016392</ele><time>2008-05-04T11:06:15Z</time></trkpt>
<trkpt lat="47.75471100" lon="-2.84942200"><ele>117.9000016392</ele><time>2008-05-04T11:06:16Z</time></trkpt>
<trkpt lat="47.75470200" lon="-2.84939600"><ele>117.9000016392</ele><time>2008-05-04T11:06:57Z</time></trkpt>
<trkpt lat="47.75470000" lon="-2.84939600"><ele>117.9000016392</ele><time>2008-05-04T11:06:58Z</time></trkpt>
<trkpt lat="47.75468900" lon="-2.84940200"><ele>117.9000016392</ele><time>2008-05-04T11:07:45Z</time></trkpt>
<trkpt lat="47.75469100" lon="-2.84939900"><ele>117.9000016392</ele><time>2008-05-04T11:07:46Z</time></trkpt>
<trkpt lat="47.75468100" lon="-2.84945900"><ele>118.9000016712</ele><time>2008-05-04T11:09:11Z</time></trkpt>
<trkpt lat="47.75468000" lon="-2.84945800"><ele>118.9000016712</ele><time>2008-05-04T11:09:12Z</time></trkpt>
<trkpt lat="47.75468100" lon="-2.84945800"><ele>118.9000016712</ele><time>2008-05-04T11:09:13Z</time></trkpt>
<trkpt lat="47.75468200" lon="-2.84945800"><ele>118.9000016712</ele><time>2008-05-04T11:09:16Z</time></trkpt>
<trkpt lat="47.75468200" lon="-2.84945700"><ele>118.9000016712</ele><time>2008-05-04T11:09:17Z</time></trkpt>
<trkpt lat="47.75467800" lon="-2.84945900"><ele>118.9000016712</ele><time>2008-05-04T11:09:24Z</time></trkpt>
<trkpt lat="47.75466000" lon="-2.84957500"><ele>118.9000016712</ele><time>2008-05-04T11:09:27Z</time></trkpt>
<trkpt lat="47.75473800" lon="-2.84979200"><ele>119.3000029032</ele><time>2008-05-04T11:09:32Z</time></trkpt>
<trkpt lat="47.75478600" lon="-2.84994000"><ele>119.8000029192</ele><time>2008-05-04T11:09:35Z</time></trkpt>
<trkpt lat="47.75492800" lon="-2.85028400"><ele>119.8000029192</ele><time>2008-05-04T11:09:42Z</time></trkpt>
<trkpt lat="47.75488200" lon="-2.85048600"><ele>119.3000029032</ele><time>2008-05-04T11:09:46Z</time></trkpt>
<trkpt lat="47.75470600" lon="-2.85068700"><ele>118.9000016712</ele><time>2008-05-04T11:09:51Z</time></trkpt>
<trkpt lat="47.75457600" lon="-2.85080100"><ele>118.4000016552</ele><time>2008-05-04T11:09:54Z</time></trkpt>
<trkpt lat="47.75443400" lon="-2.85096900"><ele>117.9000016392</ele><time>2008-05-04T11:09:58Z</time></trkpt>
<trkpt lat="47.75432800" lon="-2.85127400"><ele>117.9000016392</ele><time>2008-05-04T11:10:03Z</time></trkpt>
<trkpt lat="47.75430300" lon="-2.85146800"><ele>117.9000016392</ele><time>2008-05-04T11:10:06Z</time></trkpt>
<trkpt lat="47.75439800" lon="-2.85168900"><ele>117.9000016392</ele><time>2008-05-04T11:10:11Z</time></trkpt>
<trkpt lat="47.75444800" lon="-2.85176700"><ele>117.9000016392</ele><time>2008-05-04T11:10:13Z</time></trkpt>
<trkpt lat="47.75460000" lon="-2.85198300"><ele>117.9000016392</ele><time>2008-05-04T11:10:19Z</time></trkpt>
<trkpt lat="47.75468100" lon="-2.85212900"><ele>117.4000016232</ele><time>2008-05-04T11:10:24Z</time></trkpt>
<trkpt lat="47.75469300" lon="-2.85229100"><ele>116.9000016072</ele><time>2008-05-04T11:10:28Z</time></trkpt>
<trkpt lat="47.75475100" lon="-2.85244500"><ele>116.9000016072</ele><time>2008-05-04T11:10:32Z</time></trkpt>
<trkpt lat="47.75488100" lon="-2.85263900"><ele>116.9000016072</ele><time>2008-05-04T11:10:37Z</time></trkpt>
<trkpt lat="47.75500400" lon="-2.85284900"><ele>116.5000000704</ele><time>2008-05-04T11:10:42Z</time></trkpt>
<trkpt lat="47.75501800" lon="-2.85297100"><ele>116.0000000544</ele><time>2008-05-04T11:10:45Z</time></trkpt>
<trkpt lat="47.75499300" lon="-2.85319700"><ele>115.0000000224</ele><time>2008-05-04T11:10:49Z</time></trkpt>
<trkpt lat="47.75494200" lon="-2.85341400"><ele>115.0000000224</ele><time>2008-05-04T11:10:52Z</time></trkpt>
<trkpt lat="47.75485100" lon="-2.85372500"><ele>113.5999984536</ele><time>2008-05-04T11:10:56Z</time></trkpt>
<trkpt lat="47.75482400" lon="-2.85397600"><ele>113.0999984376</ele><time>2008-05-04T11:10:59Z</time></trkpt>
<trkpt lat="47.75472800" lon="-2.85425100"><ele>111.6999968688</ele><time>2008-05-04T11:11:04Z</time></trkpt>
<trkpt lat="47.75466700" lon="-2.85445300"><ele>111.1999968528</ele><time>2008-05-04T11:11:07Z</time></trkpt>
<trkpt lat="47.75463300" lon="-2.85461300"><ele>110.6999968368</ele><time>2008-05-04T11:11:09Z</time></trkpt>
<trkpt lat="47.75450700" lon="-2.85486900"><ele>108.8000031768</ele><time>2008-05-04T11:11:13Z</time></trkpt>
<trkpt lat="47.75438700" lon="-2.85505400"><ele>109.1999970936</ele><time>2008-05-04T11:11:16Z</time></trkpt>
<trkpt lat="47.75429400" lon="-2.85532100"><ele>105.90000156</ele><time>2008-05-04T11:11:21Z</time></trkpt>
<trkpt lat="47.75430700" lon="-2.85552500"><ele>105.400001544</ele><time>2008-05-04T11:11:25Z</time></trkpt>
<trkpt lat="47.75436700" lon="-2.85558400"><ele>106.400001576</ele><time>2008-05-04T11:11:29Z</time></trkpt>
<trkpt lat="47.75438400" lon="-2.85557800"><ele>106.400001576</ele><time>2008-05-04T11:11:30Z</time></trkpt>
<trkpt lat="47.75444100" lon="-2.85554500"><ele>107.8000031448</ele><time>2008-05-04T11:11:33Z</time></trkpt>
<trkpt lat="47.75449000" lon="-2.85540000"><ele>108.3000031608</ele><time>2008-05-04T11:11:37Z</time></trkpt>
<trkpt lat="47.75455100" lon="-2.85526100"><ele>108.8000031768</ele><time>2008-05-04T11:11:42Z</time></trkpt>
<trkpt lat="47.75457400" lon="-2.85525000"><ele>108.8000031768</ele><time>2008-05-04T11:11:43Z</time></trkpt>
<trkpt lat="47.75479900" lon="-2.85522900"><ele>109.6999968048</ele><time>2008-05-04T11:11:49Z</time></trkpt>
<trkpt lat="47.75498100" lon="-2.85521600"><ele>110.1999968208</ele><time>2008-05-04T11:11:54Z</time></trkpt>
<trkpt lat="47.75517600" lon="-2.85521900"><ele>110.1999968208</ele><time>2008-05-04T11:11:59Z</time></trkpt>
<trkpt lat="47.75542900" lon="-2.85525600"><ele>110.1999968208</ele><time>2008-05-04T11:12:05Z</time></trkpt>
<trkpt lat="47.75569100" lon="-2.85524600"><ele>109.1999970936</ele><time>2008-05-04T11:12:11Z</time></trkpt>
<trkpt lat="47.75577800" lon="-2.85528700"><ele>108.8000031768</ele><time>2008-05-04T11:12:13Z</time></trkpt>
<trkpt lat="47.75598700" lon="-2.85541900"><ele>106.8000031128</ele><time>2008-05-04T11:12:17Z</time></trkpt>
<trkpt lat="47.75609400" lon="-2.85546300"><ele>104.900001528</ele><time>2008-05-04T11:12:19Z</time></trkpt>
<trkpt lat="47.75616800" lon="-2.85553400"><ele>101.5999983744</ele><time>2008-05-04T11:12:22Z</time></trkpt>
<trkpt lat="47.75616200" lon="-2.85546500"><ele>104.900001528</ele><time>2008-05-04T11:12:26Z</time></trkpt>
<trkpt lat="47.75615200" lon="-2.85530200"><ele>107.8000031448</ele><time>2008-05-04T11:12:33Z</time></trkpt>
<trkpt lat="47.75617000" lon="-2.85517900"><ele>109.1999970936</ele><time>2008-05-04T11:12:39Z</time></trkpt>
<trkpt lat="47.75621800" lon="-2.85513000"><ele>108.8000031768</ele><time>2008-05-04T11:12:42Z</time></trkpt>
<trkpt lat="47.75633200" lon="-2.85514800"><ele>105.400001544</ele><time>2008-05-04T11:12:47Z</time></trkpt>
<trkpt lat="47.75636400" lon="-2.85516000"><ele>105.90000156</ele><time>2008-05-04T11:12:48Z</time></trkpt>
<trkpt lat="47.75643800" lon="-2.85514800"><ele>105.400001544</ele><time>2008-05-04T11:12:50Z</time></trkpt>
<trkpt lat="47.75664000" lon="-2.85509600"><ele>104.400001512</ele><time>2008-05-04T11:12:55Z</time></trkpt>
<trkpt lat="47.75673800" lon="-2.85508500"><ele>103.9999999752</ele><time>2008-05-04T11:12:57Z</time></trkpt>
<trkpt lat="47.75706700" lon="-2.85490400"><ele>103.4999999592</ele><time>2008-05-04T11:13:01Z</time></trkpt>
<trkpt lat="47.75716100" lon="-2.85476100"><ele>103.4999999592</ele><time>2008-05-04T11:13:05Z</time></trkpt>
<trkpt lat="47.75706600" lon="-2.85477500"><ele>103.9999999752</ele><time>2008-05-04T11:13:11Z</time></trkpt>
<trkpt lat="47.75706200" lon="-2.85478200"><ele>103.9999999752</ele><time>2008-05-04T11:13:12Z</time></trkpt>
<trkpt lat="47.75703900" lon="-2.85481300"><ele>103.4999999592</ele><time>2008-05-04T11:13:22Z</time></trkpt>
<trkpt lat="47.75702100" lon="-2.85483900"><ele>103.4999999592</ele><time>2008-05-04T11:13:23Z</time></trkpt>
<trkpt lat="47.75696300" lon="-2.85500200"><ele>101.0999983584</ele><time>2008-05-04T11:13:28Z</time></trkpt>
<trkpt lat="47.75695000" lon="-2.85503500"><ele>101.0999983584</ele><time>2008-05-04T11:13:29Z</time></trkpt>
<trkpt lat="47.75685500" lon="-2.85523200"><ele>100.0999983264</ele><time>2008-05-04T11:13:34Z</time></trkpt>
<trkpt lat="47.75678000" lon="-2.85530600"><ele>99.5999986152</ele><time>2008-05-04T11:13:36Z</time></trkpt>
<trkpt lat="47.75658600" lon="-2.85550700"><ele>99.5999986152</ele><time>2008-05-04T11:13:41Z</time></trkpt>
<trkpt lat="47.75634100" lon="-2.85579900"><ele>97.6999970304</ele><time>2008-05-04T11:13:47Z</time></trkpt>
<trkpt lat="47.75631200" lon="-2.85583800"><ele>97.6999970304</ele><time>2008-05-04T11:13:48Z</time></trkpt>
<trkpt lat="47.75630100" lon="-2.85601700"><ele>97.1999970144</ele><time>2008-05-04T11:13:53Z</time></trkpt>
<trkpt lat="47.75622900" lon="-2.85619200"><ele>97.6999970304</ele><time>2008-05-04T11:13:57Z</time></trkpt>
<trkpt lat="47.75605700" lon="-2.85642800"><ele>97.1999970144</ele><time>2008-05-04T11:14:01Z</time></trkpt>
<trkpt lat="47.75589200" lon="-2.85662700"><ele>97.1999970144</ele><time>2008-05-04T11:14:05Z</time></trkpt>
<trkpt lat="47.75568200" lon="-2.85695900"><ele>95.8000030656</ele><time>2008-05-04T11:14:11Z</time></trkpt>
<trkpt lat="47.75554800" lon="-2.85714400"><ele>94.8000030336</ele><time>2008-05-04T11:14:14Z</time></trkpt>
<trkpt lat="47.75529300" lon="-2.85746500"><ele>93.9000014808</ele><time>2008-05-04T11:14:19Z</time></trkpt>
<trkpt lat="47.75499800" lon="-2.85787300"><ele>92.9000014488</ele><time>2008-05-04T11:14:25Z</time></trkpt>
<trkpt lat="47.75473500" lon="-2.85827200"><ele>92.4000014328</ele><time>2008-05-04T11:14:30Z</time></trkpt>
<trkpt lat="47.75456100" lon="-2.85858900"><ele>92.4000014328</ele><time>2008-05-04T11:14:34Z</time></trkpt>
<trkpt lat="47.75438800" lon="-2.85879500"><ele>90.499999848</ele><time>2008-05-04T11:14:38Z</time></trkpt>
<trkpt lat="47.75416500" lon="-2.85907000"><ele>89.5000001208</ele><time>2008-05-04T11:14:43Z</time></trkpt>
<trkpt lat="47.75410700" lon="-2.85918900"><ele>89.5000001208</ele><time>2008-05-04T11:14:45Z</time></trkpt>
<trkpt lat="47.75396300" lon="-2.85947800"><ele>88.599998568</ele><time>2008-05-04T11:14:50Z</time></trkpt>
<trkpt lat="47.75369000" lon="-2.85993000"><ele>88.099998552</ele><time>2008-05-04T11:14:56Z</time></trkpt>
<trkpt lat="47.75353700" lon="-2.86019000"><ele>87.599998536</ele><time>2008-05-04T11:15:00Z</time></trkpt>
<trkpt lat="47.75335000" lon="-2.86049900"><ele>88.099998552</ele><time>2008-05-04T11:15:05Z</time></trkpt>
<trkpt lat="47.75314900" lon="-2.86084200"><ele>86.6999969832</ele><time>2008-05-04T11:15:10Z</time></trkpt>
<trkpt lat="47.75308000" lon="-2.86097800"><ele>86.6999969832</ele><time>2008-05-04T11:15:12Z</time></trkpt>
<trkpt lat="47.75294600" lon="-2.86132800"><ele>85.6999969512</ele><time>2008-05-04T11:15:17Z</time></trkpt>
<trkpt lat="47.75292700" lon="-2.86164200"><ele>85.6999969512</ele><time>2008-05-04T11:15:21Z</time></trkpt>
<trkpt lat="47.75293900" lon="-2.86184800"><ele>83.8000029864</ele><time>2008-05-04T11:15:24Z</time></trkpt>
<trkpt lat="47.75285000" lon="-2.86214100"><ele>83.3000029704</ele><time>2008-05-04T11:15:28Z</time></trkpt>
<trkpt lat="47.75270700" lon="-2.86234200"><ele>82.3000029384</ele><time>2008-05-04T11:15:31Z</time></trkpt>
<trkpt lat="47.75256900" lon="-2.86252500"><ele>81.8000029224</ele><time>2008-05-04T11:15:34Z</time></trkpt>
<trkpt lat="47.75246700" lon="-2.86266900"><ele>81.4000013856</ele><time>2008-05-04T11:15:36Z</time></trkpt>
<trkpt lat="47.75215000" lon="-2.86286300"><ele>79.9000016424</ele><time>2008-05-04T11:15:41Z</time></trkpt>
<trkpt lat="47.75192800" lon="-2.86284800"><ele>79.9000016424</ele><time>2008-05-04T11:15:44Z</time></trkpt>
<trkpt lat="47.75161200" lon="-2.86290400"><ele>79.9000016424</ele><time>2008-05-04T11:15:49Z</time></trkpt>
<trkpt lat="47.75154900" lon="-2.86315300"><ele>79.4000016264</ele><time>2008-05-04T11:15:52Z</time></trkpt>
<trkpt lat="47.75155200" lon="-2.86324400"><ele>79.9000016424</ele><time>2008-05-04T11:15:53Z</time></trkpt>
<trkpt lat="47.75158800" lon="-2.86367800"><ele>80.4000016584</ele><time>2008-05-04T11:15:58Z</time></trkpt>
<trkpt lat="47.75159600" lon="-2.86376100"><ele>79.9000016424</ele><time>2008-05-04T11:15:59Z</time></trkpt>
<trkpt lat="47.75170500" lon="-2.86405200"><ele>79.9000016424</ele><time>2008-05-04T11:16:03Z</time></trkpt>
<trkpt lat="47.75180700" lon="-2.86406300"><ele>80.9000016744</ele><time>2008-05-04T11:16:05Z</time></trkpt>
<trkpt lat="47.75189300" lon="-2.86402100"><ele>81.4000013856</ele><time>2008-05-04T11:16:07Z</time></trkpt>
<trkpt lat="47.75209500" lon="-2.86390600"><ele>82.8000029544</ele><time>2008-05-04T11:16:14Z</time></trkpt>
<trkpt lat="47.75225500" lon="-2.86380800"><ele>84.6999969192</ele><time>2008-05-04T11:16:20Z</time></trkpt>
<trkpt lat="47.75244500" lon="-2.86378900"><ele>87.09999852</ele><time>2008-05-04T11:16:26Z</time></trkpt>
<trkpt lat="47.75258000" lon="-2.86393100"><ele>88.099998552</ele><time>2008-05-04T11:16:32Z</time></trkpt>
<trkpt lat="47.75274600" lon="-2.86419500"><ele>90.0000001368</ele><time>2008-05-04T11:16:41Z</time></trkpt>
<trkpt lat="47.75287600" lon="-2.86423900"><ele>90.499999848</ele><time>2008-05-04T11:16:47Z</time></trkpt>
<trkpt lat="47.75310000" lon="-2.86419100"><ele>91.9000014168</ele><time>2008-05-04T11:16:57Z</time></trkpt>
<trkpt lat="47.75330900" lon="-2.86413100"><ele>93.4000014648</ele><time>2008-05-04T11:17:07Z</time></trkpt>
<trkpt lat="47.75355800" lon="-2.86407400"><ele>96.3000030816</ele><time>2008-05-04T11:17:18Z</time></trkpt>
<trkpt lat="47.75376900" lon="-2.86404600"><ele>96.3000030816</ele><time>2008-05-04T11:17:28Z</time></trkpt>
<trkpt lat="47.75389900" lon="-2.86402900"><ele>97.6999970304</ele><time>2008-05-04T11:17:35Z</time></trkpt>
<trkpt lat="47.75402100" lon="-2.86399100"><ele>99.1999970784</ele><time>2008-05-04T11:17:41Z</time></trkpt>
<trkpt lat="47.75405300" lon="-2.86397700"><ele>99.5999986152</ele><time>2008-05-04T11:17:43Z</time></trkpt>
<trkpt lat="47.75416600" lon="-2.86391300"><ele>100.5999983424</ele><time>2008-05-04T11:17:49Z</time></trkpt>
<trkpt lat="47.75427900" lon="-2.86383000"><ele>101.0999983584</ele><time>2008-05-04T11:17:55Z</time></trkpt>
<trkpt lat="47.75442000" lon="-2.86372100"><ele>101.9999999112</ele><time>2008-05-04T11:18:01Z</time></trkpt>
<trkpt lat="47.75460500" lon="-2.86357400"><ele>103.4999999592</ele><time>2008-05-04T11:18:09Z</time></trkpt>
<trkpt lat="47.75482600" lon="-2.86343500"><ele>104.400001512</ele><time>2008-05-04T11:18:18Z</time></trkpt>
<trkpt lat="47.75501900" lon="-2.86342700"><ele>104.900001528</ele><time>2008-05-04T11:18:24Z</time></trkpt>
<trkpt lat="47.75527300" lon="-2.86349300"><ele>105.400001544</ele><time>2008-05-04T11:18:32Z</time></trkpt>
<trkpt lat="47.75552300" lon="-2.86359200"><ele>106.8000031128</ele><time>2008-05-04T11:18:40Z</time></trkpt>
<trkpt lat="47.75578200" lon="-2.86362700"><ele>108.3000031608</ele><time>2008-05-04T11:18:48Z</time></trkpt>
<trkpt lat="47.75605800" lon="-2.86359700"><ele>110.1999968208</ele><time>2008-05-04T11:18:57Z</time></trkpt>
<trkpt lat="47.75630600" lon="-2.86353500"><ele>110.1999968208</ele><time>2008-05-04T11:19:05Z</time></trkpt>
<trkpt lat="47.75646700" lon="-2.86340800"><ele>111.1999968528</ele><time>2008-05-04T11:19:11Z</time></trkpt>
<trkpt lat="47.75669700" lon="-2.86327700"><ele>111.1999968528</ele><time>2008-05-04T11:19:18Z</time></trkpt>
<trkpt lat="47.75688800" lon="-2.86311400"><ele>112.5999984216</ele><time>2008-05-04T11:19:25Z</time></trkpt>
<trkpt lat="47.75700200" lon="-2.86284100"><ele>114.0999984696</ele><time>2008-05-04T11:19:32Z</time></trkpt>
<trkpt lat="47.75712100" lon="-2.86270900"><ele>114.5000000064</ele><time>2008-05-04T11:19:37Z</time></trkpt>
<trkpt lat="47.75729900" lon="-2.86277700"><ele>114.5000000064</ele><time>2008-05-04T11:19:43Z</time></trkpt>
<trkpt lat="47.75735800" lon="-2.86277800"><ele>114.0999984696</ele><time>2008-05-04T11:19:45Z</time></trkpt>
<trkpt lat="47.75741200" lon="-2.86266500"><ele>113.5999984536</ele><time>2008-05-04T11:19:49Z</time></trkpt>
<trkpt lat="47.75738400" lon="-2.86230300"><ele>115.0000000224</ele><time>2008-05-04T11:19:57Z</time></trkpt>
<trkpt lat="47.75733800" lon="-2.86173000"><ele>115.5000000384</ele><time>2008-05-04T11:20:07Z</time></trkpt>
<trkpt lat="47.75730100" lon="-2.86128000"><ele>114.0999984696</ele><time>2008-05-04T11:20:14Z</time></trkpt>
<trkpt lat="47.75724500" lon="-2.86077500"><ele>113.5999984536</ele><time>2008-05-04T11:20:22Z</time></trkpt>
<trkpt lat="47.75717800" lon="-2.86023600"><ele>114.0999984696</ele><time>2008-05-04T11:20:30Z</time></trkpt>
<trkpt lat="47.75707400" lon="-2.85982200"><ele>114.0999984696</ele><time>2008-05-04T11:20:37Z</time></trkpt>
<trkpt lat="47.75704200" lon="-2.85949100"><ele>114.0999984696</ele><time>2008-05-04T11:20:42Z</time></trkpt>
<trkpt lat="47.75711600" lon="-2.85926200"><ele>115.0000000224</ele><time>2008-05-04T11:20:46Z</time></trkpt>
<trkpt lat="47.75724300" lon="-2.85919200"><ele>116.0000000544</ele><time>2008-05-04T11:20:49Z</time></trkpt>
<trkpt lat="47.75748700" lon="-2.85915600"><ele>117.4000016232</ele><time>2008-05-04T11:20:55Z</time></trkpt>
<trkpt lat="47.75786900" lon="-2.85908000"><ele>118.4000016552</ele><time>2008-05-04T11:21:04Z</time></trkpt>
<trkpt lat="47.75822400" lon="-2.85900800"><ele>119.8000029192</ele><time>2008-05-04T11:21:12Z</time></trkpt>
<trkpt lat="47.75856700" lon="-2.85894300"><ele>120.8000029512</ele><time>2008-05-04T11:21:20Z</time></trkpt>
<trkpt lat="47.75891000" lon="-2.85886900"><ele>122.699996916</ele><time>2008-05-04T11:21:29Z</time></trkpt>
<trkpt lat="47.75911800" lon="-2.85883600"><ele>123.199996932</ele><time>2008-05-04T11:21:36Z</time></trkpt>
<trkpt lat="47.75934600" lon="-2.85878300"><ele>123.699996948</ele><time>2008-05-04T11:21:44Z</time></trkpt>
<trkpt lat="47.75945000" lon="-2.85877500"><ele>124.5999985008</ele><time>2008-05-04T11:21:48Z</time></trkpt>
<trkpt lat="47.75949300" lon="-2.85882800"><ele>124.0999984848</ele><time>2008-05-04T11:21:52Z</time></trkpt>
<trkpt lat="47.75951800" lon="-2.85889300"><ele>124.0999984848</ele><time>2008-05-04T11:21:57Z</time></trkpt>
<trkpt lat="47.75953000" lon="-2.85900100"><ele>124.5999985008</ele><time>2008-05-04T11:22:02Z</time></trkpt>
<trkpt lat="47.75953300" lon="-2.85910000"><ele>124.5999985008</ele><time>2008-05-04T11:22:07Z</time></trkpt>
<trkpt lat="47.75952800" lon="-2.85911400"><ele>124.5999985008</ele><time>2008-05-04T11:22:10Z</time></trkpt>
</trkseg></trk></gpx>